<?xml version="1.0" encoding="UTF-8" standalone="no" ?><gpx xmlns="http://www.topografix.com/GPX/1/1" xmlns:gpxx="http://www.garmin.com/xmlschemas/GpxExtensions/v3" xmlns:gpxtpx="http://www.garmin.com/xmlschemas/TrackPointExtension/v1" creator="Oregon 400t" version="1.1" xmlns:xsi="http://www.w3.org/2001/XMLSchema-instance" xsi:schemaLocation="http://www.topografix.com/GPX/1/1 http://www.topografix.com/GPX/1/1/gpx.xsd http://www.garmin.com/xmlschemas/GpxExtensions/v3 http://www.garmin.com/xmlschemas/GpxExtensionsv3.xsd http://www.garmin.com/xmlschemas/TrackPointExtension/v1 http://www.garmin.com/xmlschemas/TrackPointExtensionv1.xsd"><metadata><link href="http://www.garmin.com"><text>Garmin International</text></link><time>2010-06-06T15:12:54Z</time></metadata><trk><name>JUN-06-10 17:12:52</name><trkseg><trkpt lat="47.587566" lon="9.948617"><ele>783.61</ele><time>2010-06-06T07:33:04Z</time></trkpt><trkpt lat="47.587443" lon="9.948628"><ele>787.46</ele><time>2010-06-06T07:33:19Z</time></trkpt><trkpt lat="47.587435" lon="9.948633"><ele>788.90</ele><time>2010-06-06T07:33:37Z</time></trkpt><trkpt lat="47.587380" lon="9.948711"><ele>789.86</ele><time>2010-06-06T07:33:45Z</time></trkpt><trkpt lat="47.587270" lon="9.948694"><ele>792.26</ele><time>2010-06-06T07:33:53Z</time></trkpt><trkpt lat="47.587226" lon="9.948736"><ele>792.26</ele><time>2010-06-06T07:33:57Z</time></trkpt><trkpt lat="47.587258" lon="9.948925"><ele>792.74</ele><time>2010-06-06T07:34:04Z</time></trkpt><trkpt lat="47.587432" lon="9.949399"><ele>793.22</ele><time>2010-06-06T07:34:20Z</time></trkpt><trkpt lat="47.587588" lon="9.949821"><ele>793.71</ele><time>2010-06-06T07:34:32Z</time></trkpt><trkpt lat="47.587631" lon="9.950067"><ele>793.71</ele><time>2010-06-06T07:34:38Z</time></trkpt><trkpt lat="47.587845" lon="9.950305"><ele>793.22</ele><time>2010-06-06T07:34:47Z</time></trkpt><trkpt lat="47.587941" lon="9.951166"><ele>794.67</ele><time>2010-06-06T07:35:05Z</time></trkpt><trkpt lat="47.587994" lon="9.951727"><ele>796.59</ele><time>2010-06-06T07:35:19Z</time></trkpt><trkpt lat="47.588002" lon="9.952227"><ele>797.55</ele><time>2010-06-06T07:35:32Z</time></trkpt><trkpt lat="47.588035" lon="9.952775"><ele>798.99</ele><time>2010-06-06T07:35:46Z</time></trkpt><trkpt lat="47.588136" lon="9.953492"><ele>801.40</ele><time>2010-06-06T07:36:06Z</time></trkpt><trkpt lat="47.588162" lon="9.953907"><ele>804.28</ele><time>2010-06-06T07:36:20Z</time></trkpt><trkpt lat="47.588178" lon="9.954352"><ele>806.20</ele><time>2010-06-06T07:36:36Z</time></trkpt><trkpt lat="47.587896" lon="9.954419"><ele>807.16</ele><time>2010-06-06T07:36:50Z</time></trkpt><trkpt lat="47.587502" lon="9.954542"><ele>806.20</ele><time>2010-06-06T07:37:04Z</time></trkpt><trkpt lat="47.586977" lon="9.954882"><ele>805.72</ele><time>2010-06-06T07:37:21Z</time></trkpt><trkpt lat="47.586497" lon="9.955293"><ele>805.72</ele><time>2010-06-06T07:37:36Z</time></trkpt><trkpt lat="47.586093" lon="9.955765"><ele>806.20</ele><time>2010-06-06T07:37:49Z</time></trkpt><trkpt lat="47.585987" lon="9.955855"><ele>805.72</ele><time>2010-06-06T07:37:52Z</time></trkpt><trkpt lat="47.585347" lon="9.956076"><ele>805.72</ele><time>2010-06-06T07:38:08Z</time></trkpt><trkpt lat="47.584999" lon="9.956194"><ele>804.28</ele><time>2010-06-06T07:38:15Z</time></trkpt><trkpt lat="47.584944" lon="9.956198"><ele>804.28</ele><time>2010-06-06T07:38:16Z</time></trkpt><trkpt lat="47.584159" lon="9.956180"><ele>803.80</ele><time>2010-06-06T07:38:31Z</time></trkpt><trkpt lat="47.583588" lon="9.956097"><ele>805.24</ele><time>2010-06-06T07:38:46Z</time></trkpt><trkpt lat="47.583459" lon="9.956022"><ele>806.68</ele><time>2010-06-06T07:38:51Z</time></trkpt><trkpt lat="47.583435" lon="9.956022"><ele>806.68</ele><time>2010-06-06T07:38:52Z</time></trkpt><trkpt lat="47.583408" lon="9.956026"><ele>806.68</ele><time>2010-06-06T07:38:53Z</time></trkpt><trkpt lat="47.583379" lon="9.956045"><ele>806.68</ele><time>2010-06-06T07:38:54Z</time></trkpt><trkpt lat="47.583350" lon="9.956078"><ele>806.68</ele><time>2010-06-06T07:38:55Z</time></trkpt><trkpt lat="47.583325" lon="9.956122"><ele>806.20</ele><time>2010-06-06T07:38:56Z</time></trkpt><trkpt lat="47.583303" lon="9.956167"><ele>806.20</ele><time>2010-06-06T07:38:57Z</time></trkpt><trkpt lat="47.583261" lon="9.956270"><ele>805.72</ele><time>2010-06-06T07:38:59Z</time></trkpt><trkpt lat="47.582821" lon="9.957320"><ele>802.84</ele><time>2010-06-06T07:39:14Z</time></trkpt><trkpt lat="47.582584" lon="9.957921"><ele>798.99</ele><time>2010-06-06T07:39:20Z</time></trkpt><trkpt lat="47.582355" lon="9.958908"><ele>795.63</ele><time>2010-06-06T07:39:28Z</time></trkpt><trkpt lat="47.582341" lon="9.959180"><ele>794.67</ele><time>2010-06-06T07:39:30Z</time></trkpt><trkpt lat="47.582398" lon="9.960170"><ele>792.26</ele><time>2010-06-06T07:39:37Z</time></trkpt><trkpt lat="47.582405" lon="9.960628"><ele>789.38</ele><time>2010-06-06T07:39:40Z</time></trkpt><trkpt lat="47.582385" lon="9.960781"><ele>788.42</ele><time>2010-06-06T07:39:41Z</time></trkpt><trkpt lat="47.582353" lon="9.960930"><ele>788.42</ele><time>2010-06-06T07:39:42Z</time></trkpt><trkpt lat="47.582308" lon="9.961075"><ele>787.94</ele><time>2010-06-06T07:39:43Z</time></trkpt><trkpt lat="47.582253" lon="9.961217"><ele>786.98</ele><time>2010-06-06T07:39:44Z</time></trkpt><trkpt lat="47.582182" lon="9.961347"><ele>786.98</ele><time>2010-06-06T07:39:45Z</time></trkpt><trkpt lat="47.582110" lon="9.961470"><ele>786.02</ele><time>2010-06-06T07:39:46Z</time></trkpt><trkpt lat="47.582027" lon="9.961579"><ele>786.02</ele><time>2010-06-06T07:39:47Z</time></trkpt><trkpt lat="47.581942" lon="9.961679"><ele>786.02</ele><time>2010-06-06T07:39:48Z</time></trkpt><trkpt lat="47.581259" lon="9.962438"><ele>787.46</ele><time>2010-06-06T07:39:58Z</time></trkpt><trkpt lat="47.580744" lon="9.963022"><ele>790.82</ele><time>2010-06-06T07:40:10Z</time></trkpt><trkpt lat="47.580008" lon="9.963857"><ele>791.78</ele><time>2010-06-06T07:40:28Z</time></trkpt><trkpt lat="47.579418" lon="9.964864"><ele>793.71</ele><time>2010-06-06T07:40:47Z</time></trkpt><trkpt lat="47.579127" lon="9.965673"><ele>797.07</ele><time>2010-06-06T07:41:03Z</time></trkpt><trkpt lat="47.578913" lon="9.966464"><ele>799.95</ele><time>2010-06-06T07:41:20Z</time></trkpt><trkpt lat="47.578674" lon="9.967412"><ele>801.88</ele><time>2010-06-06T07:41:40Z</time></trkpt><trkpt lat="47.578499" lon="9.968210"><ele>802.84</ele><time>2010-06-06T07:41:55Z</time></trkpt><trkpt lat="47.578373" lon="9.968696"><ele>802.36</ele><time>2010-06-06T07:42:03Z</time></trkpt><trkpt lat="47.578153" lon="9.969604"><ele>802.36</ele><time>2010-06-06T07:42:17Z</time></trkpt><trkpt lat="47.577990" lon="9.970424"><ele>805.24</ele><time>2010-06-06T07:42:33Z</time></trkpt><trkpt lat="47.577875" lon="9.971146"><ele>809.09</ele><time>2010-06-06T07:42:50Z</time></trkpt><trkpt lat="47.577795" lon="9.971652"><ele>811.49</ele><time>2010-06-06T07:43:04Z</time></trkpt><trkpt lat="47.577729" lon="9.972187"><ele>814.85</ele><time>2010-06-06T07:43:19Z</time></trkpt><trkpt lat="47.577680" lon="9.972731"><ele>818.22</ele><time>2010-06-06T07:43:35Z</time></trkpt><trkpt lat="47.577665" lon="9.973164"><ele>821.10</ele><time>2010-06-06T07:43:48Z</time></trkpt><trkpt lat="47.577629" lon="9.973596"><ele>823.51</ele><time>2010-06-06T07:44:01Z</time></trkpt><trkpt lat="47.577565" lon="9.973999"><ele>826.39</ele><time>2010-06-06T07:44:14Z</time></trkpt><trkpt lat="47.577471" lon="9.974412"><ele>829.27</ele><time>2010-06-06T07:44:28Z</time></trkpt><trkpt lat="47.577392" lon="9.974785"><ele>832.16</ele><time>2010-06-06T07:44:42Z</time></trkpt><trkpt lat="47.577338" lon="9.975114"><ele>835.52</ele><time>2010-06-06T07:44:55Z</time></trkpt><trkpt lat="47.577270" lon="9.975448"><ele>838.41</ele><time>2010-06-06T07:45:07Z</time></trkpt><trkpt lat="47.577212" lon="9.975825"><ele>841.29</ele><time>2010-06-06T07:45:21Z</time></trkpt><trkpt lat="47.577211" lon="9.976232"><ele>844.18</ele><time>2010-06-06T07:45:34Z</time></trkpt><trkpt lat="47.577344" lon="9.976772"><ele>844.66</ele><time>2010-06-06T07:45:49Z</time></trkpt><trkpt lat="47.577258" lon="9.977393"><ele>846.58</ele><time>2010-06-06T07:46:01Z</time></trkpt><trkpt lat="47.577200" lon="9.977588"><ele>847.54</ele><time>2010-06-06T07:46:07Z</time></trkpt><trkpt lat="47.577207" lon="9.977608"><ele>848.02</ele><time>2010-06-06T07:46:08Z</time></trkpt><trkpt lat="47.577216" lon="9.977629"><ele>848.02</ele><time>2010-06-06T07:46:09Z</time></trkpt><trkpt lat="47.577228" lon="9.977648"><ele>848.02</ele><time>2010-06-06T07:46:10Z</time></trkpt><trkpt lat="47.577244" lon="9.977670"><ele>848.02</ele><time>2010-06-06T07:46:11Z</time></trkpt><trkpt lat="47.577260" lon="9.977693"><ele>848.02</ele><time>2010-06-06T07:46:12Z</time></trkpt><trkpt lat="47.577279" lon="9.977713"><ele>848.50</ele><time>2010-06-06T07:46:13Z</time></trkpt><trkpt lat="47.577300" lon="9.977735"><ele>848.50</ele><time>2010-06-06T07:46:14Z</time></trkpt><trkpt lat="47.577735" lon="9.978180"><ele>849.94</ele><time>2010-06-06T07:46:31Z</time></trkpt><trkpt lat="47.578346" lon="9.978799"><ele>851.87</ele><time>2010-06-06T07:46:52Z</time></trkpt><trkpt lat="47.578796" lon="9.979161"><ele>855.23</ele><time>2010-06-06T07:47:09Z</time></trkpt><trkpt lat="47.579147" lon="9.979307"><ele>858.59</ele><time>2010-06-06T07:47:22Z</time></trkpt><trkpt lat="47.579488" lon="9.979414"><ele>861.48</ele><time>2010-06-06T07:47:35Z</time></trkpt><trkpt lat="47.579958" lon="9.979586"><ele>861.00</ele><time>2010-06-06T07:47:49Z</time></trkpt><trkpt lat="47.580243" lon="9.980104"><ele>861.00</ele><time>2010-06-06T07:48:01Z</time></trkpt><trkpt lat="47.580582" lon="9.981008"><ele>857.63</ele><time>2010-06-06T07:48:12Z</time></trkpt><trkpt lat="47.580631" lon="9.981091"><ele>857.63</ele><time>2010-06-06T07:48:13Z</time></trkpt><trkpt lat="47.580689" lon="9.981151"><ele>857.63</ele><time>2010-06-06T07:48:14Z</time></trkpt><trkpt lat="47.580756" lon="9.981184"><ele>856.67</ele><time>2010-06-06T07:48:15Z</time></trkpt><trkpt lat="47.580823" lon="9.981204"><ele>858.11</ele><time>2010-06-06T07:48:16Z</time></trkpt><trkpt lat="47.581611" lon="9.981518"><ele>859.56</ele><time>2010-06-06T07:48:30Z</time></trkpt><trkpt lat="47.582006" lon="9.981698"><ele>861.48</ele><time>2010-06-06T07:48:38Z</time></trkpt><trkpt lat="47.582449" lon="9.981919"><ele>864.36</ele><time>2010-06-06T07:48:49Z</time></trkpt><trkpt lat="47.582786" lon="9.982208"><ele>865.32</ele><time>2010-06-06T07:48:59Z</time></trkpt><trkpt lat="47.582817" lon="9.982252"><ele>865.80</ele><time>2010-06-06T07:49:00Z</time></trkpt><trkpt lat="47.582880" lon="9.982363"><ele>865.32</ele><time>2010-06-06T07:49:02Z</time></trkpt><trkpt lat="47.582908" lon="9.982432"><ele>864.84</ele><time>2010-06-06T07:49:03Z</time></trkpt><trkpt lat="47.582931" lon="9.982506"><ele>864.84</ele><time>2010-06-06T07:49:04Z</time></trkpt><trkpt lat="47.582951" lon="9.982583"><ele>864.36</ele><time>2010-06-06T07:49:05Z</time></trkpt><trkpt lat="47.582969" lon="9.982666"><ele>863.88</ele><time>2010-06-06T07:49:06Z</time></trkpt><trkpt lat="47.583254" lon="9.983685"><ele>861.00</ele><time>2010-06-06T07:49:16Z</time></trkpt><trkpt lat="47.583294" lon="9.983808"><ele>860.52</ele><time>2010-06-06T07:49:17Z</time></trkpt><trkpt lat="47.583564" lon="9.984580"><ele>857.63</ele><time>2010-06-06T07:49:23Z</time></trkpt><trkpt lat="47.583619" lon="9.984711"><ele>857.15</ele><time>2010-06-06T07:49:24Z</time></trkpt><trkpt lat="47.583862" lon="9.985171"><ele>856.67</ele><time>2010-06-06T07:49:28Z</time></trkpt><trkpt lat="47.584407" lon="9.985856"><ele>860.52</ele><time>2010-06-06T07:49:38Z</time></trkpt><trkpt lat="47.584741" lon="9.986142"><ele>863.88</ele><time>2010-06-06T07:49:47Z</time></trkpt><trkpt lat="47.584771" lon="9.986164"><ele>863.88</ele><time>2010-06-06T07:49:48Z</time></trkpt><trkpt lat="47.585066" lon="9.986428"><ele>867.25</ele><time>2010-06-06T07:49:59Z</time></trkpt><trkpt lat="47.585329" lon="9.986789"><ele>870.61</ele><time>2010-06-06T07:50:11Z</time></trkpt><trkpt lat="47.585685" lon="9.987378"><ele>872.05</ele><time>2010-06-06T07:50:28Z</time></trkpt><trkpt lat="47.586139" lon="9.988180"><ele>868.69</ele><time>2010-06-06T07:50:46Z</time></trkpt><trkpt lat="47.586309" lon="9.988479"><ele>872.05</ele><time>2010-06-06T07:50:53Z</time></trkpt><trkpt lat="47.586736" lon="9.989382"><ele>871.57</ele><time>2010-06-06T07:51:08Z</time></trkpt><trkpt lat="47.586764" lon="9.989458"><ele>871.57</ele><time>2010-06-06T07:51:09Z</time></trkpt><trkpt lat="47.587243" lon="9.990994"><ele>872.05</ele><time>2010-06-06T07:51:29Z</time></trkpt><trkpt lat="47.587455" lon="9.991742"><ele>873.50</ele><time>2010-06-06T07:51:40Z</time></trkpt><trkpt lat="47.587489" lon="9.991893"><ele>874.46</ele><time>2010-06-06T07:51:42Z</time></trkpt><trkpt lat="47.587509" lon="9.991957"><ele>874.94</ele><time>2010-06-06T07:51:43Z</time></trkpt><trkpt lat="47.587526" lon="9.992016"><ele>874.94</ele><time>2010-06-06T07:51:44Z</time></trkpt><trkpt lat="47.587525" lon="9.992067"><ele>874.94</ele><time>2010-06-06T07:51:45Z</time></trkpt><trkpt lat="47.587505" lon="9.992105"><ele>875.42</ele><time>2010-06-06T07:51:46Z</time></trkpt><trkpt lat="47.587479" lon="9.992135"><ele>875.42</ele><time>2010-06-06T07:51:47Z</time></trkpt><trkpt lat="47.587453" lon="9.992167"><ele>875.42</ele><time>2010-06-06T07:51:48Z</time></trkpt><trkpt lat="47.587123" lon="9.992359"><ele>875.42</ele><time>2010-06-06T07:51:59Z</time></trkpt><trkpt lat="47.587088" lon="9.992369"><ele>875.42</ele><time>2010-06-06T07:52:00Z</time></trkpt><trkpt lat="47.587045" lon="9.992370"><ele>875.42</ele><time>2010-06-06T07:52:01Z</time></trkpt><trkpt lat="47.586999" lon="9.992365"><ele>874.94</ele><time>2010-06-06T07:52:02Z</time></trkpt><trkpt lat="47.586952" lon="9.992356"><ele>874.46</ele><time>2010-06-06T07:52:03Z</time></trkpt><trkpt lat="47.586697" lon="9.992282"><ele>873.50</ele><time>2010-06-06T07:52:10Z</time></trkpt><trkpt lat="47.586656" lon="9.992268"><ele>873.50</ele><time>2010-06-06T07:52:11Z</time></trkpt><trkpt lat="47.586580" lon="9.992252"><ele>873.50</ele><time>2010-06-06T07:52:12Z</time></trkpt><trkpt lat="47.586423" lon="9.992198"><ele>872.05</ele><time>2010-06-06T07:52:15Z</time></trkpt><trkpt lat="47.586372" lon="9.992167"><ele>872.05</ele><time>2010-06-06T07:52:16Z</time></trkpt><trkpt lat="47.586323" lon="9.992127"><ele>871.09</ele><time>2010-06-06T07:52:17Z</time></trkpt><trkpt lat="47.586222" lon="9.992057"><ele>870.13</ele><time>2010-06-06T07:52:19Z</time></trkpt><trkpt lat="47.586169" lon="9.992030"><ele>869.17</ele><time>2010-06-06T07:52:20Z</time></trkpt><trkpt lat="47.586112" lon="9.991993"><ele>869.17</ele><time>2010-06-06T07:52:21Z</time></trkpt><trkpt lat="47.586057" lon="9.991958"><ele>868.21</ele><time>2010-06-06T07:52:22Z</time></trkpt><trkpt lat="47.586000" lon="9.991940"><ele>867.25</ele><time>2010-06-06T07:52:23Z</time></trkpt><trkpt lat="47.585936" lon="9.991935"><ele>866.29</ele><time>2010-06-06T07:52:24Z</time></trkpt><trkpt lat="47.585869" lon="9.991944"><ele>865.32</ele><time>2010-06-06T07:52:25Z</time></trkpt><trkpt lat="47.585807" lon="9.991963"><ele>864.36</ele><time>2010-06-06T07:52:26Z</time></trkpt><trkpt lat="47.585750" lon="9.991999"><ele>864.84</ele><time>2010-06-06T07:52:27Z</time></trkpt><trkpt lat="47.585698" lon="9.992053"><ele>862.92</ele><time>2010-06-06T07:52:28Z</time></trkpt><trkpt lat="47.585652" lon="9.992108"><ele>861.96</ele><time>2010-06-06T07:52:29Z</time></trkpt><trkpt lat="47.585617" lon="9.992146"><ele>860.52</ele><time>2010-06-06T07:52:30Z</time></trkpt><trkpt lat="47.585592" lon="9.992180"><ele>860.52</ele><time>2010-06-06T07:52:31Z</time></trkpt><trkpt lat="47.585552" lon="9.992256"><ele>860.04</ele><time>2010-06-06T07:52:43Z</time></trkpt><trkpt lat="47.585540" lon="9.992270"><ele>860.04</ele><time>2010-06-06T07:52:47Z</time></trkpt><trkpt lat="47.585525" lon="9.992317"><ele>860.04</ele><time>2010-06-06T07:52:49Z</time></trkpt><trkpt lat="47.585520" lon="9.992345"><ele>860.52</ele><time>2010-06-06T07:52:50Z</time></trkpt><trkpt lat="47.585515" lon="9.992375"><ele>860.52</ele><time>2010-06-06T07:52:51Z</time></trkpt><trkpt lat="47.585404" lon="9.992780"><ele>860.52</ele><time>2010-06-06T07:53:04Z</time></trkpt><trkpt lat="47.585286" lon="9.993368"><ele>859.08</ele><time>2010-06-06T07:53:20Z</time></trkpt><trkpt lat="47.585147" lon="9.993880"><ele>857.63</ele><time>2010-06-06T07:53:32Z</time></trkpt><trkpt lat="47.585095" lon="9.994384"><ele>858.11</ele><time>2010-06-06T07:53:42Z</time></trkpt><trkpt lat="47.585052" lon="9.994598"><ele>856.67</ele><time>2010-06-06T07:53:45Z</time></trkpt><trkpt lat="47.585020" lon="9.994646"><ele>856.67</ele><time>2010-06-06T07:53:46Z</time></trkpt><trkpt lat="47.584981" lon="9.994671"><ele>856.67</ele><time>2010-06-06T07:53:47Z</time></trkpt><trkpt lat="47.584933" lon="9.994664"><ele>856.19</ele><time>2010-06-06T07:53:48Z</time></trkpt><trkpt lat="47.584879" lon="9.994629"><ele>855.71</ele><time>2010-06-06T07:53:49Z</time></trkpt><trkpt lat="47.584823" lon="9.994576"><ele>854.75</ele><time>2010-06-06T07:53:50Z</time></trkpt><trkpt lat="47.584767" lon="9.994515"><ele>854.27</ele><time>2010-06-06T07:53:51Z</time></trkpt><trkpt lat="47.584715" lon="9.994467"><ele>852.83</ele><time>2010-06-06T07:53:52Z</time></trkpt><trkpt lat="47.584664" lon="9.994448"><ele>852.35</ele><time>2010-06-06T07:53:53Z</time></trkpt><trkpt lat="47.584615" lon="9.994470"><ele>850.90</ele><time>2010-06-06T07:53:54Z</time></trkpt><trkpt lat="47.584583" lon="9.994531"><ele>850.42</ele><time>2010-06-06T07:53:55Z</time></trkpt><trkpt lat="47.584578" lon="9.994615"><ele>849.46</ele><time>2010-06-06T07:53:56Z</time></trkpt><trkpt lat="47.584585" lon="9.994705"><ele>848.98</ele><time>2010-06-06T07:53:57Z</time></trkpt><trkpt lat="47.584586" lon="9.994900"><ele>848.50</ele><time>2010-06-06T07:53:59Z</time></trkpt><trkpt lat="47.584574" lon="9.995002"><ele>848.02</ele><time>2010-06-06T07:54:00Z</time></trkpt><trkpt lat="47.584555" lon="9.995097"><ele>848.02</ele><time>2010-06-06T07:54:01Z</time></trkpt><trkpt lat="47.584431" lon="9.995560"><ele>847.06</ele><time>2010-06-06T07:54:06Z</time></trkpt><trkpt lat="47.584413" lon="9.995656"><ele>847.06</ele><time>2010-06-06T07:54:07Z</time></trkpt><trkpt lat="47.584314" lon="9.996131"><ele>846.10</ele><time>2010-06-06T07:54:12Z</time></trkpt><trkpt lat="47.584303" lon="9.996232"><ele>844.66</ele><time>2010-06-06T07:54:13Z</time></trkpt><trkpt lat="47.584292" lon="9.996334"><ele>844.18</ele><time>2010-06-06T07:54:14Z</time></trkpt><trkpt lat="47.584266" lon="9.996553"><ele>843.69</ele><time>2010-06-06T07:54:16Z</time></trkpt><trkpt lat="47.584250" lon="9.996822"><ele>842.73</ele><time>2010-06-06T07:54:19Z</time></trkpt><trkpt lat="47.584236" lon="9.996889"><ele>842.25</ele><time>2010-06-06T07:54:20Z</time></trkpt><trkpt lat="47.584217" lon="9.996956"><ele>841.77</ele><time>2010-06-06T07:54:21Z</time></trkpt><trkpt lat="47.584198" lon="9.997023"><ele>841.77</ele><time>2010-06-06T07:54:22Z</time></trkpt><trkpt lat="47.584183" lon="9.997097"><ele>840.81</ele><time>2010-06-06T07:54:23Z</time></trkpt><trkpt lat="47.584174" lon="9.997183"><ele>840.81</ele><time>2010-06-06T07:54:24Z</time></trkpt><trkpt lat="47.584171" lon="9.997268"><ele>840.33</ele><time>2010-06-06T07:54:25Z</time></trkpt><trkpt lat="47.584171" lon="9.997352"><ele>839.37</ele><time>2010-06-06T07:54:26Z</time></trkpt><trkpt lat="47.584200" lon="9.997765"><ele>837.45</ele><time>2010-06-06T07:54:30Z</time></trkpt><trkpt lat="47.584225" lon="9.997890"><ele>836.96</ele><time>2010-06-06T07:54:31Z</time></trkpt><trkpt lat="47.584249" lon="9.998021"><ele>836.48</ele><time>2010-06-06T07:54:32Z</time></trkpt><trkpt lat="47.584280" lon="9.998289"><ele>833.60</ele><time>2010-06-06T07:54:34Z</time></trkpt><trkpt lat="47.584275" lon="9.998717"><ele>829.76</ele><time>2010-06-06T07:54:37Z</time></trkpt><trkpt lat="47.584265" lon="9.998970"><ele>826.87</ele><time>2010-06-06T07:54:39Z</time></trkpt><trkpt lat="47.584271" lon="9.999069"><ele>826.39</ele><time>2010-06-06T07:54:40Z</time></trkpt><trkpt lat="47.584249" lon="9.999221"><ele>825.91</ele><time>2010-06-06T07:54:41Z</time></trkpt><trkpt lat="47.584237" lon="9.999308"><ele>825.43</ele><time>2010-06-06T07:54:42Z</time></trkpt><trkpt lat="47.584224" lon="9.999372"><ele>825.91</ele><time>2010-06-06T07:54:43Z</time></trkpt><trkpt lat="47.584184" lon="9.999479"><ele>826.39</ele><time>2010-06-06T07:54:45Z</time></trkpt><trkpt lat="47.584147" lon="9.999533"><ele>826.87</ele><time>2010-06-06T07:54:46Z</time></trkpt><trkpt lat="47.584102" lon="9.999587"><ele>826.39</ele><time>2010-06-06T07:54:47Z</time></trkpt><trkpt lat="47.583966" lon="9.999758"><ele>826.87</ele><time>2010-06-06T07:54:50Z</time></trkpt><trkpt lat="47.583918" lon="9.999798"><ele>827.35</ele><time>2010-06-06T07:54:51Z</time></trkpt><trkpt lat="47.583873" lon="9.999839"><ele>827.35</ele><time>2010-06-06T07:54:52Z</time></trkpt><trkpt lat="47.583828" lon="9.999868"><ele>826.87</ele><time>2010-06-06T07:54:53Z</time></trkpt><trkpt lat="47.583783" lon="9.999887"><ele>826.87</ele><time>2010-06-06T07:54:54Z</time></trkpt><trkpt lat="47.583738" lon="9.999905"><ele>827.83</ele><time>2010-06-06T07:54:55Z</time></trkpt><trkpt lat="47.583693" lon="9.999917"><ele>827.35</ele><time>2010-06-06T07:54:56Z</time></trkpt><trkpt lat="47.583521" lon="9.999932"><ele>827.35</ele><time>2010-06-06T07:55:00Z</time></trkpt><trkpt lat="47.583487" lon="9.999970"><ele>826.87</ele><time>2010-06-06T07:55:01Z</time></trkpt><trkpt lat="47.583473" lon="10.000031"><ele>827.83</ele><time>2010-06-06T07:55:02Z</time></trkpt><trkpt lat="47.583482" lon="10.000086"><ele>826.87</ele><time>2010-06-06T07:55:03Z</time></trkpt><trkpt lat="47.583506" lon="10.000119"><ele>826.39</ele><time>2010-06-06T07:55:04Z</time></trkpt><trkpt lat="47.583535" lon="10.000145"><ele>826.39</ele><time>2010-06-06T07:55:05Z</time></trkpt><trkpt lat="47.583710" lon="10.000286"><ele>826.87</ele><time>2010-06-06T07:55:10Z</time></trkpt><trkpt lat="47.583752" lon="10.000323"><ele>826.39</ele><time>2010-06-06T07:55:11Z</time></trkpt><trkpt lat="47.583798" lon="10.000362"><ele>825.43</ele><time>2010-06-06T07:55:12Z</time></trkpt><trkpt lat="47.583846" lon="10.000414"><ele>825.91</ele><time>2010-06-06T07:55:13Z</time></trkpt><trkpt lat="47.583894" lon="10.000483"><ele>824.95</ele><time>2010-06-06T07:55:14Z</time></trkpt><trkpt lat="47.583937" lon="10.000571"><ele>823.99</ele><time>2010-06-06T07:55:15Z</time></trkpt><trkpt lat="47.583977" lon="10.000680"><ele>823.03</ele><time>2010-06-06T07:55:16Z</time></trkpt><trkpt lat="47.584007" lon="10.000807"><ele>822.06</ele><time>2010-06-06T07:55:17Z</time></trkpt><trkpt lat="47.584029" lon="10.000944"><ele>821.10</ele><time>2010-06-06T07:55:18Z</time></trkpt><trkpt lat="47.584042" lon="10.001086"><ele>821.10</ele><time>2010-06-06T07:55:19Z</time></trkpt><trkpt lat="47.584048" lon="10.001232"><ele>820.14</ele><time>2010-06-06T07:55:20Z</time></trkpt><trkpt lat="47.584055" lon="10.001382"><ele>819.66</ele><time>2010-06-06T07:55:21Z</time></trkpt><trkpt lat="47.584072" lon="10.001529"><ele>818.70</ele><time>2010-06-06T07:55:22Z</time></trkpt><trkpt lat="47.584095" lon="10.001676"><ele>818.22</ele><time>2010-06-06T07:55:23Z</time></trkpt><trkpt lat="47.584110" lon="10.001829"><ele>817.74</ele><time>2010-06-06T07:55:24Z</time></trkpt><trkpt lat="47.584138" lon="10.002304"><ele>814.37</ele><time>2010-06-06T07:55:27Z</time></trkpt><trkpt lat="47.584178" lon="10.002548"><ele>811.01</ele><time>2010-06-06T07:55:29Z</time></trkpt><trkpt lat="47.584204" lon="10.002656"><ele>811.01</ele><time>2010-06-06T07:55:30Z</time></trkpt><trkpt lat="47.584322" lon="10.003078"><ele>810.05</ele><time>2010-06-06T07:55:34Z</time></trkpt><trkpt lat="47.584337" lon="10.003194"><ele>810.05</ele><time>2010-06-06T07:55:35Z</time></trkpt><trkpt lat="47.584340" lon="10.003308"><ele>810.05</ele><time>2010-06-06T07:55:36Z</time></trkpt><trkpt lat="47.584370" lon="10.004570"><ele>808.61</ele><time>2010-06-06T07:55:48Z</time></trkpt><trkpt lat="47.584340" lon="10.004672"><ele>808.61</ele><time>2010-06-06T07:55:49Z</time></trkpt><trkpt lat="47.584296" lon="10.004763"><ele>809.09</ele><time>2010-06-06T07:55:50Z</time></trkpt><trkpt lat="47.584141" lon="10.004982"><ele>809.09</ele><time>2010-06-06T07:55:53Z</time></trkpt><trkpt lat="47.583803" lon="10.005261"><ele>811.49</ele><time>2010-06-06T07:55:59Z</time></trkpt><trkpt lat="47.583706" lon="10.005332"><ele>811.97</ele><time>2010-06-06T07:56:01Z</time></trkpt><trkpt lat="47.583662" lon="10.005383"><ele>811.49</ele><time>2010-06-06T07:56:02Z</time></trkpt><trkpt lat="47.583622" lon="10.005440"><ele>811.01</ele><time>2010-06-06T07:56:03Z</time></trkpt><trkpt lat="47.583587" lon="10.005501"><ele>811.01</ele><time>2010-06-06T07:56:04Z</time></trkpt><trkpt lat="47.583552" lon="10.005562"><ele>811.01</ele><time>2010-06-06T07:56:05Z</time></trkpt><trkpt lat="47.583403" lon="10.005843"><ele>806.68</ele><time>2010-06-06T07:56:10Z</time></trkpt><trkpt lat="47.583387" lon="10.005905"><ele>806.68</ele><time>2010-06-06T07:56:11Z</time></trkpt><trkpt lat="47.583368" lon="10.006038"><ele>808.61</ele><time>2010-06-06T07:56:13Z</time></trkpt><trkpt lat="47.583294" lon="10.006708"><ele>807.64</ele><time>2010-06-06T07:56:22Z</time></trkpt><trkpt lat="47.583279" lon="10.006759"><ele>807.16</ele><time>2010-06-06T07:56:23Z</time></trkpt><trkpt lat="47.583258" lon="10.006798"><ele>806.68</ele><time>2010-06-06T07:56:24Z</time></trkpt><trkpt lat="47.583229" lon="10.006827"><ele>806.68</ele><time>2010-06-06T07:56:25Z</time></trkpt><trkpt lat="47.583193" lon="10.006850"><ele>807.16</ele><time>2010-06-06T07:56:26Z</time></trkpt><trkpt lat="47.583126" lon="10.006899"><ele>809.09</ele><time>2010-06-06T07:56:28Z</time></trkpt><trkpt lat="47.583092" lon="10.006931"><ele>809.09</ele><time>2010-06-06T07:56:29Z</time></trkpt><trkpt lat="47.582686" lon="10.007356"><ele>809.09</ele><time>2010-06-06T07:56:41Z</time></trkpt><trkpt lat="47.582388" lon="10.007663"><ele>810.05</ele><time>2010-06-06T07:56:55Z</time></trkpt><trkpt lat="47.582327" lon="10.007760"><ele>809.09</ele><time>2010-06-06T07:56:59Z</time></trkpt><trkpt lat="47.582325" lon="10.007798"><ele>809.09</ele><time>2010-06-06T07:57:00Z</time></trkpt><trkpt lat="47.582321" lon="10.007841"><ele>809.09</ele><time>2010-06-06T07:57:01Z</time></trkpt><trkpt lat="47.582162" lon="10.008254"><ele>805.72</ele><time>2010-06-06T07:57:11Z</time></trkpt><trkpt lat="47.582091" lon="10.008319"><ele>804.28</ele><time>2010-06-06T07:57:14Z</time></trkpt><trkpt lat="47.582032" lon="10.008353"><ele>803.32</ele><time>2010-06-06T07:57:16Z</time></trkpt><trkpt lat="47.582001" lon="10.008383"><ele>802.36</ele><time>2010-06-06T07:57:17Z</time></trkpt><trkpt lat="47.581968" lon="10.008414"><ele>800.92</ele><time>2010-06-06T07:57:18Z</time></trkpt><trkpt lat="47.581927" lon="10.008424"><ele>799.95</ele><time>2010-06-06T07:57:19Z</time></trkpt><trkpt lat="47.581878" lon="10.008402"><ele>799.95</ele><time>2010-06-06T07:57:20Z</time></trkpt><trkpt lat="47.581840" lon="10.008367"><ele>799.47</ele><time>2010-06-06T07:57:21Z</time></trkpt><trkpt lat="47.581822" lon="10.008332"><ele>799.47</ele><time>2010-06-06T07:57:22Z</time></trkpt><trkpt lat="47.581817" lon="10.008314"><ele>798.99</ele><time>2010-06-06T07:57:23Z</time></trkpt><trkpt lat="47.581806" lon="10.008307"><ele>798.99</ele><time>2010-06-06T07:57:24Z</time></trkpt><trkpt lat="47.581800" lon="10.008303"><ele>798.99</ele><time>2010-06-06T07:57:25Z</time></trkpt><trkpt lat="47.581785" lon="10.008310"><ele>798.51</ele><time>2010-06-06T07:57:26Z</time></trkpt><trkpt lat="47.581760" lon="10.008319"><ele>797.55</ele><time>2010-06-06T07:57:27Z</time></trkpt><trkpt lat="47.581730" lon="10.008323"><ele>797.07</ele><time>2010-06-06T07:57:28Z</time></trkpt><trkpt lat="47.581696" lon="10.008316"><ele>797.07</ele><time>2010-06-06T07:57:29Z</time></trkpt><trkpt lat="47.581667" lon="10.008294"><ele>796.59</ele><time>2010-06-06T07:57:30Z</time></trkpt><trkpt lat="47.581650" lon="10.008259"><ele>796.59</ele><time>2010-06-06T07:57:31Z</time></trkpt><trkpt lat="47.581637" lon="10.008211"><ele>796.59</ele><time>2010-06-06T07:57:32Z</time></trkpt><trkpt lat="47.581576" lon="10.008080"><ele>796.11</ele><time>2010-06-06T07:57:35Z</time></trkpt><trkpt lat="47.581537" lon="10.008067"><ele>796.11</ele><time>2010-06-06T07:57:36Z</time></trkpt><trkpt lat="47.581494" lon="10.008079"><ele>795.63</ele><time>2010-06-06T07:57:37Z</time></trkpt><trkpt lat="47.581294" lon="10.008151"><ele>794.67</ele><time>2010-06-06T07:57:41Z</time></trkpt><trkpt lat="47.581238" lon="10.008147"><ele>794.67</ele><time>2010-06-06T07:57:42Z</time></trkpt><trkpt lat="47.581185" lon="10.008128"><ele>794.67</ele><time>2010-06-06T07:57:43Z</time></trkpt><trkpt lat="47.581139" lon="10.008109"><ele>794.19</ele><time>2010-06-06T07:57:44Z</time></trkpt><trkpt lat="47.581103" lon="10.008097"><ele>794.19</ele><time>2010-06-06T07:57:45Z</time></trkpt><trkpt lat="47.580856" lon="10.008055"><ele>793.22</ele><time>2010-06-06T07:57:54Z</time></trkpt><trkpt lat="47.580768" lon="10.008028"><ele>793.22</ele><time>2010-06-06T07:57:56Z</time></trkpt><trkpt lat="47.580732" lon="10.007997"><ele>792.74</ele><time>2010-06-06T07:57:57Z</time></trkpt><trkpt lat="47.580673" lon="10.007905"><ele>793.22</ele><time>2010-06-06T07:57:59Z</time></trkpt><trkpt lat="47.580638" lon="10.007867"><ele>793.22</ele><time>2010-06-06T07:58:00Z</time></trkpt><trkpt lat="47.580599" lon="10.007838"><ele>793.22</ele><time>2010-06-06T07:58:01Z</time></trkpt><trkpt lat="47.580389" lon="10.007717"><ele>792.74</ele><time>2010-06-06T07:58:06Z</time></trkpt><trkpt lat="47.580244" lon="10.007661"><ele>792.74</ele><time>2010-06-06T07:58:10Z</time></trkpt><trkpt lat="47.580206" lon="10.007689"><ele>792.74</ele><time>2010-06-06T07:58:11Z</time></trkpt><trkpt lat="47.580040" lon="10.007808"><ele>792.74</ele><time>2010-06-06T07:58:15Z</time></trkpt><trkpt lat="47.580010" lon="10.007852"><ele>792.74</ele><time>2010-06-06T07:58:16Z</time></trkpt><trkpt lat="47.579992" lon="10.007897"><ele>792.26</ele><time>2010-06-06T07:58:17Z</time></trkpt><trkpt lat="47.579964" lon="10.008174"><ele>792.26</ele><time>2010-06-06T07:58:24Z</time></trkpt><trkpt lat="47.579939" lon="10.008212"><ele>791.78</ele><time>2010-06-06T07:58:25Z</time></trkpt><trkpt lat="47.579790" lon="10.008310"><ele>791.78</ele><time>2010-06-06T07:58:29Z</time></trkpt><trkpt lat="47.579751" lon="10.008349"><ele>791.78</ele><time>2010-06-06T07:58:30Z</time></trkpt><trkpt lat="47.579718" lon="10.008396"><ele>791.30</ele><time>2010-06-06T07:58:31Z</time></trkpt><trkpt lat="47.579690" lon="10.008450"><ele>791.30</ele><time>2010-06-06T07:58:32Z</time></trkpt><trkpt lat="47.579672" lon="10.008512"><ele>791.78</ele><time>2010-06-06T07:58:33Z</time></trkpt><trkpt lat="47.579665" lon="10.008586"><ele>792.26</ele><time>2010-06-06T07:58:34Z</time></trkpt><trkpt lat="47.579654" lon="10.008654"><ele>791.30</ele><time>2010-06-06T07:58:35Z</time></trkpt><trkpt lat="47.579628" lon="10.008714"><ele>791.30</ele><time>2010-06-06T07:58:36Z</time></trkpt><trkpt lat="47.579599" lon="10.008773"><ele>791.78</ele><time>2010-06-06T07:58:37Z</time></trkpt><trkpt lat="47.579577" lon="10.008835"><ele>791.30</ele><time>2010-06-06T07:58:38Z</time></trkpt><trkpt lat="47.579562" lon="10.008896"><ele>791.78</ele><time>2010-06-06T07:58:39Z</time></trkpt><trkpt lat="47.579550" lon="10.008955"><ele>791.78</ele><time>2010-06-06T07:58:40Z</time></trkpt><trkpt lat="47.579440" lon="10.009693"><ele>792.74</ele><time>2010-06-06T07:58:55Z</time></trkpt><trkpt lat="47.579167" lon="10.010243"><ele>791.30</ele><time>2010-06-06T07:59:07Z</time></trkpt><trkpt lat="47.579058" lon="10.010453"><ele>790.34</ele><time>2010-06-06T07:59:11Z</time></trkpt><trkpt lat="47.579033" lon="10.010505"><ele>790.34</ele><time>2010-06-06T07:59:12Z</time></trkpt><trkpt lat="47.578934" lon="10.010731"><ele>789.86</ele><time>2010-06-06T07:59:16Z</time></trkpt><trkpt lat="47.578916" lon="10.010798"><ele>789.38</ele><time>2010-06-06T07:59:17Z</time></trkpt><trkpt lat="47.578908" lon="10.010872"><ele>789.86</ele><time>2010-06-06T07:59:18Z</time></trkpt><trkpt lat="47.578910" lon="10.010947"><ele>788.90</ele><time>2010-06-06T07:59:19Z</time></trkpt><trkpt lat="47.578919" lon="10.011023"><ele>788.90</ele><time>2010-06-06T07:59:20Z</time></trkpt><trkpt lat="47.578931" lon="10.011102"><ele>788.90</ele><time>2010-06-06T07:59:21Z</time></trkpt><trkpt lat="47.579016" lon="10.011492"><ele>787.94</ele><time>2010-06-06T07:59:26Z</time></trkpt><trkpt lat="47.579116" lon="10.011972"><ele>787.46</ele><time>2010-06-06T07:59:33Z</time></trkpt><trkpt lat="47.579119" lon="10.012038"><ele>787.94</ele><time>2010-06-06T07:59:34Z</time></trkpt><trkpt lat="47.579117" lon="10.012102"><ele>787.46</ele><time>2010-06-06T07:59:35Z</time></trkpt><trkpt lat="47.579111" lon="10.012162"><ele>787.46</ele><time>2010-06-06T07:59:36Z</time></trkpt><trkpt lat="47.579102" lon="10.012219"><ele>787.46</ele><time>2010-06-06T07:59:37Z</time></trkpt><trkpt lat="47.579077" lon="10.012334"><ele>787.46</ele><time>2010-06-06T07:59:39Z</time></trkpt><trkpt lat="47.578990" lon="10.013078"><ele>788.90</ele><time>2010-06-06T07:59:53Z</time></trkpt><trkpt lat="47.579061" lon="10.013401"><ele>790.82</ele><time>2010-06-06T08:00:04Z</time></trkpt><trkpt lat="47.579051" lon="10.013428"><ele>790.82</ele><time>2010-06-06T08:00:05Z</time></trkpt><trkpt lat="47.579032" lon="10.013452"><ele>790.82</ele><time>2010-06-06T08:00:06Z</time></trkpt><trkpt lat="47.578586" lon="10.013772"><ele>789.86</ele><time>2010-06-06T08:00:19Z</time></trkpt><trkpt lat="47.578277" lon="10.014013"><ele>787.46</ele><time>2010-06-06T08:00:28Z</time></trkpt><trkpt lat="47.578264" lon="10.014045"><ele>787.94</ele><time>2010-06-06T08:00:29Z</time></trkpt><trkpt lat="47.578265" lon="10.014092"><ele>787.46</ele><time>2010-06-06T08:00:30Z</time></trkpt><trkpt lat="47.578280" lon="10.014138"><ele>787.46</ele><time>2010-06-06T08:00:31Z</time></trkpt><trkpt lat="47.578305" lon="10.014181"><ele>786.98</ele><time>2010-06-06T08:00:32Z</time></trkpt><trkpt lat="47.578333" lon="10.014227"><ele>787.46</ele><time>2010-06-06T08:00:33Z</time></trkpt><trkpt lat="47.578358" lon="10.014279"><ele>786.98</ele><time>2010-06-06T08:00:34Z</time></trkpt><trkpt lat="47.578779" lon="10.015403"><ele>786.50</ele><time>2010-06-06T08:00:52Z</time></trkpt><trkpt lat="47.579051" lon="10.016474"><ele>786.50</ele><time>2010-06-06T08:01:08Z</time></trkpt><trkpt lat="47.579353" lon="10.017542"><ele>786.02</ele><time>2010-06-06T08:01:23Z</time></trkpt><trkpt lat="47.580178" lon="10.018645"><ele>786.02</ele><time>2010-06-06T08:01:43Z</time></trkpt><trkpt lat="47.580834" lon="10.019824"><ele>786.02</ele><time>2010-06-06T08:02:01Z</time></trkpt><trkpt lat="47.581046" lon="10.020268"><ele>786.50</ele><time>2010-06-06T08:02:08Z</time></trkpt><trkpt lat="47.581063" lon="10.020334"><ele>786.50</ele><time>2010-06-06T08:02:09Z</time></trkpt><trkpt lat="47.581075" lon="10.020399"><ele>786.98</ele><time>2010-06-06T08:02:10Z</time></trkpt><trkpt lat="47.581083" lon="10.020466"><ele>786.98</ele><time>2010-06-06T08:02:11Z</time></trkpt><trkpt lat="47.581084" lon="10.020532"><ele>786.98</ele><time>2010-06-06T08:02:12Z</time></trkpt><trkpt lat="47.581080" lon="10.020592"><ele>787.46</ele><time>2010-06-06T08:02:13Z</time></trkpt><trkpt lat="47.581073" lon="10.020646"><ele>787.46</ele><time>2010-06-06T08:02:14Z</time></trkpt><trkpt lat="47.581060" lon="10.020696"><ele>787.46</ele><time>2010-06-06T08:02:15Z</time></trkpt><trkpt lat="47.581043" lon="10.020749"><ele>787.46</ele><time>2010-06-06T08:02:16Z</time></trkpt><trkpt lat="47.580837" lon="10.021089"><ele>790.34</ele><time>2010-06-06T08:02:25Z</time></trkpt><trkpt lat="47.580689" lon="10.021484"><ele>790.34</ele><time>2010-06-06T08:02:34Z</time></trkpt><trkpt lat="47.580702" lon="10.021544"><ele>790.34</ele><time>2010-06-06T08:02:35Z</time></trkpt><trkpt lat="47.580725" lon="10.021602"><ele>789.38</ele><time>2010-06-06T08:02:36Z</time></trkpt><trkpt lat="47.580752" lon="10.021656"><ele>789.86</ele><time>2010-06-06T08:02:37Z</time></trkpt><trkpt lat="47.580788" lon="10.021709"><ele>789.38</ele><time>2010-06-06T08:02:38Z</time></trkpt><trkpt lat="47.580833" lon="10.021758"><ele>788.42</ele><time>2010-06-06T08:02:39Z</time></trkpt><trkpt lat="47.580884" lon="10.021807"><ele>788.42</ele><time>2010-06-06T08:02:40Z</time></trkpt><trkpt lat="47.581185" lon="10.022111"><ele>786.02</ele><time>2010-06-06T08:02:45Z</time></trkpt><trkpt lat="47.581355" lon="10.022355"><ele>785.53</ele><time>2010-06-06T08:02:48Z</time></trkpt><trkpt lat="47.581396" lon="10.022448"><ele>785.53</ele><time>2010-06-06T08:02:49Z</time></trkpt><trkpt lat="47.581427" lon="10.022544"><ele>785.53</ele><time>2010-06-06T08:02:50Z</time></trkpt><trkpt lat="47.581452" lon="10.022640"><ele>785.05</ele><time>2010-06-06T08:02:51Z</time></trkpt><trkpt lat="47.581467" lon="10.022736"><ele>785.53</ele><time>2010-06-06T08:02:52Z</time></trkpt><trkpt lat="47.581477" lon="10.022835"><ele>786.02</ele><time>2010-06-06T08:02:53Z</time></trkpt><trkpt lat="47.581481" lon="10.022933"><ele>785.53</ele><time>2010-06-06T08:02:54Z</time></trkpt><trkpt lat="47.581479" lon="10.023029"><ele>785.53</ele><time>2010-06-06T08:02:55Z</time></trkpt><trkpt lat="47.581462" lon="10.024372"><ele>787.46</ele><time>2010-06-06T08:03:11Z</time></trkpt><trkpt lat="47.581421" lon="10.024965"><ele>788.42</ele><time>2010-06-06T08:03:20Z</time></trkpt><trkpt lat="47.581409" lon="10.025028"><ele>788.42</ele><time>2010-06-06T08:03:21Z</time></trkpt><trkpt lat="47.581250" lon="10.025794"><ele>789.38</ele><time>2010-06-06T08:03:34Z</time></trkpt><trkpt lat="47.581018" lon="10.026687"><ele>791.78</ele><time>2010-06-06T08:03:51Z</time></trkpt><trkpt lat="47.580849" lon="10.027182"><ele>794.67</ele><time>2010-06-06T08:04:05Z</time></trkpt><trkpt lat="47.580714" lon="10.027529"><ele>797.55</ele><time>2010-06-06T08:04:18Z</time></trkpt><trkpt lat="47.580574" lon="10.027805"><ele>800.92</ele><time>2010-06-06T08:04:29Z</time></trkpt><trkpt lat="47.580364" lon="10.028115"><ele>803.80</ele><time>2010-06-06T08:04:43Z</time></trkpt><trkpt lat="47.580122" lon="10.028454"><ele>806.20</ele><time>2010-06-06T08:04:58Z</time></trkpt><trkpt lat="47.579909" lon="10.028724"><ele>808.13</ele><time>2010-06-06T08:05:10Z</time></trkpt><trkpt lat="47.579702" lon="10.029053"><ele>810.53</ele><time>2010-06-06T08:05:25Z</time></trkpt><trkpt lat="47.579527" lon="10.029453"><ele>813.41</ele><time>2010-06-06T08:05:39Z</time></trkpt><trkpt lat="47.579415" lon="10.029794"><ele>816.78</ele><time>2010-06-06T08:05:51Z</time></trkpt><trkpt lat="47.579349" lon="10.030126"><ele>819.66</ele><time>2010-06-06T08:06:03Z</time></trkpt><trkpt lat="47.579312" lon="10.030481"><ele>823.03</ele><time>2010-06-06T08:06:16Z</time></trkpt><trkpt lat="47.579292" lon="10.030878"><ele>826.39</ele><time>2010-06-06T08:06:30Z</time></trkpt><trkpt lat="47.579276" lon="10.031293"><ele>829.27</ele><time>2010-06-06T08:06:44Z</time></trkpt><trkpt lat="47.579277" lon="10.031725"><ele>832.64</ele><time>2010-06-06T08:06:59Z</time></trkpt><trkpt lat="47.579328" lon="10.032254"><ele>834.56</ele><time>2010-06-06T08:07:15Z</time></trkpt><trkpt lat="47.579178" lon="10.032497"><ele>836.00</ele><time>2010-06-06T08:07:25Z</time></trkpt><trkpt lat="47.579053" lon="10.032667"><ele>836.48</ele><time>2010-06-06T08:07:33Z</time></trkpt><trkpt lat="47.578833" lon="10.032700"><ele>837.45</ele><time>2010-06-06T08:07:47Z</time></trkpt><trkpt lat="47.578592" lon="10.032724"><ele>838.89</ele><time>2010-06-06T08:08:04Z</time></trkpt><trkpt lat="47.578355" lon="10.032737"><ele>840.33</ele><time>2010-06-06T08:08:21Z</time></trkpt><trkpt lat="47.578292" lon="10.032695"><ele>840.81</ele><time>2010-06-06T08:08:27Z</time></trkpt><trkpt lat="47.578146" lon="10.032237"><ele>838.89</ele><time>2010-06-06T08:08:38Z</time></trkpt><trkpt lat="47.578135" lon="10.032194"><ele>839.37</ele><time>2010-06-06T08:08:39Z</time></trkpt><trkpt lat="47.577803" lon="10.031891"><ele>838.89</ele><time>2010-06-06T08:08:52Z</time></trkpt><trkpt lat="47.577735" lon="10.031821"><ele>838.89</ele><time>2010-06-06T08:09:03Z</time></trkpt><trkpt lat="47.577726" lon="10.031810"><ele>838.41</ele><time>2010-06-06T08:09:28Z</time></trkpt><trkpt lat="47.577726" lon="10.031814"><ele>838.89</ele><time>2010-06-06T08:10:15Z</time></trkpt><trkpt lat="47.577559" lon="10.031704"><ele>839.37</ele><time>2010-06-06T08:10:27Z</time></trkpt><trkpt lat="47.577412" lon="10.031619"><ele>842.25</ele><time>2010-06-06T08:10:32Z</time></trkpt><trkpt lat="47.577332" lon="10.031604"><ele>837.45</ele><time>2010-06-06T08:10:34Z</time></trkpt><trkpt lat="47.577238" lon="10.031617"><ele>835.52</ele><time>2010-06-06T08:10:37Z</time></trkpt><trkpt lat="47.576983" lon="10.031497"><ele>834.08</ele><time>2010-06-06T08:10:45Z</time></trkpt><trkpt lat="47.576941" lon="10.031470"><ele>833.12</ele><time>2010-06-06T08:10:46Z</time></trkpt><trkpt lat="47.576766" lon="10.031348"><ele>832.16</ele><time>2010-06-06T08:10:49Z</time></trkpt><trkpt lat="47.576629" lon="10.031310"><ele>829.76</ele><time>2010-06-06T08:10:51Z</time></trkpt><trkpt lat="47.576354" lon="10.031344"><ele>828.31</ele><time>2010-06-06T08:10:55Z</time></trkpt><trkpt lat="47.576157" lon="10.031439"><ele>828.79</ele><time>2010-06-06T08:10:58Z</time></trkpt><trkpt lat="47.575854" lon="10.031473"><ele>827.35</ele><time>2010-06-06T08:11:02Z</time></trkpt><trkpt lat="47.575519" lon="10.031374"><ele>826.87</ele><time>2010-06-06T08:11:07Z</time></trkpt><trkpt lat="47.575409" lon="10.031320"><ele>825.91</ele><time>2010-06-06T08:11:09Z</time></trkpt><trkpt lat="47.575044" lon="10.031409"><ele>823.99</ele><time>2010-06-06T08:11:15Z</time></trkpt><trkpt lat="47.574937" lon="10.031359"><ele>822.06</ele><time>2010-06-06T08:11:17Z</time></trkpt><trkpt lat="47.574888" lon="10.031349"><ele>822.06</ele><time>2010-06-06T08:11:18Z</time></trkpt><trkpt lat="47.574659" lon="10.031371"><ele>821.58</ele><time>2010-06-06T08:11:22Z</time></trkpt><trkpt lat="47.574440" lon="10.031340"><ele>822.55</ele><time>2010-06-06T08:11:25Z</time></trkpt><trkpt lat="47.574312" lon="10.031351"><ele>823.99</ele><time>2010-06-06T08:11:27Z</time></trkpt><trkpt lat="47.573962" lon="10.031465"><ele>824.95</ele><time>2010-06-06T08:11:36Z</time></trkpt><trkpt lat="47.573759" lon="10.031478"><ele>827.35</ele><time>2010-06-06T08:11:44Z</time></trkpt><trkpt lat="47.573505" lon="10.031474"><ele>826.87</ele><time>2010-06-06T08:11:54Z</time></trkpt><trkpt lat="47.573153" lon="10.031412"><ele>827.83</ele><time>2010-06-06T08:12:05Z</time></trkpt><trkpt lat="47.572803" lon="10.031425"><ele>829.76</ele><time>2010-06-06T08:12:15Z</time></trkpt><trkpt lat="47.572695" lon="10.031410"><ele>830.72</ele><time>2010-06-06T08:12:18Z</time></trkpt><trkpt lat="47.572523" lon="10.031398"><ele>832.16</ele><time>2010-06-06T08:12:23Z</time></trkpt><trkpt lat="47.572370" lon="10.031384"><ele>833.60</ele><time>2010-06-06T08:12:28Z</time></trkpt><trkpt lat="47.571977" lon="10.031145"><ele>832.16</ele><time>2010-06-06T08:12:40Z</time></trkpt><trkpt lat="47.571854" lon="10.031004"><ele>831.68</ele><time>2010-06-06T08:12:44Z</time></trkpt><trkpt lat="47.571722" lon="10.030790"><ele>830.24</ele><time>2010-06-06T08:12:48Z</time></trkpt><trkpt lat="47.571683" lon="10.030703"><ele>829.76</ele><time>2010-06-06T08:12:49Z</time></trkpt><trkpt lat="47.571634" lon="10.030614"><ele>827.83</ele><time>2010-06-06T08:12:50Z</time></trkpt><trkpt lat="47.571570" lon="10.030536"><ele>827.35</ele><time>2010-06-06T08:12:51Z</time></trkpt><trkpt lat="47.571494" lon="10.030480"><ele>826.39</ele><time>2010-06-06T08:12:52Z</time></trkpt><trkpt lat="47.571411" lon="10.030440"><ele>825.91</ele><time>2010-06-06T08:12:53Z</time></trkpt><trkpt lat="47.571331" lon="10.030390"><ele>825.43</ele><time>2010-06-06T08:12:54Z</time></trkpt><trkpt lat="47.571260" lon="10.030320"><ele>824.95</ele><time>2010-06-06T08:12:55Z</time></trkpt><trkpt lat="47.571191" lon="10.030251"><ele>823.99</ele><time>2010-06-06T08:12:56Z</time></trkpt><trkpt lat="47.571120" lon="10.030203"><ele>823.51</ele><time>2010-06-06T08:12:57Z</time></trkpt><trkpt lat="47.571039" lon="10.030180"><ele>823.51</ele><time>2010-06-06T08:12:58Z</time></trkpt><trkpt lat="47.570956" lon="10.030178"><ele>823.51</ele><time>2010-06-06T08:12:59Z</time></trkpt><trkpt lat="47.570871" lon="10.030186"><ele>822.55</ele><time>2010-06-06T08:13:00Z</time></trkpt><trkpt lat="47.570783" lon="10.030198"><ele>822.55</ele><time>2010-06-06T08:13:01Z</time></trkpt><trkpt lat="47.570696" lon="10.030194"><ele>821.10</ele><time>2010-06-06T08:13:02Z</time></trkpt><trkpt lat="47.570612" lon="10.030153"><ele>820.62</ele><time>2010-06-06T08:13:03Z</time></trkpt><trkpt lat="47.570534" lon="10.030095"><ele>820.14</ele><time>2010-06-06T08:13:04Z</time></trkpt><trkpt lat="47.570135" lon="10.029685"><ele>818.22</ele><time>2010-06-06T08:13:10Z</time></trkpt><trkpt lat="47.570084" lon="10.029599"><ele>818.22</ele><time>2010-06-06T08:13:11Z</time></trkpt><trkpt lat="47.570048" lon="10.029507"><ele>818.70</ele><time>2010-06-06T08:13:12Z</time></trkpt><trkpt lat="47.570028" lon="10.029417"><ele>819.18</ele><time>2010-06-06T08:13:13Z</time></trkpt><trkpt lat="47.570022" lon="10.029334"><ele>820.14</ele><time>2010-06-06T08:13:14Z</time></trkpt><trkpt lat="47.569934" lon="10.028931"><ele>822.55</ele><time>2010-06-06T08:13:23Z</time></trkpt><trkpt lat="47.569787" lon="10.028612"><ele>825.43</ele><time>2010-06-06T08:13:38Z</time></trkpt><trkpt lat="47.569692" lon="10.028257"><ele>826.39</ele><time>2010-06-06T08:13:52Z</time></trkpt><trkpt lat="47.569522" lon="10.028211"><ele>829.76</ele><time>2010-06-06T08:14:02Z</time></trkpt><trkpt lat="47.569488" lon="10.028209"><ele>829.76</ele><time>2010-06-06T08:14:04Z</time></trkpt><trkpt lat="47.569335" lon="10.028517"><ele>830.24</ele><time>2010-06-06T08:14:16Z</time></trkpt><trkpt lat="47.569165" lon="10.028832"><ele>827.35</ele><time>2010-06-06T08:14:20Z</time></trkpt><trkpt lat="47.569114" lon="10.028921"><ele>827.35</ele><time>2010-06-06T08:14:21Z</time></trkpt><trkpt lat="47.568751" lon="10.029427"><ele>827.35</ele><time>2010-06-06T08:14:28Z</time></trkpt><trkpt lat="47.568329" lon="10.029796"><ele>826.39</ele><time>2010-06-06T08:14:38Z</time></trkpt><trkpt lat="47.568294" lon="10.029829"><ele>825.91</ele><time>2010-06-06T08:14:39Z</time></trkpt><trkpt lat="47.568261" lon="10.029861"><ele>826.87</ele><time>2010-06-06T08:14:40Z</time></trkpt><trkpt lat="47.568142" lon="10.030047"><ele>826.39</ele><time>2010-06-06T08:14:45Z</time></trkpt><trkpt lat="47.568145" lon="10.030100"><ele>826.39</ele><time>2010-06-06T08:14:46Z</time></trkpt><trkpt lat="47.568164" lon="10.030160"><ele>825.43</ele><time>2010-06-06T08:14:47Z</time></trkpt><trkpt lat="47.568186" lon="10.030219"><ele>825.43</ele><time>2010-06-06T08:14:48Z</time></trkpt><trkpt lat="47.568196" lon="10.030271"><ele>824.47</ele><time>2010-06-06T08:14:49Z</time></trkpt><trkpt lat="47.568189" lon="10.030324"><ele>823.99</ele><time>2010-06-06T08:14:50Z</time></trkpt><trkpt lat="47.568168" lon="10.030382"><ele>823.51</ele><time>2010-06-06T08:14:51Z</time></trkpt><trkpt lat="47.568137" lon="10.030451"><ele>822.55</ele><time>2010-06-06T08:14:52Z</time></trkpt><trkpt lat="47.568066" lon="10.030617"><ele>821.58</ele><time>2010-06-06T08:14:54Z</time></trkpt><trkpt lat="47.567987" lon="10.030784"><ele>821.10</ele><time>2010-06-06T08:14:56Z</time></trkpt><trkpt lat="47.567938" lon="10.030850"><ele>821.10</ele><time>2010-06-06T08:14:57Z</time></trkpt><trkpt lat="47.567883" lon="10.030903"><ele>821.58</ele><time>2010-06-06T08:14:58Z</time></trkpt><trkpt lat="47.567497" lon="10.031242"><ele>821.10</ele><time>2010-06-06T08:15:05Z</time></trkpt><trkpt lat="47.567452" lon="10.031299"><ele>821.58</ele><time>2010-06-06T08:15:06Z</time></trkpt><trkpt lat="47.567412" lon="10.031362"><ele>821.58</ele><time>2010-06-06T08:15:07Z</time></trkpt><trkpt lat="47.567382" lon="10.031431"><ele>821.58</ele><time>2010-06-06T08:15:08Z</time></trkpt><trkpt lat="47.567366" lon="10.031507"><ele>821.58</ele><time>2010-06-06T08:15:09Z</time></trkpt><trkpt lat="47.567359" lon="10.031586"><ele>821.58</ele><time>2010-06-06T08:15:10Z</time></trkpt><trkpt lat="47.567358" lon="10.031666"><ele>821.58</ele><time>2010-06-06T08:15:11Z</time></trkpt><trkpt lat="47.567358" lon="10.031744"><ele>822.06</ele><time>2010-06-06T08:15:12Z</time></trkpt><trkpt lat="47.567351" lon="10.032905"><ele>824.47</ele><time>2010-06-06T08:15:30Z</time></trkpt><trkpt lat="47.567460" lon="10.033757"><ele>827.35</ele><time>2010-06-06T08:15:48Z</time></trkpt><trkpt lat="47.567775" lon="10.034027"><ele>830.24</ele><time>2010-06-06T08:16:01Z</time></trkpt><trkpt lat="47.567833" lon="10.034142"><ele>831.68</ele><time>2010-06-06T08:16:05Z</time></trkpt><trkpt lat="47.567833" lon="10.034177"><ele>831.20</ele><time>2010-06-06T08:16:06Z</time></trkpt><trkpt lat="47.567792" lon="10.034759"><ele>832.16</ele><time>2010-06-06T08:16:19Z</time></trkpt><trkpt lat="47.567688" lon="10.035397"><ele>833.60</ele><time>2010-06-06T08:16:34Z</time></trkpt><trkpt lat="47.567568" lon="10.035584"><ele>832.64</ele><time>2010-06-06T08:16:40Z</time></trkpt><trkpt lat="47.567525" lon="10.035571"><ele>832.16</ele><time>2010-06-06T08:16:41Z</time></trkpt><trkpt lat="47.567482" lon="10.035538"><ele>831.68</ele><time>2010-06-06T08:16:42Z</time></trkpt><trkpt lat="47.567387" lon="10.035459"><ele>831.68</ele><time>2010-06-06T08:16:44Z</time></trkpt><trkpt lat="47.567331" lon="10.035445"><ele>831.20</ele><time>2010-06-06T08:16:45Z</time></trkpt><trkpt lat="47.567271" lon="10.035459"><ele>830.24</ele><time>2010-06-06T08:16:46Z</time></trkpt><trkpt lat="47.567072" lon="10.035538"><ele>829.76</ele><time>2010-06-06T08:16:49Z</time></trkpt><trkpt lat="47.566994" lon="10.035546"><ele>829.27</ele><time>2010-06-06T08:16:50Z</time></trkpt><trkpt lat="47.566914" lon="10.035534"><ele>829.27</ele><time>2010-06-06T08:16:51Z</time></trkpt><trkpt lat="47.566837" lon="10.035498"><ele>828.79</ele><time>2010-06-06T08:16:52Z</time></trkpt><trkpt lat="47.566763" lon="10.035450"><ele>828.31</ele><time>2010-06-06T08:16:53Z</time></trkpt><trkpt lat="47.566542" lon="10.035304"><ele>827.35</ele><time>2010-06-06T08:16:56Z</time></trkpt><trkpt lat="47.566240" lon="10.035162"><ele>825.91</ele><time>2010-06-06T08:17:00Z</time></trkpt><trkpt lat="47.566020" lon="10.035092"><ele>825.43</ele><time>2010-06-06T08:17:03Z</time></trkpt><trkpt lat="47.565949" lon="10.035058"><ele>824.95</ele><time>2010-06-06T08:17:04Z</time></trkpt><trkpt lat="47.565802" lon="10.035011"><ele>823.51</ele><time>2010-06-06T08:17:06Z</time></trkpt><trkpt lat="47.565730" lon="10.035023"><ele>823.03</ele><time>2010-06-06T08:17:07Z</time></trkpt><trkpt lat="47.565670" lon="10.035087"><ele>823.03</ele><time>2010-06-06T08:17:08Z</time></trkpt><trkpt lat="47.565639" lon="10.035188"><ele>822.55</ele><time>2010-06-06T08:17:09Z</time></trkpt><trkpt lat="47.565627" lon="10.035305"><ele>821.58</ele><time>2010-06-06T08:17:10Z</time></trkpt><trkpt lat="47.565617" lon="10.035425"><ele>821.58</ele><time>2010-06-06T08:17:11Z</time></trkpt><trkpt lat="47.565592" lon="10.035538"><ele>820.62</ele><time>2010-06-06T08:17:12Z</time></trkpt><trkpt lat="47.565550" lon="10.035644"><ele>820.14</ele><time>2010-06-06T08:17:13Z</time></trkpt><trkpt lat="47.565498" lon="10.035733"><ele>819.66</ele><time>2010-06-06T08:17:14Z</time></trkpt><trkpt lat="47.565426" lon="10.035793"><ele>819.18</ele><time>2010-06-06T08:17:15Z</time></trkpt><trkpt lat="47.565341" lon="10.035838"><ele>818.22</ele><time>2010-06-06T08:17:16Z</time></trkpt><trkpt lat="47.565255" lon="10.035864"><ele>818.22</ele><time>2010-06-06T08:17:17Z</time></trkpt><trkpt lat="47.565168" lon="10.035863"><ele>818.22</ele><time>2010-06-06T08:17:18Z</time></trkpt><trkpt lat="47.565084" lon="10.035864"><ele>817.74</ele><time>2010-06-06T08:17:19Z</time></trkpt><trkpt lat="47.565007" lon="10.035883"><ele>817.74</ele><time>2010-06-06T08:17:20Z</time></trkpt><trkpt lat="47.564940" lon="10.035913"><ele>817.26</ele><time>2010-06-06T08:17:21Z</time></trkpt><trkpt lat="47.564878" lon="10.035944"><ele>817.74</ele><time>2010-06-06T08:17:22Z</time></trkpt><trkpt lat="47.564806" lon="10.035968"><ele>817.26</ele><time>2010-06-06T08:17:23Z</time></trkpt><trkpt lat="47.564720" lon="10.035978"><ele>816.30</ele><time>2010-06-06T08:17:24Z</time></trkpt><trkpt lat="47.564629" lon="10.035973"><ele>816.30</ele><time>2010-06-06T08:17:25Z</time></trkpt><trkpt lat="47.564539" lon="10.035957"><ele>815.82</ele><time>2010-06-06T08:17:26Z</time></trkpt><trkpt lat="47.564457" lon="10.035943"><ele>815.34</ele><time>2010-06-06T08:17:27Z</time></trkpt><trkpt lat="47.564319" lon="10.035912"><ele>814.37</ele><time>2010-06-06T08:17:29Z</time></trkpt><trkpt lat="47.564262" lon="10.035906"><ele>814.37</ele><time>2010-06-06T08:17:30Z</time></trkpt><trkpt lat="47.564211" lon="10.035932"><ele>814.37</ele><time>2010-06-06T08:17:31Z</time></trkpt><trkpt lat="47.564172" lon="10.035992"><ele>813.89</ele><time>2010-06-06T08:17:32Z</time></trkpt><trkpt lat="47.564137" lon="10.036061"><ele>813.89</ele><time>2010-06-06T08:17:33Z</time></trkpt><trkpt lat="47.564094" lon="10.036118"><ele>813.41</ele><time>2010-06-06T08:17:34Z</time></trkpt><trkpt lat="47.564043" lon="10.036153"><ele>812.93</ele><time>2010-06-06T08:17:35Z</time></trkpt><trkpt lat="47.563988" lon="10.036177"><ele>812.45</ele><time>2010-06-06T08:17:36Z</time></trkpt><trkpt lat="47.563932" lon="10.036195"><ele>812.93</ele><time>2010-06-06T08:17:37Z</time></trkpt><trkpt lat="47.563614" lon="10.036342"><ele>811.49</ele><time>2010-06-06T08:17:45Z</time></trkpt><trkpt lat="47.563568" lon="10.036354"><ele>811.49</ele><time>2010-06-06T08:17:46Z</time></trkpt><trkpt lat="47.563519" lon="10.036350"><ele>811.01</ele><time>2010-06-06T08:17:47Z</time></trkpt><trkpt lat="47.562670" lon="10.036315"><ele>807.16</ele><time>2010-06-06T08:18:01Z</time></trkpt><trkpt lat="47.562600" lon="10.036304"><ele>807.64</ele><time>2010-06-06T08:18:02Z</time></trkpt><trkpt lat="47.562463" lon="10.036292"><ele>806.68</ele><time>2010-06-06T08:18:04Z</time></trkpt><trkpt lat="47.562397" lon="10.036310"><ele>806.20</ele><time>2010-06-06T08:18:05Z</time></trkpt><trkpt lat="47.562336" lon="10.036360"><ele>805.72</ele><time>2010-06-06T08:18:06Z</time></trkpt><trkpt lat="47.562280" lon="10.036435"><ele>805.24</ele><time>2010-06-06T08:18:07Z</time></trkpt><trkpt lat="47.562222" lon="10.036515"><ele>805.24</ele><time>2010-06-06T08:18:08Z</time></trkpt><trkpt lat="47.562156" lon="10.036591"><ele>804.76</ele><time>2010-06-06T08:18:09Z</time></trkpt><trkpt lat="47.562084" lon="10.036658"><ele>804.28</ele><time>2010-06-06T08:18:10Z</time></trkpt><trkpt lat="47.562004" lon="10.036719"><ele>802.84</ele><time>2010-06-06T08:18:11Z</time></trkpt><trkpt lat="47.561918" lon="10.036772"><ele>802.84</ele><time>2010-06-06T08:18:12Z</time></trkpt><trkpt lat="47.561825" lon="10.036816"><ele>801.88</ele><time>2010-06-06T08:18:13Z</time></trkpt><trkpt lat="47.561728" lon="10.036846"><ele>800.92</ele><time>2010-06-06T08:18:14Z</time></trkpt><trkpt lat="47.561628" lon="10.036868"><ele>799.95</ele><time>2010-06-06T08:18:15Z</time></trkpt><trkpt lat="47.561424" lon="10.036897"><ele>798.99</ele><time>2010-06-06T08:18:17Z</time></trkpt><trkpt lat="47.561321" lon="10.036881"><ele>798.51</ele><time>2010-06-06T08:18:18Z</time></trkpt><trkpt lat="47.560914" lon="10.036761"><ele>796.11</ele><time>2010-06-06T08:18:22Z</time></trkpt><trkpt lat="47.560612" lon="10.036733"><ele>794.19</ele><time>2010-06-06T08:18:25Z</time></trkpt><trkpt lat="47.560515" lon="10.036748"><ele>794.19</ele><time>2010-06-06T08:18:26Z</time></trkpt><trkpt lat="47.560423" lon="10.036772"><ele>793.71</ele><time>2010-06-06T08:18:27Z</time></trkpt><trkpt lat="47.560335" lon="10.036811"><ele>793.22</ele><time>2010-06-06T08:18:28Z</time></trkpt><trkpt lat="47.560252" lon="10.036864"><ele>793.22</ele><time>2010-06-06T08:18:29Z</time></trkpt><trkpt lat="47.560171" lon="10.036931"><ele>793.22</ele><time>2010-06-06T08:18:30Z</time></trkpt><trkpt lat="47.560095" lon="10.037008"><ele>792.74</ele><time>2010-06-06T08:18:31Z</time></trkpt><trkpt lat="47.560023" lon="10.037091"><ele>792.26</ele><time>2010-06-06T08:18:32Z</time></trkpt><trkpt lat="47.559953" lon="10.037178"><ele>791.78</ele><time>2010-06-06T08:18:33Z</time></trkpt><trkpt lat="47.559885" lon="10.037263"><ele>791.78</ele><time>2010-06-06T08:18:34Z</time></trkpt><trkpt lat="47.559826" lon="10.037358"><ele>791.78</ele><time>2010-06-06T08:18:35Z</time></trkpt><trkpt lat="47.559780" lon="10.037466"><ele>791.78</ele><time>2010-06-06T08:18:36Z</time></trkpt><trkpt lat="47.559744" lon="10.037583"><ele>791.30</ele><time>2010-06-06T08:18:37Z</time></trkpt><trkpt lat="47.559720" lon="10.037706"><ele>790.82</ele><time>2010-06-06T08:18:38Z</time></trkpt><trkpt lat="47.559700" lon="10.037829"><ele>790.82</ele><time>2010-06-06T08:18:39Z</time></trkpt><trkpt lat="47.559604" lon="10.039170"><ele>788.42</ele><time>2010-06-06T08:18:50Z</time></trkpt><trkpt lat="47.559419" lon="10.039926"><ele>787.46</ele><time>2010-06-06T08:18:57Z</time></trkpt><trkpt lat="47.559370" lon="10.040014"><ele>786.98</ele><time>2010-06-06T08:18:58Z</time></trkpt><trkpt lat="47.559260" lon="10.040181"><ele>786.50</ele><time>2010-06-06T08:19:00Z</time></trkpt><trkpt lat="47.558460" lon="10.041149"><ele>783.61</ele><time>2010-06-06T08:19:13Z</time></trkpt><trkpt lat="47.557514" lon="10.042171"><ele>780.25</ele><time>2010-06-06T08:19:28Z</time></trkpt><trkpt lat="47.556778" lon="10.043013"><ele>776.88</ele><time>2010-06-06T08:19:39Z</time></trkpt><trkpt lat="47.556712" lon="10.043100"><ele>776.40</ele><time>2010-06-06T08:19:40Z</time></trkpt><trkpt lat="47.556066" lon="10.044406"><ele>774.00</ele><time>2010-06-06T08:19:53Z</time></trkpt><trkpt lat="47.555910" lon="10.044829"><ele>773.52</ele><time>2010-06-06T08:19:57Z</time></trkpt><trkpt lat="47.555594" lon="10.046173"><ele>772.08</ele><time>2010-06-06T08:20:10Z</time></trkpt><trkpt lat="47.555184" lon="10.047977"><ele>770.15</ele><time>2010-06-06T08:20:29Z</time></trkpt><trkpt lat="47.555006" lon="10.049253"><ele>769.67</ele><time>2010-06-06T08:20:44Z</time></trkpt><trkpt lat="47.554992" lon="10.049332"><ele>769.67</ele><time>2010-06-06T08:20:45Z</time></trkpt><trkpt lat="47.554993" lon="10.049410"><ele>770.15</ele><time>2010-06-06T08:20:46Z</time></trkpt><trkpt lat="47.555010" lon="10.049482"><ele>769.67</ele><time>2010-06-06T08:20:47Z</time></trkpt><trkpt lat="47.555018" lon="10.049551"><ele>770.15</ele><time>2010-06-06T08:20:48Z</time></trkpt><trkpt lat="47.555007" lon="10.049620"><ele>770.15</ele><time>2010-06-06T08:20:49Z</time></trkpt><trkpt lat="47.554984" lon="10.049685"><ele>769.67</ele><time>2010-06-06T08:20:50Z</time></trkpt><trkpt lat="47.554956" lon="10.049745"><ele>770.15</ele><time>2010-06-06T08:20:51Z</time></trkpt><trkpt lat="47.554924" lon="10.049801"><ele>769.67</ele><time>2010-06-06T08:20:52Z</time></trkpt><trkpt lat="47.554703" lon="10.050160"><ele>767.75</ele><time>2010-06-06T08:20:58Z</time></trkpt><trkpt lat="47.554687" lon="10.050241"><ele>767.75</ele><time>2010-06-06T08:20:59Z</time></trkpt><trkpt lat="47.554689" lon="10.050323"><ele>767.75</ele><time>2010-06-06T08:21:00Z</time></trkpt><trkpt lat="47.554699" lon="10.050391"><ele>768.23</ele><time>2010-06-06T08:21:01Z</time></trkpt><trkpt lat="47.554802" lon="10.050681"><ele>767.75</ele><time>2010-06-06T08:21:06Z</time></trkpt><trkpt lat="47.554822" lon="10.050744"><ele>767.75</ele><time>2010-06-06T08:21:07Z</time></trkpt><trkpt lat="47.554832" lon="10.050810"><ele>768.23</ele><time>2010-06-06T08:21:08Z</time></trkpt><trkpt lat="47.554837" lon="10.050875"><ele>767.75</ele><time>2010-06-06T08:21:09Z</time></trkpt><trkpt lat="47.554841" lon="10.050942"><ele>768.23</ele><time>2010-06-06T08:21:10Z</time></trkpt><trkpt lat="47.554865" lon="10.051074"><ele>768.23</ele><time>2010-06-06T08:21:12Z</time></trkpt><trkpt lat="47.554902" lon="10.051582"><ele>767.75</ele><time>2010-06-06T08:21:20Z</time></trkpt><trkpt lat="47.554947" lon="10.051760"><ele>767.75</ele><time>2010-06-06T08:21:23Z</time></trkpt><trkpt lat="47.555090" lon="10.052134"><ele>768.23</ele><time>2010-06-06T08:21:30Z</time></trkpt><trkpt lat="47.555108" lon="10.052189"><ele>768.23</ele><time>2010-06-06T08:21:31Z</time></trkpt><trkpt lat="47.555283" lon="10.052787"><ele>769.67</ele><time>2010-06-06T08:21:44Z</time></trkpt><trkpt lat="47.555284" lon="10.052827"><ele>770.15</ele><time>2010-06-06T08:21:45Z</time></trkpt><trkpt lat="47.555287" lon="10.052865"><ele>770.15</ele><time>2010-06-06T08:21:46Z</time></trkpt><trkpt lat="47.555297" lon="10.052905"><ele>770.63</ele><time>2010-06-06T08:21:47Z</time></trkpt><trkpt lat="47.555304" lon="10.052947"><ele>771.11</ele><time>2010-06-06T08:21:48Z</time></trkpt><trkpt lat="47.555446" lon="10.053614"><ele>772.08</ele><time>2010-06-06T08:22:03Z</time></trkpt><trkpt lat="47.555512" lon="10.054380"><ele>772.08</ele><time>2010-06-06T08:22:17Z</time></trkpt><trkpt lat="47.555626" lon="10.055145"><ele>774.48</ele><time>2010-06-06T08:22:33Z</time></trkpt><trkpt lat="47.555654" lon="10.055395"><ele>777.84</ele><time>2010-06-06T08:22:42Z</time></trkpt><trkpt lat="47.555692" lon="10.055830"><ele>780.25</ele><time>2010-06-06T08:22:56Z</time></trkpt><trkpt lat="47.555760" lon="10.056258"><ele>783.13</ele><time>2010-06-06T08:23:12Z</time></trkpt><trkpt lat="47.555814" lon="10.056762"><ele>782.17</ele><time>2010-06-06T08:23:24Z</time></trkpt><trkpt lat="47.555822" lon="10.057058"><ele>781.21</ele><time>2010-06-06T08:23:29Z</time></trkpt><trkpt lat="47.555819" lon="10.057224"><ele>780.73</ele><time>2010-06-06T08:23:31Z</time></trkpt><trkpt lat="47.555829" lon="10.057318"><ele>780.25</ele><time>2010-06-06T08:23:32Z</time></trkpt><trkpt lat="47.555852" lon="10.057614"><ele>779.29</ele><time>2010-06-06T08:23:35Z</time></trkpt><trkpt lat="47.555839" lon="10.057993"><ele>776.40</ele><time>2010-06-06T08:23:38Z</time></trkpt><trkpt lat="47.555815" lon="10.058139"><ele>774.00</ele><time>2010-06-06T08:23:39Z</time></trkpt><trkpt lat="47.555785" lon="10.058312"><ele>773.04</ele><time>2010-06-06T08:23:40Z</time></trkpt><trkpt lat="47.555777" lon="10.058488"><ele>772.08</ele><time>2010-06-06T08:23:41Z</time></trkpt><trkpt lat="47.555775" lon="10.058665"><ele>771.60</ele><time>2010-06-06T08:23:42Z</time></trkpt><trkpt lat="47.555677" lon="10.060133"><ele>771.11</ele><time>2010-06-06T08:23:53Z</time></trkpt><trkpt lat="47.555640" lon="10.060996"><ele>770.63</ele><time>2010-06-06T08:24:03Z</time></trkpt><trkpt lat="47.555658" lon="10.061074"><ele>771.11</ele><time>2010-06-06T08:24:04Z</time></trkpt><trkpt lat="47.555693" lon="10.061193"><ele>771.11</ele><time>2010-06-06T08:24:06Z</time></trkpt><trkpt lat="47.555701" lon="10.061255"><ele>771.11</ele><time>2010-06-06T08:24:07Z</time></trkpt><trkpt lat="47.555740" lon="10.062229"><ele>774.48</ele><time>2010-06-06T08:24:22Z</time></trkpt><trkpt lat="47.555740" lon="10.062275"><ele>774.96</ele><time>2010-06-06T08:24:23Z</time></trkpt><trkpt lat="47.555731" lon="10.062312"><ele>774.96</ele><time>2010-06-06T08:24:24Z</time></trkpt><trkpt lat="47.555711" lon="10.062346"><ele>774.96</ele><time>2010-06-06T08:24:25Z</time></trkpt><trkpt lat="47.555673" lon="10.062382"><ele>774.96</ele><time>2010-06-06T08:24:26Z</time></trkpt><trkpt lat="47.555624" lon="10.062423"><ele>774.48</ele><time>2010-06-06T08:24:27Z</time></trkpt><trkpt lat="47.555512" lon="10.062529"><ele>773.04</ele><time>2010-06-06T08:24:29Z</time></trkpt><trkpt lat="47.555464" lon="10.062613"><ele>772.56</ele><time>2010-06-06T08:24:30Z</time></trkpt><trkpt lat="47.555435" lon="10.062719"><ele>771.60</ele><time>2010-06-06T08:24:31Z</time></trkpt><trkpt lat="47.555424" lon="10.062829"><ele>771.11</ele><time>2010-06-06T08:24:32Z</time></trkpt><trkpt lat="47.555422" lon="10.062937"><ele>771.11</ele><time>2010-06-06T08:24:33Z</time></trkpt><trkpt lat="47.555440" lon="10.064202"><ele>769.19</ele><time>2010-06-06T08:24:44Z</time></trkpt><trkpt lat="47.555469" lon="10.065067"><ele>763.42</ele><time>2010-06-06T08:24:54Z</time></trkpt><trkpt lat="47.555467" lon="10.065148"><ele>769.19</ele><time>2010-06-06T08:24:55Z</time></trkpt><trkpt lat="47.555432" lon="10.065636"><ele>765.35</ele><time>2010-06-06T08:25:00Z</time></trkpt><trkpt lat="47.555301" lon="10.067209"><ele>764.87</ele><time>2010-06-06T08:25:14Z</time></trkpt><trkpt lat="47.555316" lon="10.067396"><ele>765.35</ele><time>2010-06-06T08:25:16Z</time></trkpt><trkpt lat="47.555346" lon="10.067709"><ele>766.31</ele><time>2010-06-06T08:25:20Z</time></trkpt><trkpt lat="47.555348" lon="10.067780"><ele>766.31</ele><time>2010-06-06T08:25:21Z</time></trkpt><trkpt lat="47.555352" lon="10.067849"><ele>766.79</ele><time>2010-06-06T08:25:22Z</time></trkpt><trkpt lat="47.555394" lon="10.068319"><ele>768.23</ele><time>2010-06-06T08:25:29Z</time></trkpt><trkpt lat="47.555488" lon="10.069042"><ele>768.71</ele><time>2010-06-06T08:25:42Z</time></trkpt><trkpt lat="47.555549" lon="10.069848"><ele>770.63</ele><time>2010-06-06T08:25:56Z</time></trkpt><trkpt lat="47.555596" lon="10.070343"><ele>772.08</ele><time>2010-06-06T08:26:10Z</time></trkpt><trkpt lat="47.555611" lon="10.070831"><ele>771.11</ele><time>2010-06-06T08:26:19Z</time></trkpt><trkpt lat="47.555613" lon="10.070898"><ele>770.63</ele><time>2010-06-06T08:26:20Z</time></trkpt><trkpt lat="47.555575" lon="10.071669"><ele>770.63</ele><time>2010-06-06T08:26:35Z</time></trkpt><trkpt lat="47.555614" lon="10.072340"><ele>770.15</ele><time>2010-06-06T08:26:48Z</time></trkpt><trkpt lat="47.555807" lon="10.073310"><ele>767.75</ele><time>2010-06-06T08:27:02Z</time></trkpt><trkpt lat="47.556003" lon="10.074025"><ele>769.67</ele><time>2010-06-06T08:27:12Z</time></trkpt><trkpt lat="47.556030" lon="10.074148"><ele>769.67</ele><time>2010-06-06T08:27:14Z</time></trkpt><trkpt lat="47.556042" lon="10.074207"><ele>769.67</ele><time>2010-06-06T08:27:15Z</time></trkpt><trkpt lat="47.556128" lon="10.074584"><ele>770.63</ele><time>2010-06-06T08:27:22Z</time></trkpt><trkpt lat="47.556178" lon="10.074782"><ele>770.63</ele><time>2010-06-06T08:27:25Z</time></trkpt><trkpt lat="47.556204" lon="10.074916"><ele>770.63</ele><time>2010-06-06T08:27:27Z</time></trkpt><trkpt lat="47.556219" lon="10.074977"><ele>771.11</ele><time>2010-06-06T08:27:28Z</time></trkpt><trkpt lat="47.556258" lon="10.075151"><ele>771.11</ele><time>2010-06-06T08:27:31Z</time></trkpt><trkpt lat="47.556379" lon="10.075623"><ele>771.60</ele><time>2010-06-06T08:27:39Z</time></trkpt><trkpt lat="47.556397" lon="10.075685"><ele>772.08</ele><time>2010-06-06T08:27:40Z</time></trkpt><trkpt lat="47.556411" lon="10.075748"><ele>772.08</ele><time>2010-06-06T08:27:41Z</time></trkpt><trkpt lat="47.556486" lon="10.076140"><ele>772.08</ele><time>2010-06-06T08:27:47Z</time></trkpt><trkpt lat="47.556643" lon="10.076976"><ele>770.63</ele><time>2010-06-06T08:27:58Z</time></trkpt><trkpt lat="47.556670" lon="10.077051"><ele>770.63</ele><time>2010-06-06T08:27:59Z</time></trkpt><trkpt lat="47.556689" lon="10.077138"><ele>770.15</ele><time>2010-06-06T08:28:00Z</time></trkpt><trkpt lat="47.556715" lon="10.077326"><ele>768.23</ele><time>2010-06-06T08:28:02Z</time></trkpt><trkpt lat="47.556721" lon="10.077433"><ele>768.23</ele><time>2010-06-06T08:28:03Z</time></trkpt><trkpt lat="47.556739" lon="10.077553"><ele>767.27</ele><time>2010-06-06T08:28:04Z</time></trkpt><trkpt lat="47.556766" lon="10.077686"><ele>767.27</ele><time>2010-06-06T08:28:05Z</time></trkpt><trkpt lat="47.556797" lon="10.077813"><ele>766.79</ele><time>2010-06-06T08:28:06Z</time></trkpt><trkpt lat="47.556864" lon="10.078026"><ele>766.79</ele><time>2010-06-06T08:28:08Z</time></trkpt><trkpt lat="47.556955" lon="10.078309"><ele>766.31</ele><time>2010-06-06T08:28:11Z</time></trkpt><trkpt lat="47.557048" lon="10.078832"><ele>766.31</ele><time>2010-06-06T08:28:17Z</time></trkpt><trkpt lat="47.557050" lon="10.078909"><ele>766.31</ele><time>2010-06-06T08:28:18Z</time></trkpt><trkpt lat="47.557121" lon="10.080137"><ele>767.27</ele><time>2010-06-06T08:28:34Z</time></trkpt><trkpt lat="47.557220" lon="10.081026"><ele>767.75</ele><time>2010-06-06T08:28:48Z</time></trkpt><trkpt lat="47.557252" lon="10.081204"><ele>767.27</ele><time>2010-06-06T08:28:51Z</time></trkpt><trkpt lat="47.557343" lon="10.081755"><ele>765.83</ele><time>2010-06-06T08:28:59Z</time></trkpt><trkpt lat="47.557388" lon="10.081958"><ele>764.87</ele><time>2010-06-06T08:29:02Z</time></trkpt><trkpt lat="47.557423" lon="10.082027"><ele>764.87</ele><time>2010-06-06T08:29:03Z</time></trkpt><trkpt lat="47.557466" lon="10.082082"><ele>764.87</ele><time>2010-06-06T08:29:04Z</time></trkpt><trkpt lat="47.557505" lon="10.082130"><ele>765.83</ele><time>2010-06-06T08:29:05Z</time></trkpt><trkpt lat="47.557533" lon="10.082173"><ele>766.79</ele><time>2010-06-06T08:29:06Z</time></trkpt><trkpt lat="47.557557" lon="10.082237"><ele>768.23</ele><time>2010-06-06T08:29:08Z</time></trkpt><trkpt lat="47.557556" lon="10.082263"><ele>768.23</ele><time>2010-06-06T08:29:09Z</time></trkpt><trkpt lat="47.557522" lon="10.082489"><ele>770.63</ele><time>2010-06-06T08:29:14Z</time></trkpt><trkpt lat="47.557526" lon="10.083287"><ele>767.75</ele><time>2010-06-06T08:29:22Z</time></trkpt><trkpt lat="47.557515" lon="10.083411"><ele>766.79</ele><time>2010-06-06T08:29:23Z</time></trkpt><trkpt lat="47.557517" lon="10.083544"><ele>766.31</ele><time>2010-06-06T08:29:24Z</time></trkpt><trkpt lat="47.557543" lon="10.083808"><ele>765.35</ele><time>2010-06-06T08:29:26Z</time></trkpt><trkpt lat="47.557680" lon="10.085000"><ele>761.98</ele><time>2010-06-06T08:29:35Z</time></trkpt><trkpt lat="47.557694" lon="10.085131"><ele>761.50</ele><time>2010-06-06T08:29:36Z</time></trkpt><trkpt lat="47.557698" lon="10.085259"><ele>761.98</ele><time>2010-06-06T08:29:37Z</time></trkpt><trkpt lat="47.557787" lon="10.086806"><ele>761.50</ele><time>2010-06-06T08:29:51Z</time></trkpt><trkpt lat="47.557919" lon="10.087365"><ele>762.94</ele><time>2010-06-06T08:29:58Z</time></trkpt><trkpt lat="47.557935" lon="10.087433"><ele>763.90</ele><time>2010-06-06T08:29:59Z</time></trkpt><trkpt lat="47.557960" lon="10.087631"><ele>764.39</ele><time>2010-06-06T08:30:02Z</time></trkpt><trkpt lat="47.557967" lon="10.087697"><ele>764.39</ele><time>2010-06-06T08:30:03Z</time></trkpt><trkpt lat="47.558006" lon="10.088433"><ele>765.83</ele><time>2010-06-06T08:30:17Z</time></trkpt><trkpt lat="47.558005" lon="10.089214"><ele>761.98</ele><time>2010-06-06T08:30:28Z</time></trkpt><trkpt lat="47.558008" lon="10.089380"><ele>760.54</ele><time>2010-06-06T08:30:30Z</time></trkpt><trkpt lat="47.558026" lon="10.089440"><ele>761.02</ele><time>2010-06-06T08:30:31Z</time></trkpt><trkpt lat="47.558057" lon="10.089476"><ele>760.06</ele><time>2010-06-06T08:30:32Z</time></trkpt><trkpt lat="47.558094" lon="10.089487"><ele>760.06</ele><time>2010-06-06T08:30:33Z</time></trkpt><trkpt lat="47.558127" lon="10.089492"><ele>761.02</ele><time>2010-06-06T08:30:34Z</time></trkpt><trkpt lat="47.558156" lon="10.089494"><ele>761.50</ele><time>2010-06-06T08:30:35Z</time></trkpt><trkpt lat="47.558207" lon="10.089502"><ele>761.98</ele><time>2010-06-06T08:30:37Z</time></trkpt><trkpt lat="47.558226" lon="10.089522"><ele>762.46</ele><time>2010-06-06T08:30:38Z</time></trkpt><trkpt lat="47.558240" lon="10.089559"><ele>761.98</ele><time>2010-06-06T08:30:39Z</time></trkpt><trkpt lat="47.558246" lon="10.089611"><ele>762.46</ele><time>2010-06-06T08:30:40Z</time></trkpt><trkpt lat="47.558246" lon="10.089669"><ele>762.46</ele><time>2010-06-06T08:30:41Z</time></trkpt><trkpt lat="47.558291" lon="10.090276"><ele>761.98</ele><time>2010-06-06T08:30:50Z</time></trkpt><trkpt lat="47.558351" lon="10.090658"><ele>761.50</ele><time>2010-06-06T08:30:55Z</time></trkpt><trkpt lat="47.558475" lon="10.091640"><ele>761.50</ele><time>2010-06-06T08:31:10Z</time></trkpt><trkpt lat="47.558488" lon="10.091711"><ele>761.02</ele><time>2010-06-06T08:31:11Z</time></trkpt><trkpt lat="47.558513" lon="10.091932"><ele>761.02</ele><time>2010-06-06T08:31:14Z</time></trkpt><trkpt lat="47.558506" lon="10.092008"><ele>761.50</ele><time>2010-06-06T08:31:15Z</time></trkpt><trkpt lat="47.558489" lon="10.092079"><ele>761.02</ele><time>2010-06-06T08:31:16Z</time></trkpt><trkpt lat="47.558355" lon="10.092452"><ele>761.02</ele><time>2010-06-06T08:31:22Z</time></trkpt><trkpt lat="47.558246" lon="10.093447"><ele>761.02</ele><time>2010-06-06T08:31:36Z</time></trkpt><trkpt lat="47.558240" lon="10.093719"><ele>761.02</ele><time>2010-06-06T08:31:40Z</time></trkpt><trkpt lat="47.558133" lon="10.094609"><ele>758.14</ele><time>2010-06-06T08:31:51Z</time></trkpt><trkpt lat="47.558089" lon="10.094783"><ele>758.14</ele><time>2010-06-06T08:31:53Z</time></trkpt><trkpt lat="47.558061" lon="10.094867"><ele>757.66</ele><time>2010-06-06T08:31:54Z</time></trkpt><trkpt lat="47.558010" lon="10.095013"><ele>756.69</ele><time>2010-06-06T08:31:56Z</time></trkpt><trkpt lat="47.557993" lon="10.095082"><ele>755.73</ele><time>2010-06-06T08:31:57Z</time></trkpt><trkpt lat="47.557985" lon="10.095160"><ele>755.73</ele><time>2010-06-06T08:31:58Z</time></trkpt><trkpt lat="47.557988" lon="10.095238"><ele>755.73</ele><time>2010-06-06T08:31:59Z</time></trkpt><trkpt lat="47.557998" lon="10.095313"><ele>755.73</ele><time>2010-06-06T08:32:00Z</time></trkpt><trkpt lat="47.558011" lon="10.095384"><ele>755.73</ele><time>2010-06-06T08:32:01Z</time></trkpt><trkpt lat="47.558087" lon="10.095707"><ele>756.69</ele><time>2010-06-06T08:32:06Z</time></trkpt><trkpt lat="47.558185" lon="10.096245"><ele>756.69</ele><time>2010-06-06T08:32:14Z</time></trkpt><trkpt lat="47.558178" lon="10.096740"><ele>756.69</ele><time>2010-06-06T08:32:22Z</time></trkpt><trkpt lat="47.558177" lon="10.096819"><ele>756.21</ele><time>2010-06-06T08:32:23Z</time></trkpt><trkpt lat="47.558180" lon="10.096901"><ele>756.21</ele><time>2010-06-06T08:32:24Z</time></trkpt><trkpt lat="47.558186" lon="10.096983"><ele>755.73</ele><time>2010-06-06T08:32:25Z</time></trkpt><trkpt lat="47.558195" lon="10.097069"><ele>756.21</ele><time>2010-06-06T08:32:26Z</time></trkpt><trkpt lat="47.558214" lon="10.097153"><ele>755.73</ele><time>2010-06-06T08:32:27Z</time></trkpt><trkpt lat="47.558243" lon="10.097232"><ele>755.73</ele><time>2010-06-06T08:32:28Z</time></trkpt><trkpt lat="47.558280" lon="10.097308"><ele>755.25</ele><time>2010-06-06T08:32:29Z</time></trkpt><trkpt lat="47.558318" lon="10.097385"><ele>755.25</ele><time>2010-06-06T08:32:30Z</time></trkpt><trkpt lat="47.558488" lon="10.097698"><ele>754.29</ele><time>2010-06-06T08:32:34Z</time></trkpt><trkpt lat="47.558526" lon="10.097781"><ele>754.29</ele><time>2010-06-06T08:32:35Z</time></trkpt><trkpt lat="47.558737" lon="10.098418"><ele>753.33</ele><time>2010-06-06T08:32:42Z</time></trkpt><trkpt lat="47.558750" lon="10.098520"><ele>753.33</ele><time>2010-06-06T08:32:43Z</time></trkpt><trkpt lat="47.558757" lon="10.098623"><ele>752.85</ele><time>2010-06-06T08:32:44Z</time></trkpt><trkpt lat="47.558745" lon="10.099721"><ele>751.89</ele><time>2010-06-06T08:32:56Z</time></trkpt><trkpt lat="47.558724" lon="10.099959"><ele>751.41</ele><time>2010-06-06T08:32:59Z</time></trkpt><trkpt lat="47.558712" lon="10.100037"><ele>751.41</ele><time>2010-06-06T08:33:00Z</time></trkpt><trkpt lat="47.558525" lon="10.101145"><ele>751.89</ele><time>2010-06-06T08:33:15Z</time></trkpt><trkpt lat="47.558511" lon="10.101337"><ele>751.41</ele><time>2010-06-06T08:33:18Z</time></trkpt><trkpt lat="47.558515" lon="10.101597"><ele>752.37</ele><time>2010-06-06T08:33:22Z</time></trkpt><trkpt lat="47.558683" lon="10.102555"><ele>752.85</ele><time>2010-06-06T08:33:38Z</time></trkpt><trkpt lat="47.558723" lon="10.102805"><ele>752.85</ele><time>2010-06-06T08:33:42Z</time></trkpt><trkpt lat="47.558881" lon="10.103522"><ele>751.41</ele><time>2010-06-06T08:33:53Z</time></trkpt><trkpt lat="47.558907" lon="10.103658"><ele>751.41</ele><time>2010-06-06T08:33:55Z</time></trkpt><trkpt lat="47.558926" lon="10.103722"><ele>751.41</ele><time>2010-06-06T08:33:56Z</time></trkpt><trkpt lat="47.558983" lon="10.103895"><ele>750.93</ele><time>2010-06-06T08:33:59Z</time></trkpt><trkpt lat="47.558997" lon="10.103954"><ele>750.93</ele><time>2010-06-06T08:34:00Z</time></trkpt><trkpt lat="47.559014" lon="10.104012"><ele>750.93</ele><time>2010-06-06T08:34:01Z</time></trkpt><trkpt lat="47.559029" lon="10.104065"><ele>750.45</ele><time>2010-06-06T08:34:02Z</time></trkpt><trkpt lat="47.559040" lon="10.104120"><ele>750.45</ele><time>2010-06-06T08:34:03Z</time></trkpt><trkpt lat="47.559115" lon="10.104776"><ele>749.49</ele><time>2010-06-06T08:34:13Z</time></trkpt><trkpt lat="47.559110" lon="10.104859"><ele>749.49</ele><time>2010-06-06T08:34:14Z</time></trkpt><trkpt lat="47.559100" lon="10.104939"><ele>749.49</ele><time>2010-06-06T08:34:15Z</time></trkpt><trkpt lat="47.558965" lon="10.105530"><ele>747.56</ele><time>2010-06-06T08:34:22Z</time></trkpt><trkpt lat="47.558882" lon="10.105794"><ele>746.12</ele><time>2010-06-06T08:34:25Z</time></trkpt><trkpt lat="47.558856" lon="10.105878"><ele>746.12</ele><time>2010-06-06T08:34:26Z</time></trkpt><trkpt lat="47.558848" lon="10.105970"><ele>746.12</ele><time>2010-06-06T08:34:27Z</time></trkpt><trkpt lat="47.558864" lon="10.106059"><ele>745.64</ele><time>2010-06-06T08:34:28Z</time></trkpt><trkpt lat="47.559346" lon="10.107091"><ele>744.68</ele><time>2010-06-06T08:34:41Z</time></trkpt><trkpt lat="47.559693" lon="10.108225"><ele>744.68</ele><time>2010-06-06T08:34:55Z</time></trkpt><trkpt lat="47.560158" lon="10.109773"><ele>742.76</ele><time>2010-06-06T08:35:12Z</time></trkpt><trkpt lat="47.560728" lon="10.111365"><ele>743.24</ele><time>2010-06-06T08:35:31Z</time></trkpt><trkpt lat="47.561142" lon="10.112742"><ele>744.68</ele><time>2010-06-06T08:35:50Z</time></trkpt><trkpt lat="47.561465" lon="10.113872"><ele>745.16</ele><time>2010-06-06T08:36:06Z</time></trkpt><trkpt lat="47.561526" lon="10.114006"><ele>744.68</ele><time>2010-06-06T08:36:08Z</time></trkpt><trkpt lat="47.561563" lon="10.114067"><ele>744.68</ele><time>2010-06-06T08:36:09Z</time></trkpt><trkpt lat="47.561607" lon="10.114118"><ele>745.16</ele><time>2010-06-06T08:36:10Z</time></trkpt><trkpt lat="47.561656" lon="10.114152"><ele>744.68</ele><time>2010-06-06T08:36:11Z</time></trkpt><trkpt lat="47.561706" lon="10.114160"><ele>745.16</ele><time>2010-06-06T08:36:12Z</time></trkpt><trkpt lat="47.561752" lon="10.114147"><ele>745.64</ele><time>2010-06-06T08:36:13Z</time></trkpt><trkpt lat="47.561801" lon="10.114140"><ele>745.64</ele><time>2010-06-06T08:36:14Z</time></trkpt><trkpt lat="47.561850" lon="10.114146"><ele>745.16</ele><time>2010-06-06T08:36:15Z</time></trkpt><trkpt lat="47.561894" lon="10.114166"><ele>745.64</ele><time>2010-06-06T08:36:16Z</time></trkpt><trkpt lat="47.561929" lon="10.114200"><ele>746.12</ele><time>2010-06-06T08:36:17Z</time></trkpt><trkpt lat="47.561959" lon="10.114243"><ele>746.60</ele><time>2010-06-06T08:36:18Z</time></trkpt><trkpt lat="47.561977" lon="10.114298"><ele>746.12</ele><time>2010-06-06T08:36:19Z</time></trkpt><trkpt lat="47.561986" lon="10.114358"><ele>746.60</ele><time>2010-06-06T08:36:20Z</time></trkpt><trkpt lat="47.561993" lon="10.114421"><ele>746.12</ele><time>2010-06-06T08:36:21Z</time></trkpt><trkpt lat="47.562030" lon="10.114626"><ele>746.60</ele><time>2010-06-06T08:36:24Z</time></trkpt><trkpt lat="47.562514" lon="10.115733"><ele>745.16</ele><time>2010-06-06T08:36:40Z</time></trkpt><trkpt lat="47.563085" lon="10.116896"><ele>743.72</ele><time>2010-06-06T08:36:56Z</time></trkpt><trkpt lat="47.563584" lon="10.118103"><ele>742.76</ele><time>2010-06-06T08:37:11Z</time></trkpt><trkpt lat="47.563866" lon="10.118698"><ele>742.76</ele><time>2010-06-06T08:37:19Z</time></trkpt><trkpt lat="47.563913" lon="10.118843"><ele>742.76</ele><time>2010-06-06T08:37:21Z</time></trkpt><trkpt lat="47.563922" lon="10.118921"><ele>742.76</ele><time>2010-06-06T08:37:22Z</time></trkpt><trkpt lat="47.563924" lon="10.119006"><ele>742.76</ele><time>2010-06-06T08:37:23Z</time></trkpt><trkpt lat="47.563922" lon="10.119095"><ele>741.79</ele><time>2010-06-06T08:37:24Z</time></trkpt><trkpt lat="47.563921" lon="10.119185"><ele>742.28</ele><time>2010-06-06T08:37:25Z</time></trkpt><trkpt lat="47.563922" lon="10.119279"><ele>742.28</ele><time>2010-06-06T08:37:26Z</time></trkpt><trkpt lat="47.563997" lon="10.120417"><ele>743.24</ele><time>2010-06-06T08:37:39Z</time></trkpt><trkpt lat="47.564009" lon="10.120493"><ele>743.24</ele><time>2010-06-06T08:37:40Z</time></trkpt><trkpt lat="47.564059" lon="10.120717"><ele>743.72</ele><time>2010-06-06T08:37:43Z</time></trkpt><trkpt lat="47.564085" lon="10.120786"><ele>743.72</ele><time>2010-06-06T08:37:44Z</time></trkpt><trkpt lat="47.564114" lon="10.120850"><ele>743.72</ele><time>2010-06-06T08:37:45Z</time></trkpt><trkpt lat="47.564143" lon="10.120907"><ele>744.20</ele><time>2010-06-06T08:37:46Z</time></trkpt><trkpt lat="47.564172" lon="10.120958"><ele>744.20</ele><time>2010-06-06T08:37:47Z</time></trkpt><trkpt lat="47.564244" lon="10.121115"><ele>744.68</ele><time>2010-06-06T08:37:50Z</time></trkpt><trkpt lat="47.564262" lon="10.121169"><ele>745.64</ele><time>2010-06-06T08:37:51Z</time></trkpt><trkpt lat="47.564276" lon="10.121224"><ele>745.64</ele><time>2010-06-06T08:37:52Z</time></trkpt><trkpt lat="47.564285" lon="10.121278"><ele>745.64</ele><time>2010-06-06T08:37:53Z</time></trkpt><trkpt lat="47.564292" lon="10.121331"><ele>746.12</ele><time>2010-06-06T08:37:54Z</time></trkpt><trkpt lat="47.564415" lon="10.122034"><ele>749.00</ele><time>2010-06-06T08:38:09Z</time></trkpt><trkpt lat="47.564673" lon="10.122668"><ele>750.45</ele><time>2010-06-06T08:38:24Z</time></trkpt><trkpt lat="47.564803" lon="10.123208"><ele>749.49</ele><time>2010-06-06T08:38:34Z</time></trkpt><trkpt lat="47.564798" lon="10.123283"><ele>749.97</ele><time>2010-06-06T08:38:35Z</time></trkpt><trkpt lat="47.564780" lon="10.123357"><ele>749.49</ele><time>2010-06-06T08:38:36Z</time></trkpt><trkpt lat="47.564723" lon="10.123518"><ele>749.00</ele><time>2010-06-06T08:38:38Z</time></trkpt><trkpt lat="47.564679" lon="10.123599"><ele>748.52</ele><time>2010-06-06T08:38:39Z</time></trkpt><trkpt lat="47.564623" lon="10.123672"><ele>747.56</ele><time>2010-06-06T08:38:40Z</time></trkpt><trkpt lat="47.564555" lon="10.123733"><ele>747.08</ele><time>2010-06-06T08:38:41Z</time></trkpt><trkpt lat="47.564478" lon="10.123780"><ele>746.60</ele><time>2010-06-06T08:38:42Z</time></trkpt><trkpt lat="47.564395" lon="10.123808"><ele>746.12</ele><time>2010-06-06T08:38:43Z</time></trkpt><trkpt lat="47.564311" lon="10.123821"><ele>745.64</ele><time>2010-06-06T08:38:44Z</time></trkpt><trkpt lat="47.564230" lon="10.123834"><ele>744.68</ele><time>2010-06-06T08:38:45Z</time></trkpt><trkpt lat="47.564156" lon="10.123854"><ele>743.72</ele><time>2010-06-06T08:38:46Z</time></trkpt><trkpt lat="47.564087" lon="10.123893"><ele>744.20</ele><time>2010-06-06T08:38:47Z</time></trkpt><trkpt lat="47.564034" lon="10.123963"><ele>743.72</ele><time>2010-06-06T08:38:48Z</time></trkpt><trkpt lat="47.564002" lon="10.124056"><ele>742.76</ele><time>2010-06-06T08:38:49Z</time></trkpt><trkpt lat="47.563988" lon="10.124159"><ele>742.76</ele><time>2010-06-06T08:38:50Z</time></trkpt><trkpt lat="47.563985" lon="10.124260"><ele>742.28</ele><time>2010-06-06T08:38:51Z</time></trkpt><trkpt lat="47.563987" lon="10.124360"><ele>742.28</ele><time>2010-06-06T08:38:52Z</time></trkpt><trkpt lat="47.564040" lon="10.125006"><ele>742.76</ele><time>2010-06-06T08:38:59Z</time></trkpt><trkpt lat="47.564066" lon="10.125085"><ele>742.76</ele><time>2010-06-06T08:39:00Z</time></trkpt><trkpt lat="47.564405" lon="10.126058"><ele>743.24</ele><time>2010-06-06T08:39:13Z</time></trkpt><trkpt lat="47.564638" lon="10.126939"><ele>744.20</ele><time>2010-06-06T08:39:24Z</time></trkpt><trkpt lat="47.565045" lon="10.128222"><ele>744.68</ele><time>2010-06-06T08:39:42Z</time></trkpt><trkpt lat="47.565354" lon="10.129178"><ele>747.08</ele><time>2010-06-06T08:39:55Z</time></trkpt><trkpt lat="47.565625" lon="10.130048"><ele>749.00</ele><time>2010-06-06T08:40:11Z</time></trkpt><trkpt lat="47.565766" lon="10.130501"><ele>747.56</ele><time>2010-06-06T08:40:18Z</time></trkpt><trkpt lat="47.565832" lon="10.130754"><ele>746.60</ele><time>2010-06-06T08:40:21Z</time></trkpt><trkpt lat="47.565841" lon="10.130857"><ele>746.12</ele><time>2010-06-06T08:40:22Z</time></trkpt><trkpt lat="47.565835" lon="10.130956"><ele>745.64</ele><time>2010-06-06T08:40:23Z</time></trkpt><trkpt lat="47.565817" lon="10.131048"><ele>745.64</ele><time>2010-06-06T08:40:24Z</time></trkpt><trkpt lat="47.565800" lon="10.131135"><ele>744.20</ele><time>2010-06-06T08:40:25Z</time></trkpt><trkpt lat="47.565753" lon="10.131351"><ele>742.76</ele><time>2010-06-06T08:40:28Z</time></trkpt><trkpt lat="47.565733" lon="10.131408"><ele>742.76</ele><time>2010-06-06T08:40:29Z</time></trkpt><trkpt lat="47.565727" lon="10.131460"><ele>742.76</ele><time>2010-06-06T08:40:30Z</time></trkpt><trkpt lat="47.565730" lon="10.131512"><ele>743.24</ele><time>2010-06-06T08:40:31Z</time></trkpt><trkpt lat="47.565736" lon="10.131572"><ele>743.24</ele><time>2010-06-06T08:40:32Z</time></trkpt><trkpt lat="47.565751" lon="10.131641"><ele>742.28</ele><time>2010-06-06T08:40:33Z</time></trkpt><trkpt lat="47.565777" lon="10.131721"><ele>741.79</ele><time>2010-06-06T08:40:34Z</time></trkpt><trkpt lat="47.565809" lon="10.131803"><ele>741.79</ele><time>2010-06-06T08:40:35Z</time></trkpt><trkpt lat="47.566250" lon="10.133041"><ele>740.83</ele><time>2010-06-06T08:40:50Z</time></trkpt><trkpt lat="47.566307" lon="10.133301"><ele>740.83</ele><time>2010-06-06T08:40:53Z</time></trkpt><trkpt lat="47.566442" lon="10.134191"><ele>744.20</ele><time>2010-06-06T08:41:05Z</time></trkpt><trkpt lat="47.566448" lon="10.134253"><ele>743.72</ele><time>2010-06-06T08:41:06Z</time></trkpt><trkpt lat="47.566509" lon="10.135279"><ele>740.35</ele><time>2010-06-06T08:41:18Z</time></trkpt><trkpt lat="47.566503" lon="10.136821"><ele>738.91</ele><time>2010-06-06T08:41:32Z</time></trkpt><trkpt lat="47.566495" lon="10.136914"><ele>738.91</ele><time>2010-06-06T08:41:33Z</time></trkpt><trkpt lat="47.566444" lon="10.137572"><ele>740.35</ele><time>2010-06-06T08:41:41Z</time></trkpt><trkpt lat="47.566443" lon="10.137713"><ele>739.87</ele><time>2010-06-06T08:41:43Z</time></trkpt><trkpt lat="47.566443" lon="10.137779"><ele>740.35</ele><time>2010-06-06T08:41:44Z</time></trkpt><trkpt lat="47.566444" lon="10.137843"><ele>740.83</ele><time>2010-06-06T08:41:45Z</time></trkpt><trkpt lat="47.566460" lon="10.138119"><ele>742.28</ele><time>2010-06-06T08:41:50Z</time></trkpt><trkpt lat="47.566482" lon="10.138253"><ele>742.28</ele><time>2010-06-06T08:41:54Z</time></trkpt><trkpt lat="47.566479" lon="10.138300"><ele>741.79</ele><time>2010-06-06T08:41:55Z</time></trkpt><trkpt lat="47.566465" lon="10.138344"><ele>741.79</ele><time>2010-06-06T08:41:56Z</time></trkpt><trkpt lat="47.566441" lon="10.138373"><ele>741.79</ele><time>2010-06-06T08:41:57Z</time></trkpt><trkpt lat="47.566406" lon="10.138388"><ele>741.31</ele><time>2010-06-06T08:41:58Z</time></trkpt><trkpt lat="47.566373" lon="10.138398"><ele>741.31</ele><time>2010-06-06T08:41:59Z</time></trkpt><trkpt lat="47.566342" lon="10.138411"><ele>741.31</ele><time>2010-06-06T08:42:00Z</time></trkpt><trkpt lat="47.566315" lon="10.138437"><ele>741.31</ele><time>2010-06-06T08:42:01Z</time></trkpt><trkpt lat="47.566291" lon="10.138477"><ele>740.83</ele><time>2010-06-06T08:42:02Z</time></trkpt><trkpt lat="47.566278" lon="10.138532"><ele>740.83</ele><time>2010-06-06T08:42:03Z</time></trkpt><trkpt lat="47.566278" lon="10.138596"><ele>741.31</ele><time>2010-06-06T08:42:04Z</time></trkpt><trkpt lat="47.566286" lon="10.138655"><ele>740.83</ele><time>2010-06-06T08:42:05Z</time></trkpt><trkpt lat="47.566294" lon="10.138715"><ele>741.31</ele><time>2010-06-06T08:42:06Z</time></trkpt><trkpt lat="47.566325" lon="10.138965"><ele>741.31</ele><time>2010-06-06T08:42:10Z</time></trkpt><trkpt lat="47.566497" lon="10.140091"><ele>741.31</ele><time>2010-06-06T08:42:28Z</time></trkpt><trkpt lat="47.566750" lon="10.141180"><ele>741.31</ele><time>2010-06-06T08:42:44Z</time></trkpt><trkpt lat="47.566830" lon="10.141513"><ele>740.35</ele><time>2010-06-06T08:42:49Z</time></trkpt><trkpt lat="47.566865" lon="10.141568"><ele>740.83</ele><time>2010-06-06T08:42:50Z</time></trkpt><trkpt lat="47.566983" lon="10.141731"><ele>741.31</ele><time>2010-06-06T08:42:53Z</time></trkpt><trkpt lat="47.567055" lon="10.141859"><ele>740.35</ele><time>2010-06-06T08:42:55Z</time></trkpt><trkpt lat="47.567259" lon="10.142285"><ele>739.39</ele><time>2010-06-06T08:43:01Z</time></trkpt><trkpt lat="47.567371" lon="10.142482"><ele>739.39</ele><time>2010-06-06T08:43:04Z</time></trkpt><trkpt lat="47.567406" lon="10.142549"><ele>739.39</ele><time>2010-06-06T08:43:05Z</time></trkpt><trkpt lat="47.567443" lon="10.142612"><ele>738.91</ele><time>2010-06-06T08:43:06Z</time></trkpt><trkpt lat="47.567479" lon="10.142677"><ele>738.91</ele><time>2010-06-06T08:43:07Z</time></trkpt><trkpt lat="47.567513" lon="10.142744"><ele>737.95</ele><time>2010-06-06T08:43:08Z</time></trkpt><trkpt lat="47.567546" lon="10.142801"><ele>738.43</ele><time>2010-06-06T08:43:09Z</time></trkpt><trkpt lat="47.567582" lon="10.142859"><ele>737.95</ele><time>2010-06-06T08:43:10Z</time></trkpt><trkpt lat="47.567696" lon="10.143056"><ele>737.95</ele><time>2010-06-06T08:43:13Z</time></trkpt><trkpt lat="47.567737" lon="10.143121"><ele>737.47</ele><time>2010-06-06T08:43:14Z</time></trkpt><trkpt lat="47.568187" lon="10.143969"><ele>736.03</ele><time>2010-06-06T08:43:26Z</time></trkpt><trkpt lat="47.568197" lon="10.144038"><ele>735.55</ele><time>2010-06-06T08:43:27Z</time></trkpt><trkpt lat="47.568180" lon="10.144087"><ele>735.55</ele><time>2010-06-06T08:43:28Z</time></trkpt><trkpt lat="47.568144" lon="10.144114"><ele>735.55</ele><time>2010-06-06T08:43:29Z</time></trkpt><trkpt lat="47.568100" lon="10.144131"><ele>735.55</ele><time>2010-06-06T08:43:30Z</time></trkpt><trkpt lat="47.568054" lon="10.144146"><ele>736.03</ele><time>2010-06-06T08:43:31Z</time></trkpt><trkpt lat="47.567106" lon="10.144605"><ele>735.07</ele><time>2010-06-06T08:43:49Z</time></trkpt><trkpt lat="47.566252" lon="10.145037"><ele>735.07</ele><time>2010-06-06T08:44:07Z</time></trkpt><trkpt lat="47.566099" lon="10.145100"><ele>735.07</ele><time>2010-06-06T08:44:11Z</time></trkpt><trkpt lat="47.566083" lon="10.145063"><ele>735.07</ele><time>2010-06-06T08:44:12Z</time></trkpt><trkpt lat="47.566078" lon="10.145010"><ele>735.07</ele><time>2010-06-06T08:44:13Z</time></trkpt><trkpt lat="47.566077" lon="10.144950"><ele>735.07</ele><time>2010-06-06T08:44:14Z</time></trkpt><trkpt lat="47.566079" lon="10.144885"><ele>735.55</ele><time>2010-06-06T08:44:15Z</time></trkpt><trkpt lat="47.566083" lon="10.144818"><ele>735.55</ele><time>2010-06-06T08:44:16Z</time></trkpt><trkpt lat="47.566164" lon="10.144133"><ele>735.55</ele><time>2010-06-06T08:44:26Z</time></trkpt><trkpt lat="47.566165" lon="10.144062"><ele>735.55</ele><time>2010-06-06T08:44:27Z</time></trkpt><trkpt lat="47.566150" lon="10.143778"><ele>736.03</ele><time>2010-06-06T08:44:31Z</time></trkpt><trkpt lat="47.566136" lon="10.143713"><ele>735.55</ele><time>2010-06-06T08:44:32Z</time></trkpt><trkpt lat="47.566117" lon="10.143653"><ele>736.03</ele><time>2010-06-06T08:44:33Z</time></trkpt><trkpt lat="47.566063" lon="10.143517"><ele>735.55</ele><time>2010-06-06T08:44:36Z</time></trkpt><trkpt lat="47.566045" lon="10.143511"><ele>735.55</ele><time>2010-06-06T08:44:37Z</time></trkpt><trkpt lat="47.566034" lon="10.143521"><ele>735.55</ele><time>2010-06-06T08:44:38Z</time></trkpt><trkpt lat="47.565948" lon="10.143615"><ele>736.03</ele><time>2010-06-06T08:44:43Z</time></trkpt><trkpt lat="47.565946" lon="10.143634"><ele>736.03</ele><time>2010-06-06T08:44:44Z</time></trkpt><trkpt lat="47.565949" lon="10.143658"><ele>735.55</ele><time>2010-06-06T08:44:45Z</time></trkpt><trkpt lat="47.565946" lon="10.143683"><ele>735.07</ele><time>2010-06-06T08:44:46Z</time></trkpt><trkpt lat="47.565937" lon="10.143706"><ele>735.07</ele><time>2010-06-06T08:44:47Z</time></trkpt><trkpt lat="47.565918" lon="10.143722"><ele>734.58</ele><time>2010-06-06T08:44:48Z</time></trkpt><trkpt lat="47.565888" lon="10.143727"><ele>734.58</ele><time>2010-06-06T08:44:49Z</time></trkpt><trkpt lat="47.565861" lon="10.143716"><ele>734.58</ele><time>2010-06-06T08:44:50Z</time></trkpt><trkpt lat="47.565840" lon="10.143685"><ele>734.58</ele><time>2010-06-06T08:44:51Z</time></trkpt><trkpt lat="47.565818" lon="10.143654"><ele>734.58</ele><time>2010-06-06T08:44:52Z</time></trkpt><trkpt lat="47.565320" lon="10.143306"><ele>735.07</ele><time>2010-06-06T08:45:07Z</time></trkpt><trkpt lat="47.564677" lon="10.142821"><ele>735.55</ele><time>2010-06-06T08:45:26Z</time></trkpt><trkpt lat="47.564234" lon="10.142624"><ele>737.95</ele><time>2010-06-06T08:45:40Z</time></trkpt><trkpt lat="47.563741" lon="10.142813"><ele>739.39</ele><time>2010-06-06T08:45:56Z</time></trkpt><trkpt lat="47.563667" lon="10.142871"><ele>739.39</ele><time>2010-06-06T08:45:59Z</time></trkpt><trkpt lat="47.563664" lon="10.142851"><ele>739.39</ele><time>2010-06-06T08:46:05Z</time></trkpt><trkpt lat="47.563636" lon="10.142805"><ele>739.87</ele><time>2010-06-06T08:46:07Z</time></trkpt><trkpt lat="47.563526" lon="10.142875"><ele>740.35</ele><time>2010-06-06T08:46:14Z</time></trkpt><trkpt lat="47.563433" lon="10.142944"><ele>740.83</ele><time>2010-06-06T08:46:20Z</time></trkpt><trkpt lat="47.563313" lon="10.142963"><ele>741.79</ele><time>2010-06-06T08:46:27Z</time></trkpt><trkpt lat="47.563026" lon="10.143015"><ele>743.24</ele><time>2010-06-06T08:46:41Z</time></trkpt><trkpt lat="47.562892" lon="10.143175"><ele>743.72</ele><time>2010-06-06T08:46:53Z</time></trkpt><trkpt lat="47.562793" lon="10.143465"><ele>746.12</ele><time>2010-06-06T08:47:05Z</time></trkpt><trkpt lat="47.562771" lon="10.143519"><ele>746.60</ele><time>2010-06-06T08:47:07Z</time></trkpt><trkpt lat="47.562779" lon="10.143648"><ele>747.08</ele><time>2010-06-06T08:47:12Z</time></trkpt><trkpt lat="47.562866" lon="10.143913"><ele>746.60</ele><time>2010-06-06T08:47:20Z</time></trkpt><trkpt lat="47.562793" lon="10.144058"><ele>747.56</ele><time>2010-06-06T08:47:28Z</time></trkpt><trkpt lat="47.562620" lon="10.144177"><ele>747.08</ele><time>2010-06-06T08:47:43Z</time></trkpt><trkpt lat="47.562620" lon="10.144178"><ele>747.56</ele><time>2010-06-06T08:48:24Z</time></trkpt><trkpt lat="47.562604" lon="10.144175"><ele>747.56</ele><time>2010-06-06T08:48:25Z</time></trkpt><trkpt lat="47.562554" lon="10.144085"><ele>748.04</ele><time>2010-06-06T08:48:30Z</time></trkpt><trkpt lat="47.562456" lon="10.144119"><ele>748.04</ele><time>2010-06-06T08:48:35Z</time></trkpt><trkpt lat="47.562349" lon="10.144312"><ele>750.93</ele><time>2010-06-06T08:48:47Z</time></trkpt><trkpt lat="47.562277" lon="10.144481"><ele>752.37</ele><time>2010-06-06T08:48:59Z</time></trkpt><trkpt lat="47.562264" lon="10.144496"><ele>752.85</ele><time>2010-06-06T08:49:11Z</time></trkpt><trkpt lat="47.562250" lon="10.144627"><ele>753.81</ele><time>2010-06-06T08:49:23Z</time></trkpt><trkpt lat="47.562259" lon="10.144633"><ele>752.85</ele><time>2010-06-06T08:49:38Z</time></trkpt><trkpt lat="47.562260" lon="10.144630"><ele>753.33</ele><time>2010-06-06T08:50:41Z</time></trkpt><trkpt lat="47.562252" lon="10.144647"><ele>751.89</ele><time>2010-06-06T08:51:09Z</time></trkpt><trkpt lat="47.562252" lon="10.144647"><ele>753.81</ele><time>2010-06-06T08:51:39Z</time></trkpt><trkpt lat="47.562252" lon="10.144647"><ele>753.81</ele><time>2010-06-06T08:51:40Z</time></trkpt><trkpt lat="47.562196" lon="10.144786"><ele>754.77</ele><time>2010-06-06T08:51:48Z</time></trkpt><trkpt lat="47.562079" lon="10.145068"><ele>756.69</ele><time>2010-06-06T08:52:04Z</time></trkpt><trkpt lat="47.562044" lon="10.145164"><ele>757.18</ele><time>2010-06-06T08:52:09Z</time></trkpt><trkpt lat="47.561995" lon="10.145453"><ele>760.06</ele><time>2010-06-06T08:52:24Z</time></trkpt><trkpt lat="47.562033" lon="10.145561"><ele>761.02</ele><time>2010-06-06T08:52:31Z</time></trkpt><trkpt lat="47.562111" lon="10.145704"><ele>763.90</ele><time>2010-06-06T08:52:43Z</time></trkpt><trkpt lat="47.562141" lon="10.145877"><ele>767.75</ele><time>2010-06-06T08:52:55Z</time></trkpt><trkpt lat="47.562186" lon="10.145980"><ele>768.71</ele><time>2010-06-06T08:53:03Z</time></trkpt><trkpt lat="47.562180" lon="10.146197"><ele>770.63</ele><time>2010-06-06T08:53:18Z</time></trkpt><trkpt lat="47.562154" lon="10.146390"><ele>774.00</ele><time>2010-06-06T08:53:31Z</time></trkpt><trkpt lat="47.562146" lon="10.146424"><ele>774.48</ele><time>2010-06-06T08:53:33Z</time></trkpt><trkpt lat="47.562111" lon="10.146595"><ele>777.84</ele><time>2010-06-06T08:53:44Z</time></trkpt><trkpt lat="47.562096" lon="10.146667"><ele>779.29</ele><time>2010-06-06T08:53:48Z</time></trkpt><trkpt lat="47.562074" lon="10.146768"><ele>781.21</ele><time>2010-06-06T08:53:55Z</time></trkpt><trkpt lat="47.562023" lon="10.146898"><ele>782.65</ele><time>2010-06-06T08:54:07Z</time></trkpt><trkpt lat="47.562014" lon="10.146958"><ele>783.13</ele><time>2010-06-06T08:54:12Z</time></trkpt><trkpt lat="47.562010" lon="10.147046"><ele>783.61</ele><time>2010-06-06T08:54:17Z</time></trkpt><trkpt lat="47.562057" lon="10.147290"><ele>785.05</ele><time>2010-06-06T08:54:33Z</time></trkpt><trkpt lat="47.562049" lon="10.147328"><ele>785.05</ele><time>2010-06-06T08:54:56Z</time></trkpt><trkpt lat="47.562037" lon="10.147369"><ele>785.05</ele><time>2010-06-06T08:55:00Z</time></trkpt><trkpt lat="47.562037" lon="10.147363"><ele>785.53</ele><time>2010-06-06T08:55:13Z</time></trkpt><trkpt lat="47.562033" lon="10.147362"><ele>784.57</ele><time>2010-06-06T08:55:36Z</time></trkpt><trkpt lat="47.562024" lon="10.147366"><ele>785.05</ele><time>2010-06-06T08:59:37Z</time></trkpt><trkpt lat="47.562017" lon="10.147382"><ele>785.53</ele><time>2010-06-06T08:59:42Z</time></trkpt><trkpt lat="47.562005" lon="10.147454"><ele>785.05</ele><time>2010-06-06T08:59:46Z</time></trkpt><trkpt lat="47.561954" lon="10.147743"><ele>788.42</ele><time>2010-06-06T09:00:00Z</time></trkpt><trkpt lat="47.561914" lon="10.148082"><ele>790.82</ele><time>2010-06-06T09:00:17Z</time></trkpt><trkpt lat="47.561924" lon="10.148324"><ele>793.22</ele><time>2010-06-06T09:00:29Z</time></trkpt><trkpt lat="47.561903" lon="10.148416"><ele>794.19</ele><time>2010-06-06T09:00:34Z</time></trkpt><trkpt lat="47.561835" lon="10.148556"><ele>796.11</ele><time>2010-06-06T09:00:43Z</time></trkpt><trkpt lat="47.561764" lon="10.148786"><ele>798.99</ele><time>2010-06-06T09:00:57Z</time></trkpt><trkpt lat="47.561795" lon="10.148869"><ele>799.47</ele><time>2010-06-06T09:01:02Z</time></trkpt><trkpt lat="47.561893" lon="10.149020"><ele>802.36</ele><time>2010-06-06T09:01:14Z</time></trkpt><trkpt lat="47.561903" lon="10.149028"><ele>801.88</ele><time>2010-06-06T09:01:15Z</time></trkpt><trkpt lat="47.562034" lon="10.149263"><ele>804.76</ele><time>2010-06-06T09:01:30Z</time></trkpt><trkpt lat="47.562037" lon="10.149426"><ele>806.20</ele><time>2010-06-06T09:01:39Z</time></trkpt><trkpt lat="47.561981" lon="10.149722"><ele>809.57</ele><time>2010-06-06T09:01:55Z</time></trkpt><trkpt lat="47.561935" lon="10.149955"><ele>812.45</ele><time>2010-06-06T09:02:09Z</time></trkpt><trkpt lat="47.561919" lon="10.149999"><ele>812.93</ele><time>2010-06-06T09:02:12Z</time></trkpt><trkpt lat="47.561838" lon="10.150223"><ele>815.34</ele><time>2010-06-06T09:02:28Z</time></trkpt><trkpt lat="47.561825" lon="10.150273"><ele>815.82</ele><time>2010-06-06T09:02:33Z</time></trkpt><trkpt lat="47.561808" lon="10.150310"><ele>816.78</ele><time>2010-06-06T09:02:36Z</time></trkpt><trkpt lat="47.561768" lon="10.150333"><ele>817.74</ele><time>2010-06-06T09:02:46Z</time></trkpt><trkpt lat="47.561768" lon="10.150333"><ele>816.30</ele><time>2010-06-06T09:02:47Z</time></trkpt><trkpt lat="47.561769" lon="10.150344"><ele>817.74</ele><time>2010-06-06T09:02:50Z</time></trkpt><trkpt lat="47.561759" lon="10.150444"><ele>819.66</ele><time>2010-06-06T09:03:05Z</time></trkpt><trkpt lat="47.561752" lon="10.150482"><ele>819.66</ele><time>2010-06-06T09:03:07Z</time></trkpt><trkpt lat="47.561749" lon="10.150732"><ele>822.06</ele><time>2010-06-06T09:03:21Z</time></trkpt><trkpt lat="47.561743" lon="10.150772"><ele>822.06</ele><time>2010-06-06T09:03:23Z</time></trkpt><trkpt lat="47.561706" lon="10.151071"><ele>825.43</ele><time>2010-06-06T09:03:40Z</time></trkpt><trkpt lat="47.561706" lon="10.151102"><ele>825.43</ele><time>2010-06-06T09:03:42Z</time></trkpt><trkpt lat="47.561701" lon="10.151314"><ele>827.35</ele><time>2010-06-06T09:03:53Z</time></trkpt><trkpt lat="47.561709" lon="10.151531"><ele>829.27</ele><time>2010-06-06T09:04:04Z</time></trkpt><trkpt lat="47.561682" lon="10.151830"><ele>832.16</ele><time>2010-06-06T09:04:21Z</time></trkpt><trkpt lat="47.561568" lon="10.151774"><ele>835.04</ele><time>2010-06-06T09:04:33Z</time></trkpt><trkpt lat="47.561562" lon="10.151759"><ele>835.04</ele><time>2010-06-06T09:04:34Z</time></trkpt><trkpt lat="47.561536" lon="10.151635"><ele>836.48</ele><time>2010-06-06T09:04:41Z</time></trkpt><trkpt lat="47.561415" lon="10.151355"><ele>839.37</ele><time>2010-06-06T09:04:57Z</time></trkpt><trkpt lat="47.561337" lon="10.151214"><ele>840.81</ele><time>2010-06-06T09:05:06Z</time></trkpt><trkpt lat="47.561243" lon="10.151009"><ele>843.69</ele><time>2010-06-06T09:05:19Z</time></trkpt><trkpt lat="47.561130" lon="10.150773"><ele>846.58</ele><time>2010-06-06T09:05:34Z</time></trkpt><trkpt lat="47.561098" lon="10.150703"><ele>846.58</ele><time>2010-06-06T09:05:38Z</time></trkpt><trkpt lat="47.561072" lon="10.150630"><ele>847.06</ele><time>2010-06-06T09:05:42Z</time></trkpt><trkpt lat="47.561042" lon="10.150545"><ele>848.02</ele><time>2010-06-06T09:05:47Z</time></trkpt><trkpt lat="47.561037" lon="10.150509"><ele>848.02</ele><time>2010-06-06T09:05:49Z</time></trkpt><trkpt lat="47.560983" lon="10.150244"><ele>850.42</ele><time>2010-06-06T09:06:03Z</time></trkpt><trkpt lat="47.560928" lon="10.150196"><ele>851.38</ele><time>2010-06-06T09:06:08Z</time></trkpt><trkpt lat="47.560888" lon="10.150473"><ele>854.75</ele><time>2010-06-06T09:06:24Z</time></trkpt><trkpt lat="47.560897" lon="10.150531"><ele>855.23</ele><time>2010-06-06T09:06:27Z</time></trkpt><trkpt lat="47.560904" lon="10.150653"><ele>856.19</ele><time>2010-06-06T09:06:33Z</time></trkpt><trkpt lat="47.560914" lon="10.150861"><ele>858.11</ele><time>2010-06-06T09:06:44Z</time></trkpt><trkpt lat="47.560921" lon="10.151001"><ele>859.08</ele><time>2010-06-06T09:06:52Z</time></trkpt><trkpt lat="47.560944" lon="10.151053"><ele>860.04</ele><time>2010-06-06T09:06:55Z</time></trkpt><trkpt lat="47.560935" lon="10.151153"><ele>861.00</ele><time>2010-06-06T09:07:01Z</time></trkpt><trkpt lat="47.560921" lon="10.151276"><ele>861.48</ele><time>2010-06-06T09:07:07Z</time></trkpt><trkpt lat="47.560946" lon="10.151526"><ele>864.36</ele><time>2010-06-06T09:07:20Z</time></trkpt><trkpt lat="47.560942" lon="10.151540"><ele>864.84</ele><time>2010-06-06T09:07:21Z</time></trkpt><trkpt lat="47.560933" lon="10.151614"><ele>865.32</ele><time>2010-06-06T09:07:25Z</time></trkpt><trkpt lat="47.560929" lon="10.151678"><ele>866.29</ele><time>2010-06-06T09:07:28Z</time></trkpt><trkpt lat="47.560944" lon="10.151794"><ele>867.25</ele><time>2010-06-06T09:07:33Z</time></trkpt><trkpt lat="47.560914" lon="10.152129"><ele>870.13</ele><time>2010-06-06T09:07:50Z</time></trkpt><trkpt lat="47.560867" lon="10.152352"><ele>872.05</ele><time>2010-06-06T09:08:02Z</time></trkpt><trkpt lat="47.560959" lon="10.152615"><ele>874.46</ele><time>2010-06-06T09:08:17Z</time></trkpt><trkpt lat="47.561066" lon="10.152943"><ele>877.34</ele><time>2010-06-06T09:08:33Z</time></trkpt><trkpt lat="47.561028" lon="10.153268"><ele>879.26</ele><time>2010-06-06T09:08:47Z</time></trkpt><trkpt lat="47.561008" lon="10.153572"><ele>881.19</ele><time>2010-06-06T09:09:00Z</time></trkpt><trkpt lat="47.561021" lon="10.153666"><ele>881.67</ele><time>2010-06-06T09:09:05Z</time></trkpt><trkpt lat="47.561024" lon="10.153840"><ele>884.07</ele><time>2010-06-06T09:09:14Z</time></trkpt><trkpt lat="47.561033" lon="10.153937"><ele>884.55</ele><time>2010-06-06T09:09:19Z</time></trkpt><trkpt lat="47.561064" lon="10.154083"><ele>886.47</ele><time>2010-06-06T09:09:27Z</time></trkpt><trkpt lat="47.561126" lon="10.154336"><ele>889.36</ele><time>2010-06-06T09:09:42Z</time></trkpt><trkpt lat="47.561114" lon="10.154560"><ele>892.72</ele><time>2010-06-06T09:09:55Z</time></trkpt><trkpt lat="47.561103" lon="10.154594"><ele>892.72</ele><time>2010-06-06T09:09:57Z</time></trkpt><trkpt lat="47.561096" lon="10.154648"><ele>893.20</ele><time>2010-06-06T09:10:00Z</time></trkpt><trkpt lat="47.561075" lon="10.154691"><ele>894.64</ele><time>2010-06-06T09:10:03Z</time></trkpt><trkpt lat="47.561025" lon="10.154848"><ele>897.05</ele><time>2010-06-06T09:10:13Z</time></trkpt><trkpt lat="47.561007" lon="10.154893"><ele>898.01</ele><time>2010-06-06T09:10:16Z</time></trkpt><trkpt lat="47.560935" lon="10.155080"><ele>899.93</ele><time>2010-06-06T09:10:28Z</time></trkpt><trkpt lat="47.560786" lon="10.155331"><ele>902.82</ele><time>2010-06-06T09:10:44Z</time></trkpt><trkpt lat="47.560822" lon="10.155600"><ele>905.22</ele><time>2010-06-06T09:10:58Z</time></trkpt><trkpt lat="47.560850" lon="10.155666"><ele>905.22</ele><time>2010-06-06T09:11:02Z</time></trkpt><trkpt lat="47.560891" lon="10.155876"><ele>906.66</ele><time>2010-06-06T09:11:12Z</time></trkpt><trkpt lat="47.560893" lon="10.155966"><ele>907.62</ele><time>2010-06-06T09:11:16Z</time></trkpt><trkpt lat="47.560894" lon="10.156328"><ele>910.51</ele><time>2010-06-06T09:11:34Z</time></trkpt><trkpt lat="47.560856" lon="10.156465"><ele>910.99</ele><time>2010-06-06T09:11:41Z</time></trkpt><trkpt lat="47.560870" lon="10.156808"><ele>913.87</ele><time>2010-06-06T09:11:57Z</time></trkpt><trkpt lat="47.560871" lon="10.156824"><ele>913.39</ele><time>2010-06-06T09:11:58Z</time></trkpt><trkpt lat="47.560871" lon="10.156851"><ele>914.35</ele><time>2010-06-06T09:12:00Z</time></trkpt><trkpt lat="47.560801" lon="10.157099"><ele>917.72</ele><time>2010-06-06T09:12:14Z</time></trkpt><trkpt lat="47.560762" lon="10.157136"><ele>919.16</ele><time>2010-06-06T09:12:17Z</time></trkpt><trkpt lat="47.560737" lon="10.157146"><ele>919.16</ele><time>2010-06-06T09:12:19Z</time></trkpt><trkpt lat="47.560665" lon="10.157061"><ele>921.08</ele><time>2010-06-06T09:12:28Z</time></trkpt><trkpt lat="47.560628" lon="10.156854"><ele>923.48</ele><time>2010-06-06T09:12:41Z</time></trkpt><trkpt lat="47.560595" lon="10.156780"><ele>923.96</ele><time>2010-06-06T09:12:46Z</time></trkpt><trkpt lat="47.560496" lon="10.156565"><ele>926.85</ele><time>2010-06-06T09:13:01Z</time></trkpt><trkpt lat="47.560407" lon="10.156339"><ele>929.73</ele><time>2010-06-06T09:13:15Z</time></trkpt><trkpt lat="47.560380" lon="10.156280"><ele>930.21</ele><time>2010-06-06T09:13:19Z</time></trkpt><trkpt lat="47.560293" lon="10.156147"><ele>933.10</ele><time>2010-06-06T09:13:30Z</time></trkpt><trkpt lat="47.560225" lon="10.156023"><ele>934.54</ele><time>2010-06-06T09:13:39Z</time></trkpt><trkpt lat="47.560144" lon="10.155803"><ele>937.90</ele><time>2010-06-06T09:13:53Z</time></trkpt><trkpt lat="47.560109" lon="10.155701"><ele>938.86</ele><time>2010-06-06T09:14:00Z</time></trkpt><trkpt lat="47.560050" lon="10.155563"><ele>940.31</ele><time>2010-06-06T09:14:10Z</time></trkpt><trkpt lat="47.559999" lon="10.155362"><ele>942.71</ele><time>2010-06-06T09:14:20Z</time></trkpt><trkpt lat="47.559988" lon="10.155296"><ele>943.67</ele><time>2010-06-06T09:14:24Z</time></trkpt><trkpt lat="47.559974" lon="10.155235"><ele>944.15</ele><time>2010-06-06T09:14:28Z</time></trkpt><trkpt lat="47.559896" lon="10.155024"><ele>947.04</ele><time>2010-06-06T09:14:44Z</time></trkpt><trkpt lat="47.559881" lon="10.154965"><ele>947.52</ele><time>2010-06-06T09:14:48Z</time></trkpt><trkpt lat="47.559847" lon="10.154901"><ele>948.48</ele><time>2010-06-06T09:14:52Z</time></trkpt><trkpt lat="47.559796" lon="10.154745"><ele>950.40</ele><time>2010-06-06T09:15:01Z</time></trkpt><trkpt lat="47.559774" lon="10.154680"><ele>951.36</ele><time>2010-06-06T09:15:06Z</time></trkpt><trkpt lat="47.559749" lon="10.154655"><ele>951.36</ele><time>2010-06-06T09:15:09Z</time></trkpt><trkpt lat="47.559695" lon="10.154510"><ele>953.77</ele><time>2010-06-06T09:15:19Z</time></trkpt><trkpt lat="47.559673" lon="10.154444"><ele>954.73</ele><time>2010-06-06T09:15:23Z</time></trkpt><trkpt lat="47.559634" lon="10.154333"><ele>956.17</ele><time>2010-06-06T09:15:31Z</time></trkpt><trkpt lat="47.559562" lon="10.154148"><ele>958.57</ele><time>2010-06-06T09:15:43Z</time></trkpt><trkpt lat="47.559527" lon="10.154039"><ele>959.05</ele><time>2010-06-06T09:15:50Z</time></trkpt><trkpt lat="47.559485" lon="10.153807"><ele>962.42</ele><time>2010-06-06T09:16:04Z</time></trkpt><trkpt lat="47.559483" lon="10.153792"><ele>962.42</ele><time>2010-06-06T09:16:05Z</time></trkpt><trkpt lat="47.559388" lon="10.153507"><ele>965.78</ele><time>2010-06-06T09:16:23Z</time></trkpt><trkpt lat="47.559367" lon="10.153422"><ele>966.74</ele><time>2010-06-06T09:16:28Z</time></trkpt><trkpt lat="47.559316" lon="10.153290"><ele>967.70</ele><time>2010-06-06T09:16:37Z</time></trkpt><trkpt lat="47.559278" lon="10.153169"><ele>969.63</ele><time>2010-06-06T09:16:45Z</time></trkpt><trkpt lat="47.559227" lon="10.152947"><ele>972.03</ele><time>2010-06-06T09:17:00Z</time></trkpt><trkpt lat="47.559180" lon="10.152827"><ele>973.95</ele><time>2010-06-06T09:17:09Z</time></trkpt><trkpt lat="47.559166" lon="10.152760"><ele>974.43</ele><time>2010-06-06T09:17:13Z</time></trkpt><trkpt lat="47.559088" lon="10.152579"><ele>973.95</ele><time>2010-06-06T09:17:27Z</time></trkpt><trkpt lat="47.559031" lon="10.152387"><ele>977.80</ele><time>2010-06-06T09:17:41Z</time></trkpt><trkpt lat="47.559027" lon="10.152303"><ele>978.76</ele><time>2010-06-06T09:17:47Z</time></trkpt><trkpt lat="47.559007" lon="10.152243"><ele>981.16</ele><time>2010-06-06T09:17:51Z</time></trkpt><trkpt lat="47.558991" lon="10.152111"><ele>982.60</ele><time>2010-06-06T09:18:01Z</time></trkpt><trkpt lat="47.558932" lon="10.151861"><ele>984.05</ele><time>2010-06-06T09:18:14Z</time></trkpt><trkpt lat="47.558877" lon="10.151658"><ele>985.97</ele><time>2010-06-06T09:18:27Z</time></trkpt><trkpt lat="47.558866" lon="10.151630"><ele>985.97</ele><time>2010-06-06T09:18:29Z</time></trkpt><trkpt lat="47.558853" lon="10.151514"><ele>987.89</ele><time>2010-06-06T09:18:37Z</time></trkpt><trkpt lat="47.558812" lon="10.151461"><ele>988.85</ele><time>2010-06-06T09:18:42Z</time></trkpt><trkpt lat="47.558754" lon="10.151509"><ele>989.33</ele><time>2010-06-06T09:18:47Z</time></trkpt><trkpt lat="47.558771" lon="10.151790"><ele>992.22</ele><time>2010-06-06T09:19:02Z</time></trkpt><trkpt lat="47.558771" lon="10.151810"><ele>992.22</ele><time>2010-06-06T09:19:03Z</time></trkpt><trkpt lat="47.558775" lon="10.152037"><ele>993.66</ele><time>2010-06-06T09:19:15Z</time></trkpt><trkpt lat="47.558767" lon="10.152089"><ele>994.62</ele><time>2010-06-06T09:19:18Z</time></trkpt><trkpt lat="47.558762" lon="10.152346"><ele>997.02</ele><time>2010-06-06T09:19:32Z</time></trkpt><trkpt lat="47.558743" lon="10.152633"><ele>999.91</ele><time>2010-06-06T09:19:48Z</time></trkpt><trkpt lat="47.558720" lon="10.152934"><ele>1002.31</ele><time>2010-06-06T09:20:04Z</time></trkpt><trkpt lat="47.558699" lon="10.153116"><ele>1003.75</ele><time>2010-06-06T09:20:13Z</time></trkpt><trkpt lat="47.558666" lon="10.153228"><ele>1005.20</ele><time>2010-06-06T09:20:19Z</time></trkpt><trkpt lat="47.558641" lon="10.153381"><ele>1007.12</ele><time>2010-06-06T09:20:28Z</time></trkpt><trkpt lat="47.558628" lon="10.153496"><ele>1008.56</ele><time>2010-06-06T09:20:34Z</time></trkpt><trkpt lat="47.558576" lon="10.153750"><ele>1011.44</ele><time>2010-06-06T09:20:48Z</time></trkpt><trkpt lat="47.558543" lon="10.153986"><ele>1014.81</ele><time>2010-06-06T09:21:01Z</time></trkpt><trkpt lat="47.558540" lon="10.154229"><ele>1017.21</ele><time>2010-06-06T09:21:14Z</time></trkpt><trkpt lat="47.558538" lon="10.154305"><ele>1017.69</ele><time>2010-06-06T09:21:18Z</time></trkpt><trkpt lat="47.558538" lon="10.154381"><ele>1018.65</ele><time>2010-06-06T09:21:22Z</time></trkpt><trkpt lat="47.558545" lon="10.154781"><ele>1021.06</ele><time>2010-06-06T09:21:41Z</time></trkpt><trkpt lat="47.558535" lon="10.155134"><ele>1024.90</ele><time>2010-06-06T09:21:57Z</time></trkpt><trkpt lat="47.558510" lon="10.155461"><ele>1027.79</ele><time>2010-06-06T09:22:13Z</time></trkpt><trkpt lat="47.558493" lon="10.155733"><ele>1031.15</ele><time>2010-06-06T09:22:26Z</time></trkpt><trkpt lat="47.558469" lon="10.156021"><ele>1034.04</ele><time>2010-06-06T09:22:40Z</time></trkpt><trkpt lat="47.558438" lon="10.156253"><ele>1037.40</ele><time>2010-06-06T09:22:51Z</time></trkpt><trkpt lat="47.558411" lon="10.156469"><ele>1039.80</ele><time>2010-06-06T09:23:00Z</time></trkpt><trkpt lat="47.558379" lon="10.156783"><ele>1043.65</ele><time>2010-06-06T09:23:12Z</time></trkpt><trkpt lat="47.558344" lon="10.157130"><ele>1047.01</ele><time>2010-06-06T09:23:24Z</time></trkpt><trkpt lat="47.558249" lon="10.157130"><ele>1048.45</ele><time>2010-06-06T09:23:30Z</time></trkpt><trkpt lat="47.558225" lon="10.157051"><ele>1049.42</ele><time>2010-06-06T09:23:33Z</time></trkpt><trkpt lat="47.558202" lon="10.156937"><ele>1050.86</ele><time>2010-06-06T09:23:37Z</time></trkpt><trkpt lat="47.558167" lon="10.156738"><ele>1053.74</ele><time>2010-06-06T09:23:43Z</time></trkpt><trkpt lat="47.558109" lon="10.156575"><ele>1056.15</ele><time>2010-06-06T09:23:48Z</time></trkpt><trkpt lat="47.558056" lon="10.156444"><ele>1057.11</ele><time>2010-06-06T09:23:53Z</time></trkpt><trkpt lat="47.557960" lon="10.156091"><ele>1060.95</ele><time>2010-06-06T09:24:05Z</time></trkpt><trkpt lat="47.557864" lon="10.155788"><ele>1064.32</ele><time>2010-06-06T09:24:15Z</time></trkpt><trkpt lat="47.557790" lon="10.155565"><ele>1067.68</ele><time>2010-06-06T09:24:23Z</time></trkpt><trkpt lat="47.557695" lon="10.155337"><ele>1069.12</ele><time>2010-06-06T09:24:34Z</time></trkpt><trkpt lat="47.557663" lon="10.155247"><ele>1070.08</ele><time>2010-06-06T09:24:38Z</time></trkpt><trkpt lat="47.557564" lon="10.154940"><ele>1073.45</ele><time>2010-06-06T09:24:51Z</time></trkpt><trkpt lat="47.557463" lon="10.154610"><ele>1076.33</ele><time>2010-06-06T09:25:03Z</time></trkpt><trkpt lat="47.557391" lon="10.154412"><ele>1079.22</ele><time>2010-06-06T09:25:10Z</time></trkpt><trkpt lat="47.557280" lon="10.154074"><ele>1082.58</ele><time>2010-06-06T09:25:22Z</time></trkpt><trkpt lat="47.557138" lon="10.153764"><ele>1085.95</ele><time>2010-06-06T09:25:33Z</time></trkpt><trkpt lat="47.556855" lon="10.153502"><ele>1088.83</ele><time>2010-06-06T09:25:44Z</time></trkpt><trkpt lat="47.556759" lon="10.153434"><ele>1090.27</ele><time>2010-06-06T09:25:47Z</time></trkpt><trkpt lat="47.556585" lon="10.153333"><ele>1092.68</ele><time>2010-06-06T09:25:57Z</time></trkpt><trkpt lat="47.556388" lon="10.153183"><ele>1096.04</ele><time>2010-06-06T09:26:12Z</time></trkpt><trkpt lat="47.556233" lon="10.153046"><ele>1098.92</ele><time>2010-06-06T09:26:26Z</time></trkpt><trkpt lat="47.556038" lon="10.152875"><ele>1101.33</ele><time>2010-06-06T09:26:42Z</time></trkpt><trkpt lat="47.555879" lon="10.152729"><ele>1104.69</ele><time>2010-06-06T09:26:55Z</time></trkpt><trkpt lat="47.555721" lon="10.152619"><ele>1106.61</ele><time>2010-06-06T09:27:09Z</time></trkpt><trkpt lat="47.555711" lon="10.152611"><ele>1107.10</ele><time>2010-06-06T09:27:10Z</time></trkpt><trkpt lat="47.555740" lon="10.152592"><ele>1106.61</ele><time>2010-06-06T09:27:20Z</time></trkpt><trkpt lat="47.555698" lon="10.152579"><ele>1107.10</ele><time>2010-06-06T09:27:25Z</time></trkpt><trkpt lat="47.555732" lon="10.152613"><ele>1106.13</ele><time>2010-06-06T09:27:34Z</time></trkpt><trkpt lat="47.555696" lon="10.152600"><ele>1106.61</ele><time>2010-06-06T09:27:38Z</time></trkpt><trkpt lat="47.555732" lon="10.152637"><ele>1106.61</ele><time>2010-06-06T09:27:47Z</time></trkpt><trkpt lat="47.555722" lon="10.152645"><ele>1106.61</ele><time>2010-06-06T09:27:48Z</time></trkpt><trkpt lat="47.555696" lon="10.152634"><ele>1107.10</ele><time>2010-06-06T09:27:51Z</time></trkpt><trkpt lat="47.555753" lon="10.152595"><ele>1106.61</ele><time>2010-06-06T09:28:02Z</time></trkpt><trkpt lat="47.555749" lon="10.152609"><ele>1106.61</ele><time>2010-06-06T09:28:03Z</time></trkpt><trkpt lat="47.555737" lon="10.152561"><ele>1107.10</ele><time>2010-06-06T09:28:13Z</time></trkpt><trkpt lat="47.555652" lon="10.152136"><ele>1105.17</ele><time>2010-06-06T09:28:26Z</time></trkpt><trkpt lat="47.555637" lon="10.152071"><ele>1104.69</ele><time>2010-06-06T09:28:27Z</time></trkpt><trkpt lat="47.555622" lon="10.152005"><ele>1104.69</ele><time>2010-06-06T09:28:28Z</time></trkpt><trkpt lat="47.555526" lon="10.151490"><ele>1101.81</ele><time>2010-06-06T09:28:35Z</time></trkpt><trkpt lat="47.555497" lon="10.151307"><ele>1100.37</ele><time>2010-06-06T09:28:37Z</time></trkpt><trkpt lat="47.555451" lon="10.151131"><ele>1098.92</ele><time>2010-06-06T09:28:39Z</time></trkpt><trkpt lat="47.555417" lon="10.151061"><ele>1098.44</ele><time>2010-06-06T09:28:40Z</time></trkpt><trkpt lat="47.555373" lon="10.151014"><ele>1097.96</ele><time>2010-06-06T09:28:41Z</time></trkpt><trkpt lat="47.555323" lon="10.150990"><ele>1097.96</ele><time>2010-06-06T09:28:42Z</time></trkpt><trkpt lat="47.555270" lon="10.150988"><ele>1097.96</ele><time>2010-06-06T09:28:43Z</time></trkpt><trkpt lat="47.555222" lon="10.150996"><ele>1097.48</ele><time>2010-06-06T09:28:44Z</time></trkpt><trkpt lat="47.555180" lon="10.151007"><ele>1097.48</ele><time>2010-06-06T09:28:45Z</time></trkpt><trkpt lat="47.555137" lon="10.151013"><ele>1097.48</ele><time>2010-06-06T09:28:46Z</time></trkpt><trkpt lat="47.555082" lon="10.151008"><ele>1097.00</ele><time>2010-06-06T09:28:47Z</time></trkpt><trkpt lat="47.555024" lon="10.150984"><ele>1096.04</ele><time>2010-06-06T09:28:48Z</time></trkpt><trkpt lat="47.554970" lon="10.150946"><ele>1096.04</ele><time>2010-06-06T09:28:49Z</time></trkpt><trkpt lat="47.554917" lon="10.150913"><ele>1096.04</ele><time>2010-06-06T09:28:50Z</time></trkpt><trkpt lat="47.554869" lon="10.150895"><ele>1096.04</ele><time>2010-06-06T09:28:51Z</time></trkpt><trkpt lat="47.554823" lon="10.150900"><ele>1096.04</ele><time>2010-06-06T09:28:52Z</time></trkpt><trkpt lat="47.554448" lon="10.151109"><ele>1094.60</ele><time>2010-06-06T09:29:03Z</time></trkpt><trkpt lat="47.554349" lon="10.151230"><ele>1093.64</ele><time>2010-06-06T09:29:06Z</time></trkpt><trkpt lat="47.554308" lon="10.151268"><ele>1093.16</ele><time>2010-06-06T09:29:07Z</time></trkpt><trkpt lat="47.554262" lon="10.151293"><ele>1092.68</ele><time>2010-06-06T09:29:08Z</time></trkpt><trkpt lat="47.554208" lon="10.151311"><ele>1092.20</ele><time>2010-06-06T09:29:09Z</time></trkpt><trkpt lat="47.554142" lon="10.151340"><ele>1091.23</ele><time>2010-06-06T09:29:10Z</time></trkpt><trkpt lat="47.553927" lon="10.151432"><ele>1088.35</ele><time>2010-06-06T09:29:13Z</time></trkpt><trkpt lat="47.553851" lon="10.151452"><ele>1087.39</ele><time>2010-06-06T09:29:14Z</time></trkpt><trkpt lat="47.553769" lon="10.151461"><ele>1086.91</ele><time>2010-06-06T09:29:15Z</time></trkpt><trkpt lat="47.553697" lon="10.151441"><ele>1085.95</ele><time>2010-06-06T09:29:16Z</time></trkpt><trkpt lat="47.553635" lon="10.151406"><ele>1085.47</ele><time>2010-06-06T09:29:17Z</time></trkpt><trkpt lat="47.553582" lon="10.151366"><ele>1084.50</ele><time>2010-06-06T09:29:18Z</time></trkpt><trkpt lat="47.553494" lon="10.151288"><ele>1083.06</ele><time>2010-06-06T09:29:20Z</time></trkpt><trkpt lat="47.553459" lon="10.151231"><ele>1082.58</ele><time>2010-06-06T09:29:21Z</time></trkpt><trkpt lat="47.553445" lon="10.151150"><ele>1081.62</ele><time>2010-06-06T09:29:22Z</time></trkpt><trkpt lat="47.553453" lon="10.151065"><ele>1081.62</ele><time>2010-06-06T09:29:23Z</time></trkpt><trkpt lat="47.553475" lon="10.150993"><ele>1081.62</ele><time>2010-06-06T09:29:24Z</time></trkpt><trkpt lat="47.553507" lon="10.150941"><ele>1081.62</ele><time>2010-06-06T09:29:25Z</time></trkpt><trkpt lat="47.553536" lon="10.150906"><ele>1082.10</ele><time>2010-06-06T09:29:26Z</time></trkpt><trkpt lat="47.553553" lon="10.150881"><ele>1082.58</ele><time>2010-06-06T09:29:27Z</time></trkpt><trkpt lat="47.553565" lon="10.150863"><ele>1083.06</ele><time>2010-06-06T09:29:28Z</time></trkpt><trkpt lat="47.553576" lon="10.150856"><ele>1083.54</ele><time>2010-06-06T09:29:29Z</time></trkpt><trkpt lat="47.553590" lon="10.150853"><ele>1084.02</ele><time>2010-06-06T09:29:30Z</time></trkpt><trkpt lat="47.553603" lon="10.150842"><ele>1084.02</ele><time>2010-06-06T09:29:31Z</time></trkpt><trkpt lat="47.553619" lon="10.150812"><ele>1084.50</ele><time>2010-06-06T09:29:37Z</time></trkpt><trkpt lat="47.553636" lon="10.150791"><ele>1084.99</ele><time>2010-06-06T09:29:39Z</time></trkpt><trkpt lat="47.553747" lon="10.150681"><ele>1087.87</ele><time>2010-06-06T09:29:49Z</time></trkpt><trkpt lat="47.553779" lon="10.150658"><ele>1084.02</ele><time>2010-06-06T09:29:52Z</time></trkpt><trkpt lat="47.553788" lon="10.150643"><ele>1086.43</ele><time>2010-06-06T09:29:53Z</time></trkpt><trkpt lat="47.553798" lon="10.150630"><ele>1086.91</ele><time>2010-06-06T09:29:54Z</time></trkpt><trkpt lat="47.553810" lon="10.150621"><ele>1087.39</ele><time>2010-06-06T09:29:55Z</time></trkpt><trkpt lat="47.553825" lon="10.150613"><ele>1087.39</ele><time>2010-06-06T09:29:56Z</time></trkpt><trkpt lat="47.553847" lon="10.150597"><ele>1088.35</ele><time>2010-06-06T09:29:58Z</time></trkpt><trkpt lat="47.553855" lon="10.150583"><ele>1088.35</ele><time>2010-06-06T09:29:59Z</time></trkpt><trkpt lat="47.553866" lon="10.150569"><ele>1088.35</ele><time>2010-06-06T09:30:00Z</time></trkpt><trkpt lat="47.553876" lon="10.150554"><ele>1088.83</ele><time>2010-06-06T09:30:01Z</time></trkpt><trkpt lat="47.553887" lon="10.150544"><ele>1088.35</ele><time>2010-06-06T09:30:02Z</time></trkpt><trkpt lat="47.553899" lon="10.150537"><ele>1088.83</ele><time>2010-06-06T09:30:03Z</time></trkpt><trkpt lat="47.553914" lon="10.150526"><ele>1089.31</ele><time>2010-06-06T09:30:04Z</time></trkpt><trkpt lat="47.553924" lon="10.150512"><ele>1089.31</ele><time>2010-06-06T09:30:05Z</time></trkpt><trkpt lat="47.553934" lon="10.150500"><ele>1089.31</ele><time>2010-06-06T09:30:06Z</time></trkpt><trkpt lat="47.553945" lon="10.150490"><ele>1091.71</ele><time>2010-06-06T09:30:07Z</time></trkpt><trkpt lat="47.553966" lon="10.150462"><ele>1092.20</ele><time>2010-06-06T09:30:09Z</time></trkpt><trkpt lat="47.554137" lon="10.150088"><ele>1092.68</ele><time>2010-06-06T09:30:19Z</time></trkpt><trkpt lat="47.554160" lon="10.149955"><ele>1092.20</ele><time>2010-06-06T09:30:21Z</time></trkpt><trkpt lat="47.554189" lon="10.149746"><ele>1091.71</ele><time>2010-06-06T09:30:24Z</time></trkpt><trkpt lat="47.554204" lon="10.149674"><ele>1091.71</ele><time>2010-06-06T09:30:25Z</time></trkpt><trkpt lat="47.554223" lon="10.149595"><ele>1091.23</ele><time>2010-06-06T09:30:26Z</time></trkpt><trkpt lat="47.554251" lon="10.149508"><ele>1090.27</ele><time>2010-06-06T09:30:27Z</time></trkpt><trkpt lat="47.554285" lon="10.149426"><ele>1090.27</ele><time>2010-06-06T09:30:28Z</time></trkpt><trkpt lat="47.554321" lon="10.149355"><ele>1090.27</ele><time>2010-06-06T09:30:29Z</time></trkpt><trkpt lat="47.554357" lon="10.149287"><ele>1089.79</ele><time>2010-06-06T09:30:30Z</time></trkpt><trkpt lat="47.554391" lon="10.149218"><ele>1089.79</ele><time>2010-06-06T09:30:31Z</time></trkpt><trkpt lat="47.554577" lon="10.148873"><ele>1089.31</ele><time>2010-06-06T09:30:37Z</time></trkpt><trkpt lat="47.554592" lon="10.148810"><ele>1089.31</ele><time>2010-06-06T09:30:38Z</time></trkpt><trkpt lat="47.554603" lon="10.148743"><ele>1088.83</ele><time>2010-06-06T09:30:39Z</time></trkpt><trkpt lat="47.554606" lon="10.148680"><ele>1089.31</ele><time>2010-06-06T09:30:40Z</time></trkpt><trkpt lat="47.554604" lon="10.148624"><ele>1089.31</ele><time>2010-06-06T09:30:41Z</time></trkpt><trkpt lat="47.554595" lon="10.148576"><ele>1089.31</ele><time>2010-06-06T09:30:42Z</time></trkpt><trkpt lat="47.554578" lon="10.148536"><ele>1089.31</ele><time>2010-06-06T09:30:43Z</time></trkpt><trkpt lat="47.554564" lon="10.148498"><ele>1089.79</ele><time>2010-06-06T09:30:44Z</time></trkpt><trkpt lat="47.554550" lon="10.148455"><ele>1090.27</ele><time>2010-06-06T09:30:45Z</time></trkpt><trkpt lat="47.554531" lon="10.148417"><ele>1089.79</ele><time>2010-06-06T09:30:46Z</time></trkpt><trkpt lat="47.554373" lon="10.148013"><ele>1091.23</ele><time>2010-06-06T09:30:57Z</time></trkpt><trkpt lat="47.554361" lon="10.147956"><ele>1090.75</ele><time>2010-06-06T09:30:58Z</time></trkpt><trkpt lat="47.554207" lon="10.147260"><ele>1086.91</ele><time>2010-06-06T09:31:10Z</time></trkpt><trkpt lat="47.554212" lon="10.147179"><ele>1087.39</ele><time>2010-06-06T09:31:11Z</time></trkpt><trkpt lat="47.554224" lon="10.147095"><ele>1086.43</ele><time>2010-06-06T09:31:12Z</time></trkpt><trkpt lat="47.554241" lon="10.147011"><ele>1086.43</ele><time>2010-06-06T09:31:13Z</time></trkpt><trkpt lat="47.554260" lon="10.146933"><ele>1085.95</ele><time>2010-06-06T09:31:14Z</time></trkpt><trkpt lat="47.554271" lon="10.146860"><ele>1085.95</ele><time>2010-06-06T09:31:15Z</time></trkpt><trkpt lat="47.554273" lon="10.146791"><ele>1085.95</ele><time>2010-06-06T09:31:16Z</time></trkpt><trkpt lat="47.554268" lon="10.146722"><ele>1085.95</ele><time>2010-06-06T09:31:17Z</time></trkpt><trkpt lat="47.554180" lon="10.146129"><ele>1086.43</ele><time>2010-06-06T09:31:29Z</time></trkpt><trkpt lat="47.554173" lon="10.146112"><ele>1086.43</ele><time>2010-06-06T09:31:30Z</time></trkpt><trkpt lat="47.554157" lon="10.146082"><ele>1086.43</ele><time>2010-06-06T09:31:33Z</time></trkpt><trkpt lat="47.554154" lon="10.146062"><ele>1086.43</ele><time>2010-06-06T09:31:34Z</time></trkpt><trkpt lat="47.554142" lon="10.146014"><ele>1087.39</ele><time>2010-06-06T09:31:37Z</time></trkpt><trkpt lat="47.554133" lon="10.145997"><ele>1087.39</ele><time>2010-06-06T09:31:38Z</time></trkpt><trkpt lat="47.554128" lon="10.145972"><ele>1086.91</ele><time>2010-06-06T09:31:39Z</time></trkpt><trkpt lat="47.554120" lon="10.145949"><ele>1087.39</ele><time>2010-06-06T09:31:40Z</time></trkpt><trkpt lat="47.554113" lon="10.145925"><ele>1087.39</ele><time>2010-06-06T09:31:41Z</time></trkpt><trkpt lat="47.554105" lon="10.145899"><ele>1087.39</ele><time>2010-06-06T09:31:42Z</time></trkpt><trkpt lat="47.554096" lon="10.145874"><ele>1087.87</ele><time>2010-06-06T09:31:43Z</time></trkpt><trkpt lat="47.554088" lon="10.145848"><ele>1088.35</ele><time>2010-06-06T09:31:44Z</time></trkpt><trkpt lat="47.554029" lon="10.145663"><ele>1089.31</ele><time>2010-06-06T09:31:52Z</time></trkpt><trkpt lat="47.553849" lon="10.145422"><ele>1092.68</ele><time>2010-06-06T09:32:08Z</time></trkpt><trkpt lat="47.553730" lon="10.145175"><ele>1095.08</ele><time>2010-06-06T09:32:23Z</time></trkpt><trkpt lat="47.553622" lon="10.144856"><ele>1097.48</ele><time>2010-06-06T09:32:39Z</time></trkpt><trkpt lat="47.553504" lon="10.144592"><ele>1099.40</ele><time>2010-06-06T09:32:52Z</time></trkpt><trkpt lat="47.553492" lon="10.144595"><ele>1098.92</ele><time>2010-06-06T09:32:53Z</time></trkpt><trkpt lat="47.553478" lon="10.144598"><ele>1098.92</ele><time>2010-06-06T09:32:54Z</time></trkpt><trkpt lat="47.553466" lon="10.144603"><ele>1098.92</ele><time>2010-06-06T09:32:55Z</time></trkpt><trkpt lat="47.553456" lon="10.144614"><ele>1099.89</ele><time>2010-06-06T09:32:56Z</time></trkpt><trkpt lat="47.553452" lon="10.144631"><ele>1099.40</ele><time>2010-06-06T09:32:57Z</time></trkpt><trkpt lat="47.553452" lon="10.144648"><ele>1099.89</ele><time>2010-06-06T09:32:58Z</time></trkpt><trkpt lat="47.553416" lon="10.144766"><ele>1101.33</ele><time>2010-06-06T09:33:05Z</time></trkpt><trkpt lat="47.553405" lon="10.144777"><ele>1101.81</ele><time>2010-06-06T09:33:06Z</time></trkpt><trkpt lat="47.553395" lon="10.144783"><ele>1101.81</ele><time>2010-06-06T09:33:07Z</time></trkpt><trkpt lat="47.553382" lon="10.144787"><ele>1102.29</ele><time>2010-06-06T09:33:08Z</time></trkpt><trkpt lat="47.553370" lon="10.144790"><ele>1102.29</ele><time>2010-06-06T09:33:09Z</time></trkpt><trkpt lat="47.553358" lon="10.144794"><ele>1101.81</ele><time>2010-06-06T09:33:10Z</time></trkpt><trkpt lat="47.553347" lon="10.144796"><ele>1102.29</ele><time>2010-06-06T09:33:11Z</time></trkpt><trkpt lat="47.553334" lon="10.144799"><ele>1102.29</ele><time>2010-06-06T09:33:12Z</time></trkpt><trkpt lat="47.553321" lon="10.144806"><ele>1102.77</ele><time>2010-06-06T09:33:13Z</time></trkpt><trkpt lat="47.553309" lon="10.144816"><ele>1103.25</ele><time>2010-06-06T09:33:14Z</time></trkpt><trkpt lat="47.553299" lon="10.144827"><ele>1103.25</ele><time>2010-06-06T09:33:15Z</time></trkpt><trkpt lat="47.553287" lon="10.144834"><ele>1103.73</ele><time>2010-06-06T09:33:16Z</time></trkpt><trkpt lat="47.553218" lon="10.144867"><ele>1105.65</ele><time>2010-06-06T09:33:22Z</time></trkpt><trkpt lat="47.553208" lon="10.144867"><ele>1105.65</ele><time>2010-06-06T09:33:23Z</time></trkpt><trkpt lat="47.553198" lon="10.144867"><ele>1105.65</ele><time>2010-06-06T09:33:24Z</time></trkpt><trkpt lat="47.553135" lon="10.144856"><ele>1107.58</ele><time>2010-06-06T09:33:30Z</time></trkpt><trkpt lat="47.553125" lon="10.144862"><ele>1107.58</ele><time>2010-06-06T09:33:31Z</time></trkpt><trkpt lat="47.553114" lon="10.144867"><ele>1108.06</ele><time>2010-06-06T09:33:32Z</time></trkpt><trkpt lat="47.553103" lon="10.144868"><ele>1108.54</ele><time>2010-06-06T09:33:33Z</time></trkpt><trkpt lat="47.553093" lon="10.144867"><ele>1108.54</ele><time>2010-06-06T09:33:34Z</time></trkpt><trkpt lat="47.553082" lon="10.144863"><ele>1108.54</ele><time>2010-06-06T09:33:35Z</time></trkpt><trkpt lat="47.552918" lon="10.144860"><ele>1111.90</ele><time>2010-06-06T09:33:48Z</time></trkpt><trkpt lat="47.552846" lon="10.144885"><ele>1113.34</ele><time>2010-06-06T09:33:54Z</time></trkpt><trkpt lat="47.552807" lon="10.144898"><ele>1114.79</ele><time>2010-06-06T09:33:58Z</time></trkpt><trkpt lat="47.552797" lon="10.144906"><ele>1114.79</ele><time>2010-06-06T09:33:59Z</time></trkpt><trkpt lat="47.552787" lon="10.144917"><ele>1114.79</ele><time>2010-06-06T09:34:00Z</time></trkpt><trkpt lat="47.552776" lon="10.144927"><ele>1115.27</ele><time>2010-06-06T09:34:01Z</time></trkpt><trkpt lat="47.552764" lon="10.144933"><ele>1115.27</ele><time>2010-06-06T09:34:02Z</time></trkpt><trkpt lat="47.552751" lon="10.144935"><ele>1115.75</ele><time>2010-06-06T09:34:03Z</time></trkpt><trkpt lat="47.552739" lon="10.144936"><ele>1115.75</ele><time>2010-06-06T09:34:04Z</time></trkpt><trkpt lat="47.552633" lon="10.144950"><ele>1118.63</ele><time>2010-06-06T09:34:13Z</time></trkpt><trkpt lat="47.552621" lon="10.144946"><ele>1118.63</ele><time>2010-06-06T09:34:14Z</time></trkpt><trkpt lat="47.552610" lon="10.144945"><ele>1119.11</ele><time>2010-06-06T09:34:15Z</time></trkpt><trkpt lat="47.552597" lon="10.144944"><ele>1119.11</ele><time>2010-06-06T09:34:16Z</time></trkpt><trkpt lat="47.552584" lon="10.144941"><ele>1119.59</ele><time>2010-06-06T09:34:17Z</time></trkpt><trkpt lat="47.552570" lon="10.144939"><ele>1120.07</ele><time>2010-06-06T09:34:18Z</time></trkpt><trkpt lat="47.552557" lon="10.144938"><ele>1120.07</ele><time>2010-06-06T09:34:19Z</time></trkpt><trkpt lat="47.552403" lon="10.144931"><ele>1122.48</ele><time>2010-06-06T09:34:31Z</time></trkpt><trkpt lat="47.552394" lon="10.144938"><ele>1122.96</ele><time>2010-06-06T09:34:32Z</time></trkpt><trkpt lat="47.552384" lon="10.144947"><ele>1123.44</ele><time>2010-06-06T09:34:33Z</time></trkpt><trkpt lat="47.552374" lon="10.144954"><ele>1123.44</ele><time>2010-06-06T09:34:34Z</time></trkpt><trkpt lat="47.552366" lon="10.144963"><ele>1123.44</ele><time>2010-06-06T09:34:35Z</time></trkpt><trkpt lat="47.552228" lon="10.145106"><ele>1126.80</ele><time>2010-06-06T09:34:49Z</time></trkpt><trkpt lat="47.552113" lon="10.145244"><ele>1128.73</ele><time>2010-06-06T09:35:01Z</time></trkpt><trkpt lat="47.552051" lon="10.145217"><ele>1130.17</ele><time>2010-06-06T09:35:06Z</time></trkpt><trkpt lat="47.552045" lon="10.145202"><ele>1130.65</ele><time>2010-06-06T09:35:07Z</time></trkpt><trkpt lat="47.552040" lon="10.145184"><ele>1130.65</ele><time>2010-06-06T09:35:08Z</time></trkpt><trkpt lat="47.552037" lon="10.145165"><ele>1131.13</ele><time>2010-06-06T09:35:09Z</time></trkpt><trkpt lat="47.552037" lon="10.145149"><ele>1131.61</ele><time>2010-06-06T09:35:10Z</time></trkpt><trkpt lat="47.552038" lon="10.145130"><ele>1131.61</ele><time>2010-06-06T09:35:11Z</time></trkpt><trkpt lat="47.552042" lon="10.145110"><ele>1131.61</ele><time>2010-06-06T09:35:12Z</time></trkpt><trkpt lat="47.552049" lon="10.145093"><ele>1132.09</ele><time>2010-06-06T09:35:13Z</time></trkpt><trkpt lat="47.552056" lon="10.145077"><ele>1132.57</ele><time>2010-06-06T09:35:14Z</time></trkpt><trkpt lat="47.552062" lon="10.145062"><ele>1132.57</ele><time>2010-06-06T09:35:15Z</time></trkpt><trkpt lat="47.552066" lon="10.145043"><ele>1132.57</ele><time>2010-06-06T09:35:16Z</time></trkpt><trkpt lat="47.552067" lon="10.145023"><ele>1133.05</ele><time>2010-06-06T09:35:17Z</time></trkpt><trkpt lat="47.552069" lon="10.145008"><ele>1133.53</ele><time>2010-06-06T09:35:18Z</time></trkpt><trkpt lat="47.552064" lon="10.144977"><ele>1134.01</ele><time>2010-06-06T09:35:20Z</time></trkpt><trkpt lat="47.552059" lon="10.144961"><ele>1134.01</ele><time>2010-06-06T09:35:21Z</time></trkpt><trkpt lat="47.552056" lon="10.144943"><ele>1134.49</ele><time>2010-06-06T09:35:22Z</time></trkpt><trkpt lat="47.552055" lon="10.144926"><ele>1134.97</ele><time>2010-06-06T09:35:23Z</time></trkpt><trkpt lat="47.552051" lon="10.144909"><ele>1134.97</ele><time>2010-06-06T09:35:24Z</time></trkpt><trkpt lat="47.552044" lon="10.144897"><ele>1134.97</ele><time>2010-06-06T09:35:25Z</time></trkpt><trkpt lat="47.552025" lon="10.144869"><ele>1135.94</ele><time>2010-06-06T09:35:28Z</time></trkpt><trkpt lat="47.552017" lon="10.144857"><ele>1136.42</ele><time>2010-06-06T09:35:29Z</time></trkpt><trkpt lat="47.552011" lon="10.144843"><ele>1136.42</ele><time>2010-06-06T09:35:30Z</time></trkpt><trkpt lat="47.552007" lon="10.144828"><ele>1136.90</ele><time>2010-06-06T09:35:31Z</time></trkpt><trkpt lat="47.552000" lon="10.144767"><ele>1137.86</ele><time>2010-06-06T09:35:35Z</time></trkpt><trkpt lat="47.551994" lon="10.144754"><ele>1137.86</ele><time>2010-06-06T09:35:36Z</time></trkpt><trkpt lat="47.551989" lon="10.144740"><ele>1137.86</ele><time>2010-06-06T09:35:37Z</time></trkpt><trkpt lat="47.551987" lon="10.144724"><ele>1137.86</ele><time>2010-06-06T09:35:38Z</time></trkpt><trkpt lat="47.551988" lon="10.144704"><ele>1138.34</ele><time>2010-06-06T09:35:39Z</time></trkpt><trkpt lat="47.551979" lon="10.144675"><ele>1138.34</ele><time>2010-06-06T09:35:41Z</time></trkpt><trkpt lat="47.551955" lon="10.144595"><ele>1139.30</ele><time>2010-06-06T09:35:46Z</time></trkpt><trkpt lat="47.551949" lon="10.144580"><ele>1139.78</ele><time>2010-06-06T09:35:47Z</time></trkpt><trkpt lat="47.551943" lon="10.144564"><ele>1140.26</ele><time>2010-06-06T09:35:48Z</time></trkpt><trkpt lat="47.551873" lon="10.144406"><ele>1143.14</ele><time>2010-06-06T09:36:00Z</time></trkpt><trkpt lat="47.551846" lon="10.144368"><ele>1144.11</ele><time>2010-06-06T09:36:03Z</time></trkpt><trkpt lat="47.551834" lon="10.144345"><ele>1145.07</ele><time>2010-06-06T09:36:05Z</time></trkpt><trkpt lat="47.551712" lon="10.144202"><ele>1147.95</ele><time>2010-06-06T09:36:20Z</time></trkpt><trkpt lat="47.551685" lon="10.144182"><ele>1148.43</ele><time>2010-06-06T09:36:23Z</time></trkpt><trkpt lat="47.551643" lon="10.144159"><ele>1148.91</ele><time>2010-06-06T09:36:27Z</time></trkpt><trkpt lat="47.551632" lon="10.144148"><ele>1148.91</ele><time>2010-06-06T09:36:28Z</time></trkpt><trkpt lat="47.551451" lon="10.144059"><ele>1151.80</ele><time>2010-06-06T09:36:45Z</time></trkpt><trkpt lat="47.551440" lon="10.144062"><ele>1151.80</ele><time>2010-06-06T09:36:46Z</time></trkpt><trkpt lat="47.551379" lon="10.144031"><ele>1153.72</ele><time>2010-06-06T09:36:52Z</time></trkpt><trkpt lat="47.551367" lon="10.144027"><ele>1154.20</ele><time>2010-06-06T09:36:53Z</time></trkpt><trkpt lat="47.551282" lon="10.143990"><ele>1155.64</ele><time>2010-06-06T09:37:01Z</time></trkpt><trkpt lat="47.551273" lon="10.143985"><ele>1156.12</ele><time>2010-06-06T09:37:02Z</time></trkpt><trkpt lat="47.551262" lon="10.143981"><ele>1156.12</ele><time>2010-06-06T09:37:03Z</time></trkpt><trkpt lat="47.551253" lon="10.143975"><ele>1156.60</ele><time>2010-06-06T09:37:04Z</time></trkpt><trkpt lat="47.551225" lon="10.143962"><ele>1157.56</ele><time>2010-06-06T09:37:07Z</time></trkpt><trkpt lat="47.551098" lon="10.143912"><ele>1159.49</ele><time>2010-06-06T09:37:19Z</time></trkpt><trkpt lat="47.551003" lon="10.143872"><ele>1161.89</ele><time>2010-06-06T09:37:29Z</time></trkpt><trkpt lat="47.550924" lon="10.143857"><ele>1163.33</ele><time>2010-06-06T09:37:35Z</time></trkpt><trkpt lat="47.550892" lon="10.143865"><ele>1163.81</ele><time>2010-06-06T09:37:37Z</time></trkpt><trkpt lat="47.550873" lon="10.143864"><ele>1164.29</ele><time>2010-06-06T09:37:38Z</time></trkpt><trkpt lat="47.550837" lon="10.143880"><ele>1165.26</ele><time>2010-06-06T09:37:41Z</time></trkpt><trkpt lat="47.550826" lon="10.143887"><ele>1165.74</ele><time>2010-06-06T09:37:42Z</time></trkpt><trkpt lat="47.550783" lon="10.143913"><ele>1166.70</ele><time>2010-06-06T09:37:47Z</time></trkpt><trkpt lat="47.550788" lon="10.143939"><ele>1167.66</ele><time>2010-06-06T09:37:49Z</time></trkpt><trkpt lat="47.550794" lon="10.143953"><ele>1167.66</ele><time>2010-06-06T09:37:50Z</time></trkpt><trkpt lat="47.550806" lon="10.143969"><ele>1168.14</ele><time>2010-06-06T09:37:52Z</time></trkpt><trkpt lat="47.550828" lon="10.144008"><ele>1169.10</ele><time>2010-06-06T09:37:55Z</time></trkpt><trkpt lat="47.550913" lon="10.144121"><ele>1171.02</ele><time>2010-06-06T09:38:04Z</time></trkpt><trkpt lat="47.550979" lon="10.144247"><ele>1172.47</ele><time>2010-06-06T09:38:11Z</time></trkpt><trkpt lat="47.550983" lon="10.144267"><ele>1172.47</ele><time>2010-06-06T09:38:12Z</time></trkpt><trkpt lat="47.551077" lon="10.144540"><ele>1174.87</ele><time>2010-06-06T09:38:28Z</time></trkpt><trkpt lat="47.551075" lon="10.144615"><ele>1175.35</ele><time>2010-06-06T09:38:32Z</time></trkpt><trkpt lat="47.551069" lon="10.144633"><ele>1175.35</ele><time>2010-06-06T09:38:33Z</time></trkpt><trkpt lat="47.551062" lon="10.144648"><ele>1175.83</ele><time>2010-06-06T09:38:34Z</time></trkpt><trkpt lat="47.551054" lon="10.144661"><ele>1175.83</ele><time>2010-06-06T09:38:35Z</time></trkpt><trkpt lat="47.551043" lon="10.144672"><ele>1176.31</ele><time>2010-06-06T09:38:36Z</time></trkpt><trkpt lat="47.551031" lon="10.144678"><ele>1176.31</ele><time>2010-06-06T09:38:37Z</time></trkpt><trkpt lat="47.551016" lon="10.144683"><ele>1176.31</ele><time>2010-06-06T09:38:38Z</time></trkpt><trkpt lat="47.551001" lon="10.144690"><ele>1176.79</ele><time>2010-06-06T09:38:39Z</time></trkpt><trkpt lat="47.550991" lon="10.144703"><ele>1176.79</ele><time>2010-06-06T09:38:40Z</time></trkpt><trkpt lat="47.550981" lon="10.144717"><ele>1177.27</ele><time>2010-06-06T09:38:41Z</time></trkpt><trkpt lat="47.550968" lon="10.144723"><ele>1177.75</ele><time>2010-06-06T09:38:42Z</time></trkpt><trkpt lat="47.550957" lon="10.144727"><ele>1177.75</ele><time>2010-06-06T09:38:43Z</time></trkpt><trkpt lat="47.550948" lon="10.144732"><ele>1178.23</ele><time>2010-06-06T09:38:44Z</time></trkpt><trkpt lat="47.550850" lon="10.144767"><ele>1181.12</ele><time>2010-06-06T09:38:53Z</time></trkpt><trkpt lat="47.550841" lon="10.144771"><ele>1180.64</ele><time>2010-06-06T09:38:54Z</time></trkpt><trkpt lat="47.550728" lon="10.144773"><ele>1183.52</ele><time>2010-06-06T09:39:05Z</time></trkpt><trkpt lat="47.550568" lon="10.144730"><ele>1186.40</ele><time>2010-06-06T09:39:20Z</time></trkpt><trkpt lat="47.550357" lon="10.144722"><ele>1188.33</ele><time>2010-06-06T09:39:35Z</time></trkpt><trkpt lat="47.550177" lon="10.144701"><ele>1190.25</ele><time>2010-06-06T09:39:47Z</time></trkpt><trkpt lat="47.550164" lon="10.144698"><ele>1190.73</ele><time>2010-06-06T09:39:48Z</time></trkpt><trkpt lat="47.550151" lon="10.144696"><ele>1190.73</ele><time>2010-06-06T09:39:49Z</time></trkpt><trkpt lat="47.550137" lon="10.144693"><ele>1191.21</ele><time>2010-06-06T09:39:50Z</time></trkpt><trkpt lat="47.550125" lon="10.144693"><ele>1191.69</ele><time>2010-06-06T09:39:51Z</time></trkpt><trkpt lat="47.550113" lon="10.144695"><ele>1191.69</ele><time>2010-06-06T09:39:52Z</time></trkpt><trkpt lat="47.550101" lon="10.144693"><ele>1191.69</ele><time>2010-06-06T09:39:53Z</time></trkpt><trkpt lat="47.549965" lon="10.144752"><ele>1195.06</ele><time>2010-06-06T09:40:05Z</time></trkpt><trkpt lat="47.549953" lon="10.144765"><ele>1194.58</ele><time>2010-06-06T09:40:06Z</time></trkpt><trkpt lat="47.549887" lon="10.144794"><ele>1196.50</ele><time>2010-06-06T09:40:12Z</time></trkpt><trkpt lat="47.549870" lon="10.144799"><ele>1196.50</ele><time>2010-06-06T09:40:14Z</time></trkpt><trkpt lat="47.549842" lon="10.144804"><ele>1197.46</ele><time>2010-06-06T09:40:16Z</time></trkpt><trkpt lat="47.549834" lon="10.144796"><ele>1197.46</ele><time>2010-06-06T09:40:17Z</time></trkpt><trkpt lat="47.549827" lon="10.144784"><ele>1196.98</ele><time>2010-06-06T09:40:18Z</time></trkpt><trkpt lat="47.549820" lon="10.144767"><ele>1196.98</ele><time>2010-06-06T09:40:19Z</time></trkpt><trkpt lat="47.549812" lon="10.144747"><ele>1196.98</ele><time>2010-06-06T09:40:20Z</time></trkpt><trkpt lat="47.549805" lon="10.144729"><ele>1196.98</ele><time>2010-06-06T09:40:21Z</time></trkpt><trkpt lat="47.549790" lon="10.144627"><ele>1196.50</ele><time>2010-06-06T09:40:32Z</time></trkpt><trkpt lat="47.549784" lon="10.144557"><ele>1195.54</ele><time>2010-06-06T09:41:00Z</time></trkpt><trkpt lat="47.549820" lon="10.144591"><ele>1195.06</ele><time>2010-06-06T09:41:36Z</time></trkpt><trkpt lat="47.549848" lon="10.144654"><ele>1194.58</ele><time>2010-06-06T09:41:57Z</time></trkpt><trkpt lat="47.549841" lon="10.144665"><ele>1190.73</ele><time>2010-06-06T09:41:59Z</time></trkpt><trkpt lat="47.549841" lon="10.144665"><ele>1192.17</ele><time>2010-06-06T09:42:00Z</time></trkpt><trkpt lat="47.549838" lon="10.144674"><ele>1195.54</ele><time>2010-06-06T09:42:07Z</time></trkpt><trkpt lat="47.549844" lon="10.144674"><ele>1196.50</ele><time>2010-06-06T09:42:10Z</time></trkpt><trkpt lat="47.549844" lon="10.144674"><ele>1196.02</ele><time>2010-06-06T09:42:12Z</time></trkpt><trkpt lat="47.549844" lon="10.144674"><ele>1192.65</ele><time>2010-06-06T09:42:28Z</time></trkpt><trkpt lat="47.549844" lon="10.144674"><ele>1196.02</ele><time>2010-06-06T09:42:36Z</time></trkpt><trkpt lat="47.549852" lon="10.144681"><ele>1191.69</ele><time>2010-06-06T09:47:55Z</time></trkpt><trkpt lat="47.549852" lon="10.144681"><ele>1195.06</ele><time>2010-06-06T09:47:58Z</time></trkpt><trkpt lat="47.549852" lon="10.144681"><ele>1195.06</ele><time>2010-06-06T09:48:09Z</time></trkpt><trkpt lat="47.549852" lon="10.144676"><ele>1196.50</ele><time>2010-06-06T09:48:20Z</time></trkpt><trkpt lat="47.549852" lon="10.144676"><ele>1189.29</ele><time>2010-06-06T09:48:46Z</time></trkpt><trkpt lat="47.549852" lon="10.144676"><ele>1197.94</ele><time>2010-06-06T09:48:47Z</time></trkpt><trkpt lat="47.549852" lon="10.144676"><ele>1191.21</ele><time>2010-06-06T09:48:48Z</time></trkpt><trkpt lat="47.549852" lon="10.144676"><ele>1196.98</ele><time>2010-06-06T09:48:49Z</time></trkpt><trkpt lat="47.549853" lon="10.144680"><ele>1193.13</ele><time>2010-06-06T09:48:50Z</time></trkpt><trkpt lat="47.549853" lon="10.144680"><ele>1194.58</ele><time>2010-06-06T09:48:53Z</time></trkpt><trkpt lat="47.549853" lon="10.144680"><ele>1196.98</ele><time>2010-06-06T09:49:08Z</time></trkpt><trkpt lat="47.549852" lon="10.144681"><ele>1196.98</ele><time>2010-06-06T09:49:52Z</time></trkpt><trkpt lat="47.549852" lon="10.144680"><ele>1195.06</ele><time>2010-06-06T09:50:26Z</time></trkpt><trkpt lat="47.549853" lon="10.144680"><ele>1195.54</ele><time>2010-06-06T09:51:18Z</time></trkpt><trkpt lat="47.549853" lon="10.144680"><ele>1195.06</ele><time>2010-06-06T09:51:41Z</time></trkpt><trkpt lat="47.549851" lon="10.144661"><ele>1196.02</ele><time>2010-06-06T09:53:24Z</time></trkpt><trkpt lat="47.549845" lon="10.144654"><ele>1195.54</ele><time>2010-06-06T09:53:39Z</time></trkpt><trkpt lat="47.549845" lon="10.144654"><ele>1196.98</ele><time>2010-06-06T09:53:41Z</time></trkpt><trkpt lat="47.549848" lon="10.144679"><ele>1196.02</ele><time>2010-06-06T10:02:44Z</time></trkpt><trkpt lat="47.549842" lon="10.144679"><ele>1196.02</ele><time>2010-06-06T10:02:45Z</time></trkpt><trkpt lat="47.549834" lon="10.144687"><ele>1196.02</ele><time>2010-06-06T10:03:00Z</time></trkpt><trkpt lat="47.549834" lon="10.144687"><ele>1198.90</ele><time>2010-06-06T10:03:10Z</time></trkpt><trkpt lat="47.549834" lon="10.144687"><ele>1196.50</ele><time>2010-06-06T10:03:16Z</time></trkpt><trkpt lat="47.549833" lon="10.144703"><ele>1198.90</ele><time>2010-06-06T10:04:12Z</time></trkpt><trkpt lat="47.549827" lon="10.144688"><ele>1198.90</ele><time>2010-06-06T10:04:53Z</time></trkpt><trkpt lat="47.549851" lon="10.144692"><ele>1197.94</ele><time>2010-06-06T10:20:53Z</time></trkpt><trkpt lat="47.549851" lon="10.144692"><ele>1200.34</ele><time>2010-06-06T10:21:19Z</time></trkpt><trkpt lat="47.549851" lon="10.144692"><ele>1198.90</ele><time>2010-06-06T10:23:46Z</time></trkpt><trkpt lat="47.549851" lon="10.144689"><ele>1198.42</ele><time>2010-06-06T10:24:08Z</time></trkpt><trkpt lat="47.549849" lon="10.144686"><ele>1195.06</ele><time>2010-06-06T10:25:00Z</time></trkpt><trkpt lat="47.549849" lon="10.144686"><ele>1198.42</ele><time>2010-06-06T10:25:01Z</time></trkpt><trkpt lat="47.549849" lon="10.144686"><ele>1197.46</ele><time>2010-06-06T10:25:08Z</time></trkpt><trkpt lat="47.549850" lon="10.144681"><ele>1200.34</ele><time>2010-06-06T10:25:41Z</time></trkpt><trkpt lat="47.549851" lon="10.144681"><ele>1198.90</ele><time>2010-06-06T10:25:45Z</time></trkpt><trkpt lat="47.549851" lon="10.144681"><ele>1198.90</ele><time>2010-06-06T10:26:09Z</time></trkpt><trkpt lat="47.549854" lon="10.144679"><ele>1186.88</ele><time>2010-06-06T10:26:38Z</time></trkpt><trkpt lat="47.549854" lon="10.144679"><ele>1199.38</ele><time>2010-06-06T10:26:39Z</time></trkpt><trkpt lat="47.549853" lon="10.144679"><ele>1198.90</ele><time>2010-06-06T10:27:51Z</time></trkpt><trkpt lat="47.549855" lon="10.144680"><ele>1206.11</ele><time>2010-06-06T10:28:20Z</time></trkpt><trkpt lat="47.549855" lon="10.144680"><ele>1200.82</ele><time>2010-06-06T10:28:21Z</time></trkpt><trkpt lat="47.549855" lon="10.144680"><ele>1198.90</ele><time>2010-06-06T10:28:23Z</time></trkpt><trkpt lat="47.549856" lon="10.144683"><ele>1199.38</ele><time>2010-06-06T10:28:46Z</time></trkpt><trkpt lat="47.549856" lon="10.144683"><ele>1196.02</ele><time>2010-06-06T10:28:49Z</time></trkpt><trkpt lat="47.549856" lon="10.144683"><ele>1199.86</ele><time>2010-06-06T10:28:50Z</time></trkpt><trkpt lat="47.549856" lon="10.144683"><ele>1195.06</ele><time>2010-06-06T10:28:51Z</time></trkpt><trkpt lat="47.549856" lon="10.144683"><ele>1199.38</ele><time>2010-06-06T10:28:52Z</time></trkpt><trkpt lat="47.549860" lon="10.144683"><ele>1193.13</ele><time>2010-06-06T10:29:22Z</time></trkpt><trkpt lat="47.549860" lon="10.144683"><ele>1198.90</ele><time>2010-06-06T10:29:23Z</time></trkpt><trkpt lat="47.549858" lon="10.144682"><ele>1202.75</ele><time>2010-06-06T10:29:55Z</time></trkpt><trkpt lat="47.549858" lon="10.144682"><ele>1198.90</ele><time>2010-06-06T10:29:57Z</time></trkpt><trkpt lat="47.549858" lon="10.144682"><ele>1197.94</ele><time>2010-06-06T10:30:16Z</time></trkpt><trkpt lat="47.549858" lon="10.144682"><ele>1198.42</ele><time>2010-06-06T10:30:30Z</time></trkpt><trkpt lat="47.549860" lon="10.144683"><ele>1201.79</ele><time>2010-06-06T10:31:03Z</time></trkpt><trkpt lat="47.549860" lon="10.144683"><ele>1195.54</ele><time>2010-06-06T10:31:06Z</time></trkpt><trkpt lat="47.549860" lon="10.144683"><ele>1199.38</ele><time>2010-06-06T10:31:07Z</time></trkpt><trkpt lat="47.549860" lon="10.144683"><ele>1195.06</ele><time>2010-06-06T10:31:10Z</time></trkpt><trkpt lat="47.549860" lon="10.144683"><ele>1198.90</ele><time>2010-06-06T10:31:11Z</time></trkpt><trkpt lat="47.549860" lon="10.144683"><ele>1199.38</ele><time>2010-06-06T10:31:12Z</time></trkpt><trkpt lat="47.549866" lon="10.144668"><ele>1198.42</ele><time>2010-06-06T10:32:07Z</time></trkpt><trkpt lat="47.549865" lon="10.144669"><ele>1198.90</ele><time>2010-06-06T10:32:46Z</time></trkpt><trkpt lat="47.549865" lon="10.144669"><ele>1199.38</ele><time>2010-06-06T10:33:05Z</time></trkpt><trkpt lat="47.549865" lon="10.144669"><ele>1194.58</ele><time>2010-06-06T10:33:18Z</time></trkpt><trkpt lat="47.549865" lon="10.144669"><ele>1201.79</ele><time>2010-06-06T10:33:19Z</time></trkpt><trkpt lat="47.549865" lon="10.144669"><ele>1201.30</ele><time>2010-06-06T10:33:20Z</time></trkpt><trkpt lat="47.549867" lon="10.144670"><ele>1199.38</ele><time>2010-06-06T10:33:22Z</time></trkpt><trkpt lat="47.549867" lon="10.144670"><ele>1199.38</ele><time>2010-06-06T10:33:34Z</time></trkpt><trkpt lat="47.549867" lon="10.144670"><ele>1195.54</ele><time>2010-06-06T10:33:54Z</time></trkpt><trkpt lat="47.549867" lon="10.144670"><ele>1199.38</ele><time>2010-06-06T10:33:56Z</time></trkpt><trkpt lat="47.549867" lon="10.144670"><ele>1198.90</ele><time>2010-06-06T10:33:57Z</time></trkpt><trkpt lat="47.549868" lon="10.144672"><ele>1202.75</ele><time>2010-06-06T10:34:04Z</time></trkpt><trkpt lat="47.549868" lon="10.144672"><ele>1200.34</ele><time>2010-06-06T10:34:05Z</time></trkpt><trkpt lat="47.549868" lon="10.144672"><ele>1196.02</ele><time>2010-06-06T10:34:06Z</time></trkpt><trkpt lat="47.549868" lon="10.144672"><ele>1199.38</ele><time>2010-06-06T10:34:07Z</time></trkpt><trkpt lat="47.549868" lon="10.144672"><ele>1202.75</ele><time>2010-06-06T10:34:13Z</time></trkpt><trkpt lat="47.549868" lon="10.144672"><ele>1200.82</ele><time>2010-06-06T10:34:14Z</time></trkpt><trkpt lat="47.549868" lon="10.144672"><ele>1198.90</ele><time>2010-06-06T10:34:17Z</time></trkpt><trkpt lat="47.549868" lon="10.144672"><ele>1201.30</ele><time>2010-06-06T10:34:41Z</time></trkpt><trkpt lat="47.549869" lon="10.144672"><ele>1198.90</ele><time>2010-06-06T10:35:29Z</time></trkpt><trkpt lat="47.549868" lon="10.144672"><ele>1204.19</ele><time>2010-06-06T10:36:22Z</time></trkpt><trkpt lat="47.549868" lon="10.144672"><ele>1201.30</ele><time>2010-06-06T10:36:23Z</time></trkpt><trkpt lat="47.549868" lon="10.144672"><ele>1201.79</ele><time>2010-06-06T10:36:33Z</time></trkpt><trkpt lat="47.549838" lon="10.144629"><ele>1200.82</ele><time>2010-06-06T10:37:02Z</time></trkpt><trkpt lat="47.549819" lon="10.144593"><ele>1202.27</ele><time>2010-06-06T10:37:28Z</time></trkpt><trkpt lat="47.549820" lon="10.144594"><ele>1202.27</ele><time>2010-06-06T10:37:50Z</time></trkpt><trkpt lat="47.549823" lon="10.144595"><ele>1202.27</ele><time>2010-06-06T10:38:16Z</time></trkpt><trkpt lat="47.549823" lon="10.144598"><ele>1199.38</ele><time>2010-06-06T10:38:41Z</time></trkpt><trkpt lat="47.549823" lon="10.144598"><ele>1202.75</ele><time>2010-06-06T10:38:42Z</time></trkpt><trkpt lat="47.549823" lon="10.144598"><ele>1196.98</ele><time>2010-06-06T10:38:47Z</time></trkpt><trkpt lat="47.549823" lon="10.144598"><ele>1204.67</ele><time>2010-06-06T10:38:48Z</time></trkpt><trkpt lat="47.549823" lon="10.144598"><ele>1202.75</ele><time>2010-06-06T10:39:26Z</time></trkpt><trkpt lat="47.549800" lon="10.144685"><ele>1202.27</ele><time>2010-06-06T10:39:35Z</time></trkpt><trkpt lat="47.549801" lon="10.144699"><ele>1202.27</ele><time>2010-06-06T10:39:36Z</time></trkpt><trkpt lat="47.549822" lon="10.144729"><ele>1203.23</ele><time>2010-06-06T10:39:39Z</time></trkpt><trkpt lat="47.549832" lon="10.144787"><ele>1202.75</ele><time>2010-06-06T10:39:43Z</time></trkpt><trkpt lat="47.549802" lon="10.144896"><ele>1204.19</ele><time>2010-06-06T10:39:52Z</time></trkpt><trkpt lat="47.549766" lon="10.144920"><ele>1205.63</ele><time>2010-06-06T10:39:56Z</time></trkpt><trkpt lat="47.549695" lon="10.145041"><ele>1206.59</ele><time>2010-06-06T10:40:08Z</time></trkpt><trkpt lat="47.549658" lon="10.145103"><ele>1208.51</ele><time>2010-06-06T10:40:15Z</time></trkpt><trkpt lat="47.549635" lon="10.145124"><ele>1209.00</ele><time>2010-06-06T10:40:18Z</time></trkpt><trkpt lat="47.549562" lon="10.145240"><ele>1210.92</ele><time>2010-06-06T10:40:30Z</time></trkpt><trkpt lat="47.549491" lon="10.145351"><ele>1213.80</ele><time>2010-06-06T10:40:42Z</time></trkpt><trkpt lat="47.549485" lon="10.145379"><ele>1213.80</ele><time>2010-06-06T10:40:44Z</time></trkpt><trkpt lat="47.549471" lon="10.145401"><ele>1214.28</ele><time>2010-06-06T10:40:46Z</time></trkpt><trkpt lat="47.549443" lon="10.145469"><ele>1215.24</ele><time>2010-06-06T10:40:52Z</time></trkpt><trkpt lat="47.549422" lon="10.145470"><ele>1216.69</ele><time>2010-06-06T10:41:02Z</time></trkpt><trkpt lat="47.549420" lon="10.145478"><ele>1216.21</ele><time>2010-06-06T10:41:13Z</time></trkpt><trkpt lat="47.549368" lon="10.145575"><ele>1218.61</ele><time>2010-06-06T10:41:22Z</time></trkpt><trkpt lat="47.549319" lon="10.145608"><ele>1219.09</ele><time>2010-06-06T10:41:27Z</time></trkpt><trkpt lat="47.549293" lon="10.145661"><ele>1221.01</ele><time>2010-06-06T10:41:32Z</time></trkpt><trkpt lat="47.549274" lon="10.145715"><ele>1221.49</ele><time>2010-06-06T10:41:45Z</time></trkpt><trkpt lat="47.549274" lon="10.145715"><ele>1221.97</ele><time>2010-06-06T10:42:04Z</time></trkpt><trkpt lat="47.549231" lon="10.145791"><ele>1222.93</ele><time>2010-06-06T10:42:12Z</time></trkpt><trkpt lat="47.549211" lon="10.145814"><ele>1223.42</ele><time>2010-06-06T10:42:14Z</time></trkpt><trkpt lat="47.549128" lon="10.145977"><ele>1227.74</ele><time>2010-06-06T10:42:27Z</time></trkpt><trkpt lat="47.549111" lon="10.146043"><ele>1229.18</ele><time>2010-06-06T10:42:34Z</time></trkpt><trkpt lat="47.549082" lon="10.146150"><ele>1231.11</ele><time>2010-06-06T10:42:43Z</time></trkpt><trkpt lat="47.549027" lon="10.146274"><ele>1233.51</ele><time>2010-06-06T10:42:57Z</time></trkpt><trkpt lat="47.548962" lon="10.146385"><ele>1235.91</ele><time>2010-06-06T10:43:09Z</time></trkpt><trkpt lat="47.548907" lon="10.146507"><ele>1238.32</ele><time>2010-06-06T10:43:21Z</time></trkpt><trkpt lat="47.548876" lon="10.146580"><ele>1239.76</ele><time>2010-06-06T10:43:29Z</time></trkpt><trkpt lat="47.548879" lon="10.146610"><ele>1240.72</ele><time>2010-06-06T10:43:45Z</time></trkpt><trkpt lat="47.548881" lon="10.146625"><ele>1239.76</ele><time>2010-06-06T10:44:30Z</time></trkpt><trkpt lat="47.548882" lon="10.146667"><ele>1240.24</ele><time>2010-06-06T10:44:32Z</time></trkpt><trkpt lat="47.548876" lon="10.146776"><ele>1242.16</ele><time>2010-06-06T10:44:37Z</time></trkpt><trkpt lat="47.548868" lon="10.146849"><ele>1243.12</ele><time>2010-06-06T10:44:41Z</time></trkpt><trkpt lat="47.548864" lon="10.146886"><ele>1243.60</ele><time>2010-06-06T10:44:43Z</time></trkpt><trkpt lat="47.548848" lon="10.146944"><ele>1245.53</ele><time>2010-06-06T10:44:46Z</time></trkpt><trkpt lat="47.548796" lon="10.147087"><ele>1248.89</ele><time>2010-06-06T10:44:56Z</time></trkpt><trkpt lat="47.548778" lon="10.147087"><ele>1249.37</ele><time>2010-06-06T10:44:58Z</time></trkpt><trkpt lat="47.548766" lon="10.147227"><ele>1250.81</ele><time>2010-06-06T10:45:09Z</time></trkpt><trkpt lat="47.548763" lon="10.147362"><ele>1252.74</ele><time>2010-06-06T10:45:22Z</time></trkpt><trkpt lat="47.548757" lon="10.147423"><ele>1253.22</ele><time>2010-06-06T10:45:26Z</time></trkpt><trkpt lat="47.548761" lon="10.147473"><ele>1254.18</ele><time>2010-06-06T10:45:29Z</time></trkpt><trkpt lat="47.548749" lon="10.147557"><ele>1255.62</ele><time>2010-06-06T10:45:34Z</time></trkpt><trkpt lat="47.548721" lon="10.147687"><ele>1257.54</ele><time>2010-06-06T10:45:40Z</time></trkpt><trkpt lat="47.548700" lon="10.147762"><ele>1259.46</ele><time>2010-06-06T10:45:44Z</time></trkpt><trkpt lat="47.548693" lon="10.147796"><ele>1259.94</ele><time>2010-06-06T10:45:46Z</time></trkpt><trkpt lat="47.548665" lon="10.147958"><ele>1262.83</ele><time>2010-06-06T10:45:56Z</time></trkpt><trkpt lat="47.548674" lon="10.148034"><ele>1263.79</ele><time>2010-06-06T10:46:02Z</time></trkpt><trkpt lat="47.548659" lon="10.148114"><ele>1266.19</ele><time>2010-06-06T10:46:08Z</time></trkpt><trkpt lat="47.548635" lon="10.148258"><ele>1267.64</ele><time>2010-06-06T10:46:20Z</time></trkpt><trkpt lat="47.548630" lon="10.148278"><ele>1268.60</ele><time>2010-06-06T10:46:22Z</time></trkpt><trkpt lat="47.548613" lon="10.148457"><ele>1269.56</ele><time>2010-06-06T10:46:38Z</time></trkpt><trkpt lat="47.548607" lon="10.148540"><ele>1270.52</ele><time>2010-06-06T10:46:50Z</time></trkpt><trkpt lat="47.548607" lon="10.148540"><ele>1270.04</ele><time>2010-06-06T10:46:51Z</time></trkpt><trkpt lat="47.548621" lon="10.148418"><ele>1270.04</ele><time>2010-06-06T10:47:03Z</time></trkpt><trkpt lat="47.548602" lon="10.148400"><ele>1269.56</ele><time>2010-06-06T10:47:07Z</time></trkpt><trkpt lat="47.548613" lon="10.148482"><ele>1270.04</ele><time>2010-06-06T10:47:14Z</time></trkpt><trkpt lat="47.548605" lon="10.148532"><ele>1270.52</ele><time>2010-06-06T10:47:18Z</time></trkpt><trkpt lat="47.548626" lon="10.148411"><ele>1270.52</ele><time>2010-06-06T10:47:31Z</time></trkpt><trkpt lat="47.548608" lon="10.148415"><ele>1269.56</ele><time>2010-06-06T10:47:34Z</time></trkpt><trkpt lat="47.548615" lon="10.148649"><ele>1271.96</ele><time>2010-06-06T10:47:48Z</time></trkpt><trkpt lat="47.548596" lon="10.148849"><ele>1273.88</ele><time>2010-06-06T10:48:03Z</time></trkpt><trkpt lat="47.548604" lon="10.148998"><ele>1277.25</ele><time>2010-06-06T10:48:15Z</time></trkpt><trkpt lat="47.548601" lon="10.149047"><ele>1276.77</ele><time>2010-06-06T10:48:19Z</time></trkpt><trkpt lat="47.548618" lon="10.149258"><ele>1279.17</ele><time>2010-06-06T10:48:34Z</time></trkpt><trkpt lat="47.548623" lon="10.149383"><ele>1280.13</ele><time>2010-06-06T10:48:44Z</time></trkpt><trkpt lat="47.548607" lon="10.149523"><ele>1281.57</ele><time>2010-06-06T10:48:55Z</time></trkpt><trkpt lat="47.548594" lon="10.149558"><ele>1282.54</ele><time>2010-06-06T10:48:59Z</time></trkpt><trkpt lat="47.548561" lon="10.149643"><ele>1283.98</ele><time>2010-06-06T10:49:05Z</time></trkpt><trkpt lat="47.548497" lon="10.149735"><ele>1286.86</ele><time>2010-06-06T10:49:14Z</time></trkpt><trkpt lat="47.548485" lon="10.149767"><ele>1288.30</ele><time>2010-06-06T10:49:26Z</time></trkpt><trkpt lat="47.548427" lon="10.149870"><ele>1290.71</ele><time>2010-06-06T10:49:41Z</time></trkpt><trkpt lat="47.548381" lon="10.149934"><ele>1293.59</ele><time>2010-06-06T10:49:56Z</time></trkpt><trkpt lat="47.548381" lon="10.149934"><ele>1295.51</ele><time>2010-06-06T10:50:10Z</time></trkpt><trkpt lat="47.548381" lon="10.149934"><ele>1295.99</ele><time>2010-06-06T10:50:26Z</time></trkpt><trkpt lat="47.548381" lon="10.149934"><ele>1296.48</ele><time>2010-06-06T10:50:27Z</time></trkpt><trkpt lat="47.548310" lon="10.150098"><ele>1299.36</ele><time>2010-06-06T10:50:42Z</time></trkpt><trkpt lat="47.548252" lon="10.150194"><ele>1300.32</ele><time>2010-06-06T10:50:53Z</time></trkpt><trkpt lat="47.548205" lon="10.150266"><ele>1302.72</ele><time>2010-06-06T10:51:02Z</time></trkpt><trkpt lat="47.548189" lon="10.150333"><ele>1304.17</ele><time>2010-06-06T10:51:14Z</time></trkpt><trkpt lat="47.548144" lon="10.150389"><ele>1306.57</ele><time>2010-06-06T10:51:25Z</time></trkpt><trkpt lat="47.548103" lon="10.150473"><ele>1307.53</ele><time>2010-06-06T10:51:35Z</time></trkpt><trkpt lat="47.548075" lon="10.150581"><ele>1310.90</ele><time>2010-06-06T10:51:48Z</time></trkpt><trkpt lat="47.548065" lon="10.150631"><ele>1312.34</ele><time>2010-06-06T10:52:00Z</time></trkpt><trkpt lat="47.548043" lon="10.150716"><ele>1314.26</ele><time>2010-06-06T10:52:10Z</time></trkpt><trkpt lat="47.548021" lon="10.150838"><ele>1316.18</ele><time>2010-06-06T10:52:25Z</time></trkpt><trkpt lat="47.548037" lon="10.150899"><ele>1317.14</ele><time>2010-06-06T10:52:35Z</time></trkpt><trkpt lat="47.548040" lon="10.150892"><ele>1318.10</ele><time>2010-06-06T10:53:47Z</time></trkpt><trkpt lat="47.548043" lon="10.150929"><ele>1318.59</ele><time>2010-06-06T10:53:54Z</time></trkpt><trkpt lat="47.548014" lon="10.151071"><ele>1320.99</ele><time>2010-06-06T10:54:04Z</time></trkpt><trkpt lat="47.547987" lon="10.151210"><ele>1323.39</ele><time>2010-06-06T10:54:16Z</time></trkpt><trkpt lat="47.547984" lon="10.151216"><ele>1323.39</ele><time>2010-06-06T10:54:17Z</time></trkpt><trkpt lat="47.547971" lon="10.151315"><ele>1325.31</ele><time>2010-06-06T10:54:25Z</time></trkpt><trkpt lat="47.547958" lon="10.151455"><ele>1327.24</ele><time>2010-06-06T10:54:36Z</time></trkpt><trkpt lat="47.547936" lon="10.151633"><ele>1330.12</ele><time>2010-06-06T10:54:50Z</time></trkpt><trkpt lat="47.547919" lon="10.151685"><ele>1329.64</ele><time>2010-06-06T10:54:55Z</time></trkpt><trkpt lat="47.547930" lon="10.151735"><ele>1330.12</ele><time>2010-06-06T10:54:59Z</time></trkpt><trkpt lat="47.547906" lon="10.151798"><ele>1331.08</ele><time>2010-06-06T10:55:04Z</time></trkpt><trkpt lat="47.547874" lon="10.151959"><ele>1333.97</ele><time>2010-06-06T10:55:18Z</time></trkpt><trkpt lat="47.547869" lon="10.152033"><ele>1335.41</ele><time>2010-06-06T10:55:25Z</time></trkpt><trkpt lat="47.547847" lon="10.152108"><ele>1336.37</ele><time>2010-06-06T10:55:30Z</time></trkpt><trkpt lat="47.547821" lon="10.152239"><ele>1337.81</ele><time>2010-06-06T10:55:40Z</time></trkpt><trkpt lat="47.547798" lon="10.152447"><ele>1339.73</ele><time>2010-06-06T10:55:55Z</time></trkpt><trkpt lat="47.547766" lon="10.152616"><ele>1342.62</ele><time>2010-06-06T10:56:08Z</time></trkpt><trkpt lat="47.547746" lon="10.152660"><ele>1342.62</ele><time>2010-06-06T10:56:12Z</time></trkpt><trkpt lat="47.547707" lon="10.152838"><ele>1346.46</ele><time>2010-06-06T10:56:25Z</time></trkpt><trkpt lat="47.547679" lon="10.152960"><ele>1347.91</ele><time>2010-06-06T10:56:34Z</time></trkpt><trkpt lat="47.547659" lon="10.153014"><ele>1348.87</ele><time>2010-06-06T10:56:38Z</time></trkpt><trkpt lat="47.547630" lon="10.153136"><ele>1351.27</ele><time>2010-06-06T10:56:46Z</time></trkpt><trkpt lat="47.547588" lon="10.153191"><ele>1352.71</ele><time>2010-06-06T10:56:51Z</time></trkpt><trkpt lat="47.547556" lon="10.153225"><ele>1354.63</ele><time>2010-06-06T10:56:56Z</time></trkpt><trkpt lat="47.547497" lon="10.153072"><ele>1354.63</ele><time>2010-06-06T10:57:11Z</time></trkpt><trkpt lat="47.547438" lon="10.152883"><ele>1357.52</ele><time>2010-06-06T10:57:26Z</time></trkpt><trkpt lat="47.547420" lon="10.152818"><ele>1358.48</ele><time>2010-06-06T10:57:32Z</time></trkpt><trkpt lat="47.547343" lon="10.152640"><ele>1361.36</ele><time>2010-06-06T10:57:47Z</time></trkpt><trkpt lat="47.547278" lon="10.152509"><ele>1363.29</ele><time>2010-06-06T10:57:58Z</time></trkpt><trkpt lat="47.547226" lon="10.152417"><ele>1365.21</ele><time>2010-06-06T10:58:06Z</time></trkpt><trkpt lat="47.547153" lon="10.152344"><ele>1367.13</ele><time>2010-06-06T10:58:16Z</time></trkpt><trkpt lat="47.547091" lon="10.152203"><ele>1370.50</ele><time>2010-06-06T10:58:29Z</time></trkpt><trkpt lat="47.547028" lon="10.152078"><ele>1372.90</ele><time>2010-06-06T10:58:42Z</time></trkpt><trkpt lat="47.546984" lon="10.151921"><ele>1373.86</ele><time>2010-06-06T10:58:55Z</time></trkpt><trkpt lat="47.546929" lon="10.151789"><ele>1376.26</ele><time>2010-06-06T10:59:08Z</time></trkpt><trkpt lat="47.546897" lon="10.151742"><ele>1376.75</ele><time>2010-06-06T10:59:13Z</time></trkpt><trkpt lat="47.546886" lon="10.151713"><ele>1377.71</ele><time>2010-06-06T10:59:15Z</time></trkpt><trkpt lat="47.546875" lon="10.151689"><ele>1378.67</ele><time>2010-06-06T10:59:17Z</time></trkpt><trkpt lat="47.546809" lon="10.151554"><ele>1381.55</ele><time>2010-06-06T10:59:29Z</time></trkpt><trkpt lat="47.546774" lon="10.151514"><ele>1382.51</ele><time>2010-06-06T10:59:33Z</time></trkpt><trkpt lat="47.546738" lon="10.151429"><ele>1385.40</ele><time>2010-06-06T10:59:45Z</time></trkpt><trkpt lat="47.546659" lon="10.151338"><ele>1387.32</ele><time>2010-06-06T10:59:57Z</time></trkpt><trkpt lat="47.546559" lon="10.151213"><ele>1388.76</ele><time>2010-06-06T11:00:08Z</time></trkpt><trkpt lat="47.546536" lon="10.151142"><ele>1389.72</ele><time>2010-06-06T11:00:12Z</time></trkpt><trkpt lat="47.546481" lon="10.151070"><ele>1390.68</ele><time>2010-06-06T11:00:18Z</time></trkpt><trkpt lat="47.546473" lon="10.151036"><ele>1390.68</ele><time>2010-06-06T11:00:20Z</time></trkpt><trkpt lat="47.546399" lon="10.150872"><ele>1392.13</ele><time>2010-06-06T11:00:33Z</time></trkpt><trkpt lat="47.546372" lon="10.150808"><ele>1393.57</ele><time>2010-06-06T11:00:37Z</time></trkpt><trkpt lat="47.546261" lon="10.150599"><ele>1395.49</ele><time>2010-06-06T11:00:51Z</time></trkpt><trkpt lat="47.546236" lon="10.150541"><ele>1396.45</ele><time>2010-06-06T11:00:55Z</time></trkpt><trkpt lat="47.546212" lon="10.150505"><ele>1396.45</ele><time>2010-06-06T11:00:58Z</time></trkpt><trkpt lat="47.546140" lon="10.150393"><ele>1398.37</ele><time>2010-06-06T11:01:06Z</time></trkpt><trkpt lat="47.546116" lon="10.150319"><ele>1399.34</ele><time>2010-06-06T11:01:10Z</time></trkpt><trkpt lat="47.545980" lon="10.150134"><ele>1401.26</ele><time>2010-06-06T11:01:23Z</time></trkpt><trkpt lat="47.545869" lon="10.149902"><ele>1403.66</ele><time>2010-06-06T11:01:37Z</time></trkpt><trkpt lat="47.545850" lon="10.149881"><ele>1404.14</ele><time>2010-06-06T11:01:40Z</time></trkpt><trkpt lat="47.545840" lon="10.149856"><ele>1403.66</ele><time>2010-06-06T11:01:42Z</time></trkpt><trkpt lat="47.545798" lon="10.149773"><ele>1405.10</ele><time>2010-06-06T11:01:47Z</time></trkpt><trkpt lat="47.545700" lon="10.149599"><ele>1406.07</ele><time>2010-06-06T11:02:00Z</time></trkpt><trkpt lat="47.545613" lon="10.149428"><ele>1406.55</ele><time>2010-06-06T11:02:14Z</time></trkpt><trkpt lat="47.545592" lon="10.149286"><ele>1407.03</ele><time>2010-06-06T11:02:24Z</time></trkpt><trkpt lat="47.545501" lon="10.149098"><ele>1407.99</ele><time>2010-06-06T11:02:36Z</time></trkpt><trkpt lat="47.545457" lon="10.149055"><ele>1408.95</ele><time>2010-06-06T11:02:40Z</time></trkpt><trkpt lat="47.545388" lon="10.149014"><ele>1410.87</ele><time>2010-06-06T11:02:47Z</time></trkpt><trkpt lat="47.545278" lon="10.148952"><ele>1414.24</ele><time>2010-06-06T11:02:57Z</time></trkpt><trkpt lat="47.545205" lon="10.148926"><ele>1415.68</ele><time>2010-06-06T11:03:04Z</time></trkpt><trkpt lat="47.545169" lon="10.148903"><ele>1416.64</ele><time>2010-06-06T11:03:08Z</time></trkpt><trkpt lat="47.545079" lon="10.148742"><ele>1418.56</ele><time>2010-06-06T11:03:21Z</time></trkpt><trkpt lat="47.545041" lon="10.148694"><ele>1420.00</ele><time>2010-06-06T11:03:25Z</time></trkpt><trkpt lat="47.544999" lon="10.148627"><ele>1420.97</ele><time>2010-06-06T11:03:32Z</time></trkpt><trkpt lat="47.544990" lon="10.148588"><ele>1420.97</ele><time>2010-06-06T11:03:35Z</time></trkpt><trkpt lat="47.544947" lon="10.148534"><ele>1421.93</ele><time>2010-06-06T11:03:40Z</time></trkpt><trkpt lat="47.544909" lon="10.148570"><ele>1422.89</ele><time>2010-06-06T11:03:46Z</time></trkpt><trkpt lat="47.544884" lon="10.148570"><ele>1423.37</ele><time>2010-06-06T11:03:57Z</time></trkpt><trkpt lat="47.544884" lon="10.148570"><ele>1423.37</ele><time>2010-06-06T11:04:31Z</time></trkpt><trkpt lat="47.544885" lon="10.148568"><ele>1422.89</ele><time>2010-06-06T11:05:09Z</time></trkpt><trkpt lat="47.544878" lon="10.148571"><ele>1424.33</ele><time>2010-06-06T11:08:28Z</time></trkpt><trkpt lat="47.544878" lon="10.148583"><ele>1423.85</ele><time>2010-06-06T11:09:49Z</time></trkpt><trkpt lat="47.544880" lon="10.148580"><ele>1424.81</ele><time>2010-06-06T11:11:18Z</time></trkpt><trkpt lat="47.544877" lon="10.148573"><ele>1423.85</ele><time>2010-06-06T11:17:24Z</time></trkpt><trkpt lat="47.544877" lon="10.148573"><ele>1422.41</ele><time>2010-06-06T11:17:27Z</time></trkpt><trkpt lat="47.544879" lon="10.148567"><ele>1425.77</ele><time>2010-06-06T11:17:58Z</time></trkpt><trkpt lat="47.544879" lon="10.148567"><ele>1425.77</ele><time>2010-06-06T11:17:59Z</time></trkpt><trkpt lat="47.544874" lon="10.148571"><ele>1427.70</ele><time>2010-06-06T11:19:12Z</time></trkpt><trkpt lat="47.544865" lon="10.148573"><ele>1427.70</ele><time>2010-06-06T11:19:21Z</time></trkpt><trkpt lat="47.544838" lon="10.148590"><ele>1427.21</ele><time>2010-06-06T11:19:33Z</time></trkpt><trkpt lat="47.544834" lon="10.148590"><ele>1427.70</ele><time>2010-06-06T11:20:05Z</time></trkpt><trkpt lat="47.544832" lon="10.148591"><ele>1427.70</ele><time>2010-06-06T11:21:06Z</time></trkpt><trkpt lat="47.544833" lon="10.148596"><ele>1427.70</ele><time>2010-06-06T11:21:59Z</time></trkpt><trkpt lat="47.544833" lon="10.148602"><ele>1428.18</ele><time>2010-06-06T11:22:36Z</time></trkpt><trkpt lat="47.544835" lon="10.148601"><ele>1428.18</ele><time>2010-06-06T11:23:07Z</time></trkpt><trkpt lat="47.544835" lon="10.148601"><ele>1428.66</ele><time>2010-06-06T11:23:15Z</time></trkpt><trkpt lat="47.544745" lon="10.148410"><ele>1429.14</ele><time>2010-06-06T11:23:27Z</time></trkpt><trkpt lat="47.544729" lon="10.148385"><ele>1429.62</ele><time>2010-06-06T11:23:29Z</time></trkpt><trkpt lat="47.544601" lon="10.148118"><ele>1431.06</ele><time>2010-06-06T11:23:43Z</time></trkpt><trkpt lat="47.544557" lon="10.148000"><ele>1432.02</ele><time>2010-06-06T11:23:50Z</time></trkpt><trkpt lat="47.544505" lon="10.147941"><ele>1432.98</ele><time>2010-06-06T11:23:55Z</time></trkpt><trkpt lat="47.544476" lon="10.147914"><ele>1432.50</ele><time>2010-06-06T11:23:57Z</time></trkpt><trkpt lat="47.544409" lon="10.147737"><ele>1434.42</ele><time>2010-06-06T11:24:06Z</time></trkpt><trkpt lat="47.544405" lon="10.147674"><ele>1434.91</ele><time>2010-06-06T11:24:09Z</time></trkpt><trkpt lat="47.544365" lon="10.147575"><ele>1434.91</ele><time>2010-06-06T11:24:15Z</time></trkpt><trkpt lat="47.544351" lon="10.147518"><ele>1435.87</ele><time>2010-06-06T11:24:19Z</time></trkpt><trkpt lat="47.544319" lon="10.147461"><ele>1435.39</ele><time>2010-06-06T11:24:23Z</time></trkpt><trkpt lat="47.544267" lon="10.147311"><ele>1435.87</ele><time>2010-06-06T11:24:32Z</time></trkpt><trkpt lat="47.544242" lon="10.147221"><ele>1436.83</ele><time>2010-06-06T11:24:37Z</time></trkpt><trkpt lat="47.544228" lon="10.147129"><ele>1436.83</ele><time>2010-06-06T11:24:43Z</time></trkpt><trkpt lat="47.544232" lon="10.147024"><ele>1437.31</ele><time>2010-06-06T11:24:48Z</time></trkpt><trkpt lat="47.544230" lon="10.146982"><ele>1437.31</ele><time>2010-06-06T11:25:07Z</time></trkpt><trkpt lat="47.544222" lon="10.146932"><ele>1436.83</ele><time>2010-06-06T11:25:14Z</time></trkpt><trkpt lat="47.544139" lon="10.146766"><ele>1437.79</ele><time>2010-06-06T11:25:24Z</time></trkpt><trkpt lat="47.544125" lon="10.146758"><ele>1437.79</ele><time>2010-06-06T11:25:25Z</time></trkpt><trkpt lat="47.544079" lon="10.146700"><ele>1438.27</ele><time>2010-06-06T11:25:30Z</time></trkpt><trkpt lat="47.543987" lon="10.146447"><ele>1440.67</ele><time>2010-06-06T11:25:43Z</time></trkpt><trkpt lat="47.543948" lon="10.146286"><ele>1441.15</ele><time>2010-06-06T11:25:50Z</time></trkpt><trkpt lat="47.543896" lon="10.146066"><ele>1441.63</ele><time>2010-06-06T11:26:00Z</time></trkpt><trkpt lat="47.543845" lon="10.145899"><ele>1442.11</ele><time>2010-06-06T11:26:07Z</time></trkpt><trkpt lat="47.543714" lon="10.145609"><ele>1440.67</ele><time>2010-06-06T11:26:16Z</time></trkpt><trkpt lat="47.543599" lon="10.145484"><ele>1439.23</ele><time>2010-06-06T11:26:25Z</time></trkpt><trkpt lat="47.543520" lon="10.145390"><ele>1439.23</ele><time>2010-06-06T11:26:32Z</time></trkpt><trkpt lat="47.543498" lon="10.145312"><ele>1439.71</ele><time>2010-06-06T11:26:35Z</time></trkpt><trkpt lat="47.543466" lon="10.145168"><ele>1440.67</ele><time>2010-06-06T11:26:42Z</time></trkpt><trkpt lat="47.543409" lon="10.144964"><ele>1440.67</ele><time>2010-06-06T11:26:50Z</time></trkpt><trkpt lat="47.543397" lon="10.144891"><ele>1441.15</ele><time>2010-06-06T11:26:54Z</time></trkpt><trkpt lat="47.543387" lon="10.144846"><ele>1440.67</ele><time>2010-06-06T11:26:56Z</time></trkpt><trkpt lat="47.543320" lon="10.144773"><ele>1441.15</ele><time>2010-06-06T11:27:00Z</time></trkpt><trkpt lat="47.543236" lon="10.144666"><ele>1441.15</ele><time>2010-06-06T11:27:05Z</time></trkpt><trkpt lat="47.543209" lon="10.144572"><ele>1442.11</ele><time>2010-06-06T11:27:08Z</time></trkpt><trkpt lat="47.543077" lon="10.144377"><ele>1442.60</ele><time>2010-06-06T11:27:18Z</time></trkpt><trkpt lat="47.542923" lon="10.144313"><ele>1444.52</ele><time>2010-06-06T11:27:29Z</time></trkpt><trkpt lat="47.542884" lon="10.144221"><ele>1444.52</ele><time>2010-06-06T11:27:34Z</time></trkpt><trkpt lat="47.542753" lon="10.144011"><ele>1446.92</ele><time>2010-06-06T11:27:50Z</time></trkpt><trkpt lat="47.542651" lon="10.143806"><ele>1449.32</ele><time>2010-06-06T11:28:04Z</time></trkpt><trkpt lat="47.542621" lon="10.143761"><ele>1449.81</ele><time>2010-06-06T11:28:08Z</time></trkpt><trkpt lat="47.542602" lon="10.143684"><ele>1450.77</ele><time>2010-06-06T11:28:13Z</time></trkpt><trkpt lat="47.542600" lon="10.143629"><ele>1451.25</ele><time>2010-06-06T11:28:17Z</time></trkpt><trkpt lat="47.542594" lon="10.143566"><ele>1452.21</ele><time>2010-06-06T11:28:21Z</time></trkpt><trkpt lat="47.542522" lon="10.143400"><ele>1454.13</ele><time>2010-06-06T11:28:31Z</time></trkpt><trkpt lat="47.542483" lon="10.143335"><ele>1455.57</ele><time>2010-06-06T11:28:36Z</time></trkpt><trkpt lat="47.542459" lon="10.143310"><ele>1455.57</ele><time>2010-06-06T11:28:39Z</time></trkpt><trkpt lat="47.542398" lon="10.143324"><ele>1457.50</ele><time>2010-06-06T11:28:45Z</time></trkpt><trkpt lat="47.542358" lon="10.143353"><ele>1458.46</ele><time>2010-06-06T11:28:49Z</time></trkpt><trkpt lat="47.542255" lon="10.143448"><ele>1460.86</ele><time>2010-06-06T11:29:01Z</time></trkpt><trkpt lat="47.542212" lon="10.143472"><ele>1461.34</ele><time>2010-06-06T11:29:05Z</time></trkpt><trkpt lat="47.542181" lon="10.143484"><ele>1461.82</ele><time>2010-06-06T11:29:08Z</time></trkpt><trkpt lat="47.542086" lon="10.143480"><ele>1462.78</ele><time>2010-06-06T11:29:16Z</time></trkpt><trkpt lat="47.541892" lon="10.143377"><ele>1465.67</ele><time>2010-06-06T11:29:32Z</time></trkpt><trkpt lat="47.541846" lon="10.143359"><ele>1466.15</ele><time>2010-06-06T11:29:35Z</time></trkpt><trkpt lat="47.541648" lon="10.143249"><ele>1466.63</ele><time>2010-06-06T11:29:48Z</time></trkpt><trkpt lat="47.541469" lon="10.142932"><ele>1467.59</ele><time>2010-06-06T11:29:59Z</time></trkpt><trkpt lat="47.541364" lon="10.142533"><ele>1467.59</ele><time>2010-06-06T11:30:09Z</time></trkpt><trkpt lat="47.541298" lon="10.142105"><ele>1468.07</ele><time>2010-06-06T11:30:20Z</time></trkpt><trkpt lat="47.541296" lon="10.142073"><ele>1468.55</ele><time>2010-06-06T11:30:21Z</time></trkpt><trkpt lat="47.541264" lon="10.141980"><ele>1468.07</ele><time>2010-06-06T11:30:25Z</time></trkpt><trkpt lat="47.541265" lon="10.141589"><ele>1468.07</ele><time>2010-06-06T11:30:37Z</time></trkpt><trkpt lat="47.541292" lon="10.141427"><ele>1467.59</ele><time>2010-06-06T11:30:41Z</time></trkpt><trkpt lat="47.541367" lon="10.140838"><ele>1466.15</ele><time>2010-06-06T11:30:53Z</time></trkpt><trkpt lat="47.541371" lon="10.140772"><ele>1465.67</ele><time>2010-06-06T11:30:54Z</time></trkpt><trkpt lat="47.541377" lon="10.140703"><ele>1465.67</ele><time>2010-06-06T11:30:55Z</time></trkpt><trkpt lat="47.541385" lon="10.140634"><ele>1465.19</ele><time>2010-06-06T11:30:56Z</time></trkpt><trkpt lat="47.541389" lon="10.140569"><ele>1464.71</ele><time>2010-06-06T11:30:57Z</time></trkpt><trkpt lat="47.541390" lon="10.140502"><ele>1464.71</ele><time>2010-06-06T11:30:58Z</time></trkpt><trkpt lat="47.541397" lon="10.140429"><ele>1464.23</ele><time>2010-06-06T11:30:59Z</time></trkpt><trkpt lat="47.541410" lon="10.140350"><ele>1464.23</ele><time>2010-06-06T11:31:00Z</time></trkpt><trkpt lat="47.541417" lon="10.140275"><ele>1463.74</ele><time>2010-06-06T11:31:01Z</time></trkpt><trkpt lat="47.541425" lon="10.140205"><ele>1463.74</ele><time>2010-06-06T11:31:02Z</time></trkpt><trkpt lat="47.541432" lon="10.140132"><ele>1463.74</ele><time>2010-06-06T11:31:03Z</time></trkpt><trkpt lat="47.541433" lon="10.140056"><ele>1462.78</ele><time>2010-06-06T11:31:04Z</time></trkpt><trkpt lat="47.541438" lon="10.139965"><ele>1462.30</ele><time>2010-06-06T11:31:05Z</time></trkpt><trkpt lat="47.541454" lon="10.139868"><ele>1461.34</ele><time>2010-06-06T11:31:06Z</time></trkpt><trkpt lat="47.541479" lon="10.139779"><ele>1461.34</ele><time>2010-06-06T11:31:07Z</time></trkpt><trkpt lat="47.541509" lon="10.139697"><ele>1459.90</ele><time>2010-06-06T11:31:08Z</time></trkpt><trkpt lat="47.541539" lon="10.139616"><ele>1460.38</ele><time>2010-06-06T11:31:09Z</time></trkpt><trkpt lat="47.541608" lon="10.139463"><ele>1459.42</ele><time>2010-06-06T11:31:11Z</time></trkpt><trkpt lat="47.541642" lon="10.139380"><ele>1458.94</ele><time>2010-06-06T11:31:12Z</time></trkpt><trkpt lat="47.541750" lon="10.139024"><ele>1455.57</ele><time>2010-06-06T11:31:16Z</time></trkpt><trkpt lat="47.541771" lon="10.138944"><ele>1455.57</ele><time>2010-06-06T11:31:17Z</time></trkpt><trkpt lat="47.541791" lon="10.138808"><ele>1454.13</ele><time>2010-06-06T11:31:19Z</time></trkpt><trkpt lat="47.541787" lon="10.138730"><ele>1454.13</ele><time>2010-06-06T11:31:20Z</time></trkpt><trkpt lat="47.541757" lon="10.138557"><ele>1452.21</ele><time>2010-06-06T11:31:22Z</time></trkpt><trkpt lat="47.541753" lon="10.138459"><ele>1451.25</ele><time>2010-06-06T11:31:23Z</time></trkpt><trkpt lat="47.541740" lon="10.138146"><ele>1450.77</ele><time>2010-06-06T11:31:30Z</time></trkpt><trkpt lat="47.541745" lon="10.138126"><ele>1449.81</ele><time>2010-06-06T11:31:32Z</time></trkpt><trkpt lat="47.541754" lon="10.138102"><ele>1449.81</ele><time>2010-06-06T11:31:33Z</time></trkpt><trkpt lat="47.541766" lon="10.138076"><ele>1449.81</ele><time>2010-06-06T11:31:34Z</time></trkpt><trkpt lat="47.541768" lon="10.138041"><ele>1450.29</ele><time>2010-06-06T11:31:35Z</time></trkpt><trkpt lat="47.541772" lon="10.138009"><ele>1450.29</ele><time>2010-06-06T11:31:36Z</time></trkpt><trkpt lat="47.541786" lon="10.137978"><ele>1450.29</ele><time>2010-06-06T11:31:37Z</time></trkpt><trkpt lat="47.541800" lon="10.137952"><ele>1450.77</ele><time>2010-06-06T11:31:38Z</time></trkpt><trkpt lat="47.541816" lon="10.137928"><ele>1450.77</ele><time>2010-06-06T11:31:39Z</time></trkpt><trkpt lat="47.541937" lon="10.137772"><ele>1451.25</ele><time>2010-06-06T11:31:45Z</time></trkpt><trkpt lat="47.541953" lon="10.137734"><ele>1451.73</ele><time>2010-06-06T11:31:46Z</time></trkpt><trkpt lat="47.541968" lon="10.137688"><ele>1451.25</ele><time>2010-06-06T11:31:47Z</time></trkpt><trkpt lat="47.541981" lon="10.137645"><ele>1451.25</ele><time>2010-06-06T11:31:48Z</time></trkpt><trkpt lat="47.542003" lon="10.137607"><ele>1451.25</ele><time>2010-06-06T11:31:49Z</time></trkpt><trkpt lat="47.542035" lon="10.137572"><ele>1450.77</ele><time>2010-06-06T11:31:50Z</time></trkpt><trkpt lat="47.542071" lon="10.137536"><ele>1450.29</ele><time>2010-06-06T11:31:51Z</time></trkpt><trkpt lat="47.542109" lon="10.137490"><ele>1450.29</ele><time>2010-06-06T11:31:52Z</time></trkpt><trkpt lat="47.542144" lon="10.137429"><ele>1449.32</ele><time>2010-06-06T11:31:53Z</time></trkpt><trkpt lat="47.542171" lon="10.137361"><ele>1448.84</ele><time>2010-06-06T11:31:54Z</time></trkpt><trkpt lat="47.542192" lon="10.137290"><ele>1448.36</ele><time>2010-06-06T11:31:55Z</time></trkpt><trkpt lat="47.542219" lon="10.137217"><ele>1447.88</ele><time>2010-06-06T11:31:56Z</time></trkpt><trkpt lat="47.542244" lon="10.137142"><ele>1447.88</ele><time>2010-06-06T11:31:57Z</time></trkpt><trkpt lat="47.542323" lon="10.136795"><ele>1447.88</ele><time>2010-06-06T11:32:03Z</time></trkpt><trkpt lat="47.542271" lon="10.136517"><ele>1446.92</ele><time>2010-06-06T11:32:08Z</time></trkpt><trkpt lat="47.542248" lon="10.136456"><ele>1446.44</ele><time>2010-06-06T11:32:09Z</time></trkpt><trkpt lat="47.542195" lon="10.136354"><ele>1445.96</ele><time>2010-06-06T11:32:11Z</time></trkpt><trkpt lat="47.542169" lon="10.136300"><ele>1445.96</ele><time>2010-06-06T11:32:12Z</time></trkpt><trkpt lat="47.542149" lon="10.136239"><ele>1445.48</ele><time>2010-06-06T11:32:13Z</time></trkpt><trkpt lat="47.542135" lon="10.136172"><ele>1445.48</ele><time>2010-06-06T11:32:14Z</time></trkpt><trkpt lat="47.542120" lon="10.136103"><ele>1445.48</ele><time>2010-06-06T11:32:15Z</time></trkpt><trkpt lat="47.542096" lon="10.136035"><ele>1445.00</ele><time>2010-06-06T11:32:16Z</time></trkpt><trkpt lat="47.542066" lon="10.135961"><ele>1444.04</ele><time>2010-06-06T11:32:17Z</time></trkpt><trkpt lat="47.542044" lon="10.135881"><ele>1444.04</ele><time>2010-06-06T11:32:18Z</time></trkpt><trkpt lat="47.542020" lon="10.135797"><ele>1443.08</ele><time>2010-06-06T11:32:19Z</time></trkpt><trkpt lat="47.541993" lon="10.135714"><ele>1442.60</ele><time>2010-06-06T11:32:20Z</time></trkpt><trkpt lat="47.541956" lon="10.135564"><ele>1441.15</ele><time>2010-06-06T11:32:22Z</time></trkpt><trkpt lat="47.541949" lon="10.135499"><ele>1440.67</ele><time>2010-06-06T11:32:23Z</time></trkpt><trkpt lat="47.541942" lon="10.135434"><ele>1440.19</ele><time>2010-06-06T11:32:24Z</time></trkpt><trkpt lat="47.541925" lon="10.135372"><ele>1439.71</ele><time>2010-06-06T11:32:25Z</time></trkpt><trkpt lat="47.541901" lon="10.135313"><ele>1439.71</ele><time>2010-06-06T11:32:26Z</time></trkpt><trkpt lat="47.541838" lon="10.135135"><ele>1439.23</ele><time>2010-06-06T11:32:29Z</time></trkpt><trkpt lat="47.541810" lon="10.135011"><ele>1438.75</ele><time>2010-06-06T11:32:31Z</time></trkpt><trkpt lat="47.541798" lon="10.134953"><ele>1438.27</ele><time>2010-06-06T11:32:32Z</time></trkpt><trkpt lat="47.541786" lon="10.134903"><ele>1437.79</ele><time>2010-06-06T11:32:33Z</time></trkpt><trkpt lat="47.541691" lon="10.134651"><ele>1437.31</ele><time>2010-06-06T11:32:41Z</time></trkpt><trkpt lat="47.541532" lon="10.134189"><ele>1438.27</ele><time>2010-06-06T11:32:54Z</time></trkpt><trkpt lat="47.541425" lon="10.133813"><ele>1437.31</ele><time>2010-06-06T11:33:05Z</time></trkpt><trkpt lat="47.541374" lon="10.133603"><ele>1436.35</ele><time>2010-06-06T11:33:13Z</time></trkpt><trkpt lat="47.541360" lon="10.133502"><ele>1436.35</ele><time>2010-06-06T11:33:20Z</time></trkpt><trkpt lat="47.541337" lon="10.133449"><ele>1433.46</ele><time>2010-06-06T11:33:24Z</time></trkpt><trkpt lat="47.541328" lon="10.133443"><ele>1432.98</ele><time>2010-06-06T11:33:25Z</time></trkpt><trkpt lat="47.541285" lon="10.133431"><ele>1432.50</ele><time>2010-06-06T11:33:28Z</time></trkpt><trkpt lat="47.541273" lon="10.133416"><ele>1432.98</ele><time>2010-06-06T11:33:29Z</time></trkpt><trkpt lat="47.541263" lon="10.133387"><ele>1432.98</ele><time>2010-06-06T11:33:30Z</time></trkpt><trkpt lat="47.541259" lon="10.133361"><ele>1432.50</ele><time>2010-06-06T11:33:31Z</time></trkpt><trkpt lat="47.541259" lon="10.133324"><ele>1432.50</ele><time>2010-06-06T11:33:32Z</time></trkpt><trkpt lat="47.541265" lon="10.133278"><ele>1432.98</ele><time>2010-06-06T11:33:33Z</time></trkpt><trkpt lat="47.541268" lon="10.133241"><ele>1432.98</ele><time>2010-06-06T11:33:34Z</time></trkpt><trkpt lat="47.541272" lon="10.133207"><ele>1432.02</ele><time>2010-06-06T11:33:35Z</time></trkpt><trkpt lat="47.541267" lon="10.133170"><ele>1432.50</ele><time>2010-06-06T11:33:36Z</time></trkpt><trkpt lat="47.541260" lon="10.133137"><ele>1434.42</ele><time>2010-06-06T11:33:37Z</time></trkpt><trkpt lat="47.541256" lon="10.133100"><ele>1434.91</ele><time>2010-06-06T11:33:38Z</time></trkpt><trkpt lat="47.541247" lon="10.133064"><ele>1434.91</ele><time>2010-06-06T11:33:39Z</time></trkpt><trkpt lat="47.541240" lon="10.133028"><ele>1434.42</ele><time>2010-06-06T11:33:40Z</time></trkpt><trkpt lat="47.541234" lon="10.132987"><ele>1434.91</ele><time>2010-06-06T11:33:41Z</time></trkpt><trkpt lat="47.541203" lon="10.132642"><ele>1432.98</ele><time>2010-06-06T11:33:52Z</time></trkpt><trkpt lat="47.541150" lon="10.132242"><ele>1432.02</ele><time>2010-06-06T11:34:04Z</time></trkpt><trkpt lat="47.541089" lon="10.132039"><ele>1431.06</ele><time>2010-06-06T11:34:14Z</time></trkpt><trkpt lat="47.540979" lon="10.131657"><ele>1431.06</ele><time>2010-06-06T11:34:27Z</time></trkpt><trkpt lat="47.540895" lon="10.131466"><ele>1432.02</ele><time>2010-06-06T11:34:35Z</time></trkpt><trkpt lat="47.540894" lon="10.131438"><ele>1432.02</ele><time>2010-06-06T11:34:36Z</time></trkpt><trkpt lat="47.540892" lon="10.131402"><ele>1432.50</ele><time>2010-06-06T11:34:37Z</time></trkpt><trkpt lat="47.540887" lon="10.131370"><ele>1432.50</ele><time>2010-06-06T11:34:38Z</time></trkpt><trkpt lat="47.540876" lon="10.131342"><ele>1432.02</ele><time>2010-06-06T11:34:39Z</time></trkpt><trkpt lat="47.540863" lon="10.131317"><ele>1432.50</ele><time>2010-06-06T11:34:40Z</time></trkpt><trkpt lat="47.540849" lon="10.131287"><ele>1432.02</ele><time>2010-06-06T11:34:41Z</time></trkpt><trkpt lat="47.540836" lon="10.131244"><ele>1432.02</ele><time>2010-06-06T11:34:42Z</time></trkpt><trkpt lat="47.540814" lon="10.131146"><ele>1431.06</ele><time>2010-06-06T11:34:44Z</time></trkpt><trkpt lat="47.540813" lon="10.131082"><ele>1431.06</ele><time>2010-06-06T11:34:45Z</time></trkpt><trkpt lat="47.540809" lon="10.131020"><ele>1430.58</ele><time>2010-06-06T11:34:46Z</time></trkpt><trkpt lat="47.540778" lon="10.130776"><ele>1429.14</ele><time>2010-06-06T11:34:50Z</time></trkpt><trkpt lat="47.540764" lon="10.130686"><ele>1428.66</ele><time>2010-06-06T11:34:51Z</time></trkpt><trkpt lat="47.540717" lon="10.130390"><ele>1427.21</ele><time>2010-06-06T11:34:54Z</time></trkpt><trkpt lat="47.540691" lon="10.130171"><ele>1424.81</ele><time>2010-06-06T11:34:56Z</time></trkpt><trkpt lat="47.540668" lon="10.130059"><ele>1423.37</ele><time>2010-06-06T11:34:57Z</time></trkpt><trkpt lat="47.540540" lon="10.129558"><ele>1420.00</ele><time>2010-06-06T11:35:01Z</time></trkpt><trkpt lat="47.540417" lon="10.129183"><ele>1421.45</ele><time>2010-06-06T11:35:05Z</time></trkpt><trkpt lat="47.540266" lon="10.128762"><ele>1421.93</ele><time>2010-06-06T11:35:15Z</time></trkpt><trkpt lat="47.540222" lon="10.128569"><ele>1423.37</ele><time>2010-06-06T11:35:27Z</time></trkpt><trkpt lat="47.540217" lon="10.128545"><ele>1423.85</ele><time>2010-06-06T11:35:30Z</time></trkpt><trkpt lat="47.540185" lon="10.128447"><ele>1424.33</ele><time>2010-06-06T11:35:36Z</time></trkpt><trkpt lat="47.540183" lon="10.128429"><ele>1424.33</ele><time>2010-06-06T11:35:37Z</time></trkpt><trkpt lat="47.540166" lon="10.128322"><ele>1425.29</ele><time>2010-06-06T11:35:43Z</time></trkpt><trkpt lat="47.540160" lon="10.128304"><ele>1425.77</ele><time>2010-06-06T11:35:44Z</time></trkpt><trkpt lat="47.540154" lon="10.128287"><ele>1425.77</ele><time>2010-06-06T11:35:45Z</time></trkpt><trkpt lat="47.540150" lon="10.128270"><ele>1425.77</ele><time>2010-06-06T11:35:46Z</time></trkpt><trkpt lat="47.540141" lon="10.128252"><ele>1426.73</ele><time>2010-06-06T11:35:47Z</time></trkpt><trkpt lat="47.540131" lon="10.128238"><ele>1426.25</ele><time>2010-06-06T11:35:48Z</time></trkpt><trkpt lat="47.540121" lon="10.128224"><ele>1426.73</ele><time>2010-06-06T11:35:49Z</time></trkpt><trkpt lat="47.540114" lon="10.128208"><ele>1426.73</ele><time>2010-06-06T11:35:50Z</time></trkpt><trkpt lat="47.540073" lon="10.128094"><ele>1427.21</ele><time>2010-06-06T11:35:56Z</time></trkpt><trkpt lat="47.540066" lon="10.128079"><ele>1427.21</ele><time>2010-06-06T11:35:57Z</time></trkpt><trkpt lat="47.540033" lon="10.127985"><ele>1427.70</ele><time>2010-06-06T11:36:03Z</time></trkpt><trkpt lat="47.540025" lon="10.127966"><ele>1428.18</ele><time>2010-06-06T11:36:04Z</time></trkpt><trkpt lat="47.540018" lon="10.127954"><ele>1428.66</ele><time>2010-06-06T11:36:05Z</time></trkpt><trkpt lat="47.540010" lon="10.127940"><ele>1428.66</ele><time>2010-06-06T11:36:06Z</time></trkpt><trkpt lat="47.540002" lon="10.127927"><ele>1429.14</ele><time>2010-06-06T11:36:07Z</time></trkpt><trkpt lat="47.539992" lon="10.127920"><ele>1429.14</ele><time>2010-06-06T11:36:08Z</time></trkpt><trkpt lat="47.539982" lon="10.127913"><ele>1429.62</ele><time>2010-06-06T11:36:09Z</time></trkpt><trkpt lat="47.539917" lon="10.127843"><ele>1430.58</ele><time>2010-06-06T11:36:16Z</time></trkpt><trkpt lat="47.539894" lon="10.127773"><ele>1431.06</ele><time>2010-06-06T11:36:21Z</time></trkpt><trkpt lat="47.539885" lon="10.127730"><ele>1431.54</ele><time>2010-06-06T11:36:24Z</time></trkpt><trkpt lat="47.539877" lon="10.127714"><ele>1431.54</ele><time>2010-06-06T11:36:25Z</time></trkpt><trkpt lat="47.539814" lon="10.127476"><ele>1432.50</ele><time>2010-06-06T11:36:39Z</time></trkpt><trkpt lat="47.539813" lon="10.127458"><ele>1432.98</ele><time>2010-06-06T11:36:40Z</time></trkpt><trkpt lat="47.539811" lon="10.127440"><ele>1432.98</ele><time>2010-06-06T11:36:41Z</time></trkpt><trkpt lat="47.539810" lon="10.127423"><ele>1433.46</ele><time>2010-06-06T11:36:42Z</time></trkpt><trkpt lat="47.539804" lon="10.127409"><ele>1433.46</ele><time>2010-06-06T11:36:43Z</time></trkpt><trkpt lat="47.539767" lon="10.127295"><ele>1434.42</ele><time>2010-06-06T11:36:50Z</time></trkpt><trkpt lat="47.539761" lon="10.127277"><ele>1434.42</ele><time>2010-06-06T11:36:51Z</time></trkpt><trkpt lat="47.539756" lon="10.127260"><ele>1434.91</ele><time>2010-06-06T11:36:52Z</time></trkpt><trkpt lat="47.539748" lon="10.127243"><ele>1434.42</ele><time>2010-06-06T11:36:53Z</time></trkpt><trkpt lat="47.539739" lon="10.127225"><ele>1434.91</ele><time>2010-06-06T11:36:54Z</time></trkpt><trkpt lat="47.539730" lon="10.127207"><ele>1434.42</ele><time>2010-06-06T11:36:55Z</time></trkpt><trkpt lat="47.539724" lon="10.127189"><ele>1434.91</ele><time>2010-06-06T11:36:56Z</time></trkpt><trkpt lat="47.539718" lon="10.127171"><ele>1434.91</ele><time>2010-06-06T11:36:57Z</time></trkpt><trkpt lat="47.539709" lon="10.127152"><ele>1434.91</ele><time>2010-06-06T11:36:58Z</time></trkpt><trkpt lat="47.539702" lon="10.127136"><ele>1434.42</ele><time>2010-06-06T11:36:59Z</time></trkpt><trkpt lat="47.539694" lon="10.127122"><ele>1434.42</ele><time>2010-06-06T11:37:00Z</time></trkpt><trkpt lat="47.539588" lon="10.126915"><ele>1435.87</ele><time>2010-06-06T11:37:14Z</time></trkpt><trkpt lat="47.539461" lon="10.126651"><ele>1437.31</ele><time>2010-06-06T11:37:30Z</time></trkpt><trkpt lat="47.539371" lon="10.126392"><ele>1438.27</ele><time>2010-06-06T11:37:44Z</time></trkpt><trkpt lat="47.539268" lon="10.126142"><ele>1439.23</ele><time>2010-06-06T11:37:57Z</time></trkpt><trkpt lat="47.539256" lon="10.126127"><ele>1438.75</ele><time>2010-06-06T11:37:58Z</time></trkpt><trkpt lat="47.539245" lon="10.126116"><ele>1438.75</ele><time>2010-06-06T11:37:59Z</time></trkpt><trkpt lat="47.539232" lon="10.126106"><ele>1439.23</ele><time>2010-06-06T11:38:00Z</time></trkpt><trkpt lat="47.539219" lon="10.126095"><ele>1439.23</ele><time>2010-06-06T11:38:01Z</time></trkpt><trkpt lat="47.539205" lon="10.126082"><ele>1439.71</ele><time>2010-06-06T11:38:02Z</time></trkpt><trkpt lat="47.539029" lon="10.125905"><ele>1440.67</ele><time>2010-06-06T11:38:17Z</time></trkpt><trkpt lat="47.538998" lon="10.125868"><ele>1440.67</ele><time>2010-06-06T11:38:20Z</time></trkpt><trkpt lat="47.538987" lon="10.125857"><ele>1441.15</ele><time>2010-06-06T11:38:21Z</time></trkpt><trkpt lat="47.538884" lon="10.125672"><ele>1442.60</ele><time>2010-06-06T11:38:34Z</time></trkpt><trkpt lat="47.538801" lon="10.125445"><ele>1443.08</ele><time>2010-06-06T11:38:47Z</time></trkpt><trkpt lat="47.538753" lon="10.125243"><ele>1442.11</ele><time>2010-06-06T11:38:52Z</time></trkpt><trkpt lat="47.538705" lon="10.125137"><ele>1441.63</ele><time>2010-06-06T11:38:54Z</time></trkpt><trkpt lat="47.538676" lon="10.125090"><ele>1441.63</ele><time>2010-06-06T11:38:55Z</time></trkpt><trkpt lat="47.538649" lon="10.125057"><ele>1441.15</ele><time>2010-06-06T11:38:56Z</time></trkpt><trkpt lat="47.538616" lon="10.125034"><ele>1441.15</ele><time>2010-06-06T11:38:57Z</time></trkpt><trkpt lat="47.538579" lon="10.125009"><ele>1441.15</ele><time>2010-06-06T11:38:58Z</time></trkpt><trkpt lat="47.538542" lon="10.124979"><ele>1440.67</ele><time>2010-06-06T11:38:59Z</time></trkpt><trkpt lat="47.538505" lon="10.124949"><ele>1440.67</ele><time>2010-06-06T11:39:00Z</time></trkpt><trkpt lat="47.538471" lon="10.124922"><ele>1439.71</ele><time>2010-06-06T11:39:01Z</time></trkpt><trkpt lat="47.538444" lon="10.124892"><ele>1440.19</ele><time>2010-06-06T11:39:02Z</time></trkpt><trkpt lat="47.538419" lon="10.124862"><ele>1440.67</ele><time>2010-06-06T11:39:03Z</time></trkpt><trkpt lat="47.538394" lon="10.124832"><ele>1440.19</ele><time>2010-06-06T11:39:04Z</time></trkpt><trkpt lat="47.538371" lon="10.124800"><ele>1439.71</ele><time>2010-06-06T11:39:05Z</time></trkpt><trkpt lat="47.538352" lon="10.124766"><ele>1440.19</ele><time>2010-06-06T11:39:06Z</time></trkpt><trkpt lat="47.538287" lon="10.124653"><ele>1440.67</ele><time>2010-06-06T11:39:10Z</time></trkpt><trkpt lat="47.538280" lon="10.124638"><ele>1440.19</ele><time>2010-06-06T11:39:11Z</time></trkpt><trkpt lat="47.538251" lon="10.124569"><ele>1441.15</ele><time>2010-06-06T11:39:14Z</time></trkpt><trkpt lat="47.538240" lon="10.124553"><ele>1441.15</ele><time>2010-06-06T11:39:15Z</time></trkpt><trkpt lat="47.538229" lon="10.124538"><ele>1441.15</ele><time>2010-06-06T11:39:16Z</time></trkpt><trkpt lat="47.538203" lon="10.124521"><ele>1441.15</ele><time>2010-06-06T11:39:18Z</time></trkpt><trkpt lat="47.538191" lon="10.124501"><ele>1441.15</ele><time>2010-06-06T11:39:19Z</time></trkpt><trkpt lat="47.538182" lon="10.124478"><ele>1441.63</ele><time>2010-06-06T11:39:20Z</time></trkpt><trkpt lat="47.538168" lon="10.124455"><ele>1441.63</ele><time>2010-06-06T11:39:21Z</time></trkpt><trkpt lat="47.538134" lon="10.124409"><ele>1442.60</ele><time>2010-06-06T11:39:24Z</time></trkpt><trkpt lat="47.538108" lon="10.124375"><ele>1442.60</ele><time>2010-06-06T11:39:26Z</time></trkpt><trkpt lat="47.537927" lon="10.124176"><ele>1444.04</ele><time>2010-06-06T11:39:39Z</time></trkpt><trkpt lat="47.537818" lon="10.123964"><ele>1445.96</ele><time>2010-06-06T11:39:53Z</time></trkpt><trkpt lat="47.537697" lon="10.123799"><ele>1448.36</ele><time>2010-06-06T11:40:07Z</time></trkpt><trkpt lat="47.537689" lon="10.123794"><ele>1448.84</ele><time>2010-06-06T11:40:08Z</time></trkpt><trkpt lat="47.537680" lon="10.123794"><ele>1448.36</ele><time>2010-06-06T11:40:09Z</time></trkpt><trkpt lat="47.537671" lon="10.123793"><ele>1449.32</ele><time>2010-06-06T11:40:10Z</time></trkpt><trkpt lat="47.537572" lon="10.123682"><ele>1450.29</ele><time>2010-06-06T11:40:22Z</time></trkpt><trkpt lat="47.537555" lon="10.123637"><ele>1451.73</ele><time>2010-06-06T11:40:25Z</time></trkpt><trkpt lat="47.537547" lon="10.123622"><ele>1452.21</ele><time>2010-06-06T11:40:26Z</time></trkpt><trkpt lat="47.537539" lon="10.123607"><ele>1451.73</ele><time>2010-06-06T11:40:27Z</time></trkpt><trkpt lat="47.537535" lon="10.123591"><ele>1452.21</ele><time>2010-06-06T11:40:28Z</time></trkpt><trkpt lat="47.537532" lon="10.123574"><ele>1452.69</ele><time>2010-06-06T11:40:29Z</time></trkpt><trkpt lat="47.537482" lon="10.123471"><ele>1454.13</ele><time>2010-06-06T11:40:41Z</time></trkpt><trkpt lat="47.537483" lon="10.123465"><ele>1454.61</ele><time>2010-06-06T11:40:55Z</time></trkpt><trkpt lat="47.537414" lon="10.123372"><ele>1456.53</ele><time>2010-06-06T11:41:14Z</time></trkpt><trkpt lat="47.537357" lon="10.123375"><ele>1457.98</ele><time>2010-06-06T11:41:27Z</time></trkpt><trkpt lat="47.537359" lon="10.123395"><ele>1460.86</ele><time>2010-06-06T11:41:43Z</time></trkpt><trkpt lat="47.537345" lon="10.123447"><ele>1463.26</ele><time>2010-06-06T11:41:55Z</time></trkpt><trkpt lat="47.537342" lon="10.123461"><ele>1465.19</ele><time>2010-06-06T11:42:07Z</time></trkpt><trkpt lat="47.537238" lon="10.123725"><ele>1467.59</ele><time>2010-06-06T11:42:21Z</time></trkpt><trkpt lat="47.537117" lon="10.123904"><ele>1467.59</ele><time>2010-06-06T11:42:36Z</time></trkpt><trkpt lat="47.537045" lon="10.123940"><ele>1470.47</ele><time>2010-06-06T11:42:49Z</time></trkpt><trkpt lat="47.537005" lon="10.123867"><ele>1472.40</ele><time>2010-06-06T11:43:04Z</time></trkpt><trkpt lat="47.536992" lon="10.123756"><ele>1475.28</ele><time>2010-06-06T11:43:19Z</time></trkpt><trkpt lat="47.536988" lon="10.123729"><ele>1472.88</ele><time>2010-06-06T11:43:37Z</time></trkpt><trkpt lat="47.536936" lon="10.123584"><ele>1474.32</ele><time>2010-06-06T11:43:47Z</time></trkpt><trkpt lat="47.536928" lon="10.123561"><ele>1477.20</ele><time>2010-06-06T11:43:49Z</time></trkpt><trkpt lat="47.536926" lon="10.123548"><ele>1477.68</ele><time>2010-06-06T11:43:50Z</time></trkpt><trkpt lat="47.536886" lon="10.123435"><ele>1478.65</ele><time>2010-06-06T11:43:57Z</time></trkpt><trkpt lat="47.536879" lon="10.123419"><ele>1479.13</ele><time>2010-06-06T11:43:58Z</time></trkpt><trkpt lat="47.536876" lon="10.123405"><ele>1479.13</ele><time>2010-06-06T11:43:59Z</time></trkpt><trkpt lat="47.536872" lon="10.123392"><ele>1479.13</ele><time>2010-06-06T11:44:00Z</time></trkpt><trkpt lat="47.536865" lon="10.123377"><ele>1479.61</ele><time>2010-06-06T11:44:01Z</time></trkpt><trkpt lat="47.536857" lon="10.123366"><ele>1480.09</ele><time>2010-06-06T11:44:02Z</time></trkpt><trkpt lat="47.536846" lon="10.123358"><ele>1480.09</ele><time>2010-06-06T11:44:03Z</time></trkpt><trkpt lat="47.536837" lon="10.123349"><ele>1480.09</ele><time>2010-06-06T11:44:04Z</time></trkpt><trkpt lat="47.536826" lon="10.123338"><ele>1480.09</ele><time>2010-06-06T11:44:05Z</time></trkpt><trkpt lat="47.536749" lon="10.123212"><ele>1482.01</ele><time>2010-06-06T11:44:17Z</time></trkpt><trkpt lat="47.536748" lon="10.123208"><ele>1481.53</ele><time>2010-06-06T11:44:39Z</time></trkpt><trkpt lat="47.536737" lon="10.123203"><ele>1481.53</ele><time>2010-06-06T11:45:12Z</time></trkpt><trkpt lat="47.536737" lon="10.123203"><ele>1482.01</ele><time>2010-06-06T11:45:46Z</time></trkpt><trkpt lat="47.536737" lon="10.123173"><ele>1481.53</ele><time>2010-06-06T11:45:47Z</time></trkpt><trkpt lat="47.536736" lon="10.123129"><ele>1482.01</ele><time>2010-06-06T11:45:48Z</time></trkpt><trkpt lat="47.536737" lon="10.123070"><ele>1481.53</ele><time>2010-06-06T11:45:49Z</time></trkpt><trkpt lat="47.536728" lon="10.123010"><ele>1480.57</ele><time>2010-06-06T11:45:50Z</time></trkpt><trkpt lat="47.536711" lon="10.122958"><ele>1480.57</ele><time>2010-06-06T11:45:51Z</time></trkpt><trkpt lat="47.536698" lon="10.122906"><ele>1479.13</ele><time>2010-06-06T11:45:52Z</time></trkpt><trkpt lat="47.536697" lon="10.122858"><ele>1479.13</ele><time>2010-06-06T11:45:53Z</time></trkpt><trkpt lat="47.536701" lon="10.122815"><ele>1479.13</ele><time>2010-06-06T11:45:54Z</time></trkpt><trkpt lat="47.536701" lon="10.122773"><ele>1478.65</ele><time>2010-06-06T11:45:55Z</time></trkpt><trkpt lat="47.536696" lon="10.122726"><ele>1478.16</ele><time>2010-06-06T11:45:56Z</time></trkpt><trkpt lat="47.536685" lon="10.122675"><ele>1477.68</ele><time>2010-06-06T11:45:57Z</time></trkpt><trkpt lat="47.536673" lon="10.122627"><ele>1477.20</ele><time>2010-06-06T11:45:58Z</time></trkpt><trkpt lat="47.536542" lon="10.122192"><ele>1476.72</ele><time>2010-06-06T11:46:07Z</time></trkpt><trkpt lat="47.536447" lon="10.121955"><ele>1474.80</ele><time>2010-06-06T11:46:14Z</time></trkpt><trkpt lat="47.536466" lon="10.121812"><ele>1471.92</ele><time>2010-06-06T11:46:18Z</time></trkpt><trkpt lat="47.536495" lon="10.121767"><ele>1471.44</ele><time>2010-06-06T11:46:19Z</time></trkpt><trkpt lat="47.536512" lon="10.121712"><ele>1470.47</ele><time>2010-06-06T11:46:20Z</time></trkpt><trkpt lat="47.536526" lon="10.121652"><ele>1469.51</ele><time>2010-06-06T11:46:21Z</time></trkpt><trkpt lat="47.536526" lon="10.121581"><ele>1469.51</ele><time>2010-06-06T11:46:22Z</time></trkpt><trkpt lat="47.536522" lon="10.121499"><ele>1469.51</ele><time>2010-06-06T11:46:23Z</time></trkpt><trkpt lat="47.536486" lon="10.121351"><ele>1469.03</ele><time>2010-06-06T11:46:25Z</time></trkpt><trkpt lat="47.536456" lon="10.121283"><ele>1468.55</ele><time>2010-06-06T11:46:26Z</time></trkpt><trkpt lat="47.536420" lon="10.121234"><ele>1468.55</ele><time>2010-06-06T11:46:27Z</time></trkpt><trkpt lat="47.536386" lon="10.121190"><ele>1468.55</ele><time>2010-06-06T11:46:28Z</time></trkpt><trkpt lat="47.536363" lon="10.121145"><ele>1468.55</ele><time>2010-06-06T11:46:29Z</time></trkpt><trkpt lat="47.536343" lon="10.121099"><ele>1468.07</ele><time>2010-06-06T11:46:30Z</time></trkpt><trkpt lat="47.536317" lon="10.121056"><ele>1468.07</ele><time>2010-06-06T11:46:31Z</time></trkpt><trkpt lat="47.536292" lon="10.121003"><ele>1468.07</ele><time>2010-06-06T11:46:32Z</time></trkpt><trkpt lat="47.536278" lon="10.120949"><ele>1468.55</ele><time>2010-06-06T11:46:33Z</time></trkpt><trkpt lat="47.536267" lon="10.120899"><ele>1467.59</ele><time>2010-06-06T11:46:34Z</time></trkpt><trkpt lat="47.536148" lon="10.120473"><ele>1466.63</ele><time>2010-06-06T11:46:43Z</time></trkpt><trkpt lat="47.536042" lon="10.120244"><ele>1466.15</ele><time>2010-06-06T11:46:48Z</time></trkpt><trkpt lat="47.536020" lon="10.120188"><ele>1465.67</ele><time>2010-06-06T11:46:49Z</time></trkpt><trkpt lat="47.535999" lon="10.120129"><ele>1465.67</ele><time>2010-06-06T11:46:50Z</time></trkpt><trkpt lat="47.535978" lon="10.120065"><ele>1465.19</ele><time>2010-06-06T11:46:51Z</time></trkpt><trkpt lat="47.535958" lon="10.120004"><ele>1464.71</ele><time>2010-06-06T11:46:52Z</time></trkpt><trkpt lat="47.535937" lon="10.119950"><ele>1464.71</ele><time>2010-06-06T11:46:53Z</time></trkpt><trkpt lat="47.535911" lon="10.119902"><ele>1463.74</ele><time>2010-06-06T11:46:54Z</time></trkpt><trkpt lat="47.535878" lon="10.119858"><ele>1463.26</ele><time>2010-06-06T11:46:55Z</time></trkpt><trkpt lat="47.535851" lon="10.119815"><ele>1462.78</ele><time>2010-06-06T11:46:56Z</time></trkpt><trkpt lat="47.535838" lon="10.119773"><ele>1461.82</ele><time>2010-06-06T11:46:57Z</time></trkpt><trkpt lat="47.535835" lon="10.119736"><ele>1461.82</ele><time>2010-06-06T11:46:58Z</time></trkpt><trkpt lat="47.535842" lon="10.119699"><ele>1460.86</ele><time>2010-06-06T11:46:59Z</time></trkpt><trkpt lat="47.535855" lon="10.119663"><ele>1460.86</ele><time>2010-06-06T11:47:00Z</time></trkpt><trkpt lat="47.535862" lon="10.119624"><ele>1460.38</ele><time>2010-06-06T11:47:01Z</time></trkpt><trkpt lat="47.535860" lon="10.119583"><ele>1459.90</ele><time>2010-06-06T11:47:02Z</time></trkpt><trkpt lat="47.535846" lon="10.119542"><ele>1460.38</ele><time>2010-06-06T11:47:03Z</time></trkpt><trkpt lat="47.535825" lon="10.119496"><ele>1459.42</ele><time>2010-06-06T11:47:04Z</time></trkpt><trkpt lat="47.535801" lon="10.119438"><ele>1458.94</ele><time>2010-06-06T11:47:05Z</time></trkpt><trkpt lat="47.535779" lon="10.119370"><ele>1458.46</ele><time>2010-06-06T11:47:06Z</time></trkpt><trkpt lat="47.535743" lon="10.119223"><ele>1457.02</ele><time>2010-06-06T11:47:08Z</time></trkpt><trkpt lat="47.535728" lon="10.119150"><ele>1456.53</ele><time>2010-06-06T11:47:09Z</time></trkpt><trkpt lat="47.535647" lon="10.118903"><ele>1453.65</ele><time>2010-06-06T11:47:14Z</time></trkpt><trkpt lat="47.535626" lon="10.118845"><ele>1452.69</ele><time>2010-06-06T11:47:15Z</time></trkpt><trkpt lat="47.535597" lon="10.118773"><ele>1452.21</ele><time>2010-06-06T11:47:16Z</time></trkpt><trkpt lat="47.535558" lon="10.118695"><ele>1452.21</ele><time>2010-06-06T11:47:17Z</time></trkpt><trkpt lat="47.535519" lon="10.118610"><ele>1451.73</ele><time>2010-06-06T11:47:18Z</time></trkpt><trkpt lat="47.535302" lon="10.117992"><ele>1452.69</ele><time>2010-06-06T11:47:28Z</time></trkpt><trkpt lat="47.535236" lon="10.117686"><ele>1455.57</ele><time>2010-06-06T11:47:36Z</time></trkpt><trkpt lat="47.535161" lon="10.117554"><ele>1454.13</ele><time>2010-06-06T11:47:40Z</time></trkpt><trkpt lat="47.535085" lon="10.117320"><ele>1453.65</ele><time>2010-06-06T11:47:50Z</time></trkpt><trkpt lat="47.535000" lon="10.117176"><ele>1452.21</ele><time>2010-06-06T11:48:59Z</time></trkpt><trkpt lat="47.534934" lon="10.117076"><ele>1450.29</ele><time>2010-06-06T11:49:01Z</time></trkpt><trkpt lat="47.534917" lon="10.117007"><ele>1449.81</ele><time>2010-06-06T11:49:02Z</time></trkpt><trkpt lat="47.534908" lon="10.116943"><ele>1449.32</ele><time>2010-06-06T11:49:03Z</time></trkpt><trkpt lat="47.534901" lon="10.116880"><ele>1449.32</ele><time>2010-06-06T11:49:04Z</time></trkpt><trkpt lat="47.534890" lon="10.116813"><ele>1449.32</ele><time>2010-06-06T11:49:05Z</time></trkpt><trkpt lat="47.534872" lon="10.116741"><ele>1448.36</ele><time>2010-06-06T11:49:06Z</time></trkpt><trkpt lat="47.534846" lon="10.116672"><ele>1448.36</ele><time>2010-06-06T11:49:07Z</time></trkpt><trkpt lat="47.534813" lon="10.116604"><ele>1447.88</ele><time>2010-06-06T11:49:08Z</time></trkpt><trkpt lat="47.534787" lon="10.116534"><ele>1446.92</ele><time>2010-06-06T11:49:09Z</time></trkpt><trkpt lat="47.534768" lon="10.116463"><ele>1446.44</ele><time>2010-06-06T11:49:10Z</time></trkpt><trkpt lat="47.534750" lon="10.116396"><ele>1446.44</ele><time>2010-06-06T11:49:11Z</time></trkpt><trkpt lat="47.534733" lon="10.116330"><ele>1445.96</ele><time>2010-06-06T11:49:12Z</time></trkpt><trkpt lat="47.534697" lon="10.116219"><ele>1445.00</ele><time>2010-06-06T11:49:14Z</time></trkpt><trkpt lat="47.534660" lon="10.116189"><ele>1444.52</ele><time>2010-06-06T11:49:15Z</time></trkpt><trkpt lat="47.534615" lon="10.116159"><ele>1443.56</ele><time>2010-06-06T11:49:16Z</time></trkpt><trkpt lat="47.534579" lon="10.116118"><ele>1442.60</ele><time>2010-06-06T11:49:17Z</time></trkpt><trkpt lat="47.534550" lon="10.116062"><ele>1442.11</ele><time>2010-06-06T11:49:18Z</time></trkpt><trkpt lat="47.534523" lon="10.116000"><ele>1441.63</ele><time>2010-06-06T11:49:19Z</time></trkpt><trkpt lat="47.534498" lon="10.115934"><ele>1441.15</ele><time>2010-06-06T11:49:20Z</time></trkpt><trkpt lat="47.534478" lon="10.115871"><ele>1440.19</ele><time>2010-06-06T11:49:21Z</time></trkpt><trkpt lat="47.534463" lon="10.115823"><ele>1439.23</ele><time>2010-06-06T11:49:22Z</time></trkpt><trkpt lat="47.534449" lon="10.115792"><ele>1438.75</ele><time>2010-06-06T11:49:23Z</time></trkpt><trkpt lat="47.534430" lon="10.115763"><ele>1438.27</ele><time>2010-06-06T11:49:24Z</time></trkpt><trkpt lat="47.534408" lon="10.115736"><ele>1438.27</ele><time>2010-06-06T11:49:25Z</time></trkpt><trkpt lat="47.534353" lon="10.115668"><ele>1437.79</ele><time>2010-06-06T11:49:28Z</time></trkpt><trkpt lat="47.534329" lon="10.115652"><ele>1437.31</ele><time>2010-06-06T11:49:29Z</time></trkpt><trkpt lat="47.534257" lon="10.115542"><ele>1435.87</ele><time>2010-06-06T11:49:37Z</time></trkpt><trkpt lat="47.534273" lon="10.115512"><ele>1434.91</ele><time>2010-06-06T11:49:39Z</time></trkpt><trkpt lat="47.534207" lon="10.115371"><ele>1433.94</ele><time>2010-06-06T11:49:45Z</time></trkpt><trkpt lat="47.534120" lon="10.115307"><ele>1433.94</ele><time>2010-06-06T11:49:49Z</time></trkpt><trkpt lat="47.533988" lon="10.114913"><ele>1433.46</ele><time>2010-06-06T11:50:00Z</time></trkpt><trkpt lat="47.533959" lon="10.114787"><ele>1433.46</ele><time>2010-06-06T11:50:03Z</time></trkpt><trkpt lat="47.533937" lon="10.114450"><ele>1434.91</ele><time>2010-06-06T11:50:15Z</time></trkpt><trkpt lat="47.533934" lon="10.114430"><ele>1434.42</ele><time>2010-06-06T11:50:16Z</time></trkpt><trkpt lat="47.533894" lon="10.114216"><ele>1436.35</ele><time>2010-06-06T11:50:26Z</time></trkpt><trkpt lat="47.533802" lon="10.114125"><ele>1435.87</ele><time>2010-06-06T11:50:33Z</time></trkpt><trkpt lat="47.533763" lon="10.113958"><ele>1435.39</ele><time>2010-06-06T11:50:38Z</time></trkpt><trkpt lat="47.533697" lon="10.113644"><ele>1435.39</ele><time>2010-06-06T11:50:47Z</time></trkpt><trkpt lat="47.533541" lon="10.113332"><ele>1435.39</ele><time>2010-06-06T11:51:00Z</time></trkpt><trkpt lat="47.533529" lon="10.113281"><ele>1437.79</ele><time>2010-06-06T11:51:03Z</time></trkpt><trkpt lat="47.533531" lon="10.113066"><ele>1438.75</ele><time>2010-06-06T11:51:13Z</time></trkpt><trkpt lat="47.533531" lon="10.112972"><ele>1438.75</ele><time>2010-06-06T11:51:18Z</time></trkpt><trkpt lat="47.533538" lon="10.112841"><ele>1438.27</ele><time>2010-06-06T11:51:23Z</time></trkpt><trkpt lat="47.533562" lon="10.112621"><ele>1435.87</ele><time>2010-06-06T11:51:31Z</time></trkpt><trkpt lat="47.533559" lon="10.112352"><ele>1432.02</ele><time>2010-06-06T11:51:38Z</time></trkpt><trkpt lat="47.533572" lon="10.112278"><ele>1432.02</ele><time>2010-06-06T11:51:39Z</time></trkpt><trkpt lat="47.533595" lon="10.111836"><ele>1431.06</ele><time>2010-06-06T11:51:47Z</time></trkpt><trkpt lat="47.533635" lon="10.111627"><ele>1430.10</ele><time>2010-06-06T11:51:50Z</time></trkpt><trkpt lat="47.533636" lon="10.111468"><ele>1430.10</ele><time>2010-06-06T11:51:53Z</time></trkpt><trkpt lat="47.533628" lon="10.111440"><ele>1430.58</ele><time>2010-06-06T11:51:54Z</time></trkpt><trkpt lat="47.533623" lon="10.111420"><ele>1430.58</ele><time>2010-06-06T11:51:55Z</time></trkpt><trkpt lat="47.533620" lon="10.111399"><ele>1431.06</ele><time>2010-06-06T11:51:56Z</time></trkpt><trkpt lat="47.533619" lon="10.111382"><ele>1431.06</ele><time>2010-06-06T11:51:57Z</time></trkpt><trkpt lat="47.533622" lon="10.111365"><ele>1432.02</ele><time>2010-06-06T11:51:58Z</time></trkpt><trkpt lat="47.533623" lon="10.111344"><ele>1431.54</ele><time>2010-06-06T11:51:59Z</time></trkpt><trkpt lat="47.533620" lon="10.111279"><ele>1432.98</ele><time>2010-06-06T11:52:09Z</time></trkpt><trkpt lat="47.533638" lon="10.111114"><ele>1435.39</ele><time>2010-06-06T11:52:22Z</time></trkpt><trkpt lat="47.533636" lon="10.111014"><ele>1437.31</ele><time>2010-06-06T11:52:35Z</time></trkpt><trkpt lat="47.533640" lon="10.110878"><ele>1439.71</ele><time>2010-06-06T11:52:48Z</time></trkpt><trkpt lat="47.533634" lon="10.110820"><ele>1441.15</ele><time>2010-06-06T11:52:54Z</time></trkpt><trkpt lat="47.533630" lon="10.110676"><ele>1442.11</ele><time>2010-06-06T11:53:07Z</time></trkpt><trkpt lat="47.533650" lon="10.110544"><ele>1444.04</ele><time>2010-06-06T11:53:20Z</time></trkpt><trkpt lat="47.533707" lon="10.110507"><ele>1445.96</ele><time>2010-06-06T11:53:31Z</time></trkpt><trkpt lat="47.533718" lon="10.110412"><ele>1448.36</ele><time>2010-06-06T11:53:43Z</time></trkpt><trkpt lat="47.533716" lon="10.110342"><ele>1448.84</ele><time>2010-06-06T11:53:56Z</time></trkpt><trkpt lat="47.533733" lon="10.110207"><ele>1451.73</ele><time>2010-06-06T11:54:10Z</time></trkpt><trkpt lat="47.533713" lon="10.110138"><ele>1452.21</ele><time>2010-06-06T11:54:20Z</time></trkpt><trkpt lat="47.533701" lon="10.109916"><ele>1455.57</ele><time>2010-06-06T11:54:37Z</time></trkpt><trkpt lat="47.533709" lon="10.109900"><ele>1455.57</ele><time>2010-06-06T11:54:39Z</time></trkpt><trkpt lat="47.533746" lon="10.109762"><ele>1458.46</ele><time>2010-06-06T11:54:54Z</time></trkpt><trkpt lat="47.533752" lon="10.109603"><ele>1459.90</ele><time>2010-06-06T11:55:11Z</time></trkpt><trkpt lat="47.533761" lon="10.109596"><ele>1460.38</ele><time>2010-06-06T11:55:54Z</time></trkpt><trkpt lat="47.533766" lon="10.109610"><ele>1460.38</ele><time>2010-06-06T11:56:14Z</time></trkpt><trkpt lat="47.533771" lon="10.109590"><ele>1460.38</ele><time>2010-06-06T11:57:09Z</time></trkpt><trkpt lat="47.533769" lon="10.109567"><ele>1460.38</ele><time>2010-06-06T11:57:10Z</time></trkpt><trkpt lat="47.533693" lon="10.109154"><ele>1459.90</ele><time>2010-06-06T11:57:25Z</time></trkpt><trkpt lat="47.533587" lon="10.108759"><ele>1459.90</ele><time>2010-06-06T11:57:39Z</time></trkpt><trkpt lat="47.533554" lon="10.108645"><ele>1459.90</ele><time>2010-06-06T11:57:42Z</time></trkpt><trkpt lat="47.533460" lon="10.108260"><ele>1460.38</ele><time>2010-06-06T11:57:55Z</time></trkpt><trkpt lat="47.533438" lon="10.108182"><ele>1460.38</ele><time>2010-06-06T11:57:58Z</time></trkpt><trkpt lat="47.533433" lon="10.108152"><ele>1460.86</ele><time>2010-06-06T11:57:59Z</time></trkpt><trkpt lat="47.533427" lon="10.108122"><ele>1460.86</ele><time>2010-06-06T11:58:00Z</time></trkpt><trkpt lat="47.533420" lon="10.108093"><ele>1460.86</ele><time>2010-06-06T11:58:01Z</time></trkpt><trkpt lat="47.533411" lon="10.108067"><ele>1460.86</ele><time>2010-06-06T11:58:02Z</time></trkpt><trkpt lat="47.533344" lon="10.107705"><ele>1461.34</ele><time>2010-06-06T11:58:16Z</time></trkpt><trkpt lat="47.533318" lon="10.107526"><ele>1461.34</ele><time>2010-06-06T11:58:23Z</time></trkpt><trkpt lat="47.533302" lon="10.107510"><ele>1460.86</ele><time>2010-06-06T11:58:24Z</time></trkpt><trkpt lat="47.533286" lon="10.107494"><ele>1461.34</ele><time>2010-06-06T11:58:25Z</time></trkpt><trkpt lat="47.533275" lon="10.107471"><ele>1461.82</ele><time>2010-06-06T11:58:26Z</time></trkpt><trkpt lat="47.533266" lon="10.107443"><ele>1461.82</ele><time>2010-06-06T11:58:27Z</time></trkpt><trkpt lat="47.533262" lon="10.107417"><ele>1461.82</ele><time>2010-06-06T11:58:28Z</time></trkpt><trkpt lat="47.533258" lon="10.107390"><ele>1461.82</ele><time>2010-06-06T11:58:29Z</time></trkpt><trkpt lat="47.533252" lon="10.107367"><ele>1461.82</ele><time>2010-06-06T11:58:30Z</time></trkpt><trkpt lat="47.533243" lon="10.107349"><ele>1462.30</ele><time>2010-06-06T11:58:31Z</time></trkpt><trkpt lat="47.533233" lon="10.107332"><ele>1461.82</ele><time>2010-06-06T11:58:32Z</time></trkpt><trkpt lat="47.533178" lon="10.107191"><ele>1462.30</ele><time>2010-06-06T11:58:38Z</time></trkpt><trkpt lat="47.533176" lon="10.107164"><ele>1462.78</ele><time>2010-06-06T11:58:39Z</time></trkpt><trkpt lat="47.533171" lon="10.107140"><ele>1463.26</ele><time>2010-06-06T11:58:40Z</time></trkpt><trkpt lat="47.533074" lon="10.106821"><ele>1464.23</ele><time>2010-06-06T11:58:53Z</time></trkpt><trkpt lat="47.533063" lon="10.106797"><ele>1463.74</ele><time>2010-06-06T11:58:54Z</time></trkpt><trkpt lat="47.533052" lon="10.106769"><ele>1464.23</ele><time>2010-06-06T11:58:55Z</time></trkpt><trkpt lat="47.533039" lon="10.106739"><ele>1464.23</ele><time>2010-06-06T11:58:56Z</time></trkpt><trkpt lat="47.533026" lon="10.106712"><ele>1464.23</ele><time>2010-06-06T11:58:57Z</time></trkpt><trkpt lat="47.533018" lon="10.106690"><ele>1464.71</ele><time>2010-06-06T11:58:58Z</time></trkpt><trkpt lat="47.533009" lon="10.106668"><ele>1464.71</ele><time>2010-06-06T11:58:59Z</time></trkpt><trkpt lat="47.533001" lon="10.106641"><ele>1464.71</ele><time>2010-06-06T11:59:00Z</time></trkpt><trkpt lat="47.532993" lon="10.106609"><ele>1464.71</ele><time>2010-06-06T11:59:01Z</time></trkpt><trkpt lat="47.532885" lon="10.106286"><ele>1464.71</ele><time>2010-06-06T11:59:14Z</time></trkpt><trkpt lat="47.532797" lon="10.106011"><ele>1465.67</ele><time>2010-06-06T11:59:26Z</time></trkpt><trkpt lat="47.532756" lon="10.105902"><ele>1466.15</ele><time>2010-06-06T11:59:31Z</time></trkpt><trkpt lat="47.532746" lon="10.105882"><ele>1466.15</ele><time>2010-06-06T11:59:32Z</time></trkpt><trkpt lat="47.532736" lon="10.105860"><ele>1466.63</ele><time>2010-06-06T11:59:33Z</time></trkpt><trkpt lat="47.532699" lon="10.105772"><ele>1466.63</ele><time>2010-06-06T11:59:37Z</time></trkpt><trkpt lat="47.532691" lon="10.105753"><ele>1466.63</ele><time>2010-06-06T11:59:38Z</time></trkpt><trkpt lat="47.532685" lon="10.105734"><ele>1466.63</ele><time>2010-06-06T11:59:39Z</time></trkpt><trkpt lat="47.532679" lon="10.105714"><ele>1466.63</ele><time>2010-06-06T11:59:40Z</time></trkpt><trkpt lat="47.532670" lon="10.105690"><ele>1466.63</ele><time>2010-06-06T11:59:41Z</time></trkpt><trkpt lat="47.532658" lon="10.105658"><ele>1466.15</ele><time>2010-06-06T11:59:42Z</time></trkpt><trkpt lat="47.532630" lon="10.105563"><ele>1465.67</ele><time>2010-06-06T11:59:46Z</time></trkpt><trkpt lat="47.532628" lon="10.105537"><ele>1466.15</ele><time>2010-06-06T11:59:47Z</time></trkpt><trkpt lat="47.532624" lon="10.105510"><ele>1466.15</ele><time>2010-06-06T11:59:48Z</time></trkpt><trkpt lat="47.532617" lon="10.105481"><ele>1466.15</ele><time>2010-06-06T11:59:49Z</time></trkpt><trkpt lat="47.532609" lon="10.105454"><ele>1466.15</ele><time>2010-06-06T11:59:50Z</time></trkpt><trkpt lat="47.532483" lon="10.105055"><ele>1466.15</ele><time>2010-06-06T12:00:05Z</time></trkpt><trkpt lat="47.532425" lon="10.104914"><ele>1466.63</ele><time>2010-06-06T12:00:11Z</time></trkpt><trkpt lat="47.532422" lon="10.104883"><ele>1466.63</ele><time>2010-06-06T12:00:12Z</time></trkpt><trkpt lat="47.532415" lon="10.104854"><ele>1466.63</ele><time>2010-06-06T12:00:13Z</time></trkpt><trkpt lat="47.532332" lon="10.104496"><ele>1466.63</ele><time>2010-06-06T12:00:25Z</time></trkpt><trkpt lat="47.532202" lon="10.104135"><ele>1465.67</ele><time>2010-06-06T12:00:37Z</time></trkpt><trkpt lat="47.532086" lon="10.103824"><ele>1467.59</ele><time>2010-06-06T12:00:48Z</time></trkpt><trkpt lat="47.531981" lon="10.103456"><ele>1467.11</ele><time>2010-06-06T12:01:00Z</time></trkpt><trkpt lat="47.531900" lon="10.103222"><ele>1467.59</ele><time>2010-06-06T12:01:09Z</time></trkpt><trkpt lat="47.531895" lon="10.103193"><ele>1467.59</ele><time>2010-06-06T12:01:10Z</time></trkpt><trkpt lat="47.531848" lon="10.103026"><ele>1468.55</ele><time>2010-06-06T12:01:24Z</time></trkpt><trkpt lat="47.531833" lon="10.102972"><ele>1467.59</ele><time>2010-06-06T12:02:16Z</time></trkpt><trkpt lat="47.531819" lon="10.102923"><ele>1468.07</ele><time>2010-06-06T12:02:17Z</time></trkpt><trkpt lat="47.531796" lon="10.102869"><ele>1466.63</ele><time>2010-06-06T12:02:18Z</time></trkpt><trkpt lat="47.531775" lon="10.102822"><ele>1467.11</ele><time>2010-06-06T12:02:19Z</time></trkpt><trkpt lat="47.531762" lon="10.102782"><ele>1467.11</ele><time>2010-06-06T12:02:20Z</time></trkpt><trkpt lat="47.531749" lon="10.102745"><ele>1467.11</ele><time>2010-06-06T12:02:21Z</time></trkpt><trkpt lat="47.531737" lon="10.102709"><ele>1467.11</ele><time>2010-06-06T12:02:22Z</time></trkpt><trkpt lat="47.531727" lon="10.102670"><ele>1466.63</ele><time>2010-06-06T12:02:23Z</time></trkpt><trkpt lat="47.531683" lon="10.102532"><ele>1466.15</ele><time>2010-06-06T12:02:26Z</time></trkpt><trkpt lat="47.531661" lon="10.102485"><ele>1466.15</ele><time>2010-06-06T12:02:27Z</time></trkpt><trkpt lat="47.531642" lon="10.102441"><ele>1465.67</ele><time>2010-06-06T12:02:28Z</time></trkpt><trkpt lat="47.531543" lon="10.102215"><ele>1464.71</ele><time>2010-06-06T12:02:32Z</time></trkpt><trkpt lat="47.531425" lon="10.101952"><ele>1463.26</ele><time>2010-06-06T12:02:37Z</time></trkpt><trkpt lat="47.531405" lon="10.101905"><ele>1463.26</ele><time>2010-06-06T12:02:38Z</time></trkpt><trkpt lat="47.531298" lon="10.101652"><ele>1461.34</ele><time>2010-06-06T12:02:44Z</time></trkpt><trkpt lat="47.531272" lon="10.101578"><ele>1460.86</ele><time>2010-06-06T12:02:45Z</time></trkpt><trkpt lat="47.531129" lon="10.101210"><ele>1458.94</ele><time>2010-06-06T12:02:50Z</time></trkpt><trkpt lat="47.531062" lon="10.101018"><ele>1457.50</ele><time>2010-06-06T12:02:53Z</time></trkpt><trkpt lat="47.531050" lon="10.100990"><ele>1457.98</ele><time>2010-06-06T12:03:00Z</time></trkpt><trkpt lat="47.531025" lon="10.100923"><ele>1456.53</ele><time>2010-06-06T12:03:14Z</time></trkpt><trkpt lat="47.531019" lon="10.100896"><ele>1456.05</ele><time>2010-06-06T12:03:15Z</time></trkpt><trkpt lat="47.531010" lon="10.100868"><ele>1456.53</ele><time>2010-06-06T12:03:16Z</time></trkpt><trkpt lat="47.531005" lon="10.100843"><ele>1456.53</ele><time>2010-06-06T12:03:17Z</time></trkpt><trkpt lat="47.530995" lon="10.100818"><ele>1456.53</ele><time>2010-06-06T12:03:18Z</time></trkpt><trkpt lat="47.530981" lon="10.100789"><ele>1455.57</ele><time>2010-06-06T12:03:19Z</time></trkpt><trkpt lat="47.530970" lon="10.100749"><ele>1455.57</ele><time>2010-06-06T12:03:20Z</time></trkpt><trkpt lat="47.530960" lon="10.100701"><ele>1455.09</ele><time>2010-06-06T12:03:21Z</time></trkpt><trkpt lat="47.530835" lon="10.100376"><ele>1454.13</ele><time>2010-06-06T12:03:30Z</time></trkpt><trkpt lat="47.530822" lon="10.100359"><ele>1454.13</ele><time>2010-06-06T12:03:31Z</time></trkpt><trkpt lat="47.530804" lon="10.100349"><ele>1454.13</ele><time>2010-06-06T12:03:32Z</time></trkpt><trkpt lat="47.530785" lon="10.100336"><ele>1454.61</ele><time>2010-06-06T12:03:33Z</time></trkpt><trkpt lat="47.530769" lon="10.100318"><ele>1454.61</ele><time>2010-06-06T12:03:34Z</time></trkpt><trkpt lat="47.530758" lon="10.100298"><ele>1455.09</ele><time>2010-06-06T12:03:35Z</time></trkpt><trkpt lat="47.530741" lon="10.100247"><ele>1454.61</ele><time>2010-06-06T12:03:37Z</time></trkpt><trkpt lat="47.530742" lon="10.100215"><ele>1454.13</ele><time>2010-06-06T12:03:38Z</time></trkpt><trkpt lat="47.530742" lon="10.100182"><ele>1454.61</ele><time>2010-06-06T12:03:39Z</time></trkpt><trkpt lat="47.530738" lon="10.100154"><ele>1454.13</ele><time>2010-06-06T12:03:40Z</time></trkpt><trkpt lat="47.530727" lon="10.100128"><ele>1454.13</ele><time>2010-06-06T12:03:41Z</time></trkpt><trkpt lat="47.530713" lon="10.100110"><ele>1455.09</ele><time>2010-06-06T12:03:42Z</time></trkpt><trkpt lat="47.530698" lon="10.100101"><ele>1456.53</ele><time>2010-06-06T12:03:43Z</time></trkpt><trkpt lat="47.530690" lon="10.100097"><ele>1456.05</ele><time>2010-06-06T12:03:44Z</time></trkpt><trkpt lat="47.530679" lon="10.100030"><ele>1455.09</ele><time>2010-06-06T12:03:56Z</time></trkpt><trkpt lat="47.530661" lon="10.099965"><ele>1456.05</ele><time>2010-06-06T12:04:07Z</time></trkpt><trkpt lat="47.530663" lon="10.099942"><ele>1455.57</ele><time>2010-06-06T12:04:12Z</time></trkpt><trkpt lat="47.530653" lon="10.099834"><ele>1455.57</ele><time>2010-06-06T12:04:19Z</time></trkpt><trkpt lat="47.530645" lon="10.099809"><ele>1456.05</ele><time>2010-06-06T12:04:20Z</time></trkpt><trkpt lat="47.530639" lon="10.099784"><ele>1455.09</ele><time>2010-06-06T12:04:21Z</time></trkpt><trkpt lat="47.530636" lon="10.099758"><ele>1455.09</ele><time>2010-06-06T12:04:22Z</time></trkpt><trkpt lat="47.530602" lon="10.099657"><ele>1456.05</ele><time>2010-06-06T12:04:33Z</time></trkpt><trkpt lat="47.530593" lon="10.099615"><ele>1455.09</ele><time>2010-06-06T12:04:51Z</time></trkpt><trkpt lat="47.530585" lon="10.099584"><ele>1454.61</ele><time>2010-06-06T12:05:05Z</time></trkpt><trkpt lat="47.530578" lon="10.099554"><ele>1453.17</ele><time>2010-06-06T12:05:18Z</time></trkpt><trkpt lat="47.530557" lon="10.099483"><ele>1452.69</ele><time>2010-06-06T12:05:31Z</time></trkpt><trkpt lat="47.530530" lon="10.099328"><ele>1453.17</ele><time>2010-06-06T12:05:54Z</time></trkpt><trkpt lat="47.530499" lon="10.099185"><ele>1453.17</ele><time>2010-06-06T12:06:05Z</time></trkpt><trkpt lat="47.530463" lon="10.099077"><ele>1452.69</ele><time>2010-06-06T12:06:18Z</time></trkpt><trkpt lat="47.530435" lon="10.099001"><ele>1451.73</ele><time>2010-06-06T12:06:21Z</time></trkpt><trkpt lat="47.530417" lon="10.098916"><ele>1450.77</ele><time>2010-06-06T12:06:25Z</time></trkpt><trkpt lat="47.530374" lon="10.098813"><ele>1448.36</ele><time>2010-06-06T12:06:29Z</time></trkpt><trkpt lat="47.530326" lon="10.098691"><ele>1446.44</ele><time>2010-06-06T12:06:35Z</time></trkpt><trkpt lat="47.530310" lon="10.098676"><ele>1445.48</ele><time>2010-06-06T12:06:36Z</time></trkpt><trkpt lat="47.530296" lon="10.098660"><ele>1445.00</ele><time>2010-06-06T12:06:37Z</time></trkpt><trkpt lat="47.530293" lon="10.098642"><ele>1444.52</ele><time>2010-06-06T12:06:38Z</time></trkpt><trkpt lat="47.530293" lon="10.098599"><ele>1443.56</ele><time>2010-06-06T12:06:47Z</time></trkpt><trkpt lat="47.530289" lon="10.098579"><ele>1443.08</ele><time>2010-06-06T12:07:00Z</time></trkpt><trkpt lat="47.530282" lon="10.098572"><ele>1441.63</ele><time>2010-06-06T12:07:21Z</time></trkpt><trkpt lat="47.530263" lon="10.098552"><ele>1441.63</ele><time>2010-06-06T12:07:38Z</time></trkpt><trkpt lat="47.530244" lon="10.098537"><ele>1440.67</ele><time>2010-06-06T12:07:39Z</time></trkpt><trkpt lat="47.530223" lon="10.098515"><ele>1440.67</ele><time>2010-06-06T12:07:40Z</time></trkpt><trkpt lat="47.530204" lon="10.098488"><ele>1439.71</ele><time>2010-06-06T12:07:41Z</time></trkpt><trkpt lat="47.530188" lon="10.098463"><ele>1438.75</ele><time>2010-06-06T12:07:42Z</time></trkpt><trkpt lat="47.530173" lon="10.098435"><ele>1437.79</ele><time>2010-06-06T12:07:43Z</time></trkpt><trkpt lat="47.530157" lon="10.098405"><ele>1437.79</ele><time>2010-06-06T12:07:44Z</time></trkpt><trkpt lat="47.530141" lon="10.098377"><ele>1437.79</ele><time>2010-06-06T12:07:45Z</time></trkpt><trkpt lat="47.530112" lon="10.098330"><ele>1435.87</ele><time>2010-06-06T12:07:47Z</time></trkpt><trkpt lat="47.530103" lon="10.098301"><ele>1435.39</ele><time>2010-06-06T12:07:48Z</time></trkpt><trkpt lat="47.530087" lon="10.098273"><ele>1434.91</ele><time>2010-06-06T12:07:49Z</time></trkpt><trkpt lat="47.529999" lon="10.098183"><ele>1431.54</ele><time>2010-06-06T12:07:54Z</time></trkpt><trkpt lat="47.529936" lon="10.098069"><ele>1428.18</ele><time>2010-06-06T12:07:58Z</time></trkpt><trkpt lat="47.529860" lon="10.097970"><ele>1424.81</ele><time>2010-06-06T12:08:02Z</time></trkpt><trkpt lat="47.529778" lon="10.097879"><ele>1421.45</ele><time>2010-06-06T12:08:06Z</time></trkpt><trkpt lat="47.529752" lon="10.097868"><ele>1420.00</ele><time>2010-06-06T12:08:07Z</time></trkpt><trkpt lat="47.529727" lon="10.097857"><ele>1419.04</ele><time>2010-06-06T12:08:08Z</time></trkpt><trkpt lat="47.529708" lon="10.097836"><ele>1418.08</ele><time>2010-06-06T12:08:09Z</time></trkpt><trkpt lat="47.529687" lon="10.097814"><ele>1417.60</ele><time>2010-06-06T12:08:10Z</time></trkpt><trkpt lat="47.529667" lon="10.097791"><ele>1417.12</ele><time>2010-06-06T12:08:11Z</time></trkpt><trkpt lat="47.529650" lon="10.097764"><ele>1415.68</ele><time>2010-06-06T12:08:12Z</time></trkpt><trkpt lat="47.529634" lon="10.097735"><ele>1414.72</ele><time>2010-06-06T12:08:13Z</time></trkpt><trkpt lat="47.529618" lon="10.097708"><ele>1414.72</ele><time>2010-06-06T12:08:14Z</time></trkpt><trkpt lat="47.529568" lon="10.097615"><ele>1410.87</ele><time>2010-06-06T12:08:17Z</time></trkpt><trkpt lat="47.529557" lon="10.097587"><ele>1410.87</ele><time>2010-06-06T12:08:18Z</time></trkpt><trkpt lat="47.529546" lon="10.097562"><ele>1409.91</ele><time>2010-06-06T12:08:19Z</time></trkpt><trkpt lat="47.529527" lon="10.097540"><ele>1409.43</ele><time>2010-06-06T12:08:20Z</time></trkpt><trkpt lat="47.529509" lon="10.097527"><ele>1408.47</ele><time>2010-06-06T12:08:21Z</time></trkpt><trkpt lat="47.529497" lon="10.097511"><ele>1407.99</ele><time>2010-06-06T12:08:22Z</time></trkpt><trkpt lat="47.529491" lon="10.097488"><ele>1407.51</ele><time>2010-06-06T12:08:23Z</time></trkpt><trkpt lat="47.529477" lon="10.097459"><ele>1407.03</ele><time>2010-06-06T12:08:24Z</time></trkpt><trkpt lat="47.529461" lon="10.097432"><ele>1405.58</ele><time>2010-06-06T12:08:25Z</time></trkpt><trkpt lat="47.529441" lon="10.097411"><ele>1405.10</ele><time>2010-06-06T12:08:26Z</time></trkpt><trkpt lat="47.529418" lon="10.097393"><ele>1404.14</ele><time>2010-06-06T12:08:27Z</time></trkpt><trkpt lat="47.529390" lon="10.097377"><ele>1404.62</ele><time>2010-06-06T12:08:28Z</time></trkpt><trkpt lat="47.529362" lon="10.097363"><ele>1403.66</ele><time>2010-06-06T12:08:29Z</time></trkpt><trkpt lat="47.529277" lon="10.097311"><ele>1401.26</ele><time>2010-06-06T12:08:33Z</time></trkpt><trkpt lat="47.529258" lon="10.097306"><ele>1399.82</ele><time>2010-06-06T12:08:34Z</time></trkpt><trkpt lat="47.529245" lon="10.097281"><ele>1399.82</ele><time>2010-06-06T12:08:35Z</time></trkpt><trkpt lat="47.529242" lon="10.097247"><ele>1399.34</ele><time>2010-06-06T12:08:36Z</time></trkpt><trkpt lat="47.529244" lon="10.097208"><ele>1398.86</ele><time>2010-06-06T12:08:37Z</time></trkpt><trkpt lat="47.529246" lon="10.097065"><ele>1395.97</ele><time>2010-06-06T12:08:40Z</time></trkpt><trkpt lat="47.529248" lon="10.096944"><ele>1393.57</ele><time>2010-06-06T12:08:43Z</time></trkpt><trkpt lat="47.529235" lon="10.096918"><ele>1392.61</ele><time>2010-06-06T12:08:44Z</time></trkpt><trkpt lat="47.529214" lon="10.096899"><ele>1391.65</ele><time>2010-06-06T12:08:45Z</time></trkpt><trkpt lat="47.529196" lon="10.096867"><ele>1391.65</ele><time>2010-06-06T12:08:46Z</time></trkpt><trkpt lat="47.529184" lon="10.096825"><ele>1390.68</ele><time>2010-06-06T12:08:47Z</time></trkpt><trkpt lat="47.529177" lon="10.096779"><ele>1389.72</ele><time>2010-06-06T12:08:48Z</time></trkpt><trkpt lat="47.529174" lon="10.096739"><ele>1388.28</ele><time>2010-06-06T12:08:49Z</time></trkpt><trkpt lat="47.529172" lon="10.096706"><ele>1388.28</ele><time>2010-06-06T12:08:50Z</time></trkpt><trkpt lat="47.529165" lon="10.096670"><ele>1387.80</ele><time>2010-06-06T12:08:51Z</time></trkpt><trkpt lat="47.529156" lon="10.096630"><ele>1387.32</ele><time>2010-06-06T12:08:52Z</time></trkpt><trkpt lat="47.529148" lon="10.096591"><ele>1385.88</ele><time>2010-06-06T12:08:53Z</time></trkpt><trkpt lat="47.529144" lon="10.096557"><ele>1386.36</ele><time>2010-06-06T12:08:54Z</time></trkpt><trkpt lat="47.529133" lon="10.096529"><ele>1385.40</ele><time>2010-06-06T12:08:55Z</time></trkpt><trkpt lat="47.529117" lon="10.096500"><ele>1384.92</ele><time>2010-06-06T12:08:56Z</time></trkpt><trkpt lat="47.529106" lon="10.096464"><ele>1384.44</ele><time>2010-06-06T12:08:57Z</time></trkpt><trkpt lat="47.529098" lon="10.096425"><ele>1382.99</ele><time>2010-06-06T12:08:58Z</time></trkpt><trkpt lat="47.529092" lon="10.096385"><ele>1382.51</ele><time>2010-06-06T12:08:59Z</time></trkpt><trkpt lat="47.529047" lon="10.096234"><ele>1380.11</ele><time>2010-06-06T12:09:03Z</time></trkpt><trkpt lat="47.529026" lon="10.096208"><ele>1380.11</ele><time>2010-06-06T12:09:04Z</time></trkpt><trkpt lat="47.529010" lon="10.096189"><ele>1379.15</ele><time>2010-06-06T12:09:12Z</time></trkpt><trkpt lat="47.528986" lon="10.096121"><ele>1377.71</ele><time>2010-06-06T12:09:35Z</time></trkpt><trkpt lat="47.528967" lon="10.096098"><ele>1377.23</ele><time>2010-06-06T12:09:36Z</time></trkpt><trkpt lat="47.528932" lon="10.096070"><ele>1376.26</ele><time>2010-06-06T12:09:38Z</time></trkpt><trkpt lat="47.528916" lon="10.096059"><ele>1375.30</ele><time>2010-06-06T12:09:39Z</time></trkpt><trkpt lat="47.528898" lon="10.096035"><ele>1373.86</ele><time>2010-06-06T12:09:40Z</time></trkpt><trkpt lat="47.528885" lon="10.096001"><ele>1372.90</ele><time>2010-06-06T12:09:41Z</time></trkpt><trkpt lat="47.528876" lon="10.095968"><ele>1372.42</ele><time>2010-06-06T12:09:42Z</time></trkpt><trkpt lat="47.528869" lon="10.095938"><ele>1371.46</ele><time>2010-06-06T12:09:43Z</time></trkpt><trkpt lat="47.528867" lon="10.095909"><ele>1370.98</ele><time>2010-06-06T12:09:44Z</time></trkpt><trkpt lat="47.528844" lon="10.095890"><ele>1370.02</ele><time>2010-06-06T12:09:47Z</time></trkpt><trkpt lat="47.528829" lon="10.095863"><ele>1369.05</ele><time>2010-06-06T12:09:49Z</time></trkpt><trkpt lat="47.528821" lon="10.095836"><ele>1368.09</ele><time>2010-06-06T12:09:50Z</time></trkpt><trkpt lat="47.528817" lon="10.095804"><ele>1367.61</ele><time>2010-06-06T12:09:51Z</time></trkpt><trkpt lat="47.528813" lon="10.095777"><ele>1367.13</ele><time>2010-06-06T12:09:52Z</time></trkpt><trkpt lat="47.528799" lon="10.095766"><ele>1366.65</ele><time>2010-06-06T12:09:53Z</time></trkpt><trkpt lat="47.528785" lon="10.095755"><ele>1366.17</ele><time>2010-06-06T12:09:54Z</time></trkpt><trkpt lat="47.528775" lon="10.095731"><ele>1365.21</ele><time>2010-06-06T12:09:55Z</time></trkpt><trkpt lat="47.528763" lon="10.095713"><ele>1365.21</ele><time>2010-06-06T12:09:56Z</time></trkpt><trkpt lat="47.528746" lon="10.095701"><ele>1364.25</ele><time>2010-06-06T12:09:57Z</time></trkpt><trkpt lat="47.528730" lon="10.095679"><ele>1363.29</ele><time>2010-06-06T12:09:58Z</time></trkpt><trkpt lat="47.528717" lon="10.095647"><ele>1363.29</ele><time>2010-06-06T12:09:59Z</time></trkpt><trkpt lat="47.528657" lon="10.095499"><ele>1359.44</ele><time>2010-06-06T12:10:04Z</time></trkpt><trkpt lat="47.528653" lon="10.095467"><ele>1358.96</ele><time>2010-06-06T12:10:05Z</time></trkpt><trkpt lat="47.528641" lon="10.095440"><ele>1358.00</ele><time>2010-06-06T12:10:06Z</time></trkpt><trkpt lat="47.528625" lon="10.095413"><ele>1358.00</ele><time>2010-06-06T12:10:07Z</time></trkpt><trkpt lat="47.528595" lon="10.095371"><ele>1356.08</ele><time>2010-06-06T12:10:09Z</time></trkpt><trkpt lat="47.528589" lon="10.095337"><ele>1355.60</ele><time>2010-06-06T12:10:10Z</time></trkpt><trkpt lat="47.528580" lon="10.095307"><ele>1354.15</ele><time>2010-06-06T12:10:11Z</time></trkpt><trkpt lat="47.528566" lon="10.095274"><ele>1353.67</ele><time>2010-06-06T12:10:12Z</time></trkpt><trkpt lat="47.528554" lon="10.095240"><ele>1352.71</ele><time>2010-06-06T12:10:13Z</time></trkpt><trkpt lat="47.528531" lon="10.095160"><ele>1352.23</ele><time>2010-06-06T12:10:15Z</time></trkpt><trkpt lat="47.528502" lon="10.095042"><ele>1349.35</ele><time>2010-06-06T12:10:18Z</time></trkpt><trkpt lat="47.528484" lon="10.095004"><ele>1348.39</ele><time>2010-06-06T12:10:19Z</time></trkpt><trkpt lat="47.528465" lon="10.094957"><ele>1347.43</ele><time>2010-06-06T12:10:20Z</time></trkpt><trkpt lat="47.528449" lon="10.094906"><ele>1345.98</ele><time>2010-06-06T12:10:21Z</time></trkpt><trkpt lat="47.528433" lon="10.094861"><ele>1345.02</ele><time>2010-06-06T12:10:22Z</time></trkpt><trkpt lat="47.528416" lon="10.094821"><ele>1344.06</ele><time>2010-06-06T12:10:23Z</time></trkpt><trkpt lat="47.528341" lon="10.094758"><ele>1341.18</ele><time>2010-06-06T12:10:29Z</time></trkpt><trkpt lat="47.528336" lon="10.094725"><ele>1340.22</ele><time>2010-06-06T12:10:33Z</time></trkpt><trkpt lat="47.528330" lon="10.094705"><ele>1340.22</ele><time>2010-06-06T12:10:34Z</time></trkpt><trkpt lat="47.528320" lon="10.094677"><ele>1339.73</ele><time>2010-06-06T12:10:35Z</time></trkpt><trkpt lat="47.528297" lon="10.094640"><ele>1339.25</ele><time>2010-06-06T12:10:36Z</time></trkpt><trkpt lat="47.528261" lon="10.094607"><ele>1337.81</ele><time>2010-06-06T12:10:37Z</time></trkpt><trkpt lat="47.528234" lon="10.094581"><ele>1337.33</ele><time>2010-06-06T12:10:38Z</time></trkpt><trkpt lat="47.528226" lon="10.094554"><ele>1337.81</ele><time>2010-06-06T12:10:39Z</time></trkpt><trkpt lat="47.528216" lon="10.094514"><ele>1338.29</ele><time>2010-06-06T12:10:51Z</time></trkpt><trkpt lat="47.528221" lon="10.094524"><ele>1338.29</ele><time>2010-06-06T12:11:10Z</time></trkpt><trkpt lat="47.528224" lon="10.094521"><ele>1337.81</ele><time>2010-06-06T12:12:19Z</time></trkpt><trkpt lat="47.528224" lon="10.094521"><ele>1337.33</ele><time>2010-06-06T12:12:55Z</time></trkpt><trkpt lat="47.528221" lon="10.094522"><ele>1337.33</ele><time>2010-06-06T12:13:35Z</time></trkpt><trkpt lat="47.528223" lon="10.094525"><ele>1337.81</ele><time>2010-06-06T12:14:13Z</time></trkpt><trkpt lat="47.528223" lon="10.094524"><ele>1337.33</ele><time>2010-06-06T12:14:56Z</time></trkpt><trkpt lat="47.528228" lon="10.094523"><ele>1336.85</ele><time>2010-06-06T12:15:34Z</time></trkpt><trkpt lat="47.528223" lon="10.094523"><ele>1333.49</ele><time>2010-06-06T12:15:50Z</time></trkpt><trkpt lat="47.528223" lon="10.094523"><ele>1333.97</ele><time>2010-06-06T12:15:51Z</time></trkpt><trkpt lat="47.528223" lon="10.094523"><ele>1336.85</ele><time>2010-06-06T12:16:05Z</time></trkpt><trkpt lat="47.528222" lon="10.094525"><ele>1337.33</ele><time>2010-06-06T12:16:43Z</time></trkpt><trkpt lat="47.528222" lon="10.094522"><ele>1337.33</ele><time>2010-06-06T12:17:19Z</time></trkpt><trkpt lat="47.528222" lon="10.094514"><ele>1336.85</ele><time>2010-06-06T12:17:53Z</time></trkpt><trkpt lat="47.528224" lon="10.094515"><ele>1337.33</ele><time>2010-06-06T12:18:32Z</time></trkpt><trkpt lat="47.528225" lon="10.094516"><ele>1337.33</ele><time>2010-06-06T12:19:08Z</time></trkpt><trkpt lat="47.528226" lon="10.094512"><ele>1336.37</ele><time>2010-06-06T12:19:46Z</time></trkpt><trkpt lat="47.528229" lon="10.094508"><ele>1336.37</ele><time>2010-06-06T12:20:21Z</time></trkpt><trkpt lat="47.528221" lon="10.094515"><ele>1336.85</ele><time>2010-06-06T12:20:41Z</time></trkpt><trkpt lat="47.528218" lon="10.094461"><ele>1336.85</ele><time>2010-06-06T12:20:44Z</time></trkpt><trkpt lat="47.528215" lon="10.094438"><ele>1336.85</ele><time>2010-06-06T12:20:45Z</time></trkpt><trkpt lat="47.528213" lon="10.094418"><ele>1336.85</ele><time>2010-06-06T12:20:46Z</time></trkpt><trkpt lat="47.528209" lon="10.094380"><ele>1336.85</ele><time>2010-06-06T12:20:48Z</time></trkpt><trkpt lat="47.528204" lon="10.094365"><ele>1336.85</ele><time>2010-06-06T12:20:49Z</time></trkpt><trkpt lat="47.528185" lon="10.094324"><ele>1336.85</ele><time>2010-06-06T12:20:52Z</time></trkpt><trkpt lat="47.528171" lon="10.094319"><ele>1336.85</ele><time>2010-06-06T12:20:53Z</time></trkpt><trkpt lat="47.528157" lon="10.094313"><ele>1336.85</ele><time>2010-06-06T12:20:54Z</time></trkpt><trkpt lat="47.528148" lon="10.094300"><ele>1336.85</ele><time>2010-06-06T12:20:55Z</time></trkpt><trkpt lat="47.528142" lon="10.094286"><ele>1336.37</ele><time>2010-06-06T12:20:56Z</time></trkpt><trkpt lat="47.528136" lon="10.094271"><ele>1337.33</ele><time>2010-06-06T12:20:57Z</time></trkpt><trkpt lat="47.528132" lon="10.094254"><ele>1336.85</ele><time>2010-06-06T12:20:58Z</time></trkpt><trkpt lat="47.528130" lon="10.094238"><ele>1336.85</ele><time>2010-06-06T12:20:59Z</time></trkpt><trkpt lat="47.528128" lon="10.094222"><ele>1336.85</ele><time>2010-06-06T12:21:00Z</time></trkpt><trkpt lat="47.528128" lon="10.094205"><ele>1336.85</ele><time>2010-06-06T12:21:01Z</time></trkpt><trkpt lat="47.528128" lon="10.094187"><ele>1337.33</ele><time>2010-06-06T12:21:02Z</time></trkpt><trkpt lat="47.528096" lon="10.093935"><ele>1337.33</ele><time>2010-06-06T12:21:16Z</time></trkpt><trkpt lat="47.528037" lon="10.093682"><ele>1334.93</ele><time>2010-06-06T12:21:30Z</time></trkpt><trkpt lat="47.527997" lon="10.093484"><ele>1338.77</ele><time>2010-06-06T12:21:42Z</time></trkpt><trkpt lat="47.527981" lon="10.093436"><ele>1339.73</ele><time>2010-06-06T12:21:45Z</time></trkpt><trkpt lat="47.527980" lon="10.093419"><ele>1340.22</ele><time>2010-06-06T12:21:46Z</time></trkpt><trkpt lat="47.527977" lon="10.093401"><ele>1340.70</ele><time>2010-06-06T12:21:47Z</time></trkpt><trkpt lat="47.527974" lon="10.093381"><ele>1340.70</ele><time>2010-06-06T12:21:48Z</time></trkpt><trkpt lat="47.527972" lon="10.093362"><ele>1341.18</ele><time>2010-06-06T12:21:49Z</time></trkpt><trkpt lat="47.527966" lon="10.093332"><ele>1341.18</ele><time>2010-06-06T12:21:51Z</time></trkpt><trkpt lat="47.527961" lon="10.093317"><ele>1341.18</ele><time>2010-06-06T12:21:52Z</time></trkpt><trkpt lat="47.527912" lon="10.093057"><ele>1343.10</ele><time>2010-06-06T12:22:08Z</time></trkpt><trkpt lat="47.527881" lon="10.092861"><ele>1345.02</ele><time>2010-06-06T12:22:20Z</time></trkpt><trkpt lat="47.527878" lon="10.092845"><ele>1345.02</ele><time>2010-06-06T12:22:21Z</time></trkpt><trkpt lat="47.527868" lon="10.092772"><ele>1346.46</ele><time>2010-06-06T12:22:26Z</time></trkpt><trkpt lat="47.527866" lon="10.092744"><ele>1343.10</ele><time>2010-06-06T12:22:33Z</time></trkpt><trkpt lat="47.527866" lon="10.092744"><ele>1343.10</ele><time>2010-06-06T12:22:34Z</time></trkpt><trkpt lat="47.527857" lon="10.092723"><ele>1342.14</ele><time>2010-06-06T12:23:00Z</time></trkpt><trkpt lat="47.527857" lon="10.092723"><ele>1345.50</ele><time>2010-06-06T12:23:03Z</time></trkpt><trkpt lat="47.527866" lon="10.092744"><ele>1392.13</ele><time>2010-06-06T12:23:36Z</time></trkpt><trkpt lat="47.527866" lon="10.092744"><ele>1349.35</ele><time>2010-06-06T12:23:37Z</time></trkpt><trkpt lat="47.527885" lon="10.092761"><ele>1349.83</ele><time>2010-06-06T12:23:38Z</time></trkpt><trkpt lat="47.527871" lon="10.092737"><ele>1348.39</ele><time>2010-06-06T12:23:44Z</time></trkpt><trkpt lat="47.527872" lon="10.092707"><ele>1345.02</ele><time>2010-06-06T12:23:56Z</time></trkpt><trkpt lat="47.527898" lon="10.092559"><ele>1344.54</ele><time>2010-06-06T12:24:10Z</time></trkpt><trkpt lat="47.527906" lon="10.092530"><ele>1342.14</ele><time>2010-06-06T12:24:14Z</time></trkpt><trkpt lat="47.527903" lon="10.092475"><ele>1341.66</ele><time>2010-06-06T12:24:18Z</time></trkpt><trkpt lat="47.527915" lon="10.092447"><ele>1342.62</ele><time>2010-06-06T12:24:20Z</time></trkpt><trkpt lat="47.527937" lon="10.092406"><ele>1343.10</ele><time>2010-06-06T12:24:25Z</time></trkpt><trkpt lat="47.527963" lon="10.092330"><ele>1343.58</ele><time>2010-06-06T12:24:31Z</time></trkpt><trkpt lat="47.527975" lon="10.092308"><ele>1345.98</ele><time>2010-06-06T12:24:33Z</time></trkpt><trkpt lat="47.528010" lon="10.092176"><ele>1348.39</ele><time>2010-06-06T12:24:47Z</time></trkpt><trkpt lat="47.528029" lon="10.092084"><ele>1350.31</ele><time>2010-06-06T12:25:01Z</time></trkpt><trkpt lat="47.527993" lon="10.091939"><ele>1353.19</ele><time>2010-06-06T12:25:17Z</time></trkpt><trkpt lat="47.527960" lon="10.091812"><ele>1356.08</ele><time>2010-06-06T12:25:32Z</time></trkpt><trkpt lat="47.527929" lon="10.091685"><ele>1358.48</ele><time>2010-06-06T12:25:47Z</time></trkpt><trkpt lat="47.527895" lon="10.091544"><ele>1360.88</ele><time>2010-06-06T12:26:03Z</time></trkpt><trkpt lat="47.527868" lon="10.091421"><ele>1363.77</ele><time>2010-06-06T12:26:18Z</time></trkpt><trkpt lat="47.527865" lon="10.091252"><ele>1366.17</ele><time>2010-06-06T12:26:36Z</time></trkpt><trkpt lat="47.527878" lon="10.091081"><ele>1368.57</ele><time>2010-06-06T12:26:53Z</time></trkpt><trkpt lat="47.527877" lon="10.091053"><ele>1369.54</ele><time>2010-06-06T12:27:06Z</time></trkpt><trkpt lat="47.527919" lon="10.090862"><ele>1372.42</ele><time>2010-06-06T12:27:20Z</time></trkpt><trkpt lat="47.527946" lon="10.090768"><ele>1373.86</ele><time>2010-06-06T12:27:27Z</time></trkpt><trkpt lat="47.528082" lon="10.090709"><ele>1377.23</ele><time>2010-06-06T12:27:42Z</time></trkpt><trkpt lat="47.528087" lon="10.090706"><ele>1376.75</ele><time>2010-06-06T12:27:43Z</time></trkpt><trkpt lat="47.528143" lon="10.090625"><ele>1378.67</ele><time>2010-06-06T12:27:53Z</time></trkpt><trkpt lat="47.528159" lon="10.090552"><ele>1379.15</ele><time>2010-06-06T12:28:13Z</time></trkpt><trkpt lat="47.528166" lon="10.090398"><ele>1381.55</ele><time>2010-06-06T12:28:25Z</time></trkpt><trkpt lat="47.528160" lon="10.090230"><ele>1383.47</ele><time>2010-06-06T12:28:36Z</time></trkpt><trkpt lat="47.528159" lon="10.090189"><ele>1382.99</ele><time>2010-06-06T12:28:38Z</time></trkpt><trkpt lat="47.528164" lon="10.090012"><ele>1383.96</ele><time>2010-06-06T12:28:48Z</time></trkpt><trkpt lat="47.528069" lon="10.089657"><ele>1384.44</ele><time>2010-06-06T12:29:02Z</time></trkpt><trkpt lat="47.527994" lon="10.089263"><ele>1385.88</ele><time>2010-06-06T12:29:16Z</time></trkpt><trkpt lat="47.527961" lon="10.088811"><ele>1386.84</ele><time>2010-06-06T12:29:31Z</time></trkpt><trkpt lat="47.527986" lon="10.088305"><ele>1388.76</ele><time>2010-06-06T12:29:49Z</time></trkpt><trkpt lat="47.527938" lon="10.088005"><ele>1389.24</ele><time>2010-06-06T12:30:00Z</time></trkpt><trkpt lat="47.527927" lon="10.087751"><ele>1391.17</ele><time>2010-06-06T12:30:14Z</time></trkpt><trkpt lat="47.527917" lon="10.087629"><ele>1392.61</ele><time>2010-06-06T12:30:21Z</time></trkpt><trkpt lat="47.527894" lon="10.087353"><ele>1395.97</ele><time>2010-06-06T12:30:36Z</time></trkpt><trkpt lat="47.527895" lon="10.087250"><ele>1396.45</ele><time>2010-06-06T12:30:42Z</time></trkpt><trkpt lat="47.527889" lon="10.087163"><ele>1397.89</ele><time>2010-06-06T12:30:47Z</time></trkpt><trkpt lat="47.527896" lon="10.086903"><ele>1400.78</ele><time>2010-06-06T12:31:03Z</time></trkpt><trkpt lat="47.527882" lon="10.086750"><ele>1402.70</ele><time>2010-06-06T12:31:12Z</time></trkpt><trkpt lat="47.527879" lon="10.086684"><ele>1404.14</ele><time>2010-06-06T12:31:16Z</time></trkpt><trkpt lat="47.527880" lon="10.086471"><ele>1405.58</ele><time>2010-06-06T12:31:29Z</time></trkpt><trkpt lat="47.527898" lon="10.086379"><ele>1406.55</ele><time>2010-06-06T12:31:35Z</time></trkpt><trkpt lat="47.527904" lon="10.086228"><ele>1407.99</ele><time>2010-06-06T12:31:45Z</time></trkpt><trkpt lat="47.527885" lon="10.086012"><ele>1409.91</ele><time>2010-06-06T12:31:59Z</time></trkpt><trkpt lat="47.527889" lon="10.085841"><ele>1411.35</ele><time>2010-06-06T12:32:09Z</time></trkpt><trkpt lat="47.527886" lon="10.085629"><ele>1414.24</ele><time>2010-06-06T12:32:21Z</time></trkpt><trkpt lat="47.527873" lon="10.085485"><ele>1416.16</ele><time>2010-06-06T12:32:30Z</time></trkpt><trkpt lat="47.527861" lon="10.085379"><ele>1418.08</ele><time>2010-06-06T12:32:37Z</time></trkpt><trkpt lat="47.527862" lon="10.085348"><ele>1417.60</ele><time>2010-06-06T12:32:39Z</time></trkpt><trkpt lat="47.527862" lon="10.085303"><ele>1419.04</ele><time>2010-06-06T12:32:42Z</time></trkpt><trkpt lat="47.527861" lon="10.085086"><ele>1420.97</ele><time>2010-06-06T12:32:56Z</time></trkpt><trkpt lat="47.527821" lon="10.084795"><ele>1421.45</ele><time>2010-06-06T12:33:11Z</time></trkpt><trkpt lat="47.527798" lon="10.084720"><ele>1421.45</ele><time>2010-06-06T12:33:23Z</time></trkpt><trkpt lat="47.527805" lon="10.084726"><ele>1423.37</ele><time>2010-06-06T12:41:27Z</time></trkpt><trkpt lat="47.527814" lon="10.084696"><ele>1423.37</ele><time>2010-06-06T12:41:46Z</time></trkpt><trkpt lat="47.527814" lon="10.084694"><ele>1423.37</ele><time>2010-06-06T12:41:54Z</time></trkpt><trkpt lat="47.527782" lon="10.084384"><ele>1415.68</ele><time>2010-06-06T12:42:03Z</time></trkpt><trkpt lat="47.527775" lon="10.084325"><ele>1419.04</ele><time>2010-06-06T12:42:04Z</time></trkpt><trkpt lat="47.527728" lon="10.084118"><ele>1416.64</ele><time>2010-06-06T12:42:07Z</time></trkpt><trkpt lat="47.527645" lon="10.083920"><ele>1414.72</ele><time>2010-06-06T12:42:10Z</time></trkpt><trkpt lat="47.527607" lon="10.083798"><ele>1413.28</ele><time>2010-06-06T12:42:12Z</time></trkpt><trkpt lat="47.527583" lon="10.083755"><ele>1412.79</ele><time>2010-06-06T12:42:13Z</time></trkpt><trkpt lat="47.527561" lon="10.083718"><ele>1412.31</ele><time>2010-06-06T12:42:14Z</time></trkpt><trkpt lat="47.527547" lon="10.083674"><ele>1411.83</ele><time>2010-06-06T12:42:15Z</time></trkpt><trkpt lat="47.527543" lon="10.083629"><ele>1411.35</ele><time>2010-06-06T12:42:16Z</time></trkpt><trkpt lat="47.527542" lon="10.083585"><ele>1410.39</ele><time>2010-06-06T12:42:17Z</time></trkpt><trkpt lat="47.527543" lon="10.083542"><ele>1410.39</ele><time>2010-06-06T12:42:18Z</time></trkpt><trkpt lat="47.527530" lon="10.083340"><ele>1410.87</ele><time>2010-06-06T12:42:24Z</time></trkpt><trkpt lat="47.527546" lon="10.083288"><ele>1409.91</ele><time>2010-06-06T12:42:32Z</time></trkpt><trkpt lat="47.527559" lon="10.083259"><ele>1409.91</ele><time>2010-06-06T12:42:33Z</time></trkpt><trkpt lat="47.527622" lon="10.083076"><ele>1406.55</ele><time>2010-06-06T12:42:37Z</time></trkpt><trkpt lat="47.527642" lon="10.083011"><ele>1406.07</ele><time>2010-06-06T12:42:39Z</time></trkpt><trkpt lat="47.527652" lon="10.082990"><ele>1405.10</ele><time>2010-06-06T12:42:40Z</time></trkpt><trkpt lat="47.527667" lon="10.082984"><ele>1404.62</ele><time>2010-06-06T12:42:41Z</time></trkpt><trkpt lat="47.527838" lon="10.083037"><ele>1405.58</ele><time>2010-06-06T12:42:53Z</time></trkpt><trkpt lat="47.527918" lon="10.083074"><ele>1404.62</ele><time>2010-06-06T12:43:06Z</time></trkpt><trkpt lat="47.527975" lon="10.083064"><ele>1403.66</ele><time>2010-06-06T12:43:12Z</time></trkpt><trkpt lat="47.527994" lon="10.083066"><ele>1403.18</ele><time>2010-06-06T12:43:13Z</time></trkpt><trkpt lat="47.528039" lon="10.083088"><ele>1401.74</ele><time>2010-06-06T12:43:16Z</time></trkpt><trkpt lat="47.528060" lon="10.083100"><ele>1401.26</ele><time>2010-06-06T12:43:17Z</time></trkpt><trkpt lat="47.528080" lon="10.083106"><ele>1401.26</ele><time>2010-06-06T12:43:18Z</time></trkpt><trkpt lat="47.528102" lon="10.083111"><ele>1400.30</ele><time>2010-06-06T12:43:19Z</time></trkpt><trkpt lat="47.528117" lon="10.083120"><ele>1399.82</ele><time>2010-06-06T12:43:20Z</time></trkpt><trkpt lat="47.528136" lon="10.083132"><ele>1399.34</ele><time>2010-06-06T12:43:21Z</time></trkpt><trkpt lat="47.528156" lon="10.083145"><ele>1398.86</ele><time>2010-06-06T12:43:22Z</time></trkpt><trkpt lat="47.528178" lon="10.083163"><ele>1398.86</ele><time>2010-06-06T12:43:23Z</time></trkpt><trkpt lat="47.528299" lon="10.083252"><ele>1395.49</ele><time>2010-06-06T12:43:27Z</time></trkpt><trkpt lat="47.528428" lon="10.083353"><ele>1392.61</ele><time>2010-06-06T12:43:31Z</time></trkpt><trkpt lat="47.528475" lon="10.083382"><ele>1390.68</ele><time>2010-06-06T12:43:33Z</time></trkpt><trkpt lat="47.528501" lon="10.083386"><ele>1390.68</ele><time>2010-06-06T12:43:34Z</time></trkpt><trkpt lat="47.528523" lon="10.083387"><ele>1390.68</ele><time>2010-06-06T12:43:35Z</time></trkpt><trkpt lat="47.528587" lon="10.083278"><ele>1388.76</ele><time>2010-06-06T12:43:41Z</time></trkpt><trkpt lat="47.528579" lon="10.083217"><ele>1387.80</ele><time>2010-06-06T12:43:43Z</time></trkpt><trkpt lat="47.528609" lon="10.083154"><ele>1385.40</ele><time>2010-06-06T12:43:49Z</time></trkpt><trkpt lat="47.528653" lon="10.083192"><ele>1383.96</ele><time>2010-06-06T12:43:52Z</time></trkpt><trkpt lat="47.528762" lon="10.083257"><ele>1380.59</ele><time>2010-06-06T12:43:56Z</time></trkpt><trkpt lat="47.528848" lon="10.083287"><ele>1377.23</ele><time>2010-06-06T12:43:59Z</time></trkpt><trkpt lat="47.528945" lon="10.083305"><ele>1374.34</ele><time>2010-06-06T12:44:03Z</time></trkpt><trkpt lat="47.528966" lon="10.083260"><ele>1372.42</ele><time>2010-06-06T12:44:07Z</time></trkpt><trkpt lat="47.529038" lon="10.083152"><ele>1369.54</ele><time>2010-06-06T12:44:14Z</time></trkpt><trkpt lat="47.529025" lon="10.083013"><ele>1366.17</ele><time>2010-06-06T12:44:20Z</time></trkpt><trkpt lat="47.529022" lon="10.082978"><ele>1365.69</ele><time>2010-06-06T12:44:21Z</time></trkpt><trkpt lat="47.528987" lon="10.082861"><ele>1363.77</ele><time>2010-06-06T12:44:24Z</time></trkpt><trkpt lat="47.528932" lon="10.082750"><ele>1362.33</ele><time>2010-06-06T12:44:35Z</time></trkpt><trkpt lat="47.528932" lon="10.082750"><ele>1361.84</ele><time>2010-06-06T12:45:07Z</time></trkpt><trkpt lat="47.528895" lon="10.082630"><ele>1359.92</ele><time>2010-06-06T12:45:13Z</time></trkpt><trkpt lat="47.528921" lon="10.082619"><ele>1358.96</ele><time>2010-06-06T12:45:16Z</time></trkpt><trkpt lat="47.528977" lon="10.082639"><ele>1357.52</ele><time>2010-06-06T12:45:20Z</time></trkpt><trkpt lat="47.528988" lon="10.082650"><ele>1357.04</ele><time>2010-06-06T12:45:21Z</time></trkpt><trkpt lat="47.529011" lon="10.082656"><ele>1355.60</ele><time>2010-06-06T12:45:42Z</time></trkpt><trkpt lat="47.529006" lon="10.082661"><ele>1355.12</ele><time>2010-06-06T12:46:14Z</time></trkpt><trkpt lat="47.529041" lon="10.082680"><ele>1354.15</ele><time>2010-06-06T12:46:17Z</time></trkpt><trkpt lat="47.529100" lon="10.082714"><ele>1352.23</ele><time>2010-06-06T12:46:20Z</time></trkpt><trkpt lat="47.529189" lon="10.082747"><ele>1350.31</ele><time>2010-06-06T12:46:23Z</time></trkpt><trkpt lat="47.529301" lon="10.082821"><ele>1347.91</ele><time>2010-06-06T12:46:27Z</time></trkpt><trkpt lat="47.529382" lon="10.082873"><ele>1345.50</ele><time>2010-06-06T12:46:30Z</time></trkpt><trkpt lat="47.529457" lon="10.082933"><ele>1343.10</ele><time>2010-06-06T12:46:33Z</time></trkpt><trkpt lat="47.529501" lon="10.082995"><ele>1341.18</ele><time>2010-06-06T12:46:36Z</time></trkpt><trkpt lat="47.529571" lon="10.083020"><ele>1339.73</ele><time>2010-06-06T12:46:38Z</time></trkpt><trkpt lat="47.529707" lon="10.083149"><ele>1337.33</ele><time>2010-06-06T12:46:44Z</time></trkpt><trkpt lat="47.529808" lon="10.083240"><ele>1335.41</ele><time>2010-06-06T12:46:48Z</time></trkpt><trkpt lat="47.529879" lon="10.083280"><ele>1333.49</ele><time>2010-06-06T12:46:51Z</time></trkpt><trkpt lat="47.529933" lon="10.083308"><ele>1332.04</ele><time>2010-06-06T12:46:53Z</time></trkpt><trkpt lat="47.529994" lon="10.083345"><ele>1330.60</ele><time>2010-06-06T12:46:56Z</time></trkpt><trkpt lat="47.530040" lon="10.083370"><ele>1329.16</ele><time>2010-06-06T12:46:59Z</time></trkpt><trkpt lat="47.530074" lon="10.083231"><ele>1325.80</ele><time>2010-06-06T12:47:07Z</time></trkpt><trkpt lat="47.530045" lon="10.083127"><ele>1323.87</ele><time>2010-06-06T12:47:15Z</time></trkpt><trkpt lat="47.530024" lon="10.083094"><ele>1321.95</ele><time>2010-06-06T12:47:18Z</time></trkpt><trkpt lat="47.530028" lon="10.083074"><ele>1320.99</ele><time>2010-06-06T12:47:21Z</time></trkpt><trkpt lat="47.530075" lon="10.083078"><ele>1318.59</ele><time>2010-06-06T12:47:26Z</time></trkpt><trkpt lat="47.530106" lon="10.083071"><ele>1317.14</ele><time>2010-06-06T12:47:48Z</time></trkpt><trkpt lat="47.530164" lon="10.083089"><ele>1313.78</ele><time>2010-06-06T12:48:03Z</time></trkpt><trkpt lat="47.530188" lon="10.083032"><ele>1311.38</ele><time>2010-06-06T12:48:11Z</time></trkpt><trkpt lat="47.530164" lon="10.082938"><ele>1308.49</ele><time>2010-06-06T12:48:19Z</time></trkpt><trkpt lat="47.530256" lon="10.082955"><ele>1306.09</ele><time>2010-06-06T12:48:30Z</time></trkpt><trkpt lat="47.530258" lon="10.082953"><ele>1305.61</ele><time>2010-06-06T12:49:21Z</time></trkpt><trkpt lat="47.530258" lon="10.082953"><ele>1303.20</ele><time>2010-06-06T12:49:31Z</time></trkpt><trkpt lat="47.530355" lon="10.082976"><ele>1302.24</ele><time>2010-06-06T12:49:44Z</time></trkpt><trkpt lat="47.530398" lon="10.082945"><ele>1301.28</ele><time>2010-06-06T12:49:55Z</time></trkpt><trkpt lat="47.530388" lon="10.082902"><ele>1299.84</ele><time>2010-06-06T12:50:11Z</time></trkpt><trkpt lat="47.530386" lon="10.082903"><ele>1300.32</ele><time>2010-06-06T12:50:52Z</time></trkpt><trkpt lat="47.530224" lon="10.082677"><ele>1296.48</ele><time>2010-06-06T12:51:01Z</time></trkpt><trkpt lat="47.530068" lon="10.082516"><ele>1293.59</ele><time>2010-06-06T12:51:08Z</time></trkpt><trkpt lat="47.529965" lon="10.082379"><ele>1289.75</ele><time>2010-06-06T12:51:14Z</time></trkpt><trkpt lat="47.529934" lon="10.082333"><ele>1289.75</ele><time>2010-06-06T12:51:15Z</time></trkpt><trkpt lat="47.529893" lon="10.082286"><ele>1289.27</ele><time>2010-06-06T12:51:16Z</time></trkpt><trkpt lat="47.529853" lon="10.082237"><ele>1288.78</ele><time>2010-06-06T12:51:17Z</time></trkpt><trkpt lat="47.529811" lon="10.082179"><ele>1288.30</ele><time>2010-06-06T12:51:18Z</time></trkpt><trkpt lat="47.529770" lon="10.082117"><ele>1287.82</ele><time>2010-06-06T12:51:19Z</time></trkpt><trkpt lat="47.529698" lon="10.082013"><ele>1285.90</ele><time>2010-06-06T12:51:21Z</time></trkpt><trkpt lat="47.529539" lon="10.081828"><ele>1282.54</ele><time>2010-06-06T12:51:27Z</time></trkpt><trkpt lat="47.529521" lon="10.081824"><ele>1282.06</ele><time>2010-06-06T12:51:28Z</time></trkpt><trkpt lat="47.529492" lon="10.081795"><ele>1280.61</ele><time>2010-06-06T12:51:32Z</time></trkpt><trkpt lat="47.529485" lon="10.081751"><ele>1279.17</ele><time>2010-06-06T12:51:33Z</time></trkpt><trkpt lat="47.529472" lon="10.081720"><ele>1279.17</ele><time>2010-06-06T12:51:34Z</time></trkpt><trkpt lat="47.529455" lon="10.081712"><ele>1279.65</ele><time>2010-06-06T12:51:35Z</time></trkpt><trkpt lat="47.529436" lon="10.081703"><ele>1279.17</ele><time>2010-06-06T12:51:36Z</time></trkpt><trkpt lat="47.529418" lon="10.081693"><ele>1279.17</ele><time>2010-06-06T12:51:37Z</time></trkpt><trkpt lat="47.529400" lon="10.081679"><ele>1279.17</ele><time>2010-06-06T12:51:38Z</time></trkpt><trkpt lat="47.529325" lon="10.081614"><ele>1278.69</ele><time>2010-06-06T12:51:42Z</time></trkpt><trkpt lat="47.529310" lon="10.081591"><ele>1278.69</ele><time>2010-06-06T12:51:43Z</time></trkpt><trkpt lat="47.529270" lon="10.081602"><ele>1278.21</ele><time>2010-06-06T12:51:53Z</time></trkpt><trkpt lat="47.529197" lon="10.081538"><ele>1277.25</ele><time>2010-06-06T12:52:10Z</time></trkpt><trkpt lat="47.529184" lon="10.081449"><ele>1277.25</ele><time>2010-06-06T12:52:12Z</time></trkpt><trkpt lat="47.529174" lon="10.081414"><ele>1276.77</ele><time>2010-06-06T12:52:13Z</time></trkpt><trkpt lat="47.529102" lon="10.081144"><ele>1273.88</ele><time>2010-06-06T12:52:19Z</time></trkpt><trkpt lat="47.529075" lon="10.081104"><ele>1273.88</ele><time>2010-06-06T12:52:20Z</time></trkpt><trkpt lat="47.529060" lon="10.081036"><ele>1273.40</ele><time>2010-06-06T12:52:21Z</time></trkpt><trkpt lat="47.528991" lon="10.080710"><ele>1271.00</ele><time>2010-06-06T12:52:26Z</time></trkpt><trkpt lat="47.528846" lon="10.080200"><ele>1268.60</ele><time>2010-06-06T12:52:35Z</time></trkpt><trkpt lat="47.528799" lon="10.080048"><ele>1267.64</ele><time>2010-06-06T12:52:39Z</time></trkpt><trkpt lat="47.528806" lon="10.080029"><ele>1266.19</ele><time>2010-06-06T12:52:41Z</time></trkpt><trkpt lat="47.528821" lon="10.080056"><ele>1264.75</ele><time>2010-06-06T12:52:45Z</time></trkpt><trkpt lat="47.528821" lon="10.080046"><ele>1264.27</ele><time>2010-06-06T12:53:01Z</time></trkpt><trkpt lat="47.528821" lon="10.080046"><ele>1264.75</ele><time>2010-06-06T12:53:04Z</time></trkpt><trkpt lat="47.528902" lon="10.079997"><ele>1262.35</ele><time>2010-06-06T12:53:15Z</time></trkpt><trkpt lat="47.528997" lon="10.079991"><ele>1259.94</ele><time>2010-06-06T12:53:23Z</time></trkpt><trkpt lat="47.529062" lon="10.080016"><ele>1257.54</ele><time>2010-06-06T12:53:27Z</time></trkpt><trkpt lat="47.529068" lon="10.080041"><ele>1257.54</ele><time>2010-06-06T12:53:28Z</time></trkpt><trkpt lat="47.529068" lon="10.080068"><ele>1256.58</ele><time>2010-06-06T12:53:29Z</time></trkpt><trkpt lat="47.529068" lon="10.080095"><ele>1257.06</ele><time>2010-06-06T12:53:30Z</time></trkpt><trkpt lat="47.529072" lon="10.080122"><ele>1256.58</ele><time>2010-06-06T12:53:31Z</time></trkpt><trkpt lat="47.529077" lon="10.080148"><ele>1256.58</ele><time>2010-06-06T12:53:32Z</time></trkpt><trkpt lat="47.529204" lon="10.080303"><ele>1254.18</ele><time>2010-06-06T12:53:37Z</time></trkpt><trkpt lat="47.529369" lon="10.080516"><ele>1251.29</ele><time>2010-06-06T12:53:44Z</time></trkpt><trkpt lat="47.529508" lon="10.080743"><ele>1250.33</ele><time>2010-06-06T12:53:51Z</time></trkpt><trkpt lat="47.529591" lon="10.080798"><ele>1248.89</ele><time>2010-06-06T12:53:54Z</time></trkpt><trkpt lat="47.529790" lon="10.081037"><ele>1246.01</ele><time>2010-06-06T12:54:02Z</time></trkpt><trkpt lat="47.530009" lon="10.081332"><ele>1245.53</ele><time>2010-06-06T12:54:11Z</time></trkpt><trkpt lat="47.530200" lon="10.081569"><ele>1246.01</ele><time>2010-06-06T12:54:22Z</time></trkpt><trkpt lat="47.530235" lon="10.081612"><ele>1245.04</ele><time>2010-06-06T12:54:24Z</time></trkpt><trkpt lat="47.530258" lon="10.081629"><ele>1245.53</ele><time>2010-06-06T12:54:25Z</time></trkpt><trkpt lat="47.530282" lon="10.081640"><ele>1245.04</ele><time>2010-06-06T12:54:26Z</time></trkpt><trkpt lat="47.530301" lon="10.081647"><ele>1244.56</ele><time>2010-06-06T12:54:27Z</time></trkpt><trkpt lat="47.530321" lon="10.081662"><ele>1244.56</ele><time>2010-06-06T12:54:28Z</time></trkpt><trkpt lat="47.530346" lon="10.081670"><ele>1244.08</ele><time>2010-06-06T12:54:29Z</time></trkpt><trkpt lat="47.530365" lon="10.081677"><ele>1244.08</ele><time>2010-06-06T12:54:30Z</time></trkpt><trkpt lat="47.530386" lon="10.081687"><ele>1244.56</ele><time>2010-06-06T12:54:31Z</time></trkpt><trkpt lat="47.530410" lon="10.081695"><ele>1244.56</ele><time>2010-06-06T12:54:32Z</time></trkpt><trkpt lat="47.530433" lon="10.081704"><ele>1244.08</ele><time>2010-06-06T12:54:33Z</time></trkpt><trkpt lat="47.530483" lon="10.081736"><ele>1244.08</ele><time>2010-06-06T12:54:36Z</time></trkpt><trkpt lat="47.530504" lon="10.081756"><ele>1244.08</ele><time>2010-06-06T12:54:37Z</time></trkpt><trkpt lat="47.530528" lon="10.081775"><ele>1244.08</ele><time>2010-06-06T12:54:38Z</time></trkpt><trkpt lat="47.530722" lon="10.081884"><ele>1242.16</ele><time>2010-06-06T12:54:49Z</time></trkpt><trkpt lat="47.530745" lon="10.081902"><ele>1242.16</ele><time>2010-06-06T12:54:50Z</time></trkpt><trkpt lat="47.530764" lon="10.081922"><ele>1242.16</ele><time>2010-06-06T12:54:51Z</time></trkpt><trkpt lat="47.530789" lon="10.081944"><ele>1242.16</ele><time>2010-06-06T12:54:52Z</time></trkpt><trkpt lat="47.530816" lon="10.081963"><ele>1241.68</ele><time>2010-06-06T12:54:53Z</time></trkpt><trkpt lat="47.530848" lon="10.081975"><ele>1241.20</ele><time>2010-06-06T12:54:54Z</time></trkpt><trkpt lat="47.530884" lon="10.081981"><ele>1240.72</ele><time>2010-06-06T12:54:55Z</time></trkpt><trkpt lat="47.530926" lon="10.081991"><ele>1239.76</ele><time>2010-06-06T12:54:56Z</time></trkpt><trkpt lat="47.531184" lon="10.082110"><ele>1236.39</ele><time>2010-06-06T12:55:02Z</time></trkpt><trkpt lat="47.531336" lon="10.082284"><ele>1233.51</ele><time>2010-06-06T12:55:07Z</time></trkpt><trkpt lat="47.531581" lon="10.082504"><ele>1229.66</ele><time>2010-06-06T12:55:13Z</time></trkpt><trkpt lat="47.531649" lon="10.082537"><ele>1228.70</ele><time>2010-06-06T12:55:14Z</time></trkpt><trkpt lat="47.531709" lon="10.082554"><ele>1228.70</ele><time>2010-06-06T12:55:15Z</time></trkpt><trkpt lat="47.531758" lon="10.082567"><ele>1227.74</ele><time>2010-06-06T12:55:16Z</time></trkpt><trkpt lat="47.531794" lon="10.082565"><ele>1228.22</ele><time>2010-06-06T12:55:17Z</time></trkpt><trkpt lat="47.531822" lon="10.082557"><ele>1227.74</ele><time>2010-06-06T12:55:18Z</time></trkpt><trkpt lat="47.531850" lon="10.082559"><ele>1227.26</ele><time>2010-06-06T12:55:19Z</time></trkpt><trkpt lat="47.531870" lon="10.082575"><ele>1227.26</ele><time>2010-06-06T12:55:20Z</time></trkpt><trkpt lat="47.531887" lon="10.082592"><ele>1226.78</ele><time>2010-06-06T12:55:21Z</time></trkpt><trkpt lat="47.531909" lon="10.082610"><ele>1226.30</ele><time>2010-06-06T12:55:22Z</time></trkpt><trkpt lat="47.531934" lon="10.082642"><ele>1226.78</ele><time>2010-06-06T12:55:23Z</time></trkpt><trkpt lat="47.531950" lon="10.082669"><ele>1227.26</ele><time>2010-06-06T12:55:24Z</time></trkpt><trkpt lat="47.531965" lon="10.082698"><ele>1227.26</ele><time>2010-06-06T12:55:25Z</time></trkpt><trkpt lat="47.531975" lon="10.082721"><ele>1226.78</ele><time>2010-06-06T12:55:26Z</time></trkpt><trkpt lat="47.531981" lon="10.082744"><ele>1226.78</ele><time>2010-06-06T12:55:27Z</time></trkpt><trkpt lat="47.532028" lon="10.082833"><ele>1226.78</ele><time>2010-06-06T12:55:31Z</time></trkpt><trkpt lat="47.532143" lon="10.083045"><ele>1223.42</ele><time>2010-06-06T12:55:38Z</time></trkpt><trkpt lat="47.532186" lon="10.083222"><ele>1220.05</ele><time>2010-06-06T12:55:43Z</time></trkpt><trkpt lat="47.532248" lon="10.083378"><ele>1217.17</ele><time>2010-06-06T12:55:47Z</time></trkpt><trkpt lat="47.532323" lon="10.083476"><ele>1215.24</ele><time>2010-06-06T12:55:50Z</time></trkpt><trkpt lat="47.532327" lon="10.083515"><ele>1213.80</ele><time>2010-06-06T12:55:51Z</time></trkpt><trkpt lat="47.532334" lon="10.083557"><ele>1213.80</ele><time>2010-06-06T12:55:52Z</time></trkpt><trkpt lat="47.532339" lon="10.083596"><ele>1213.32</ele><time>2010-06-06T12:55:53Z</time></trkpt><trkpt lat="47.532344" lon="10.083631"><ele>1212.84</ele><time>2010-06-06T12:55:54Z</time></trkpt><trkpt lat="47.532348" lon="10.083659"><ele>1212.36</ele><time>2010-06-06T12:55:55Z</time></trkpt><trkpt lat="47.532348" lon="10.083680"><ele>1211.40</ele><time>2010-06-06T12:55:56Z</time></trkpt><trkpt lat="47.532349" lon="10.083709"><ele>1210.92</ele><time>2010-06-06T12:55:57Z</time></trkpt><trkpt lat="47.532351" lon="10.083749"><ele>1210.44</ele><time>2010-06-06T12:55:58Z</time></trkpt><trkpt lat="47.532383" lon="10.083910"><ele>1207.07</ele><time>2010-06-06T12:56:03Z</time></trkpt><trkpt lat="47.532391" lon="10.083942"><ele>1206.59</ele><time>2010-06-06T12:56:04Z</time></trkpt><trkpt lat="47.532403" lon="10.083981"><ele>1205.63</ele><time>2010-06-06T12:56:06Z</time></trkpt><trkpt lat="47.532414" lon="10.084029"><ele>1205.15</ele><time>2010-06-06T12:56:24Z</time></trkpt><trkpt lat="47.532431" lon="10.084146"><ele>1204.19</ele><time>2010-06-06T12:56:28Z</time></trkpt><trkpt lat="47.532440" lon="10.084172"><ele>1203.71</ele><time>2010-06-06T12:56:29Z</time></trkpt><trkpt lat="47.532453" lon="10.084199"><ele>1203.23</ele><time>2010-06-06T12:56:30Z</time></trkpt><trkpt lat="47.532464" lon="10.084233"><ele>1202.75</ele><time>2010-06-06T12:56:31Z</time></trkpt><trkpt lat="47.532480" lon="10.084274"><ele>1202.27</ele><time>2010-06-06T12:56:32Z</time></trkpt><trkpt lat="47.532551" lon="10.084517"><ele>1198.90</ele><time>2010-06-06T12:56:37Z</time></trkpt><trkpt lat="47.532589" lon="10.084666"><ele>1197.46</ele><time>2010-06-06T12:56:40Z</time></trkpt><trkpt lat="47.532586" lon="10.084695"><ele>1196.98</ele><time>2010-06-06T12:56:41Z</time></trkpt><trkpt lat="47.532622" lon="10.084825"><ele>1196.02</ele><time>2010-06-06T12:56:50Z</time></trkpt><trkpt lat="47.532631" lon="10.084851"><ele>1196.02</ele><time>2010-06-06T12:56:51Z</time></trkpt><trkpt lat="47.532642" lon="10.084880"><ele>1195.54</ele><time>2010-06-06T12:56:52Z</time></trkpt><trkpt lat="47.532655" lon="10.084908"><ele>1195.54</ele><time>2010-06-06T12:56:53Z</time></trkpt><trkpt lat="47.532671" lon="10.084938"><ele>1195.06</ele><time>2010-06-06T12:56:54Z</time></trkpt><trkpt lat="47.532687" lon="10.084965"><ele>1194.09</ele><time>2010-06-06T12:56:55Z</time></trkpt><trkpt lat="47.532701" lon="10.084991"><ele>1194.58</ele><time>2010-06-06T12:56:56Z</time></trkpt><trkpt lat="47.532715" lon="10.085015"><ele>1194.09</ele><time>2010-06-06T12:56:57Z</time></trkpt><trkpt lat="47.532751" lon="10.085084"><ele>1193.61</ele><time>2010-06-06T12:57:10Z</time></trkpt><trkpt lat="47.532751" lon="10.085084"><ele>1190.25</ele><time>2010-06-06T12:57:14Z</time></trkpt><trkpt lat="47.532751" lon="10.085084"><ele>1192.17</ele><time>2010-06-06T12:57:15Z</time></trkpt><trkpt lat="47.532751" lon="10.085084"><ele>1189.29</ele><time>2010-06-06T12:57:25Z</time></trkpt><trkpt lat="47.532751" lon="10.085084"><ele>1194.09</ele><time>2010-06-06T12:57:28Z</time></trkpt><trkpt lat="47.532751" lon="10.085084"><ele>1187.85</ele><time>2010-06-06T12:57:29Z</time></trkpt><trkpt lat="47.532751" lon="10.085084"><ele>1191.21</ele><time>2010-06-06T12:57:31Z</time></trkpt><trkpt lat="47.532751" lon="10.085084"><ele>1187.85</ele><time>2010-06-06T12:57:37Z</time></trkpt><trkpt lat="47.532751" lon="10.085084"><ele>1191.21</ele><time>2010-06-06T12:57:38Z</time></trkpt><trkpt lat="47.532870" lon="10.085349"><ele>1189.29</ele><time>2010-06-06T12:57:50Z</time></trkpt><trkpt lat="47.532962" lon="10.085609"><ele>1186.40</ele><time>2010-06-06T12:57:55Z</time></trkpt><trkpt lat="47.533010" lon="10.085709"><ele>1188.81</ele><time>2010-06-06T12:57:57Z</time></trkpt><trkpt lat="47.533031" lon="10.085728"><ele>1188.81</ele><time>2010-06-06T12:57:58Z</time></trkpt><trkpt lat="47.533193" lon="10.085877"><ele>1184.96</ele><time>2010-06-06T12:58:06Z</time></trkpt><trkpt lat="47.533306" lon="10.085969"><ele>1181.60</ele><time>2010-06-06T12:58:10Z</time></trkpt><trkpt lat="47.533360" lon="10.086016"><ele>1180.64</ele><time>2010-06-06T12:58:12Z</time></trkpt><trkpt lat="47.533456" lon="10.086086"><ele>1176.79</ele><time>2010-06-06T12:58:15Z</time></trkpt><trkpt lat="47.533578" lon="10.086184"><ele>1173.43</ele><time>2010-06-06T12:58:19Z</time></trkpt><trkpt lat="47.533691" lon="10.086259"><ele>1170.06</ele><time>2010-06-06T12:58:23Z</time></trkpt><trkpt lat="47.533809" lon="10.086360"><ele>1166.22</ele><time>2010-06-06T12:58:28Z</time></trkpt><trkpt lat="47.533839" lon="10.086372"><ele>1166.22</ele><time>2010-06-06T12:58:29Z</time></trkpt><trkpt lat="47.533955" lon="10.086388"><ele>1163.33</ele><time>2010-06-06T12:58:33Z</time></trkpt><trkpt lat="47.533980" lon="10.086413"><ele>1161.89</ele><time>2010-06-06T12:58:34Z</time></trkpt><trkpt lat="47.534003" lon="10.086444"><ele>1161.41</ele><time>2010-06-06T12:58:35Z</time></trkpt><trkpt lat="47.534109" lon="10.086520"><ele>1159.49</ele><time>2010-06-06T12:58:39Z</time></trkpt><trkpt lat="47.534207" lon="10.086465"><ele>1157.56</ele><time>2010-06-06T12:58:42Z</time></trkpt><trkpt lat="47.534224" lon="10.086417"><ele>1156.60</ele><time>2010-06-06T12:58:43Z</time></trkpt><trkpt lat="47.534234" lon="10.086355"><ele>1156.12</ele><time>2010-06-06T12:58:44Z</time></trkpt><trkpt lat="47.534239" lon="10.086291"><ele>1156.12</ele><time>2010-06-06T12:58:45Z</time></trkpt><trkpt lat="47.534240" lon="10.086231"><ele>1155.64</ele><time>2010-06-06T12:58:46Z</time></trkpt><trkpt lat="47.534237" lon="10.086176"><ele>1155.16</ele><time>2010-06-06T12:58:47Z</time></trkpt><trkpt lat="47.534239" lon="10.085952"><ele>1152.28</ele><time>2010-06-06T12:58:52Z</time></trkpt><trkpt lat="47.534256" lon="10.085931"><ele>1151.32</ele><time>2010-06-06T12:58:53Z</time></trkpt><trkpt lat="47.534281" lon="10.085921"><ele>1151.32</ele><time>2010-06-06T12:58:54Z</time></trkpt><trkpt lat="47.534311" lon="10.085921"><ele>1150.35</ele><time>2010-06-06T12:58:55Z</time></trkpt><trkpt lat="47.534341" lon="10.085935"><ele>1149.87</ele><time>2010-06-06T12:58:56Z</time></trkpt><trkpt lat="47.534373" lon="10.085963"><ele>1148.91</ele><time>2010-06-06T12:58:57Z</time></trkpt><trkpt lat="47.534409" lon="10.085994"><ele>1147.95</ele><time>2010-06-06T12:58:58Z</time></trkpt><trkpt lat="47.534534" lon="10.086100"><ele>1144.59</ele><time>2010-06-06T12:59:01Z</time></trkpt><trkpt lat="47.534733" lon="10.086230"><ele>1141.22</ele><time>2010-06-06T12:59:05Z</time></trkpt><trkpt lat="47.534828" lon="10.086282"><ele>1139.78</ele><time>2010-06-06T12:59:07Z</time></trkpt><trkpt lat="47.534876" lon="10.086300"><ele>1139.30</ele><time>2010-06-06T12:59:08Z</time></trkpt><trkpt lat="47.534925" lon="10.086305"><ele>1138.34</ele><time>2010-06-06T12:59:09Z</time></trkpt><trkpt lat="47.534974" lon="10.086294"><ele>1138.34</ele><time>2010-06-06T12:59:10Z</time></trkpt><trkpt lat="47.535022" lon="10.086270"><ele>1137.86</ele><time>2010-06-06T12:59:11Z</time></trkpt><trkpt lat="47.535066" lon="10.086236"><ele>1136.90</ele><time>2010-06-06T12:59:12Z</time></trkpt><trkpt lat="47.535107" lon="10.086192"><ele>1136.42</ele><time>2010-06-06T12:59:13Z</time></trkpt><trkpt lat="47.535142" lon="10.086138"><ele>1135.45</ele><time>2010-06-06T12:59:14Z</time></trkpt><trkpt lat="47.535169" lon="10.086080"><ele>1135.45</ele><time>2010-06-06T12:59:15Z</time></trkpt><trkpt lat="47.535190" lon="10.086023"><ele>1134.97</ele><time>2010-06-06T12:59:16Z</time></trkpt><trkpt lat="47.535204" lon="10.085966"><ele>1134.49</ele><time>2010-06-06T12:59:17Z</time></trkpt><trkpt lat="47.535211" lon="10.085911"><ele>1134.01</ele><time>2010-06-06T12:59:18Z</time></trkpt><trkpt lat="47.535189" lon="10.085710"><ele>1131.13</ele><time>2010-06-06T12:59:23Z</time></trkpt><trkpt lat="47.535119" lon="10.085460"><ele>1127.28</ele><time>2010-06-06T12:59:35Z</time></trkpt><trkpt lat="47.535059" lon="10.085293"><ele>1124.40</ele><time>2010-06-06T12:59:39Z</time></trkpt><trkpt lat="47.534940" lon="10.085032"><ele>1121.52</ele><time>2010-06-06T12:59:44Z</time></trkpt><trkpt lat="47.534848" lon="10.084825"><ele>1118.15</ele><time>2010-06-06T12:59:47Z</time></trkpt><trkpt lat="47.534713" lon="10.084484"><ele>1114.79</ele><time>2010-06-06T12:59:51Z</time></trkpt><trkpt lat="47.534656" lon="10.084344"><ele>1115.75</ele><time>2010-06-06T12:59:53Z</time></trkpt><trkpt lat="47.534639" lon="10.084286"><ele>1114.31</ele><time>2010-06-06T12:59:54Z</time></trkpt><trkpt lat="47.534619" lon="10.084238"><ele>1114.31</ele><time>2010-06-06T12:59:55Z</time></trkpt><trkpt lat="47.534561" lon="10.084116"><ele>1113.34</ele><time>2010-06-06T12:59:59Z</time></trkpt><trkpt lat="47.534550" lon="10.084114"><ele>1113.34</ele><time>2010-06-06T13:00:21Z</time></trkpt><trkpt lat="47.534558" lon="10.084106"><ele>1112.86</ele><time>2010-06-06T13:00:38Z</time></trkpt><trkpt lat="47.534573" lon="10.084104"><ele>1113.34</ele><time>2010-06-06T13:00:39Z</time></trkpt><trkpt lat="47.534825" lon="10.084120"><ele>1110.94</ele><time>2010-06-06T13:00:46Z</time></trkpt><trkpt lat="47.534872" lon="10.084133"><ele>1109.50</ele><time>2010-06-06T13:00:47Z</time></trkpt><trkpt lat="47.534920" lon="10.084153"><ele>1109.02</ele><time>2010-06-06T13:00:48Z</time></trkpt><trkpt lat="47.534968" lon="10.084179"><ele>1108.54</ele><time>2010-06-06T13:00:49Z</time></trkpt><trkpt lat="47.535022" lon="10.084213"><ele>1107.58</ele><time>2010-06-06T13:00:50Z</time></trkpt><trkpt lat="47.535076" lon="10.084249"><ele>1107.58</ele><time>2010-06-06T13:00:51Z</time></trkpt><trkpt lat="47.535131" lon="10.084281"><ele>1107.10</ele><time>2010-06-06T13:00:52Z</time></trkpt><trkpt lat="47.535189" lon="10.084308"><ele>1106.61</ele><time>2010-06-06T13:00:53Z</time></trkpt><trkpt lat="47.535249" lon="10.084327"><ele>1106.13</ele><time>2010-06-06T13:00:54Z</time></trkpt><trkpt lat="47.535310" lon="10.084341"><ele>1105.17</ele><time>2010-06-06T13:00:55Z</time></trkpt><trkpt lat="47.535563" lon="10.084428"><ele>1101.81</ele><time>2010-06-06T13:00:59Z</time></trkpt><trkpt lat="47.535627" lon="10.084446"><ele>1101.81</ele><time>2010-06-06T13:01:00Z</time></trkpt><trkpt lat="47.535907" lon="10.084489"><ele>1098.44</ele><time>2010-06-06T13:01:05Z</time></trkpt><trkpt lat="47.535998" lon="10.084516"><ele>1097.48</ele><time>2010-06-06T13:01:07Z</time></trkpt><trkpt lat="47.536130" lon="10.084582"><ele>1096.04</ele><time>2010-06-06T13:01:10Z</time></trkpt><trkpt lat="47.536175" lon="10.084613"><ele>1095.56</ele><time>2010-06-06T13:01:11Z</time></trkpt><trkpt lat="47.536382" lon="10.084764"><ele>1093.64</ele><time>2010-06-06T13:01:15Z</time></trkpt><trkpt lat="47.536435" lon="10.084814"><ele>1092.68</ele><time>2010-06-06T13:01:16Z</time></trkpt><trkpt lat="47.536486" lon="10.084877"><ele>1092.20</ele><time>2010-06-06T13:01:17Z</time></trkpt><trkpt lat="47.536539" lon="10.084943"><ele>1091.23</ele><time>2010-06-06T13:01:18Z</time></trkpt><trkpt lat="47.536659" lon="10.085061"><ele>1089.79</ele><time>2010-06-06T13:01:20Z</time></trkpt><trkpt lat="47.536727" lon="10.085108"><ele>1089.31</ele><time>2010-06-06T13:01:21Z</time></trkpt><trkpt lat="47.536796" lon="10.085149"><ele>1088.35</ele><time>2010-06-06T13:01:22Z</time></trkpt><trkpt lat="47.536864" lon="10.085190"><ele>1087.39</ele><time>2010-06-06T13:01:23Z</time></trkpt><trkpt lat="47.536930" lon="10.085237"><ele>1086.43</ele><time>2010-06-06T13:01:24Z</time></trkpt><trkpt lat="47.536993" lon="10.085290"><ele>1086.91</ele><time>2010-06-06T13:01:25Z</time></trkpt><trkpt lat="47.537275" lon="10.085563"><ele>1082.58</ele><time>2010-06-06T13:01:30Z</time></trkpt><trkpt lat="47.537514" lon="10.085816"><ele>1078.74</ele><time>2010-06-06T13:01:35Z</time></trkpt><trkpt lat="47.537549" lon="10.085876"><ele>1077.78</ele><time>2010-06-06T13:01:36Z</time></trkpt><trkpt lat="47.537578" lon="10.085944"><ele>1076.33</ele><time>2010-06-06T13:01:37Z</time></trkpt><trkpt lat="47.537602" lon="10.086019"><ele>1076.33</ele><time>2010-06-06T13:01:38Z</time></trkpt><trkpt lat="47.537620" lon="10.086093"><ele>1075.37</ele><time>2010-06-06T13:01:39Z</time></trkpt><trkpt lat="47.537630" lon="10.086165"><ele>1074.41</ele><time>2010-06-06T13:01:40Z</time></trkpt><trkpt lat="47.537630" lon="10.086234"><ele>1073.93</ele><time>2010-06-06T13:01:41Z</time></trkpt><trkpt lat="47.537623" lon="10.086302"><ele>1073.93</ele><time>2010-06-06T13:01:42Z</time></trkpt><trkpt lat="47.537607" lon="10.086372"><ele>1073.93</ele><time>2010-06-06T13:01:43Z</time></trkpt><trkpt lat="47.537586" lon="10.086444"><ele>1073.45</ele><time>2010-06-06T13:01:44Z</time></trkpt><trkpt lat="47.537561" lon="10.086516"><ele>1073.45</ele><time>2010-06-06T13:01:45Z</time></trkpt><trkpt lat="47.537394" lon="10.087023"><ele>1070.08</ele><time>2010-06-06T13:01:54Z</time></trkpt><trkpt lat="47.537409" lon="10.087055"><ele>1069.60</ele><time>2010-06-06T13:01:55Z</time></trkpt><trkpt lat="47.537432" lon="10.087076"><ele>1069.60</ele><time>2010-06-06T13:01:56Z</time></trkpt><trkpt lat="47.537455" lon="10.087089"><ele>1069.12</ele><time>2010-06-06T13:01:57Z</time></trkpt><trkpt lat="47.537476" lon="10.087093"><ele>1069.12</ele><time>2010-06-06T13:01:58Z</time></trkpt><trkpt lat="47.537494" lon="10.087085"><ele>1069.12</ele><time>2010-06-06T13:01:59Z</time></trkpt><trkpt lat="47.537504" lon="10.087079"><ele>1068.64</ele><time>2010-06-06T13:02:12Z</time></trkpt><trkpt lat="47.537640" lon="10.086934"><ele>1067.68</ele><time>2010-06-06T13:02:31Z</time></trkpt><trkpt lat="47.537781" lon="10.086762"><ele>1067.20</ele><time>2010-06-06T13:02:34Z</time></trkpt><trkpt lat="47.537829" lon="10.086674"><ele>1066.24</ele><time>2010-06-06T13:02:35Z</time></trkpt><trkpt lat="47.537980" lon="10.086335"><ele>1062.87</ele><time>2010-06-06T13:02:38Z</time></trkpt><trkpt lat="47.538041" lon="10.086224"><ele>1061.91</ele><time>2010-06-06T13:02:39Z</time></trkpt><trkpt lat="47.538103" lon="10.086131"><ele>1059.99</ele><time>2010-06-06T13:02:40Z</time></trkpt><trkpt lat="47.538167" lon="10.086060"><ele>1059.03</ele><time>2010-06-06T13:02:41Z</time></trkpt><trkpt lat="47.538236" lon="10.086020"><ele>1058.55</ele><time>2010-06-06T13:02:42Z</time></trkpt><trkpt lat="47.538308" lon="10.086021"><ele>1058.07</ele><time>2010-06-06T13:02:43Z</time></trkpt><trkpt lat="47.538376" lon="10.086055"><ele>1056.63</ele><time>2010-06-06T13:02:44Z</time></trkpt><trkpt lat="47.538444" lon="10.086109"><ele>1056.15</ele><time>2010-06-06T13:02:45Z</time></trkpt><trkpt lat="47.538514" lon="10.086167"><ele>1055.18</ele><time>2010-06-06T13:02:46Z</time></trkpt><trkpt lat="47.538746" lon="10.086366"><ele>1052.78</ele><time>2010-06-06T13:02:49Z</time></trkpt><trkpt lat="47.538916" lon="10.086512"><ele>1049.42</ele><time>2010-06-06T13:02:51Z</time></trkpt><trkpt lat="47.538996" lon="10.086604"><ele>1048.45</ele><time>2010-06-06T13:02:52Z</time></trkpt><trkpt lat="47.539068" lon="10.086708"><ele>1047.49</ele><time>2010-06-06T13:02:53Z</time></trkpt><trkpt lat="47.539185" lon="10.086884"><ele>1045.57</ele><time>2010-06-06T13:02:55Z</time></trkpt><trkpt lat="47.539244" lon="10.086934"><ele>1045.09</ele><time>2010-06-06T13:02:56Z</time></trkpt><trkpt lat="47.539308" lon="10.086958"><ele>1044.61</ele><time>2010-06-06T13:02:57Z</time></trkpt><trkpt lat="47.539367" lon="10.086955"><ele>1044.13</ele><time>2010-06-06T13:02:58Z</time></trkpt><trkpt lat="47.539420" lon="10.086932"><ele>1043.65</ele><time>2010-06-06T13:02:59Z</time></trkpt><trkpt lat="47.539466" lon="10.086898"><ele>1043.17</ele><time>2010-06-06T13:03:00Z</time></trkpt><trkpt lat="47.539506" lon="10.086853"><ele>1042.21</ele><time>2010-06-06T13:03:01Z</time></trkpt><trkpt lat="47.539545" lon="10.086789"><ele>1042.21</ele><time>2010-06-06T13:03:02Z</time></trkpt><trkpt lat="47.539587" lon="10.086706"><ele>1041.25</ele><time>2010-06-06T13:03:03Z</time></trkpt><trkpt lat="47.539764" lon="10.086155"><ele>1037.88</ele><time>2010-06-06T13:03:07Z</time></trkpt><trkpt lat="47.539974" lon="10.085580"><ele>1034.04</ele><time>2010-06-06T13:03:11Z</time></trkpt><trkpt lat="47.540013" lon="10.085431"><ele>1033.07</ele><time>2010-06-06T13:03:12Z</time></trkpt><trkpt lat="47.540032" lon="10.085271"><ele>1031.63</ele><time>2010-06-06T13:03:13Z</time></trkpt><trkpt lat="47.540056" lon="10.084768"><ele>1028.27</ele><time>2010-06-06T13:03:16Z</time></trkpt><trkpt lat="47.540043" lon="10.084599"><ele>1027.79</ele><time>2010-06-06T13:03:17Z</time></trkpt><trkpt lat="47.540006" lon="10.084445"><ele>1027.31</ele><time>2010-06-06T13:03:18Z</time></trkpt><trkpt lat="47.539879" lon="10.084022"><ele>1023.94</ele><time>2010-06-06T13:03:21Z</time></trkpt><trkpt lat="47.539706" lon="10.083543"><ele>1021.06</ele><time>2010-06-06T13:03:26Z</time></trkpt><trkpt lat="47.539621" lon="10.083266"><ele>1018.65</ele><time>2010-06-06T13:03:33Z</time></trkpt><trkpt lat="47.539430" lon="10.083014"><ele>1017.21</ele><time>2010-06-06T13:03:39Z</time></trkpt><trkpt lat="47.539166" lon="10.082664"><ele>1015.77</ele><time>2010-06-06T13:03:45Z</time></trkpt><trkpt lat="47.539118" lon="10.082623"><ele>1015.77</ele><time>2010-06-06T13:03:46Z</time></trkpt><trkpt lat="47.538867" lon="10.082445"><ele>1014.33</ele><time>2010-06-06T13:03:51Z</time></trkpt><trkpt lat="47.538825" lon="10.082393"><ele>1014.33</ele><time>2010-06-06T13:03:52Z</time></trkpt><trkpt lat="47.538792" lon="10.082330"><ele>1014.33</ele><time>2010-06-06T13:03:53Z</time></trkpt><trkpt lat="47.538769" lon="10.082259"><ele>1014.33</ele><time>2010-06-06T13:03:54Z</time></trkpt><trkpt lat="47.538756" lon="10.082192"><ele>1014.33</ele><time>2010-06-06T13:03:55Z</time></trkpt><trkpt lat="47.538749" lon="10.082129"><ele>1014.81</ele><time>2010-06-06T13:03:56Z</time></trkpt><trkpt lat="47.538748" lon="10.082070"><ele>1014.33</ele><time>2010-06-06T13:03:57Z</time></trkpt><trkpt lat="47.538750" lon="10.082015"><ele>1014.33</ele><time>2010-06-06T13:03:58Z</time></trkpt><trkpt lat="47.538756" lon="10.081964"><ele>1014.33</ele><time>2010-06-06T13:03:59Z</time></trkpt><trkpt lat="47.538718" lon="10.081620"><ele>1014.33</ele><time>2010-06-06T13:04:08Z</time></trkpt><trkpt lat="47.538732" lon="10.081574"><ele>1014.33</ele><time>2010-06-06T13:04:09Z</time></trkpt><trkpt lat="47.538751" lon="10.081533"><ele>1014.33</ele><time>2010-06-06T13:04:10Z</time></trkpt><trkpt lat="47.538777" lon="10.081503"><ele>1014.33</ele><time>2010-06-06T13:04:11Z</time></trkpt><trkpt lat="47.538808" lon="10.081474"><ele>1013.85</ele><time>2010-06-06T13:04:12Z</time></trkpt><trkpt lat="47.538837" lon="10.081439"><ele>1013.37</ele><time>2010-06-06T13:04:13Z</time></trkpt><trkpt lat="47.538861" lon="10.081396"><ele>1012.89</ele><time>2010-06-06T13:04:14Z</time></trkpt><trkpt lat="47.538876" lon="10.081352"><ele>1013.37</ele><time>2010-06-06T13:04:15Z</time></trkpt><trkpt lat="47.538883" lon="10.081316"><ele>1013.37</ele><time>2010-06-06T13:04:16Z</time></trkpt><trkpt lat="47.538888" lon="10.081289"><ele>1013.37</ele><time>2010-06-06T13:04:17Z</time></trkpt><trkpt lat="47.538892" lon="10.081252"><ele>1013.37</ele><time>2010-06-06T13:04:19Z</time></trkpt><trkpt lat="47.538890" lon="10.081232"><ele>1013.85</ele><time>2010-06-06T13:04:20Z</time></trkpt><trkpt lat="47.538892" lon="10.081203"><ele>1014.33</ele><time>2010-06-06T13:04:41Z</time></trkpt><trkpt lat="47.538892" lon="10.081200"><ele>1013.85</ele><time>2010-06-06T13:05:08Z</time></trkpt><trkpt lat="47.538892" lon="10.081173"><ele>1012.89</ele><time>2010-06-06T13:06:20Z</time></trkpt><trkpt lat="47.538890" lon="10.081171"><ele>1013.37</ele><time>2010-06-06T13:07:05Z</time></trkpt><trkpt lat="47.538893" lon="10.081177"><ele>1012.89</ele><time>2010-06-06T13:07:09Z</time></trkpt><trkpt lat="47.538975" lon="10.081104"><ele>1014.81</ele><time>2010-06-06T13:07:20Z</time></trkpt><trkpt lat="47.538978" lon="10.081088"><ele>1015.29</ele><time>2010-06-06T13:07:21Z</time></trkpt><trkpt lat="47.538985" lon="10.081056"><ele>1015.29</ele><time>2010-06-06T13:07:23Z</time></trkpt><trkpt lat="47.539004" lon="10.081015"><ele>1015.77</ele><time>2010-06-06T13:07:26Z</time></trkpt><trkpt lat="47.539042" lon="10.080945"><ele>1018.65</ele><time>2010-06-06T13:07:39Z</time></trkpt><trkpt lat="47.539131" lon="10.080857"><ele>1021.06</ele><time>2010-06-06T13:07:52Z</time></trkpt><trkpt lat="47.539212" lon="10.080803"><ele>1023.94</ele><time>2010-06-06T13:08:07Z</time></trkpt><trkpt lat="47.539241" lon="10.080755"><ele>1025.86</ele><time>2010-06-06T13:08:18Z</time></trkpt><trkpt lat="47.539246" lon="10.080753"><ele>1025.86</ele><time>2010-06-06T13:08:27Z</time></trkpt><trkpt lat="47.539329" lon="10.080664"><ele>1027.31</ele><time>2010-06-06T13:08:39Z</time></trkpt><trkpt lat="47.539445" lon="10.080555"><ele>1029.23</ele><time>2010-06-06T13:08:53Z</time></trkpt><trkpt lat="47.539543" lon="10.080443"><ele>1031.63</ele><time>2010-06-06T13:09:07Z</time></trkpt><trkpt lat="47.539580" lon="10.080342"><ele>1032.59</ele><time>2010-06-06T13:09:17Z</time></trkpt><trkpt lat="47.539630" lon="10.080207"><ele>1035.96</ele><time>2010-06-06T13:09:28Z</time></trkpt><trkpt lat="47.539679" lon="10.080135"><ele>1037.88</ele><time>2010-06-06T13:09:38Z</time></trkpt><trkpt lat="47.539767" lon="10.080116"><ele>1039.80</ele><time>2010-06-06T13:09:50Z</time></trkpt><trkpt lat="47.539834" lon="10.080031"><ele>1042.21</ele><time>2010-06-06T13:10:04Z</time></trkpt><trkpt lat="47.539849" lon="10.079945"><ele>1044.13</ele><time>2010-06-06T13:10:18Z</time></trkpt><trkpt lat="47.539882" lon="10.079816"><ele>1047.01</ele><time>2010-06-06T13:10:37Z</time></trkpt><trkpt lat="47.539928" lon="10.079658"><ele>1049.90</ele><time>2010-06-06T13:10:55Z</time></trkpt><trkpt lat="47.539976" lon="10.079543"><ele>1052.78</ele><time>2010-06-06T13:11:11Z</time></trkpt><trkpt lat="47.539989" lon="10.079467"><ele>1054.70</ele><time>2010-06-06T13:11:23Z</time></trkpt><trkpt lat="47.539991" lon="10.079379"><ele>1057.59</ele><time>2010-06-06T13:11:40Z</time></trkpt><trkpt lat="47.539989" lon="10.079356"><ele>1057.59</ele><time>2010-06-06T13:11:44Z</time></trkpt><trkpt lat="47.539992" lon="10.079187"><ele>1060.47</ele><time>2010-06-06T13:11:57Z</time></trkpt><trkpt lat="47.540009" lon="10.079119"><ele>1060.95</ele><time>2010-06-06T13:12:04Z</time></trkpt><trkpt lat="47.540066" lon="10.079038"><ele>1061.91</ele><time>2010-06-06T13:12:15Z</time></trkpt><trkpt lat="47.540085" lon="10.078991"><ele>1061.43</ele><time>2010-06-06T13:12:18Z</time></trkpt><trkpt lat="47.540136" lon="10.078834"><ele>1062.87</ele><time>2010-06-06T13:12:27Z</time></trkpt><trkpt lat="47.540167" lon="10.078730"><ele>1063.36</ele><time>2010-06-06T13:12:35Z</time></trkpt><trkpt lat="47.540235" lon="10.078687"><ele>1064.80</ele><time>2010-06-06T13:12:40Z</time></trkpt><trkpt lat="47.540331" lon="10.078618"><ele>1067.20</ele><time>2010-06-06T13:12:52Z</time></trkpt><trkpt lat="47.540403" lon="10.078571"><ele>1069.12</ele><time>2010-06-06T13:13:03Z</time></trkpt><trkpt lat="47.540521" lon="10.078521"><ele>1071.53</ele><time>2010-06-06T13:13:15Z</time></trkpt><trkpt lat="47.540531" lon="10.078519"><ele>1071.05</ele><time>2010-06-06T13:13:16Z</time></trkpt><trkpt lat="47.540638" lon="10.078484"><ele>1074.89</ele><time>2010-06-06T13:13:27Z</time></trkpt><trkpt lat="47.540641" lon="10.078474"><ele>1076.81</ele><time>2010-06-06T13:13:56Z</time></trkpt><trkpt lat="47.540641" lon="10.078474"><ele>1080.18</ele><time>2010-06-06T13:14:15Z</time></trkpt><trkpt lat="47.540646" lon="10.078463"><ele>1081.14</ele><time>2010-06-06T13:14:21Z</time></trkpt><trkpt lat="47.540635" lon="10.078443"><ele>1083.54</ele><time>2010-06-06T13:14:38Z</time></trkpt><trkpt lat="47.540556" lon="10.078264"><ele>1085.95</ele><time>2010-06-06T13:14:50Z</time></trkpt><trkpt lat="47.540534" lon="10.078244"><ele>1085.95</ele><time>2010-06-06T13:15:12Z</time></trkpt><trkpt lat="47.540386" lon="10.078179"><ele>1087.39</ele><time>2010-06-06T13:15:20Z</time></trkpt><trkpt lat="47.540271" lon="10.078038"><ele>1089.31</ele><time>2010-06-06T13:15:30Z</time></trkpt><trkpt lat="47.540161" lon="10.077978"><ele>1091.71</ele><time>2010-06-06T13:15:43Z</time></trkpt><trkpt lat="47.540149" lon="10.077930"><ele>1092.68</ele><time>2010-06-06T13:15:54Z</time></trkpt><trkpt lat="47.540142" lon="10.077879"><ele>1093.16</ele><time>2010-06-06T13:16:10Z</time></trkpt><trkpt lat="47.540075" lon="10.077802"><ele>1094.12</ele><time>2010-06-06T13:16:24Z</time></trkpt><trkpt lat="47.540075" lon="10.077782"><ele>1094.12</ele><time>2010-06-06T13:16:28Z</time></trkpt><trkpt lat="47.540062" lon="10.077635"><ele>1094.60</ele><time>2010-06-06T13:16:36Z</time></trkpt><trkpt lat="47.540085" lon="10.076928"><ele>1091.71</ele><time>2010-06-06T13:16:50Z</time></trkpt><trkpt lat="47.540083" lon="10.076647"><ele>1090.27</ele><time>2010-06-06T13:16:53Z</time></trkpt><trkpt lat="47.540079" lon="10.076561"><ele>1089.79</ele><time>2010-06-06T13:16:54Z</time></trkpt><trkpt lat="47.540073" lon="10.076471"><ele>1089.31</ele><time>2010-06-06T13:16:55Z</time></trkpt><trkpt lat="47.540021" lon="10.075883"><ele>1086.91</ele><time>2010-06-06T13:17:01Z</time></trkpt><trkpt lat="47.539980" lon="10.075368"><ele>1084.99</ele><time>2010-06-06T13:17:06Z</time></trkpt><trkpt lat="47.539963" lon="10.075275"><ele>1084.50</ele><time>2010-06-06T13:17:07Z</time></trkpt><trkpt lat="47.539865" lon="10.074757"><ele>1083.06</ele><time>2010-06-06T13:17:13Z</time></trkpt><trkpt lat="47.539807" lon="10.074541"><ele>1083.06</ele><time>2010-06-06T13:17:16Z</time></trkpt><trkpt lat="47.539694" lon="10.074014"><ele>1084.50</ele><time>2010-06-06T13:17:29Z</time></trkpt><trkpt lat="47.539615" lon="10.073418"><ele>1083.54</ele><time>2010-06-06T13:17:44Z</time></trkpt><trkpt lat="47.539622" lon="10.073374"><ele>1083.54</ele><time>2010-06-06T13:17:55Z</time></trkpt><trkpt lat="47.539611" lon="10.073341"><ele>1083.06</ele><time>2010-06-06T13:17:58Z</time></trkpt><trkpt lat="47.539605" lon="10.073322"><ele>1083.54</ele><time>2010-06-06T13:17:59Z</time></trkpt><trkpt lat="47.539599" lon="10.073298"><ele>1083.06</ele><time>2010-06-06T13:18:00Z</time></trkpt><trkpt lat="47.539597" lon="10.073273"><ele>1083.06</ele><time>2010-06-06T13:18:01Z</time></trkpt><trkpt lat="47.539593" lon="10.073249"><ele>1083.06</ele><time>2010-06-06T13:18:02Z</time></trkpt><trkpt lat="47.539590" lon="10.073226"><ele>1083.06</ele><time>2010-06-06T13:18:03Z</time></trkpt><trkpt lat="47.539589" lon="10.073203"><ele>1079.22</ele><time>2010-06-06T13:18:04Z</time></trkpt><trkpt lat="47.539589" lon="10.073182"><ele>1079.22</ele><time>2010-06-06T13:18:05Z</time></trkpt><trkpt lat="47.539617" lon="10.072648"><ele>1080.66</ele><time>2010-06-06T13:18:20Z</time></trkpt><trkpt lat="47.539645" lon="10.072464"><ele>1080.18</ele><time>2010-06-06T13:18:23Z</time></trkpt><trkpt lat="47.539659" lon="10.072406"><ele>1080.18</ele><time>2010-06-06T13:18:24Z</time></trkpt><trkpt lat="47.539676" lon="10.072349"><ele>1080.18</ele><time>2010-06-06T13:18:25Z</time></trkpt><trkpt lat="47.539695" lon="10.072296"><ele>1080.18</ele><time>2010-06-06T13:18:26Z</time></trkpt><trkpt lat="47.539716" lon="10.072249"><ele>1080.18</ele><time>2010-06-06T13:18:27Z</time></trkpt><trkpt lat="47.539818" lon="10.072084"><ele>1079.70</ele><time>2010-06-06T13:18:31Z</time></trkpt><trkpt lat="47.539845" lon="10.072035"><ele>1081.62</ele><time>2010-06-06T13:18:32Z</time></trkpt><trkpt lat="47.539872" lon="10.071980"><ele>1081.14</ele><time>2010-06-06T13:18:33Z</time></trkpt><trkpt lat="47.539898" lon="10.071917"><ele>1081.14</ele><time>2010-06-06T13:18:34Z</time></trkpt><trkpt lat="47.539919" lon="10.071845"><ele>1081.14</ele><time>2010-06-06T13:18:35Z</time></trkpt><trkpt lat="47.539939" lon="10.071765"><ele>1080.18</ele><time>2010-06-06T13:18:36Z</time></trkpt><trkpt lat="47.540016" lon="10.071448"><ele>1078.74</ele><time>2010-06-06T13:18:39Z</time></trkpt><trkpt lat="47.540093" lon="10.071075"><ele>1075.37</ele><time>2010-06-06T13:18:42Z</time></trkpt><trkpt lat="47.540246" lon="10.070512"><ele>1076.33</ele><time>2010-06-06T13:18:48Z</time></trkpt><trkpt lat="47.540300" lon="10.070310"><ele>1077.78</ele><time>2010-06-06T13:18:52Z</time></trkpt><trkpt lat="47.540324" lon="10.070189"><ele>1079.22</ele><time>2010-06-06T13:18:55Z</time></trkpt><trkpt lat="47.540359" lon="10.070037"><ele>1080.66</ele><time>2010-06-06T13:18:59Z</time></trkpt><trkpt lat="47.540453" lon="10.069756"><ele>1083.54</ele><time>2010-06-06T13:19:07Z</time></trkpt><trkpt lat="47.540552" lon="10.069325"><ele>1085.95</ele><time>2010-06-06T13:19:21Z</time></trkpt><trkpt lat="47.540648" lon="10.068911"><ele>1087.87</ele><time>2010-06-06T13:19:35Z</time></trkpt><trkpt lat="47.540781" lon="10.068506"><ele>1089.79</ele><time>2010-06-06T13:19:49Z</time></trkpt><trkpt lat="47.540833" lon="10.067921"><ele>1089.79</ele><time>2010-06-06T13:20:06Z</time></trkpt><trkpt lat="47.540891" lon="10.067247"><ele>1092.68</ele><time>2010-06-06T13:20:25Z</time></trkpt><trkpt lat="47.541013" lon="10.066925"><ele>1096.04</ele><time>2010-06-06T13:20:38Z</time></trkpt><trkpt lat="47.541075" lon="10.066799"><ele>1097.48</ele><time>2010-06-06T13:20:44Z</time></trkpt><trkpt lat="47.541245" lon="10.066658"><ele>1097.48</ele><time>2010-06-06T13:20:58Z</time></trkpt><trkpt lat="47.541297" lon="10.066617"><ele>1094.12</ele><time>2010-06-06T13:21:08Z</time></trkpt><trkpt lat="47.541297" lon="10.066617"><ele>1096.04</ele><time>2010-06-06T13:21:09Z</time></trkpt><trkpt lat="47.541308" lon="10.066611"><ele>1095.08</ele><time>2010-06-06T13:21:18Z</time></trkpt><trkpt lat="47.541323" lon="10.066606"><ele>1095.56</ele><time>2010-06-06T13:21:19Z</time></trkpt><trkpt lat="47.541340" lon="10.066600"><ele>1095.56</ele><time>2010-06-06T13:21:20Z</time></trkpt><trkpt lat="47.541545" lon="10.066469"><ele>1095.56</ele><time>2010-06-06T13:21:26Z</time></trkpt><trkpt lat="47.541599" lon="10.066412"><ele>1095.08</ele><time>2010-06-06T13:21:27Z</time></trkpt><trkpt lat="47.541646" lon="10.066345"><ele>1095.08</ele><time>2010-06-06T13:21:28Z</time></trkpt><trkpt lat="47.541746" lon="10.066169"><ele>1095.08</ele><time>2010-06-06T13:21:31Z</time></trkpt><trkpt lat="47.541768" lon="10.066116"><ele>1095.08</ele><time>2010-06-06T13:21:32Z</time></trkpt><trkpt lat="47.541785" lon="10.066066"><ele>1096.04</ele><time>2010-06-06T13:21:33Z</time></trkpt><trkpt lat="47.541913" lon="10.065476"><ele>1094.12</ele><time>2010-06-06T13:21:44Z</time></trkpt><trkpt lat="47.541962" lon="10.065033"><ele>1094.60</ele><time>2010-06-06T13:21:53Z</time></trkpt><trkpt lat="47.541947" lon="10.064889"><ele>1094.12</ele><time>2010-06-06T13:22:00Z</time></trkpt><trkpt lat="47.541944" lon="10.064860"><ele>1093.64</ele><time>2010-06-06T13:22:01Z</time></trkpt><trkpt lat="47.541938" lon="10.064826"><ele>1094.12</ele><time>2010-06-06T13:22:02Z</time></trkpt><trkpt lat="47.541902" lon="10.064555"><ele>1092.68</ele><time>2010-06-06T13:22:07Z</time></trkpt><trkpt lat="47.541892" lon="10.064472"><ele>1092.68</ele><time>2010-06-06T13:22:08Z</time></trkpt><trkpt lat="47.541890" lon="10.064381"><ele>1092.20</ele><time>2010-06-06T13:22:09Z</time></trkpt><trkpt lat="47.541884" lon="10.064283"><ele>1091.71</ele><time>2010-06-06T13:22:10Z</time></trkpt><trkpt lat="47.541876" lon="10.064182"><ele>1091.23</ele><time>2010-06-06T13:22:11Z</time></trkpt><trkpt lat="47.541873" lon="10.063111"><ele>1089.31</ele><time>2010-06-06T13:22:23Z</time></trkpt><trkpt lat="47.541894" lon="10.062438"><ele>1085.47</ele><time>2010-06-06T13:22:29Z</time></trkpt><trkpt lat="47.541888" lon="10.062169"><ele>1083.54</ele><time>2010-06-06T13:22:31Z</time></trkpt><trkpt lat="47.541868" lon="10.062036"><ele>1082.58</ele><time>2010-06-06T13:22:32Z</time></trkpt><trkpt lat="47.541765" lon="10.061610"><ele>1079.70</ele><time>2010-06-06T13:22:38Z</time></trkpt><trkpt lat="47.541687" lon="10.061279"><ele>1078.74</ele><time>2010-06-06T13:22:52Z</time></trkpt><trkpt lat="47.541457" lon="10.060646"><ele>1078.74</ele><time>2010-06-06T13:23:05Z</time></trkpt><trkpt lat="47.541376" lon="10.060259"><ele>1077.29</ele><time>2010-06-06T13:23:10Z</time></trkpt><trkpt lat="47.541363" lon="10.060162"><ele>1077.29</ele><time>2010-06-06T13:23:11Z</time></trkpt><trkpt lat="47.541298" lon="10.059456"><ele>1073.93</ele><time>2010-06-06T13:23:18Z</time></trkpt><trkpt lat="47.541290" lon="10.059353"><ele>1073.93</ele><time>2010-06-06T13:23:19Z</time></trkpt><trkpt lat="47.541284" lon="10.059156"><ele>1073.45</ele><time>2010-06-06T13:23:21Z</time></trkpt><trkpt lat="47.541289" lon="10.059066"><ele>1073.93</ele><time>2010-06-06T13:23:22Z</time></trkpt><trkpt lat="47.541333" lon="10.058620"><ele>1074.41</ele><time>2010-06-06T13:23:28Z</time></trkpt><trkpt lat="47.541620" lon="10.058069"><ele>1075.37</ele><time>2010-06-06T13:23:40Z</time></trkpt><trkpt lat="47.541659" lon="10.058019"><ele>1074.89</ele><time>2010-06-06T13:23:41Z</time></trkpt><trkpt lat="47.541961" lon="10.057414"><ele>1076.33</ele><time>2010-06-06T13:23:54Z</time></trkpt><trkpt lat="47.542069" lon="10.057104"><ele>1079.22</ele><time>2010-06-06T13:24:05Z</time></trkpt><trkpt lat="47.542071" lon="10.057079"><ele>1078.74</ele><time>2010-06-06T13:24:06Z</time></trkpt><trkpt lat="47.542068" lon="10.057057"><ele>1078.74</ele><time>2010-06-06T13:24:07Z</time></trkpt><trkpt lat="47.542059" lon="10.057034"><ele>1079.22</ele><time>2010-06-06T13:24:08Z</time></trkpt><trkpt lat="47.542045" lon="10.057017"><ele>1079.22</ele><time>2010-06-06T13:24:09Z</time></trkpt><trkpt lat="47.542032" lon="10.057006"><ele>1079.70</ele><time>2010-06-06T13:24:10Z</time></trkpt><trkpt lat="47.542022" lon="10.056997"><ele>1079.22</ele><time>2010-06-06T13:24:11Z</time></trkpt><trkpt lat="47.542000" lon="10.056993"><ele>1077.78</ele><time>2010-06-06T13:24:21Z</time></trkpt><trkpt lat="47.542000" lon="10.056993"><ele>1072.97</ele><time>2010-06-06T13:24:22Z</time></trkpt><trkpt lat="47.542000" lon="10.056993"><ele>1079.22</ele><time>2010-06-06T13:24:23Z</time></trkpt><trkpt lat="47.542000" lon="10.056993"><ele>1077.78</ele><time>2010-06-06T13:24:33Z</time></trkpt><trkpt lat="47.542000" lon="10.056993"><ele>1077.29</ele><time>2010-06-06T13:24:36Z</time></trkpt><trkpt lat="47.542015" lon="10.056989"><ele>1077.29</ele><time>2010-06-06T13:24:37Z</time></trkpt><trkpt lat="47.542032" lon="10.056990"><ele>1079.70</ele><time>2010-06-06T13:24:38Z</time></trkpt><trkpt lat="47.542049" lon="10.057005"><ele>1079.22</ele><time>2010-06-06T13:24:39Z</time></trkpt><trkpt lat="47.542050" lon="10.057023"><ele>1079.22</ele><time>2010-06-06T13:24:40Z</time></trkpt><trkpt lat="47.542040" lon="10.057034"><ele>1079.22</ele><time>2010-06-06T13:24:41Z</time></trkpt><trkpt lat="47.542020" lon="10.057033"><ele>1079.70</ele><time>2010-06-06T13:24:43Z</time></trkpt><trkpt lat="47.542014" lon="10.057031"><ele>1079.70</ele><time>2010-06-06T13:24:52Z</time></trkpt><trkpt lat="47.542008" lon="10.057044"><ele>1079.22</ele><time>2010-06-06T13:24:56Z</time></trkpt><trkpt lat="47.542002" lon="10.057057"><ele>1079.70</ele><time>2010-06-06T13:24:57Z</time></trkpt><trkpt lat="47.541985" lon="10.057057"><ele>1079.70</ele><time>2010-06-06T13:25:06Z</time></trkpt><trkpt lat="47.541972" lon="10.057056"><ele>1080.66</ele><time>2010-06-06T13:25:07Z</time></trkpt><trkpt lat="47.541957" lon="10.057059"><ele>1080.66</ele><time>2010-06-06T13:25:08Z</time></trkpt><trkpt lat="47.541942" lon="10.057062"><ele>1080.66</ele><time>2010-06-06T13:25:09Z</time></trkpt><trkpt lat="47.541927" lon="10.057064"><ele>1080.66</ele><time>2010-06-06T13:25:10Z</time></trkpt><trkpt lat="47.541912" lon="10.057065"><ele>1080.66</ele><time>2010-06-06T13:25:11Z</time></trkpt><trkpt lat="47.541898" lon="10.057064"><ele>1081.14</ele><time>2010-06-06T13:25:12Z</time></trkpt><trkpt lat="47.541886" lon="10.057066"><ele>1081.14</ele><time>2010-06-06T13:25:13Z</time></trkpt><trkpt lat="47.541703" lon="10.056961"><ele>1084.02</ele><time>2010-06-06T13:25:28Z</time></trkpt><trkpt lat="47.541498" lon="10.056903"><ele>1087.39</ele><time>2010-06-06T13:25:43Z</time></trkpt><trkpt lat="47.541385" lon="10.056982"><ele>1089.31</ele><time>2010-06-06T13:25:54Z</time></trkpt><trkpt lat="47.541388" lon="10.056999"><ele>1089.79</ele><time>2010-06-06T13:25:55Z</time></trkpt><trkpt lat="47.541394" lon="10.057013"><ele>1089.79</ele><time>2010-06-06T13:25:56Z</time></trkpt><trkpt lat="47.541422" lon="10.057067"><ele>1090.75</ele><time>2010-06-06T13:26:00Z</time></trkpt><trkpt lat="47.541422" lon="10.057083"><ele>1090.75</ele><time>2010-06-06T13:26:01Z</time></trkpt><trkpt lat="47.541411" lon="10.057200"><ele>1091.71</ele><time>2010-06-06T13:26:08Z</time></trkpt><trkpt lat="47.541352" lon="10.057284"><ele>1094.12</ele><time>2010-06-06T13:26:16Z</time></trkpt><trkpt lat="47.541290" lon="10.057289"><ele>1095.08</ele><time>2010-06-06T13:26:23Z</time></trkpt><trkpt lat="47.541278" lon="10.057298"><ele>1095.56</ele><time>2010-06-06T13:26:24Z</time></trkpt><trkpt lat="47.541259" lon="10.057307"><ele>1095.56</ele><time>2010-06-06T13:26:26Z</time></trkpt><trkpt lat="47.541231" lon="10.057328"><ele>1096.04</ele><time>2010-06-06T13:26:29Z</time></trkpt><trkpt lat="47.541223" lon="10.057337"><ele>1096.04</ele><time>2010-06-06T13:26:30Z</time></trkpt><trkpt lat="47.541214" lon="10.057345"><ele>1096.04</ele><time>2010-06-06T13:26:31Z</time></trkpt><trkpt lat="47.541205" lon="10.057354"><ele>1096.04</ele><time>2010-06-06T13:26:32Z</time></trkpt><trkpt lat="47.541196" lon="10.057365"><ele>1096.52</ele><time>2010-06-06T13:26:33Z</time></trkpt><trkpt lat="47.541186" lon="10.057378"><ele>1097.00</ele><time>2010-06-06T13:26:34Z</time></trkpt><trkpt lat="47.541177" lon="10.057391"><ele>1097.00</ele><time>2010-06-06T13:26:35Z</time></trkpt><trkpt lat="47.541165" lon="10.057401"><ele>1097.48</ele><time>2010-06-06T13:26:36Z</time></trkpt><trkpt lat="47.541063" lon="10.057437"><ele>1099.40</ele><time>2010-06-06T13:26:47Z</time></trkpt><trkpt lat="47.541051" lon="10.057444"><ele>1099.89</ele><time>2010-06-06T13:26:48Z</time></trkpt><trkpt lat="47.541039" lon="10.057452"><ele>1099.89</ele><time>2010-06-06T13:26:49Z</time></trkpt><trkpt lat="47.541027" lon="10.057459"><ele>1099.89</ele><time>2010-06-06T13:26:50Z</time></trkpt><trkpt lat="47.541015" lon="10.057464"><ele>1100.85</ele><time>2010-06-06T13:26:51Z</time></trkpt><trkpt lat="47.541000" lon="10.057468"><ele>1100.85</ele><time>2010-06-06T13:26:52Z</time></trkpt><trkpt lat="47.540889" lon="10.057532"><ele>1103.25</ele><time>2010-06-06T13:27:01Z</time></trkpt><trkpt lat="47.540844" lon="10.057524"><ele>1103.73</ele><time>2010-06-06T13:27:05Z</time></trkpt><trkpt lat="47.540832" lon="10.057516"><ele>1103.25</ele><time>2010-06-06T13:27:06Z</time></trkpt><trkpt lat="47.540659" lon="10.057465"><ele>1106.61</ele><time>2010-06-06T13:27:21Z</time></trkpt><trkpt lat="47.540647" lon="10.057464"><ele>1106.61</ele><time>2010-06-06T13:27:22Z</time></trkpt><trkpt lat="47.540635" lon="10.057459"><ele>1106.61</ele><time>2010-06-06T13:27:23Z</time></trkpt><trkpt lat="47.540490" lon="10.057526"><ele>1108.54</ele><time>2010-06-06T13:27:36Z</time></trkpt><trkpt lat="47.540411" lon="10.057847"><ele>1108.54</ele><time>2010-06-06T13:27:49Z</time></trkpt><trkpt lat="47.540394" lon="10.057864"><ele>1108.54</ele><time>2010-06-06T13:27:50Z</time></trkpt><trkpt lat="47.540365" lon="10.057871"><ele>1109.02</ele><time>2010-06-06T13:27:51Z</time></trkpt><trkpt lat="47.540321" lon="10.057877"><ele>1108.06</ele><time>2010-06-06T13:27:52Z</time></trkpt><trkpt lat="47.540268" lon="10.057885"><ele>1106.61</ele><time>2010-06-06T13:27:53Z</time></trkpt><trkpt lat="47.540211" lon="10.057876"><ele>1105.65</ele><time>2010-06-06T13:27:54Z</time></trkpt><trkpt lat="47.540156" lon="10.057875"><ele>1105.65</ele><time>2010-06-06T13:27:55Z</time></trkpt><trkpt lat="47.540102" lon="10.057894"><ele>1104.21</ele><time>2010-06-06T13:27:56Z</time></trkpt><trkpt lat="47.540049" lon="10.057890"><ele>1103.25</ele><time>2010-06-06T13:27:57Z</time></trkpt><trkpt lat="47.540000" lon="10.057862"><ele>1103.25</ele><time>2010-06-06T13:27:58Z</time></trkpt><trkpt lat="47.539956" lon="10.057845"><ele>1101.81</ele><time>2010-06-06T13:27:59Z</time></trkpt><trkpt lat="47.539915" lon="10.057833"><ele>1101.81</ele><time>2010-06-06T13:28:00Z</time></trkpt><trkpt lat="47.539873" lon="10.057827"><ele>1100.85</ele><time>2010-06-06T13:28:01Z</time></trkpt><trkpt lat="47.539789" lon="10.057819"><ele>1100.37</ele><time>2010-06-06T13:28:03Z</time></trkpt><trkpt lat="47.539756" lon="10.057785"><ele>1098.92</ele><time>2010-06-06T13:28:04Z</time></trkpt><trkpt lat="47.539735" lon="10.057746"><ele>1098.92</ele><time>2010-06-06T13:28:05Z</time></trkpt><trkpt lat="47.539713" lon="10.057710"><ele>1097.96</ele><time>2010-06-06T13:28:06Z</time></trkpt><trkpt lat="47.539688" lon="10.057679"><ele>1098.44</ele><time>2010-06-06T13:28:07Z</time></trkpt><trkpt lat="47.539663" lon="10.057645"><ele>1097.48</ele><time>2010-06-06T13:28:08Z</time></trkpt><trkpt lat="47.539641" lon="10.057607"><ele>1096.52</ele><time>2010-06-06T13:28:09Z</time></trkpt><trkpt lat="47.539596" lon="10.057537"><ele>1094.60</ele><time>2010-06-06T13:28:11Z</time></trkpt><trkpt lat="47.539566" lon="10.057518"><ele>1094.12</ele><time>2010-06-06T13:28:12Z</time></trkpt><trkpt lat="47.539531" lon="10.057510"><ele>1093.64</ele><time>2010-06-06T13:28:13Z</time></trkpt><trkpt lat="47.539488" lon="10.057503"><ele>1091.71</ele><time>2010-06-06T13:28:14Z</time></trkpt><trkpt lat="47.539449" lon="10.057475"><ele>1091.23</ele><time>2010-06-06T13:28:15Z</time></trkpt><trkpt lat="47.539423" lon="10.057430"><ele>1090.27</ele><time>2010-06-06T13:28:16Z</time></trkpt><trkpt lat="47.539399" lon="10.057380"><ele>1089.31</ele><time>2010-06-06T13:28:17Z</time></trkpt><trkpt lat="47.539361" lon="10.057331"><ele>1087.87</ele><time>2010-06-06T13:28:18Z</time></trkpt><trkpt lat="47.539317" lon="10.057289"><ele>1086.91</ele><time>2010-06-06T13:28:19Z</time></trkpt><trkpt lat="47.539280" lon="10.057248"><ele>1085.47</ele><time>2010-06-06T13:28:20Z</time></trkpt><trkpt lat="47.539246" lon="10.057208"><ele>1084.50</ele><time>2010-06-06T13:28:21Z</time></trkpt><trkpt lat="47.539216" lon="10.057182"><ele>1083.54</ele><time>2010-06-06T13:28:22Z</time></trkpt><trkpt lat="47.539198" lon="10.057174"><ele>1083.54</ele><time>2010-06-06T13:28:23Z</time></trkpt><trkpt lat="47.539185" lon="10.057178"><ele>1083.54</ele><time>2010-06-06T13:28:24Z</time></trkpt><trkpt lat="47.539164" lon="10.057195"><ele>1083.54</ele><time>2010-06-06T13:28:37Z</time></trkpt><trkpt lat="47.539166" lon="10.057165"><ele>1083.54</ele><time>2010-06-06T13:28:42Z</time></trkpt><trkpt lat="47.539162" lon="10.057150"><ele>1083.54</ele><time>2010-06-06T13:28:43Z</time></trkpt><trkpt lat="47.539155" lon="10.057137"><ele>1083.54</ele><time>2010-06-06T13:28:44Z</time></trkpt><trkpt lat="47.539075" lon="10.057017"><ele>1081.62</ele><time>2010-06-06T13:28:51Z</time></trkpt><trkpt lat="47.539065" lon="10.056991"><ele>1081.14</ele><time>2010-06-06T13:28:52Z</time></trkpt><trkpt lat="47.539048" lon="10.056969"><ele>1081.14</ele><time>2010-06-06T13:28:53Z</time></trkpt><trkpt lat="47.539034" lon="10.056952"><ele>1080.66</ele><time>2010-06-06T13:28:54Z</time></trkpt><trkpt lat="47.539030" lon="10.056922"><ele>1080.66</ele><time>2010-06-06T13:28:55Z</time></trkpt><trkpt lat="47.539027" lon="10.056886"><ele>1079.70</ele><time>2010-06-06T13:28:56Z</time></trkpt><trkpt lat="47.539011" lon="10.056863"><ele>1079.70</ele><time>2010-06-06T13:28:57Z</time></trkpt><trkpt lat="47.538993" lon="10.056844"><ele>1079.22</ele><time>2010-06-06T13:28:58Z</time></trkpt><trkpt lat="47.538979" lon="10.056832"><ele>1079.22</ele><time>2010-06-06T13:28:59Z</time></trkpt><trkpt lat="47.538966" lon="10.056818"><ele>1078.74</ele><time>2010-06-06T13:29:00Z</time></trkpt><trkpt lat="47.538952" lon="10.056809"><ele>1078.74</ele><time>2010-06-06T13:29:01Z</time></trkpt><trkpt lat="47.538919" lon="10.056792"><ele>1075.37</ele><time>2010-06-06T13:29:07Z</time></trkpt><trkpt lat="47.538909" lon="10.056767"><ele>1072.49</ele><time>2010-06-06T13:29:15Z</time></trkpt><trkpt lat="47.538909" lon="10.056767"><ele>1069.60</ele><time>2010-06-06T13:29:41Z</time></trkpt><trkpt lat="47.538909" lon="10.056767"><ele>1069.60</ele><time>2010-06-06T13:29:43Z</time></trkpt><trkpt lat="47.538899" lon="10.056777"><ele>1069.12</ele><time>2010-06-06T13:29:44Z</time></trkpt><trkpt lat="47.538871" lon="10.056849"><ele>1067.68</ele><time>2010-06-06T13:29:47Z</time></trkpt><trkpt lat="47.538856" lon="10.056868"><ele>1067.20</ele><time>2010-06-06T13:29:48Z</time></trkpt><trkpt lat="47.538808" lon="10.056890"><ele>1066.24</ele><time>2010-06-06T13:29:50Z</time></trkpt><trkpt lat="47.538775" lon="10.056885"><ele>1065.28</ele><time>2010-06-06T13:29:51Z</time></trkpt><trkpt lat="47.538735" lon="10.056869"><ele>1064.80</ele><time>2010-06-06T13:29:52Z</time></trkpt><trkpt lat="47.538710" lon="10.056848"><ele>1063.36</ele><time>2010-06-06T13:29:53Z</time></trkpt><trkpt lat="47.538682" lon="10.056824"><ele>1062.39</ele><time>2010-06-06T13:29:54Z</time></trkpt><trkpt lat="47.538660" lon="10.056807"><ele>1061.43</ele><time>2010-06-06T13:29:55Z</time></trkpt><trkpt lat="47.538639" lon="10.056807"><ele>1061.43</ele><time>2010-06-06T13:29:56Z</time></trkpt><trkpt lat="47.538614" lon="10.056819"><ele>1059.99</ele><time>2010-06-06T13:29:57Z</time></trkpt><trkpt lat="47.538588" lon="10.056820"><ele>1059.03</ele><time>2010-06-06T13:29:58Z</time></trkpt><trkpt lat="47.538576" lon="10.056805"><ele>1058.07</ele><time>2010-06-06T13:29:59Z</time></trkpt><trkpt lat="47.538565" lon="10.056783"><ele>1058.07</ele><time>2010-06-06T13:30:00Z</time></trkpt><trkpt lat="47.538546" lon="10.056761"><ele>1057.59</ele><time>2010-06-06T13:30:01Z</time></trkpt><trkpt lat="47.538520" lon="10.056738"><ele>1056.63</ele><time>2010-06-06T13:30:02Z</time></trkpt><trkpt lat="47.538487" lon="10.056722"><ele>1056.15</ele><time>2010-06-06T13:30:03Z</time></trkpt><trkpt lat="47.538457" lon="10.056726"><ele>1055.18</ele><time>2010-06-06T13:30:04Z</time></trkpt><trkpt lat="47.538420" lon="10.056736"><ele>1054.70</ele><time>2010-06-06T13:30:05Z</time></trkpt><trkpt lat="47.538380" lon="10.056733"><ele>1053.74</ele><time>2010-06-06T13:30:06Z</time></trkpt><trkpt lat="47.538340" lon="10.056726"><ele>1052.30</ele><time>2010-06-06T13:30:07Z</time></trkpt><trkpt lat="47.538298" lon="10.056726"><ele>1051.82</ele><time>2010-06-06T13:30:08Z</time></trkpt><trkpt lat="47.538251" lon="10.056716"><ele>1051.34</ele><time>2010-06-06T13:30:09Z</time></trkpt><trkpt lat="47.538206" lon="10.056690"><ele>1050.38</ele><time>2010-06-06T13:30:10Z</time></trkpt><trkpt lat="47.538161" lon="10.056654"><ele>1049.42</ele><time>2010-06-06T13:30:11Z</time></trkpt><trkpt lat="47.538115" lon="10.056614"><ele>1049.42</ele><time>2010-06-06T13:30:12Z</time></trkpt><trkpt lat="47.537985" lon="10.056530"><ele>1047.49</ele><time>2010-06-06T13:30:17Z</time></trkpt><trkpt lat="47.537980" lon="10.056544"><ele>1047.49</ele><time>2010-06-06T13:30:22Z</time></trkpt><trkpt lat="47.537973" lon="10.056564"><ele>1047.01</ele><time>2010-06-06T13:30:23Z</time></trkpt><trkpt lat="47.537973" lon="10.056592"><ele>1046.53</ele><time>2010-06-06T13:30:24Z</time></trkpt><trkpt lat="47.537978" lon="10.056631"><ele>1046.05</ele><time>2010-06-06T13:30:25Z</time></trkpt><trkpt lat="47.537982" lon="10.056671"><ele>1045.57</ele><time>2010-06-06T13:30:26Z</time></trkpt><trkpt lat="47.537993" lon="10.056753"><ele>1044.61</ele><time>2010-06-06T13:30:28Z</time></trkpt><trkpt lat="47.538005" lon="10.056894"><ele>1041.73</ele><time>2010-06-06T13:30:32Z</time></trkpt><trkpt lat="47.537999" lon="10.056914"><ele>1040.76</ele><time>2010-06-06T13:30:33Z</time></trkpt><trkpt lat="47.537997" lon="10.056936"><ele>1040.28</ele><time>2010-06-06T13:30:34Z</time></trkpt><trkpt lat="47.537991" lon="10.056959"><ele>1039.32</ele><time>2010-06-06T13:30:35Z</time></trkpt><trkpt lat="47.537972" lon="10.056974"><ele>1038.84</ele><time>2010-06-06T13:30:36Z</time></trkpt><trkpt lat="47.537949" lon="10.056982"><ele>1038.36</ele><time>2010-06-06T13:30:37Z</time></trkpt><trkpt lat="47.537923" lon="10.056989"><ele>1037.40</ele><time>2010-06-06T13:30:38Z</time></trkpt><trkpt lat="47.537847" lon="10.057000"><ele>1034.52</ele><time>2010-06-06T13:30:41Z</time></trkpt><trkpt lat="47.537830" lon="10.057004"><ele>1034.52</ele><time>2010-06-06T13:30:42Z</time></trkpt><trkpt lat="47.537761" lon="10.057025"><ele>1031.15</ele><time>2010-06-06T13:30:45Z</time></trkpt><trkpt lat="47.537695" lon="10.057065"><ele>1028.27</ele><time>2010-06-06T13:30:48Z</time></trkpt><trkpt lat="47.537678" lon="10.057095"><ele>1027.31</ele><time>2010-06-06T13:30:49Z</time></trkpt><trkpt lat="47.537660" lon="10.057125"><ele>1026.83</ele><time>2010-06-06T13:30:50Z</time></trkpt><trkpt lat="47.537635" lon="10.057147"><ele>1025.86</ele><time>2010-06-06T13:30:51Z</time></trkpt><trkpt lat="47.537607" lon="10.057158"><ele>1025.38</ele><time>2010-06-06T13:30:52Z</time></trkpt><trkpt lat="47.537575" lon="10.057163"><ele>1023.94</ele><time>2010-06-06T13:30:53Z</time></trkpt><trkpt lat="47.537546" lon="10.057147"><ele>1023.46</ele><time>2010-06-06T13:30:54Z</time></trkpt><trkpt lat="47.537523" lon="10.057118"><ele>1022.98</ele><time>2010-06-06T13:30:55Z</time></trkpt><trkpt lat="47.537303" lon="10.056872"><ele>1020.58</ele><time>2010-06-06T13:31:05Z</time></trkpt><trkpt lat="47.537081" lon="10.056644"><ele>1017.21</ele><time>2010-06-06T13:31:13Z</time></trkpt><trkpt lat="47.536961" lon="10.056620"><ele>1014.33</ele><time>2010-06-06T13:31:17Z</time></trkpt><trkpt lat="47.536936" lon="10.056603"><ele>1013.37</ele><time>2010-06-06T13:31:18Z</time></trkpt><trkpt lat="47.536916" lon="10.056591"><ele>1012.41</ele><time>2010-06-06T13:31:19Z</time></trkpt><trkpt lat="47.536897" lon="10.056585"><ele>1012.41</ele><time>2010-06-06T13:31:20Z</time></trkpt><trkpt lat="47.536855" lon="10.056570"><ele>1010.48</ele><time>2010-06-06T13:31:23Z</time></trkpt><trkpt lat="47.536837" lon="10.056570"><ele>1010.00</ele><time>2010-06-06T13:31:37Z</time></trkpt><trkpt lat="47.536828" lon="10.056597"><ele>1009.04</ele><time>2010-06-06T13:31:48Z</time></trkpt><trkpt lat="47.536697" lon="10.056686"><ele>1005.68</ele><time>2010-06-06T13:31:53Z</time></trkpt><trkpt lat="47.536655" lon="10.056678"><ele>1005.20</ele><time>2010-06-06T13:31:54Z</time></trkpt><trkpt lat="47.536613" lon="10.056661"><ele>1004.72</ele><time>2010-06-06T13:31:55Z</time></trkpt><trkpt lat="47.536572" lon="10.056652"><ele>1004.23</ele><time>2010-06-06T13:31:56Z</time></trkpt><trkpt lat="47.536531" lon="10.056642"><ele>1003.75</ele><time>2010-06-06T13:31:57Z</time></trkpt><trkpt lat="47.536490" lon="10.056621"><ele>1003.27</ele><time>2010-06-06T13:31:58Z</time></trkpt><trkpt lat="47.536451" lon="10.056599"><ele>1002.79</ele><time>2010-06-06T13:31:59Z</time></trkpt><trkpt lat="47.536411" lon="10.056575"><ele>1001.83</ele><time>2010-06-06T13:32:00Z</time></trkpt><trkpt lat="47.536377" lon="10.056538"><ele>1001.83</ele><time>2010-06-06T13:32:01Z</time></trkpt><trkpt lat="47.536348" lon="10.056496"><ele>1002.31</ele><time>2010-06-06T13:32:02Z</time></trkpt><trkpt lat="47.536285" lon="10.056410"><ele>1001.83</ele><time>2010-06-06T13:32:05Z</time></trkpt><trkpt lat="47.536288" lon="10.056384"><ele>1001.83</ele><time>2010-06-06T13:32:06Z</time></trkpt><trkpt lat="47.536313" lon="10.056337"><ele>1001.83</ele><time>2010-06-06T13:32:09Z</time></trkpt><trkpt lat="47.536327" lon="10.056317"><ele>1001.83</ele><time>2010-06-06T13:32:10Z</time></trkpt><trkpt lat="47.536338" lon="10.056300"><ele>1002.31</ele><time>2010-06-06T13:32:11Z</time></trkpt><trkpt lat="47.536358" lon="10.056199"><ele>1002.31</ele><time>2010-06-06T13:32:22Z</time></trkpt><trkpt lat="47.536345" lon="10.056221"><ele>1002.31</ele><time>2010-06-06T13:32:33Z</time></trkpt><trkpt lat="47.536343" lon="10.056229"><ele>1001.35</ele><time>2010-06-06T13:35:02Z</time></trkpt><trkpt lat="47.536343" lon="10.056231"><ele>1001.35</ele><time>2010-06-06T13:35:41Z</time></trkpt><trkpt lat="47.536341" lon="10.056228"><ele>1001.35</ele><time>2010-06-06T13:36:39Z</time></trkpt><trkpt lat="47.536343" lon="10.056227"><ele>1001.83</ele><time>2010-06-06T13:37:16Z</time></trkpt><trkpt lat="47.536352" lon="10.056220"><ele>1001.83</ele><time>2010-06-06T13:37:51Z</time></trkpt><trkpt lat="47.536354" lon="10.056224"><ele>1000.87</ele><time>2010-06-06T13:38:47Z</time></trkpt><trkpt lat="47.536363" lon="10.056221"><ele>999.91</ele><time>2010-06-06T13:46:24Z</time></trkpt><trkpt lat="47.536359" lon="10.056221"><ele>998.47</ele><time>2010-06-06T13:54:39Z</time></trkpt><trkpt lat="47.536359" lon="10.056224"><ele>998.47</ele><time>2010-06-06T13:55:22Z</time></trkpt><trkpt lat="47.536356" lon="10.056224"><ele>997.99</ele><time>2010-06-06T13:56:10Z</time></trkpt><trkpt lat="47.536371" lon="10.056229"><ele>998.47</ele><time>2010-06-06T13:57:07Z</time></trkpt><trkpt lat="47.536371" lon="10.056229"><ele>995.10</ele><time>2010-06-06T13:57:08Z</time></trkpt><trkpt lat="47.536371" lon="10.056229"><ele>996.54</ele><time>2010-06-06T13:57:09Z</time></trkpt><trkpt lat="47.536362" lon="10.056255"><ele>995.58</ele><time>2010-06-06T13:57:26Z</time></trkpt><trkpt lat="47.536362" lon="10.056255"><ele>996.54</ele><time>2010-06-06T13:57:43Z</time></trkpt><trkpt lat="47.536362" lon="10.056255"><ele>995.58</ele><time>2010-06-06T13:57:49Z</time></trkpt><trkpt lat="47.536353" lon="10.056272"><ele>995.58</ele><time>2010-06-06T13:57:50Z</time></trkpt><trkpt lat="47.536344" lon="10.056291"><ele>996.06</ele><time>2010-06-06T13:57:51Z</time></trkpt><trkpt lat="47.536331" lon="10.056306"><ele>996.06</ele><time>2010-06-06T13:57:52Z</time></trkpt><trkpt lat="47.536316" lon="10.056323"><ele>996.06</ele><time>2010-06-06T13:57:53Z</time></trkpt><trkpt lat="47.536300" lon="10.056341"><ele>995.58</ele><time>2010-06-06T13:57:54Z</time></trkpt><trkpt lat="47.536284" lon="10.056360"><ele>996.06</ele><time>2010-06-06T13:57:55Z</time></trkpt><trkpt lat="47.536259" lon="10.056372"><ele>995.10</ele><time>2010-06-06T13:57:56Z</time></trkpt><trkpt lat="47.536230" lon="10.056367"><ele>997.02</ele><time>2010-06-06T13:57:57Z</time></trkpt><trkpt lat="47.536202" lon="10.056346"><ele>997.02</ele><time>2010-06-06T13:57:58Z</time></trkpt><trkpt lat="47.536048" lon="10.056015"><ele>995.10</ele><time>2010-06-06T13:58:09Z</time></trkpt><trkpt lat="47.536037" lon="10.055988"><ele>995.10</ele><time>2010-06-06T13:58:11Z</time></trkpt><trkpt lat="47.536028" lon="10.055975"><ele>994.62</ele><time>2010-06-06T13:58:12Z</time></trkpt><trkpt lat="47.536017" lon="10.055967"><ele>994.62</ele><time>2010-06-06T13:58:13Z</time></trkpt><trkpt lat="47.536002" lon="10.055963"><ele>994.62</ele><time>2010-06-06T13:58:28Z</time></trkpt><trkpt lat="47.536006" lon="10.055959"><ele>994.14</ele><time>2010-06-06T13:58:50Z</time></trkpt><trkpt lat="47.536007" lon="10.055961"><ele>995.10</ele><time>2010-06-06T13:59:08Z</time></trkpt><trkpt lat="47.536016" lon="10.055968"><ele>994.14</ele><time>2010-06-06T13:59:54Z</time></trkpt><trkpt lat="47.536025" lon="10.055954"><ele>994.14</ele><time>2010-06-06T14:00:11Z</time></trkpt><trkpt lat="47.536033" lon="10.055941"><ele>994.62</ele><time>2010-06-06T14:00:12Z</time></trkpt><trkpt lat="47.536040" lon="10.055933"><ele>994.62</ele><time>2010-06-06T14:00:13Z</time></trkpt><trkpt lat="47.536051" lon="10.055936"><ele>994.62</ele><time>2010-06-06T14:00:14Z</time></trkpt><trkpt lat="47.536062" lon="10.055953"><ele>994.62</ele><time>2010-06-06T14:00:15Z</time></trkpt><trkpt lat="47.536067" lon="10.055971"><ele>994.62</ele><time>2010-06-06T14:00:16Z</time></trkpt><trkpt lat="47.536071" lon="10.055985"><ele>995.10</ele><time>2010-06-06T14:00:17Z</time></trkpt><trkpt lat="47.536075" lon="10.056001"><ele>995.10</ele><time>2010-06-06T14:00:18Z</time></trkpt><trkpt lat="47.536222" lon="10.056369"><ele>996.54</ele><time>2010-06-06T14:00:33Z</time></trkpt><trkpt lat="47.536367" lon="10.056193"><ele>997.51</ele><time>2010-06-06T14:00:44Z</time></trkpt><trkpt lat="47.536261" lon="10.055741"><ele>996.54</ele><time>2010-06-06T14:00:54Z</time></trkpt><trkpt lat="47.536442" lon="10.055254"><ele>998.47</ele><time>2010-06-06T14:01:06Z</time></trkpt><trkpt lat="47.536590" lon="10.054711"><ele>998.95</ele><time>2010-06-06T14:01:21Z</time></trkpt><trkpt lat="47.536613" lon="10.054224"><ele>995.10</ele><time>2010-06-06T14:01:28Z</time></trkpt><trkpt lat="47.536637" lon="10.054152"><ele>994.62</ele><time>2010-06-06T14:01:29Z</time></trkpt><trkpt lat="47.536682" lon="10.054091"><ele>994.14</ele><time>2010-06-06T14:01:30Z</time></trkpt><trkpt lat="47.536736" lon="10.054043"><ele>993.66</ele><time>2010-06-06T14:01:31Z</time></trkpt><trkpt lat="47.536789" lon="10.054000"><ele>992.70</ele><time>2010-06-06T14:01:32Z</time></trkpt><trkpt lat="47.536844" lon="10.053961"><ele>992.22</ele><time>2010-06-06T14:01:33Z</time></trkpt><trkpt lat="47.536902" lon="10.053934"><ele>991.74</ele><time>2010-06-06T14:01:34Z</time></trkpt><trkpt lat="47.536967" lon="10.053924"><ele>990.78</ele><time>2010-06-06T14:01:35Z</time></trkpt><trkpt lat="47.537045" lon="10.053932"><ele>989.33</ele><time>2010-06-06T14:01:36Z</time></trkpt><trkpt lat="47.537203" lon="10.054030"><ele>988.85</ele><time>2010-06-06T14:01:37Z</time></trkpt><trkpt lat="47.537297" lon="10.054022"><ele>987.89</ele><time>2010-06-06T14:01:38Z</time></trkpt><trkpt lat="47.537420" lon="10.054050"><ele>987.89</ele><time>2010-06-06T14:01:39Z</time></trkpt><trkpt lat="47.537852" lon="10.054058"><ele>985.49</ele><time>2010-06-06T14:01:43Z</time></trkpt><trkpt lat="47.538351" lon="10.054025"><ele>979.72</ele><time>2010-06-06T14:01:49Z</time></trkpt><trkpt lat="47.538418" lon="10.054036"><ele>983.09</ele><time>2010-06-06T14:01:50Z</time></trkpt><trkpt lat="47.538616" lon="10.054085"><ele>982.60</ele><time>2010-06-06T14:01:53Z</time></trkpt><trkpt lat="47.538688" lon="10.054084"><ele>982.12</ele><time>2010-06-06T14:01:54Z</time></trkpt><trkpt lat="47.538758" lon="10.054063"><ele>982.12</ele><time>2010-06-06T14:01:55Z</time></trkpt><trkpt lat="47.538875" lon="10.054014"><ele>977.32</ele><time>2010-06-06T14:01:57Z</time></trkpt><trkpt lat="47.538913" lon="10.053981"><ele>982.12</ele><time>2010-06-06T14:01:58Z</time></trkpt><trkpt lat="47.538946" lon="10.053946"><ele>982.12</ele><time>2010-06-06T14:01:59Z</time></trkpt><trkpt lat="47.538964" lon="10.053909"><ele>982.12</ele><time>2010-06-06T14:02:00Z</time></trkpt><trkpt lat="47.538977" lon="10.053880"><ele>982.60</ele><time>2010-06-06T14:02:01Z</time></trkpt><trkpt lat="47.538989" lon="10.053859"><ele>982.60</ele><time>2010-06-06T14:02:02Z</time></trkpt><trkpt lat="47.538993" lon="10.053818"><ele>982.60</ele><time>2010-06-06T14:02:03Z</time></trkpt><trkpt lat="47.538991" lon="10.053678"><ele>983.57</ele><time>2010-06-06T14:02:06Z</time></trkpt><trkpt lat="47.538955" lon="10.053433"><ele>987.89</ele><time>2010-06-06T14:02:13Z</time></trkpt><trkpt lat="47.538936" lon="10.053373"><ele>988.85</ele><time>2010-06-06T14:02:15Z</time></trkpt><trkpt lat="47.538870" lon="10.053240"><ele>989.33</ele><time>2010-06-06T14:02:19Z</time></trkpt><trkpt lat="47.538782" lon="10.053046"><ele>990.30</ele><time>2010-06-06T14:02:24Z</time></trkpt><trkpt lat="47.538780" lon="10.052980"><ele>990.30</ele><time>2010-06-06T14:02:25Z</time></trkpt><trkpt lat="47.538777" lon="10.052931"><ele>989.81</ele><time>2010-06-06T14:02:26Z</time></trkpt><trkpt lat="47.538770" lon="10.052868"><ele>990.30</ele><time>2010-06-06T14:02:27Z</time></trkpt><trkpt lat="47.538763" lon="10.052803"><ele>990.30</ele><time>2010-06-06T14:02:28Z</time></trkpt><trkpt lat="47.538757" lon="10.052755"><ele>990.30</ele><time>2010-06-06T14:02:29Z</time></trkpt><trkpt lat="47.538686" lon="10.052306"><ele>989.33</ele><time>2010-06-06T14:02:39Z</time></trkpt><trkpt lat="47.538693" lon="10.052285"><ele>989.33</ele><time>2010-06-06T14:02:40Z</time></trkpt><trkpt lat="47.538700" lon="10.052267"><ele>989.33</ele><time>2010-06-06T14:02:41Z</time></trkpt><trkpt lat="47.538710" lon="10.052217"><ele>989.33</ele><time>2010-06-06T14:02:44Z</time></trkpt><trkpt lat="47.538704" lon="10.052192"><ele>989.33</ele><time>2010-06-06T14:02:45Z</time></trkpt><trkpt lat="47.538694" lon="10.052164"><ele>989.33</ele><time>2010-06-06T14:02:46Z</time></trkpt><trkpt lat="47.538600" lon="10.051749"><ele>985.97</ele><time>2010-06-06T14:02:59Z</time></trkpt><trkpt lat="47.538603" lon="10.051704"><ele>985.97</ele><time>2010-06-06T14:03:10Z</time></trkpt><trkpt lat="47.538600" lon="10.051705"><ele>985.97</ele><time>2010-06-06T14:04:24Z</time></trkpt><trkpt lat="47.538571" lon="10.051405"><ele>984.53</ele><time>2010-06-06T14:04:32Z</time></trkpt><trkpt lat="47.538563" lon="10.051332"><ele>983.09</ele><time>2010-06-06T14:04:33Z</time></trkpt><trkpt lat="47.538550" lon="10.051171"><ele>982.12</ele><time>2010-06-06T14:04:35Z</time></trkpt><trkpt lat="47.538529" lon="10.050826"><ele>978.76</ele><time>2010-06-06T14:04:40Z</time></trkpt><trkpt lat="47.538512" lon="10.050637"><ele>977.32</ele><time>2010-06-06T14:04:43Z</time></trkpt><trkpt lat="47.538499" lon="10.050431"><ele>973.95</ele><time>2010-06-06T14:04:46Z</time></trkpt><trkpt lat="47.538494" lon="10.050173"><ele>971.07</ele><time>2010-06-06T14:04:49Z</time></trkpt><trkpt lat="47.538470" lon="10.049847"><ele>967.22</ele><time>2010-06-06T14:04:52Z</time></trkpt><trkpt lat="47.538432" lon="10.049632"><ele>964.34</ele><time>2010-06-06T14:04:54Z</time></trkpt><trkpt lat="47.538373" lon="10.049358"><ele>960.49</ele><time>2010-06-06T14:04:57Z</time></trkpt><trkpt lat="47.538332" lon="10.049178"><ele>957.61</ele><time>2010-06-06T14:05:00Z</time></trkpt><trkpt lat="47.538309" lon="10.049090"><ele>956.17</ele><time>2010-06-06T14:05:02Z</time></trkpt><trkpt lat="47.538221" lon="10.048855"><ele>953.28</ele><time>2010-06-06T14:05:09Z</time></trkpt><trkpt lat="47.538163" lon="10.048714"><ele>950.88</ele><time>2010-06-06T14:05:12Z</time></trkpt><trkpt lat="47.538137" lon="10.048655"><ele>950.88</ele><time>2010-06-06T14:05:13Z</time></trkpt><trkpt lat="47.537995" lon="10.048350"><ele>947.52</ele><time>2010-06-06T14:05:17Z</time></trkpt><trkpt lat="47.537879" lon="10.048101"><ele>944.15</ele><time>2010-06-06T14:05:20Z</time></trkpt><trkpt lat="47.537754" lon="10.047895"><ele>940.31</ele><time>2010-06-06T14:05:24Z</time></trkpt><trkpt lat="47.537633" lon="10.047762"><ele>936.94</ele><time>2010-06-06T14:05:28Z</time></trkpt><trkpt lat="47.537629" lon="10.047716"><ele>935.98</ele><time>2010-06-06T14:05:29Z</time></trkpt><trkpt lat="47.537649" lon="10.047674"><ele>935.50</ele><time>2010-06-06T14:05:30Z</time></trkpt><trkpt lat="47.537687" lon="10.047649"><ele>935.02</ele><time>2010-06-06T14:05:31Z</time></trkpt><trkpt lat="47.537738" lon="10.047646"><ele>934.06</ele><time>2010-06-06T14:05:32Z</time></trkpt><trkpt lat="47.537792" lon="10.047651"><ele>933.10</ele><time>2010-06-06T14:05:33Z</time></trkpt><trkpt lat="47.537844" lon="10.047660"><ele>933.10</ele><time>2010-06-06T14:05:34Z</time></trkpt><trkpt lat="47.537896" lon="10.047668"><ele>933.10</ele><time>2010-06-06T14:05:35Z</time></trkpt><trkpt lat="47.538061" lon="10.047712"><ele>931.17</ele><time>2010-06-06T14:05:38Z</time></trkpt><trkpt lat="47.538224" lon="10.047754"><ele>927.81</ele><time>2010-06-06T14:05:41Z</time></trkpt><trkpt lat="47.538270" lon="10.047760"><ele>927.81</ele><time>2010-06-06T14:05:42Z</time></trkpt><trkpt lat="47.538310" lon="10.047753"><ele>926.85</ele><time>2010-06-06T14:05:43Z</time></trkpt><trkpt lat="47.538336" lon="10.047717"><ele>925.89</ele><time>2010-06-06T14:05:44Z</time></trkpt><trkpt lat="47.538342" lon="10.047661"><ele>924.93</ele><time>2010-06-06T14:05:45Z</time></trkpt><trkpt lat="47.538324" lon="10.047602"><ele>924.45</ele><time>2010-06-06T14:05:46Z</time></trkpt><trkpt lat="47.538289" lon="10.047550"><ele>923.96</ele><time>2010-06-06T14:05:47Z</time></trkpt><trkpt lat="47.538244" lon="10.047502"><ele>923.00</ele><time>2010-06-06T14:05:48Z</time></trkpt><trkpt lat="47.537919" lon="10.047118"><ele>919.16</ele><time>2010-06-06T14:05:54Z</time></trkpt><trkpt lat="47.537684" lon="10.046834"><ele>915.31</ele><time>2010-06-06T14:05:58Z</time></trkpt><trkpt lat="47.537562" lon="10.046675"><ele>912.91</ele><time>2010-06-06T14:06:00Z</time></trkpt><trkpt lat="47.537508" lon="10.046574"><ele>910.51</ele><time>2010-06-06T14:06:01Z</time></trkpt><trkpt lat="47.537461" lon="10.046463"><ele>908.58</ele><time>2010-06-06T14:06:02Z</time></trkpt><trkpt lat="47.537377" lon="10.046246"><ele>906.18</ele><time>2010-06-06T14:06:04Z</time></trkpt><trkpt lat="47.537328" lon="10.046160"><ele>903.78</ele><time>2010-06-06T14:06:05Z</time></trkpt><trkpt lat="47.537274" lon="10.046092"><ele>901.85</ele><time>2010-06-06T14:06:06Z</time></trkpt><trkpt lat="47.537175" lon="10.045980"><ele>899.93</ele><time>2010-06-06T14:06:08Z</time></trkpt><trkpt lat="47.537144" lon="10.045920"><ele>898.97</ele><time>2010-06-06T14:06:09Z</time></trkpt><trkpt lat="47.537125" lon="10.045858"><ele>898.01</ele><time>2010-06-06T14:06:10Z</time></trkpt><trkpt lat="47.537118" lon="10.045797"><ele>896.57</ele><time>2010-06-06T14:06:11Z</time></trkpt><trkpt lat="47.537121" lon="10.045736"><ele>896.09</ele><time>2010-06-06T14:06:12Z</time></trkpt><trkpt lat="47.537124" lon="10.045665"><ele>895.12</ele><time>2010-06-06T14:06:13Z</time></trkpt><trkpt lat="47.537124" lon="10.045584"><ele>893.68</ele><time>2010-06-06T14:06:14Z</time></trkpt><trkpt lat="47.537119" lon="10.045494"><ele>892.24</ele><time>2010-06-06T14:06:15Z</time></trkpt><trkpt lat="47.537112" lon="10.045409"><ele>892.24</ele><time>2010-06-06T14:06:16Z</time></trkpt><trkpt lat="47.537096" lon="10.045241"><ele>889.84</ele><time>2010-06-06T14:06:18Z</time></trkpt><trkpt lat="47.537080" lon="10.045151"><ele>888.40</ele><time>2010-06-06T14:06:19Z</time></trkpt><trkpt lat="47.537056" lon="10.045058"><ele>887.91</ele><time>2010-06-06T14:06:20Z</time></trkpt><trkpt lat="47.537030" lon="10.044960"><ele>886.95</ele><time>2010-06-06T14:06:21Z</time></trkpt><trkpt lat="47.537002" lon="10.044865"><ele>885.99</ele><time>2010-06-06T14:06:22Z</time></trkpt><trkpt lat="47.536970" lon="10.044771"><ele>885.51</ele><time>2010-06-06T14:06:23Z</time></trkpt><trkpt lat="47.536936" lon="10.044674"><ele>885.03</ele><time>2010-06-06T14:06:24Z</time></trkpt><trkpt lat="47.536791" lon="10.044275"><ele>881.67</ele><time>2010-06-06T14:06:28Z</time></trkpt><trkpt lat="47.536662" lon="10.043980"><ele>879.26</ele><time>2010-06-06T14:06:31Z</time></trkpt><trkpt lat="47.536614" lon="10.043903"><ele>878.78</ele><time>2010-06-06T14:06:32Z</time></trkpt><trkpt lat="47.536564" lon="10.043845"><ele>878.30</ele><time>2010-06-06T14:06:33Z</time></trkpt><trkpt lat="47.536475" lon="10.043749"><ele>878.30</ele><time>2010-06-06T14:06:35Z</time></trkpt><trkpt lat="47.536441" lon="10.043694"><ele>877.82</ele><time>2010-06-06T14:06:36Z</time></trkpt><trkpt lat="47.536416" lon="10.043631"><ele>877.34</ele><time>2010-06-06T14:06:37Z</time></trkpt><trkpt lat="47.536404" lon="10.043569"><ele>876.38</ele><time>2010-06-06T14:06:38Z</time></trkpt><trkpt lat="47.536405" lon="10.043502"><ele>875.90</ele><time>2010-06-06T14:06:39Z</time></trkpt><trkpt lat="47.536413" lon="10.043431"><ele>875.90</ele><time>2010-06-06T14:06:40Z</time></trkpt><trkpt lat="47.536431" lon="10.043360"><ele>875.42</ele><time>2010-06-06T14:06:41Z</time></trkpt><trkpt lat="47.536453" lon="10.043291"><ele>874.46</ele><time>2010-06-06T14:06:42Z</time></trkpt><trkpt lat="47.536482" lon="10.043226"><ele>873.50</ele><time>2010-06-06T14:06:43Z</time></trkpt><trkpt lat="47.536516" lon="10.043159"><ele>872.05</ele><time>2010-06-06T14:06:44Z</time></trkpt><trkpt lat="47.536641" lon="10.042924"><ele>869.65</ele><time>2010-06-06T14:06:47Z</time></trkpt><trkpt lat="47.536701" lon="10.042847"><ele>868.21</ele><time>2010-06-06T14:06:48Z</time></trkpt><trkpt lat="47.536771" lon="10.042782"><ele>867.25</ele><time>2010-06-06T14:06:49Z</time></trkpt><trkpt lat="47.536973" lon="10.042622"><ele>862.44</ele><time>2010-06-06T14:06:52Z</time></trkpt><trkpt lat="47.537097" lon="10.042537"><ele>860.52</ele><time>2010-06-06T14:06:54Z</time></trkpt><trkpt lat="47.537166" lon="10.042510"><ele>859.08</ele><time>2010-06-06T14:06:55Z</time></trkpt><trkpt lat="47.537242" lon="10.042494"><ele>858.11</ele><time>2010-06-06T14:06:56Z</time></trkpt><trkpt lat="47.537409" lon="10.042475"><ele>857.15</ele><time>2010-06-06T14:06:58Z</time></trkpt><trkpt lat="47.537577" lon="10.042407"><ele>857.15</ele><time>2010-06-06T14:07:00Z</time></trkpt><trkpt lat="47.537652" lon="10.042341"><ele>857.15</ele><time>2010-06-06T14:07:01Z</time></trkpt><trkpt lat="47.537721" lon="10.042265"><ele>856.67</ele><time>2010-06-06T14:07:02Z</time></trkpt><trkpt lat="47.537779" lon="10.042188"><ele>855.71</ele><time>2010-06-06T14:07:03Z</time></trkpt><trkpt lat="47.537826" lon="10.042115"><ele>854.75</ele><time>2010-06-06T14:07:04Z</time></trkpt><trkpt lat="47.537867" lon="10.042046"><ele>853.79</ele><time>2010-06-06T14:07:05Z</time></trkpt><trkpt lat="47.537907" lon="10.041980"><ele>853.79</ele><time>2010-06-06T14:07:06Z</time></trkpt><trkpt lat="47.538049" lon="10.041729"><ele>852.83</ele><time>2010-06-06T14:07:10Z</time></trkpt><trkpt lat="47.538072" lon="10.041664"><ele>853.31</ele><time>2010-06-06T14:07:11Z</time></trkpt><trkpt lat="47.538093" lon="10.041597"><ele>852.83</ele><time>2010-06-06T14:07:12Z</time></trkpt><trkpt lat="47.538110" lon="10.041531"><ele>853.31</ele><time>2010-06-06T14:07:13Z</time></trkpt><trkpt lat="47.538124" lon="10.041466"><ele>853.79</ele><time>2010-06-06T14:07:14Z</time></trkpt><trkpt lat="47.538156" lon="10.041336"><ele>853.31</ele><time>2010-06-06T14:07:16Z</time></trkpt><trkpt lat="47.538185" lon="10.041287"><ele>853.31</ele><time>2010-06-06T14:07:17Z</time></trkpt><trkpt lat="47.538223" lon="10.041254"><ele>853.31</ele><time>2010-06-06T14:07:18Z</time></trkpt><trkpt lat="47.538263" lon="10.041232"><ele>853.79</ele><time>2010-06-06T14:07:19Z</time></trkpt><trkpt lat="47.538307" lon="10.041222"><ele>853.79</ele><time>2010-06-06T14:07:20Z</time></trkpt><trkpt lat="47.538364" lon="10.041218"><ele>853.31</ele><time>2010-06-06T14:07:21Z</time></trkpt><trkpt lat="47.539033" lon="10.041086"><ele>854.27</ele><time>2010-06-06T14:07:38Z</time></trkpt><trkpt lat="47.539137" lon="10.041034"><ele>854.27</ele><time>2010-06-06T14:07:41Z</time></trkpt><trkpt lat="47.539175" lon="10.041002"><ele>853.79</ele><time>2010-06-06T14:07:42Z</time></trkpt><trkpt lat="47.539254" lon="10.040923"><ele>854.27</ele><time>2010-06-06T14:07:44Z</time></trkpt><trkpt lat="47.539330" lon="10.040827"><ele>853.31</ele><time>2010-06-06T14:07:46Z</time></trkpt><trkpt lat="47.539439" lon="10.040683"><ele>852.83</ele><time>2010-06-06T14:07:49Z</time></trkpt><trkpt lat="47.539848" lon="10.040148"><ele>852.35</ele><time>2010-06-06T14:08:04Z</time></trkpt><trkpt lat="47.539849" lon="10.040132"><ele>851.87</ele><time>2010-06-06T14:08:05Z</time></trkpt><trkpt lat="47.539839" lon="10.040121"><ele>851.87</ele><time>2010-06-06T14:08:06Z</time></trkpt><trkpt lat="47.539827" lon="10.040119"><ele>851.87</ele><time>2010-06-06T14:08:07Z</time></trkpt><trkpt lat="47.539811" lon="10.040134"><ele>851.38</ele><time>2010-06-06T14:08:22Z</time></trkpt><trkpt lat="47.539813" lon="10.040164"><ele>851.87</ele><time>2010-06-06T14:08:29Z</time></trkpt><trkpt lat="47.539823" lon="10.040171"><ele>851.87</ele><time>2010-06-06T14:08:30Z</time></trkpt><trkpt lat="47.539836" lon="10.040167"><ele>851.38</ele><time>2010-06-06T14:08:31Z</time></trkpt><trkpt lat="47.539848" lon="10.040154"><ele>851.87</ele><time>2010-06-06T14:08:32Z</time></trkpt><trkpt lat="47.539863" lon="10.040144"><ele>851.87</ele><time>2010-06-06T14:08:33Z</time></trkpt><trkpt lat="47.539877" lon="10.040131"><ele>851.87</ele><time>2010-06-06T14:08:34Z</time></trkpt><trkpt lat="47.539889" lon="10.040119"><ele>851.87</ele><time>2010-06-06T14:08:35Z</time></trkpt><trkpt lat="47.539900" lon="10.040109"><ele>851.38</ele><time>2010-06-06T14:08:36Z</time></trkpt><trkpt lat="47.539925" lon="10.040094"><ele>850.90</ele><time>2010-06-06T14:08:39Z</time></trkpt><trkpt lat="47.539936" lon="10.040090"><ele>850.90</ele><time>2010-06-06T14:08:40Z</time></trkpt><trkpt lat="47.540237" lon="10.039869"><ele>849.94</ele><time>2010-06-06T14:08:51Z</time></trkpt><trkpt lat="47.540519" lon="10.039692"><ele>845.14</ele><time>2010-06-06T14:08:57Z</time></trkpt><trkpt lat="47.540565" lon="10.039661"><ele>846.58</ele><time>2010-06-06T14:08:58Z</time></trkpt><trkpt lat="47.540653" lon="10.039604"><ele>848.50</ele><time>2010-06-06T14:09:00Z</time></trkpt><trkpt lat="47.540698" lon="10.039584"><ele>847.06</ele><time>2010-06-06T14:09:01Z</time></trkpt><trkpt lat="47.541143" lon="10.039419"><ele>847.54</ele><time>2010-06-06T14:09:13Z</time></trkpt><trkpt lat="47.541225" lon="10.039413"><ele>847.54</ele><time>2010-06-06T14:09:15Z</time></trkpt><trkpt lat="47.541469" lon="10.039327"><ele>846.58</ele><time>2010-06-06T14:09:21Z</time></trkpt><trkpt lat="47.541678" lon="10.039220"><ele>848.50</ele><time>2010-06-06T14:09:26Z</time></trkpt><trkpt lat="47.542439" lon="10.038825"><ele>846.10</ele><time>2010-06-06T14:09:41Z</time></trkpt><trkpt lat="47.543221" lon="10.038494"><ele>846.58</ele><time>2010-06-06T14:09:59Z</time></trkpt><trkpt lat="47.543405" lon="10.038419"><ele>841.29</ele><time>2010-06-06T14:10:04Z</time></trkpt><trkpt lat="47.543443" lon="10.038410"><ele>843.69</ele><time>2010-06-06T14:10:05Z</time></trkpt><trkpt lat="47.543528" lon="10.038401"><ele>844.66</ele><time>2010-06-06T14:10:07Z</time></trkpt><trkpt lat="47.544139" lon="10.038331"><ele>842.25</ele><time>2010-06-06T14:10:18Z</time></trkpt><trkpt lat="47.544212" lon="10.038349"><ele>841.29</ele><time>2010-06-06T14:10:19Z</time></trkpt><trkpt lat="47.544722" lon="10.038460"><ele>837.93</ele><time>2010-06-06T14:10:25Z</time></trkpt><trkpt lat="47.544901" lon="10.038489"><ele>835.04</ele><time>2010-06-06T14:10:27Z</time></trkpt><trkpt lat="47.544993" lon="10.038520"><ele>833.12</ele><time>2010-06-06T14:10:28Z</time></trkpt><trkpt lat="47.545084" lon="10.038568"><ele>831.20</ele><time>2010-06-06T14:10:29Z</time></trkpt><trkpt lat="47.545268" lon="10.038688"><ele>827.83</ele><time>2010-06-06T14:10:31Z</time></trkpt><trkpt lat="47.545352" lon="10.038762"><ele>826.87</ele><time>2010-06-06T14:10:32Z</time></trkpt><trkpt lat="47.545439" lon="10.038858"><ele>824.95</ele><time>2010-06-06T14:10:33Z</time></trkpt><trkpt lat="47.545523" lon="10.038975"><ele>823.51</ele><time>2010-06-06T14:10:34Z</time></trkpt><trkpt lat="47.545595" lon="10.039120"><ele>821.58</ele><time>2010-06-06T14:10:35Z</time></trkpt><trkpt lat="47.545653" lon="10.039270"><ele>820.62</ele><time>2010-06-06T14:10:36Z</time></trkpt><trkpt lat="47.545698" lon="10.039418"><ele>819.66</ele><time>2010-06-06T14:10:37Z</time></trkpt><trkpt lat="47.545738" lon="10.039566"><ele>817.74</ele><time>2010-06-06T14:10:38Z</time></trkpt><trkpt lat="47.545807" lon="10.039829"><ele>814.85</ele><time>2010-06-06T14:10:40Z</time></trkpt><trkpt lat="47.545849" lon="10.039919"><ele>812.93</ele><time>2010-06-06T14:10:41Z</time></trkpt><trkpt lat="47.545910" lon="10.039991"><ele>811.49</ele><time>2010-06-06T14:10:42Z</time></trkpt><trkpt lat="47.545981" lon="10.040052"><ele>810.05</ele><time>2010-06-06T14:10:43Z</time></trkpt><trkpt lat="47.546057" lon="10.040109"><ele>808.61</ele><time>2010-06-06T14:10:44Z</time></trkpt><trkpt lat="47.546134" lon="10.040157"><ele>808.13</ele><time>2010-06-06T14:10:45Z</time></trkpt><trkpt lat="47.546211" lon="10.040198"><ele>806.20</ele><time>2010-06-06T14:10:46Z</time></trkpt><trkpt lat="47.546496" lon="10.040296"><ele>802.36</ele><time>2010-06-06T14:10:50Z</time></trkpt><trkpt lat="47.546555" lon="10.040302"><ele>800.92</ele><time>2010-06-06T14:10:51Z</time></trkpt><trkpt lat="47.546588" lon="10.040287"><ele>799.95</ele><time>2010-06-06T14:10:52Z</time></trkpt><trkpt lat="47.546602" lon="10.040263"><ele>799.95</ele><time>2010-06-06T14:10:53Z</time></trkpt><trkpt lat="47.546609" lon="10.040228"><ele>799.47</ele><time>2010-06-06T14:10:54Z</time></trkpt><trkpt lat="47.546610" lon="10.040190"><ele>798.99</ele><time>2010-06-06T14:10:55Z</time></trkpt><trkpt lat="47.546606" lon="10.040142"><ele>798.51</ele><time>2010-06-06T14:10:56Z</time></trkpt><trkpt lat="47.546603" lon="10.040089"><ele>798.51</ele><time>2010-06-06T14:10:57Z</time></trkpt><trkpt lat="47.546619" lon="10.040042"><ele>798.03</ele><time>2010-06-06T14:10:58Z</time></trkpt><trkpt lat="47.546642" lon="10.039998"><ele>797.55</ele><time>2010-06-06T14:10:59Z</time></trkpt><trkpt lat="47.546673" lon="10.039954"><ele>796.59</ele><time>2010-06-06T14:11:00Z</time></trkpt><trkpt lat="47.546712" lon="10.039908"><ele>795.15</ele><time>2010-06-06T14:11:01Z</time></trkpt><trkpt lat="47.546790" lon="10.039917"><ele>795.15</ele><time>2010-06-06T14:11:02Z</time></trkpt><trkpt lat="47.546842" lon="10.039888"><ele>793.71</ele><time>2010-06-06T14:11:03Z</time></trkpt><trkpt lat="47.546868" lon="10.039844"><ele>792.26</ele><time>2010-06-06T14:11:04Z</time></trkpt><trkpt lat="47.546880" lon="10.039809"><ele>792.26</ele><time>2010-06-06T14:11:05Z</time></trkpt><trkpt lat="47.546878" lon="10.039778"><ele>791.78</ele><time>2010-06-06T14:11:06Z</time></trkpt><trkpt lat="47.546830" lon="10.039635"><ele>788.42</ele><time>2010-06-06T14:11:09Z</time></trkpt><trkpt lat="47.546809" lon="10.039496"><ele>786.50</ele><time>2010-06-06T14:11:11Z</time></trkpt><trkpt lat="47.546808" lon="10.039413"><ele>785.05</ele><time>2010-06-06T14:11:12Z</time></trkpt><trkpt lat="47.546820" lon="10.039313"><ele>783.61</ele><time>2010-06-06T14:11:13Z</time></trkpt><trkpt lat="47.546865" lon="10.039006"><ele>779.77</ele><time>2010-06-06T14:11:16Z</time></trkpt><trkpt lat="47.546890" lon="10.038925"><ele>778.32</ele><time>2010-06-06T14:11:17Z</time></trkpt><trkpt lat="47.546924" lon="10.038872"><ele>777.36</ele><time>2010-06-06T14:11:18Z</time></trkpt><trkpt lat="47.546982" lon="10.038879"><ele>776.40</ele><time>2010-06-06T14:11:19Z</time></trkpt><trkpt lat="47.547066" lon="10.038908"><ele>775.44</ele><time>2010-06-06T14:11:20Z</time></trkpt><trkpt lat="47.547121" lon="10.038880"><ele>774.00</ele><time>2010-06-06T14:11:21Z</time></trkpt><trkpt lat="47.547249" lon="10.038844"><ele>772.56</ele><time>2010-06-06T14:11:23Z</time></trkpt><trkpt lat="47.547401" lon="10.038784"><ele>769.19</ele><time>2010-06-06T14:11:26Z</time></trkpt><trkpt lat="47.547555" lon="10.038723"><ele>765.83</ele><time>2010-06-06T14:11:29Z</time></trkpt><trkpt lat="47.547637" lon="10.038651"><ele>764.39</ele><time>2010-06-06T14:11:31Z</time></trkpt><trkpt lat="47.547665" lon="10.038595"><ele>762.94</ele><time>2010-06-06T14:11:32Z</time></trkpt><trkpt lat="47.547689" lon="10.038524"><ele>762.46</ele><time>2010-06-06T14:11:33Z</time></trkpt><trkpt lat="47.547710" lon="10.038450"><ele>761.02</ele><time>2010-06-06T14:11:34Z</time></trkpt><trkpt lat="47.547687" lon="10.038360"><ele>761.02</ele><time>2010-06-06T14:11:35Z</time></trkpt><trkpt lat="47.547694" lon="10.038273"><ele>760.06</ele><time>2010-06-06T14:11:36Z</time></trkpt><trkpt lat="47.547696" lon="10.038186"><ele>759.58</ele><time>2010-06-06T14:11:37Z</time></trkpt><trkpt lat="47.547691" lon="10.038104"><ele>758.62</ele><time>2010-06-06T14:11:38Z</time></trkpt><trkpt lat="47.547682" lon="10.038023"><ele>758.14</ele><time>2010-06-06T14:11:39Z</time></trkpt><trkpt lat="47.547653" lon="10.037862"><ele>755.25</ele><time>2010-06-06T14:11:41Z</time></trkpt><trkpt lat="47.547643" lon="10.037793"><ele>755.25</ele><time>2010-06-06T14:11:42Z</time></trkpt><trkpt lat="47.547639" lon="10.037728"><ele>754.29</ele><time>2010-06-06T14:11:43Z</time></trkpt><trkpt lat="47.547646" lon="10.037667"><ele>752.85</ele><time>2010-06-06T14:11:44Z</time></trkpt><trkpt lat="47.547687" lon="10.037588"><ele>752.85</ele><time>2010-06-06T14:11:46Z</time></trkpt><trkpt lat="47.547710" lon="10.037541"><ele>752.85</ele><time>2010-06-06T14:11:47Z</time></trkpt><trkpt lat="47.547725" lon="10.037493"><ele>752.37</ele><time>2010-06-06T14:11:48Z</time></trkpt><trkpt lat="47.547729" lon="10.037448"><ele>752.37</ele><time>2010-06-06T14:11:49Z</time></trkpt><trkpt lat="47.547725" lon="10.037401"><ele>753.33</ele><time>2010-06-06T14:11:50Z</time></trkpt><trkpt lat="47.547721" lon="10.037385"><ele>753.33</ele><time>2010-06-06T14:11:52Z</time></trkpt><trkpt lat="47.547722" lon="10.037399"><ele>753.81</ele><time>2010-06-06T14:11:54Z</time></trkpt><trkpt lat="47.547719" lon="10.037387"><ele>753.81</ele><time>2010-06-06T14:11:55Z</time></trkpt><trkpt lat="47.547721" lon="10.037366"><ele>753.81</ele><time>2010-06-06T14:11:57Z</time></trkpt><trkpt lat="47.547724" lon="10.037349"><ele>753.81</ele><time>2010-06-06T14:11:58Z</time></trkpt><trkpt lat="47.547728" lon="10.037330"><ele>754.29</ele><time>2010-06-06T14:11:59Z</time></trkpt><trkpt lat="47.547736" lon="10.037310"><ele>754.29</ele><time>2010-06-06T14:12:00Z</time></trkpt><trkpt lat="47.547756" lon="10.037252"><ele>755.25</ele><time>2010-06-06T14:12:05Z</time></trkpt><trkpt lat="47.547759" lon="10.037233"><ele>755.73</ele><time>2010-06-06T14:12:06Z</time></trkpt><trkpt lat="47.547764" lon="10.037215"><ele>756.21</ele><time>2010-06-06T14:12:07Z</time></trkpt><trkpt lat="47.547768" lon="10.037196"><ele>756.21</ele><time>2010-06-06T14:12:08Z</time></trkpt><trkpt lat="47.547767" lon="10.037176"><ele>756.21</ele><time>2010-06-06T14:12:09Z</time></trkpt><trkpt lat="47.547765" lon="10.037154"><ele>756.69</ele><time>2010-06-06T14:12:10Z</time></trkpt><trkpt lat="47.547764" lon="10.037132"><ele>756.69</ele><time>2010-06-06T14:12:11Z</time></trkpt><trkpt lat="47.547764" lon="10.037110"><ele>757.66</ele><time>2010-06-06T14:12:12Z</time></trkpt><trkpt lat="47.547765" lon="10.037085"><ele>757.18</ele><time>2010-06-06T14:12:13Z</time></trkpt><trkpt lat="47.547749" lon="10.036883"><ele>759.58</ele><time>2010-06-06T14:12:23Z</time></trkpt><trkpt lat="47.547750" lon="10.036865"><ele>759.58</ele><time>2010-06-06T14:12:24Z</time></trkpt><trkpt lat="47.547749" lon="10.036845"><ele>760.06</ele><time>2010-06-06T14:12:25Z</time></trkpt><trkpt lat="47.547738" lon="10.036755"><ele>755.25</ele><time>2010-06-06T14:12:29Z</time></trkpt><trkpt lat="47.547735" lon="10.036737"><ele>759.58</ele><time>2010-06-06T14:12:30Z</time></trkpt><trkpt lat="47.547681" lon="10.036424"><ele>761.98</ele><time>2010-06-06T14:12:44Z</time></trkpt><trkpt lat="47.547808" lon="10.036260"><ele>763.90</ele><time>2010-06-06T14:12:56Z</time></trkpt><trkpt lat="47.547846" lon="10.036217"><ele>764.87</ele><time>2010-06-06T14:12:59Z</time></trkpt><trkpt lat="47.547861" lon="10.036206"><ele>764.87</ele><time>2010-06-06T14:13:00Z</time></trkpt><trkpt lat="47.547875" lon="10.036194"><ele>764.87</ele><time>2010-06-06T14:13:01Z</time></trkpt><trkpt lat="47.547890" lon="10.036182"><ele>765.35</ele><time>2010-06-06T14:13:02Z</time></trkpt><trkpt lat="47.547901" lon="10.036167"><ele>765.35</ele><time>2010-06-06T14:13:03Z</time></trkpt><trkpt lat="47.547910" lon="10.036148"><ele>765.35</ele><time>2010-06-06T14:13:04Z</time></trkpt><trkpt lat="47.547916" lon="10.036129"><ele>765.83</ele><time>2010-06-06T14:13:05Z</time></trkpt><trkpt lat="47.547920" lon="10.036109"><ele>765.83</ele><time>2010-06-06T14:13:06Z</time></trkpt><trkpt lat="47.547922" lon="10.036086"><ele>765.83</ele><time>2010-06-06T14:13:07Z</time></trkpt><trkpt lat="47.547927" lon="10.036063"><ele>765.83</ele><time>2010-06-06T14:13:08Z</time></trkpt><trkpt lat="47.547934" lon="10.036040"><ele>766.31</ele><time>2010-06-06T14:13:09Z</time></trkpt><trkpt lat="47.548015" lon="10.035768"><ele>769.19</ele><time>2010-06-06T14:13:24Z</time></trkpt><trkpt lat="47.548023" lon="10.035507"><ele>772.08</ele><time>2010-06-06T14:13:38Z</time></trkpt><trkpt lat="47.548008" lon="10.035272"><ele>774.96</ele><time>2010-06-06T14:13:51Z</time></trkpt><trkpt lat="47.547992" lon="10.034958"><ele>777.36</ele><time>2010-06-06T14:14:07Z</time></trkpt><trkpt lat="47.547995" lon="10.034944"><ele>777.36</ele><time>2010-06-06T14:14:08Z</time></trkpt><trkpt lat="47.548000" lon="10.034928"><ele>777.36</ele><time>2010-06-06T14:14:09Z</time></trkpt><trkpt lat="47.547998" lon="10.034852"><ele>778.32</ele><time>2010-06-06T14:14:13Z</time></trkpt><trkpt lat="47.548000" lon="10.034833"><ele>778.81</ele><time>2010-06-06T14:14:14Z</time></trkpt><trkpt lat="47.547964" lon="10.034649"><ele>780.25</ele><time>2010-06-06T14:14:23Z</time></trkpt><trkpt lat="47.547877" lon="10.034383"><ele>783.13</ele><time>2010-06-06T14:14:38Z</time></trkpt><trkpt lat="47.547726" lon="10.034026"><ele>786.50</ele><time>2010-06-06T14:14:56Z</time></trkpt><trkpt lat="47.547662" lon="10.033461"><ele>787.46</ele><time>2010-06-06T14:15:10Z</time></trkpt><trkpt lat="47.547796" lon="10.032902"><ele>789.38</ele><time>2010-06-06T14:15:23Z</time></trkpt><trkpt lat="47.547914" lon="10.032382"><ele>791.30</ele><time>2010-06-06T14:15:36Z</time></trkpt><trkpt lat="47.547961" lon="10.031420"><ele>792.26</ele><time>2010-06-06T14:15:54Z</time></trkpt><trkpt lat="47.547965" lon="10.031358"><ele>792.26</ele><time>2010-06-06T14:15:55Z</time></trkpt><trkpt lat="47.548126" lon="10.030379"><ele>793.22</ele><time>2010-06-06T14:16:11Z</time></trkpt><trkpt lat="47.548142" lon="10.030324"><ele>792.74</ele><time>2010-06-06T14:16:12Z</time></trkpt><trkpt lat="47.548460" lon="10.029525"><ele>794.19</ele><time>2010-06-06T14:16:26Z</time></trkpt><trkpt lat="47.548859" lon="10.028799"><ele>797.07</ele><time>2010-06-06T14:16:42Z</time></trkpt><trkpt lat="47.549265" lon="10.028363"><ele>798.99</ele><time>2010-06-06T14:16:56Z</time></trkpt><trkpt lat="47.549446" lon="10.028122"><ele>801.88</ele><time>2010-06-06T14:17:04Z</time></trkpt><trkpt lat="47.549634" lon="10.027676"><ele>803.80</ele><time>2010-06-06T14:17:17Z</time></trkpt><trkpt lat="47.549931" lon="10.027393"><ele>802.84</ele><time>2010-06-06T14:17:25Z</time></trkpt><trkpt lat="47.550078" lon="10.027280"><ele>800.92</ele><time>2010-06-06T14:17:28Z</time></trkpt><trkpt lat="47.550134" lon="10.027249"><ele>800.44</ele><time>2010-06-06T14:17:29Z</time></trkpt><trkpt lat="47.550193" lon="10.027224"><ele>800.44</ele><time>2010-06-06T14:17:30Z</time></trkpt><trkpt lat="47.550256" lon="10.027204"><ele>799.95</ele><time>2010-06-06T14:17:31Z</time></trkpt><trkpt lat="47.550321" lon="10.027192"><ele>799.47</ele><time>2010-06-06T14:17:32Z</time></trkpt><trkpt lat="47.550391" lon="10.027188"><ele>799.47</ele><time>2010-06-06T14:17:33Z</time></trkpt><trkpt lat="47.550767" lon="10.027219"><ele>798.99</ele><time>2010-06-06T14:17:38Z</time></trkpt><trkpt lat="47.550913" lon="10.027184"><ele>798.51</ele><time>2010-06-06T14:17:40Z</time></trkpt><trkpt lat="47.551247" lon="10.027004"><ele>794.19</ele><time>2010-06-06T14:17:45Z</time></trkpt><trkpt lat="47.551317" lon="10.026974"><ele>796.59</ele><time>2010-06-06T14:17:46Z</time></trkpt><trkpt lat="47.552151" lon="10.026401"><ele>794.19</ele><time>2010-06-06T14:17:59Z</time></trkpt><trkpt lat="47.552262" lon="10.026319"><ele>797.55</ele><time>2010-06-06T14:18:01Z</time></trkpt><trkpt lat="47.552353" lon="10.026225"><ele>797.55</ele><time>2010-06-06T14:18:03Z</time></trkpt><trkpt lat="47.552389" lon="10.026175"><ele>797.07</ele><time>2010-06-06T14:18:04Z</time></trkpt><trkpt lat="47.552556" lon="10.025897"><ele>798.99</ele><time>2010-06-06T14:18:10Z</time></trkpt><trkpt lat="47.552587" lon="10.025851"><ele>798.99</ele><time>2010-06-06T14:18:11Z</time></trkpt><trkpt lat="47.552916" lon="10.025317"><ele>798.51</ele><time>2010-06-06T14:18:21Z</time></trkpt><trkpt lat="47.553156" lon="10.025079"><ele>798.51</ele><time>2010-06-06T14:18:28Z</time></trkpt><trkpt lat="47.553186" lon="10.025031"><ele>798.51</ele><time>2010-06-06T14:18:29Z</time></trkpt><trkpt lat="47.553265" lon="10.024864"><ele>798.03</ele><time>2010-06-06T14:18:32Z</time></trkpt><trkpt lat="47.553294" lon="10.024817"><ele>798.51</ele><time>2010-06-06T14:18:33Z</time></trkpt><trkpt lat="47.553327" lon="10.024778"><ele>798.99</ele><time>2010-06-06T14:18:34Z</time></trkpt><trkpt lat="47.553361" lon="10.024741"><ele>799.47</ele><time>2010-06-06T14:18:35Z</time></trkpt><trkpt lat="47.553393" lon="10.024705"><ele>798.99</ele><time>2010-06-06T14:18:36Z</time></trkpt><trkpt lat="47.553427" lon="10.024671"><ele>799.47</ele><time>2010-06-06T14:18:37Z</time></trkpt><trkpt lat="47.553531" lon="10.024503"><ele>799.95</ele><time>2010-06-06T14:18:41Z</time></trkpt><trkpt lat="47.553789" lon="10.023885"><ele>800.44</ele><time>2010-06-06T14:18:52Z</time></trkpt><trkpt lat="47.553844" lon="10.023785"><ele>799.95</ele><time>2010-06-06T14:18:54Z</time></trkpt><trkpt lat="47.553869" lon="10.023725"><ele>799.95</ele><time>2010-06-06T14:18:55Z</time></trkpt><trkpt lat="47.553894" lon="10.023666"><ele>800.44</ele><time>2010-06-06T14:18:56Z</time></trkpt><trkpt lat="47.553920" lon="10.023607"><ele>799.95</ele><time>2010-06-06T14:18:57Z</time></trkpt><trkpt lat="47.553947" lon="10.023547"><ele>799.95</ele><time>2010-06-06T14:18:58Z</time></trkpt><trkpt lat="47.554049" lon="10.023313"><ele>800.44</ele><time>2010-06-06T14:19:02Z</time></trkpt><trkpt lat="47.554182" lon="10.022958"><ele>800.92</ele><time>2010-06-06T14:19:08Z</time></trkpt><trkpt lat="47.554226" lon="10.022765"><ele>800.44</ele><time>2010-06-06T14:19:11Z</time></trkpt><trkpt lat="47.554244" lon="10.022628"><ele>799.95</ele><time>2010-06-06T14:19:13Z</time></trkpt><trkpt lat="47.554281" lon="10.021621"><ele>799.47</ele><time>2010-06-06T14:19:25Z</time></trkpt><trkpt lat="47.554273" lon="10.021534"><ele>798.51</ele><time>2010-06-06T14:19:26Z</time></trkpt><trkpt lat="47.554151" lon="10.019916"><ele>798.99</ele><time>2010-06-06T14:19:45Z</time></trkpt><trkpt lat="47.554141" lon="10.019398"><ele>798.03</ele><time>2010-06-06T14:19:51Z</time></trkpt><trkpt lat="47.554166" lon="10.019319"><ele>798.03</ele><time>2010-06-06T14:19:52Z</time></trkpt><trkpt lat="47.554202" lon="10.019253"><ele>798.51</ele><time>2010-06-06T14:19:53Z</time></trkpt><trkpt lat="47.554246" lon="10.019210"><ele>798.99</ele><time>2010-06-06T14:19:54Z</time></trkpt><trkpt lat="47.554295" lon="10.019190"><ele>798.99</ele><time>2010-06-06T14:19:55Z</time></trkpt><trkpt lat="47.554349" lon="10.019182"><ele>798.51</ele><time>2010-06-06T14:19:56Z</time></trkpt><trkpt lat="47.554409" lon="10.019195"><ele>798.51</ele><time>2010-06-06T14:19:57Z</time></trkpt><trkpt lat="47.554468" lon="10.019213"><ele>798.51</ele><time>2010-06-06T14:19:58Z</time></trkpt><trkpt lat="47.554526" lon="10.019224"><ele>798.51</ele><time>2010-06-06T14:19:59Z</time></trkpt><trkpt lat="47.554772" lon="10.019296"><ele>798.03</ele><time>2010-06-06T14:20:03Z</time></trkpt><trkpt lat="47.555178" lon="10.019503"><ele>796.59</ele><time>2010-06-06T14:20:10Z</time></trkpt><trkpt lat="47.555236" lon="10.019509"><ele>797.55</ele><time>2010-06-06T14:20:11Z</time></trkpt><trkpt lat="47.555295" lon="10.019508"><ele>797.07</ele><time>2010-06-06T14:20:12Z</time></trkpt><trkpt lat="47.555359" lon="10.019503"><ele>795.63</ele><time>2010-06-06T14:20:13Z</time></trkpt><trkpt lat="47.555420" lon="10.019477"><ele>796.59</ele><time>2010-06-06T14:20:14Z</time></trkpt><trkpt lat="47.555475" lon="10.019440"><ele>796.11</ele><time>2010-06-06T14:20:15Z</time></trkpt><trkpt lat="47.555526" lon="10.019391"><ele>796.11</ele><time>2010-06-06T14:20:16Z</time></trkpt><trkpt lat="47.555575" lon="10.019334"><ele>796.11</ele><time>2010-06-06T14:20:17Z</time></trkpt><trkpt lat="47.555887" lon="10.018995"><ele>795.15</ele><time>2010-06-06T14:20:23Z</time></trkpt><trkpt lat="47.555943" lon="10.018947"><ele>795.63</ele><time>2010-06-06T14:20:24Z</time></trkpt><trkpt lat="47.556002" lon="10.018911"><ele>795.15</ele><time>2010-06-06T14:20:25Z</time></trkpt><trkpt lat="47.556062" lon="10.018886"><ele>794.67</ele><time>2010-06-06T14:20:26Z</time></trkpt><trkpt lat="47.556137" lon="10.018897"><ele>795.63</ele><time>2010-06-06T14:20:27Z</time></trkpt><trkpt lat="47.556204" lon="10.018903"><ele>795.63</ele><time>2010-06-06T14:20:28Z</time></trkpt><trkpt lat="47.556972" lon="10.018759"><ele>796.11</ele><time>2010-06-06T14:20:41Z</time></trkpt><trkpt lat="47.557021" lon="10.018741"><ele>796.11</ele><time>2010-06-06T14:20:42Z</time></trkpt><trkpt lat="47.557069" lon="10.018729"><ele>796.11</ele><time>2010-06-06T14:20:43Z</time></trkpt><trkpt lat="47.557117" lon="10.018732"><ele>795.63</ele><time>2010-06-06T14:20:44Z</time></trkpt><trkpt lat="47.557161" lon="10.018751"><ele>795.63</ele><time>2010-06-06T14:20:45Z</time></trkpt><trkpt lat="47.557199" lon="10.018790"><ele>796.11</ele><time>2010-06-06T14:20:46Z</time></trkpt><trkpt lat="47.557231" lon="10.018844"><ele>796.11</ele><time>2010-06-06T14:20:47Z</time></trkpt><trkpt lat="47.557259" lon="10.018905"><ele>795.63</ele><time>2010-06-06T14:20:48Z</time></trkpt><trkpt lat="47.557291" lon="10.018960"><ele>796.11</ele><time>2010-06-06T14:20:49Z</time></trkpt><trkpt lat="47.557327" lon="10.019010"><ele>796.11</ele><time>2010-06-06T14:20:50Z</time></trkpt><trkpt lat="47.557368" lon="10.019052"><ele>796.59</ele><time>2010-06-06T14:20:51Z</time></trkpt><trkpt lat="47.557414" lon="10.019085"><ele>796.59</ele><time>2010-06-06T14:20:52Z</time></trkpt><trkpt lat="47.557464" lon="10.019108"><ele>796.11</ele><time>2010-06-06T14:20:53Z</time></trkpt><trkpt lat="47.557517" lon="10.019119"><ele>796.59</ele><time>2010-06-06T14:20:54Z</time></trkpt><trkpt lat="47.557571" lon="10.019116"><ele>796.11</ele><time>2010-06-06T14:20:55Z</time></trkpt><trkpt lat="47.557624" lon="10.019099"><ele>796.59</ele><time>2010-06-06T14:20:56Z</time></trkpt><trkpt lat="47.557678" lon="10.019074"><ele>796.59</ele><time>2010-06-06T14:20:57Z</time></trkpt><trkpt lat="47.557784" lon="10.019007"><ele>796.59</ele><time>2010-06-06T14:20:59Z</time></trkpt><trkpt lat="47.557834" lon="10.018966"><ele>795.63</ele><time>2010-06-06T14:21:00Z</time></trkpt><trkpt lat="47.557882" lon="10.018920"><ele>795.63</ele><time>2010-06-06T14:21:01Z</time></trkpt><trkpt lat="47.558543" lon="10.018041"><ele>795.63</ele><time>2010-06-06T14:21:16Z</time></trkpt><trkpt lat="47.559146" lon="10.017458"><ele>794.67</ele><time>2010-06-06T14:21:29Z</time></trkpt><trkpt lat="47.559460" lon="10.017172"><ele>793.22</ele><time>2010-06-06T14:21:35Z</time></trkpt><trkpt lat="47.560441" lon="10.016216"><ele>791.78</ele><time>2010-06-06T14:21:54Z</time></trkpt><trkpt lat="47.560674" lon="10.015999"><ele>791.30</ele><time>2010-06-06T14:21:59Z</time></trkpt><trkpt lat="47.560725" lon="10.016001"><ele>791.30</ele><time>2010-06-06T14:22:00Z</time></trkpt><trkpt lat="47.560771" lon="10.016044"><ele>790.82</ele><time>2010-06-06T14:22:01Z</time></trkpt><trkpt lat="47.560801" lon="10.016108"><ele>790.82</ele><time>2010-06-06T14:22:02Z</time></trkpt><trkpt lat="47.560821" lon="10.016183"><ele>790.82</ele><time>2010-06-06T14:22:03Z</time></trkpt><trkpt lat="47.560838" lon="10.016261"><ele>791.30</ele><time>2010-06-06T14:22:04Z</time></trkpt><trkpt lat="47.560885" lon="10.016493"><ele>790.34</ele><time>2010-06-06T14:22:07Z</time></trkpt><trkpt lat="47.560951" lon="10.017068"><ele>790.34</ele><time>2010-06-06T14:22:14Z</time></trkpt><trkpt lat="47.560942" lon="10.017417"><ele>789.38</ele><time>2010-06-06T14:22:18Z</time></trkpt><trkpt lat="47.560948" lon="10.017581"><ele>789.86</ele><time>2010-06-06T14:22:20Z</time></trkpt><trkpt lat="47.560941" lon="10.017667"><ele>789.86</ele><time>2010-06-06T14:22:21Z</time></trkpt><trkpt lat="47.560915" lon="10.018036"><ele>791.78</ele><time>2010-06-06T14:22:26Z</time></trkpt><trkpt lat="47.560913" lon="10.018098"><ele>791.78</ele><time>2010-06-06T14:22:27Z</time></trkpt><trkpt lat="47.560827" lon="10.018487"><ele>793.22</ele><time>2010-06-06T14:22:35Z</time></trkpt><trkpt lat="47.560803" lon="10.018493"><ele>793.71</ele><time>2010-06-06T14:22:36Z</time></trkpt><trkpt lat="47.560782" lon="10.018487"><ele>793.71</ele><time>2010-06-06T14:22:37Z</time></trkpt><trkpt lat="47.560759" lon="10.018481"><ele>794.19</ele><time>2010-06-06T14:22:38Z</time></trkpt><trkpt lat="47.560736" lon="10.018478"><ele>794.19</ele><time>2010-06-06T14:22:39Z</time></trkpt><trkpt lat="47.560606" lon="10.018465"><ele>794.19</ele><time>2010-06-06T14:22:47Z</time></trkpt><trkpt lat="47.560601" lon="10.018446"><ele>794.67</ele><time>2010-06-06T14:22:48Z</time></trkpt><trkpt lat="47.560598" lon="10.018429"><ele>794.19</ele><time>2010-06-06T14:22:49Z</time></trkpt><trkpt lat="47.560590" lon="10.018393"><ele>793.71</ele><time>2010-06-06T14:23:09Z</time></trkpt><trkpt lat="47.560588" lon="10.018395"><ele>793.71</ele><time>2010-06-06T14:25:09Z</time></trkpt><trkpt lat="47.560590" lon="10.018399"><ele>790.82</ele><time>2010-06-06T14:25:28Z</time></trkpt><trkpt lat="47.560594" lon="10.018407"><ele>793.22</ele><time>2010-06-06T14:26:30Z</time></trkpt><trkpt lat="47.560593" lon="10.018409"><ele>793.22</ele><time>2010-06-06T14:27:32Z</time></trkpt><trkpt lat="47.560593" lon="10.018409"><ele>793.22</ele><time>2010-06-06T14:27:34Z</time></trkpt><trkpt lat="47.560615" lon="10.018451"><ele>793.22</ele><time>2010-06-06T14:27:45Z</time></trkpt><trkpt lat="47.560776" lon="10.018480"><ele>792.74</ele><time>2010-06-06T14:27:56Z</time></trkpt><trkpt lat="47.560879" lon="10.018430"><ele>792.26</ele><time>2010-06-06T14:28:01Z</time></trkpt><trkpt lat="47.560895" lon="10.018401"><ele>792.26</ele><time>2010-06-06T14:28:02Z</time></trkpt><trkpt lat="47.560904" lon="10.018361"><ele>792.26</ele><time>2010-06-06T14:28:03Z</time></trkpt><trkpt lat="47.560927" lon="10.018201"><ele>791.78</ele><time>2010-06-06T14:28:06Z</time></trkpt><trkpt lat="47.560936" lon="10.018138"><ele>791.78</ele><time>2010-06-06T14:28:07Z</time></trkpt><trkpt lat="47.560942" lon="10.018067"><ele>791.78</ele><time>2010-06-06T14:28:08Z</time></trkpt><trkpt lat="47.560943" lon="10.017989"><ele>791.30</ele><time>2010-06-06T14:28:09Z</time></trkpt><trkpt lat="47.560945" lon="10.017902"><ele>790.82</ele><time>2010-06-06T14:28:10Z</time></trkpt><trkpt lat="47.560948" lon="10.017814"><ele>789.86</ele><time>2010-06-06T14:28:11Z</time></trkpt><trkpt lat="47.560952" lon="10.017724"><ele>789.86</ele><time>2010-06-06T14:28:12Z</time></trkpt><trkpt lat="47.560977" lon="10.016933"><ele>788.90</ele><time>2010-06-06T14:28:21Z</time></trkpt><trkpt lat="47.560974" lon="10.016862"><ele>789.38</ele><time>2010-06-06T14:28:22Z</time></trkpt><trkpt lat="47.560964" lon="10.016793"><ele>789.38</ele><time>2010-06-06T14:28:23Z</time></trkpt><trkpt lat="47.560895" lon="10.016415"><ele>788.90</ele><time>2010-06-06T14:28:29Z</time></trkpt><trkpt lat="47.560879" lon="10.016355"><ele>788.90</ele><time>2010-06-06T14:28:30Z</time></trkpt><trkpt lat="47.560865" lon="10.016294"><ele>788.90</ele><time>2010-06-06T14:28:31Z</time></trkpt><trkpt lat="47.560807" lon="10.016060"><ele>788.90</ele><time>2010-06-06T14:28:35Z</time></trkpt><trkpt lat="47.560800" lon="10.015999"><ele>789.38</ele><time>2010-06-06T14:28:36Z</time></trkpt><trkpt lat="47.560802" lon="10.015939"><ele>788.90</ele><time>2010-06-06T14:28:37Z</time></trkpt><trkpt lat="47.560818" lon="10.015890"><ele>789.38</ele><time>2010-06-06T14:28:38Z</time></trkpt><trkpt lat="47.560844" lon="10.015852"><ele>789.86</ele><time>2010-06-06T14:28:39Z</time></trkpt><trkpt lat="47.560877" lon="10.015821"><ele>789.86</ele><time>2010-06-06T14:28:40Z</time></trkpt><trkpt lat="47.560914" lon="10.015793"><ele>789.38</ele><time>2010-06-06T14:28:41Z</time></trkpt><trkpt lat="47.560993" lon="10.015740"><ele>789.86</ele><time>2010-06-06T14:28:43Z</time></trkpt><trkpt lat="47.561038" lon="10.015722"><ele>789.86</ele><time>2010-06-06T14:28:44Z</time></trkpt><trkpt lat="47.561782" lon="10.015532"><ele>789.86</ele><time>2010-06-06T14:29:00Z</time></trkpt><trkpt lat="47.562468" lon="10.015097"><ele>790.34</ele><time>2010-06-06T14:29:15Z</time></trkpt><trkpt lat="47.563377" lon="10.014377"><ele>791.78</ele><time>2010-06-06T14:29:34Z</time></trkpt><trkpt lat="47.564241" lon="10.013704"><ele>791.78</ele><time>2010-06-06T14:29:50Z</time></trkpt><trkpt lat="47.565293" lon="10.012726"><ele>791.30</ele><time>2010-06-06T14:30:08Z</time></trkpt><trkpt lat="47.566050" lon="10.011947"><ele>791.78</ele><time>2010-06-06T14:30:23Z</time></trkpt><trkpt lat="47.566099" lon="10.011907"><ele>792.26</ele><time>2010-06-06T14:30:24Z</time></trkpt><trkpt lat="47.566896" lon="10.011353"><ele>792.74</ele><time>2010-06-06T14:30:40Z</time></trkpt><trkpt lat="47.567603" lon="10.010741"><ele>791.78</ele><time>2010-06-06T14:30:52Z</time></trkpt><trkpt lat="47.568625" lon="10.009967"><ele>790.82</ele><time>2010-06-06T14:31:09Z</time></trkpt><trkpt lat="47.569806" lon="10.009303"><ele>789.86</ele><time>2010-06-06T14:31:27Z</time></trkpt><trkpt lat="47.570927" lon="10.008364"><ele>788.90</ele><time>2010-06-06T14:31:45Z</time></trkpt><trkpt lat="47.571352" lon="10.008028"><ele>788.42</ele><time>2010-06-06T14:31:52Z</time></trkpt><trkpt lat="47.571424" lon="10.007994"><ele>787.46</ele><time>2010-06-06T14:31:53Z</time></trkpt><trkpt lat="47.571501" lon="10.007970"><ele>786.98</ele><time>2010-06-06T14:31:54Z</time></trkpt><trkpt lat="47.571583" lon="10.007957"><ele>786.98</ele><time>2010-06-06T14:31:55Z</time></trkpt><trkpt lat="47.571669" lon="10.007951"><ele>787.46</ele><time>2010-06-06T14:31:56Z</time></trkpt><trkpt lat="47.572404" lon="10.008157"><ele>786.02</ele><time>2010-06-06T14:32:06Z</time></trkpt><trkpt lat="47.572517" lon="10.008199"><ele>786.98</ele><time>2010-06-06T14:32:08Z</time></trkpt><trkpt lat="47.572654" lon="10.008243"><ele>787.94</ele><time>2010-06-06T14:32:11Z</time></trkpt><trkpt lat="47.573461" lon="10.008450"><ele>790.82</ele><time>2010-06-06T14:32:28Z</time></trkpt><trkpt lat="47.574119" lon="10.008650"><ele>790.82</ele><time>2010-06-06T14:32:40Z</time></trkpt><trkpt lat="47.574894" lon="10.009259"><ele>792.26</ele><time>2010-06-06T14:32:56Z</time></trkpt><trkpt lat="47.574935" lon="10.009289"><ele>792.26</ele><time>2010-06-06T14:32:57Z</time></trkpt><trkpt lat="47.574979" lon="10.009307"><ele>792.26</ele><time>2010-06-06T14:32:58Z</time></trkpt><trkpt lat="47.575025" lon="10.009321"><ele>792.74</ele><time>2010-06-06T14:32:59Z</time></trkpt><trkpt lat="47.575074" lon="10.009327"><ele>792.74</ele><time>2010-06-06T14:33:00Z</time></trkpt><trkpt lat="47.575122" lon="10.009329"><ele>792.74</ele><time>2010-06-06T14:33:01Z</time></trkpt><trkpt lat="47.575167" lon="10.009313"><ele>793.22</ele><time>2010-06-06T14:33:02Z</time></trkpt><trkpt lat="47.575200" lon="10.009268"><ele>793.71</ele><time>2010-06-06T14:33:03Z</time></trkpt><trkpt lat="47.575220" lon="10.009207"><ele>793.22</ele><time>2010-06-06T14:33:04Z</time></trkpt><trkpt lat="47.575237" lon="10.009145"><ele>793.71</ele><time>2010-06-06T14:33:05Z</time></trkpt><trkpt lat="47.575257" lon="10.009081"><ele>793.71</ele><time>2010-06-06T14:33:06Z</time></trkpt><trkpt lat="47.575401" lon="10.008555"><ele>794.67</ele><time>2010-06-06T14:33:14Z</time></trkpt><trkpt lat="47.575423" lon="10.008495"><ele>794.67</ele><time>2010-06-06T14:33:15Z</time></trkpt><trkpt lat="47.575443" lon="10.008438"><ele>794.67</ele><time>2010-06-06T14:33:16Z</time></trkpt><trkpt lat="47.575720" lon="10.007629"><ele>797.07</ele><time>2010-06-06T14:33:31Z</time></trkpt><trkpt lat="47.575738" lon="10.007574"><ele>797.07</ele><time>2010-06-06T14:33:32Z</time></trkpt><trkpt lat="47.575760" lon="10.007523"><ele>797.55</ele><time>2010-06-06T14:33:33Z</time></trkpt><trkpt lat="47.575783" lon="10.007475"><ele>798.03</ele><time>2010-06-06T14:33:34Z</time></trkpt><trkpt lat="47.575805" lon="10.007433"><ele>798.03</ele><time>2010-06-06T14:33:35Z</time></trkpt><trkpt lat="47.575828" lon="10.007390"><ele>798.51</ele><time>2010-06-06T14:33:36Z</time></trkpt><trkpt lat="47.576254" lon="10.006444"><ele>800.44</ele><time>2010-06-06T14:33:56Z</time></trkpt><trkpt lat="47.576276" lon="10.005501"><ele>801.40</ele><time>2010-06-06T14:34:13Z</time></trkpt><trkpt lat="47.575985" lon="10.004627"><ele>803.80</ele><time>2010-06-06T14:34:30Z</time></trkpt><trkpt lat="47.575835" lon="10.003654"><ele>804.76</ele><time>2010-06-06T14:34:47Z</time></trkpt><trkpt lat="47.575829" lon="10.003457"><ele>805.72</ele><time>2010-06-06T14:34:53Z</time></trkpt><trkpt lat="47.575847" lon="10.003441"><ele>805.72</ele><time>2010-06-06T14:34:54Z</time></trkpt><trkpt lat="47.575870" lon="10.003432"><ele>805.72</ele><time>2010-06-06T14:34:55Z</time></trkpt><trkpt lat="47.575898" lon="10.003431"><ele>805.72</ele><time>2010-06-06T14:34:56Z</time></trkpt><trkpt lat="47.575925" lon="10.003438"><ele>805.72</ele><time>2010-06-06T14:34:57Z</time></trkpt><trkpt lat="47.575951" lon="10.003455"><ele>806.20</ele><time>2010-06-06T14:34:58Z</time></trkpt><trkpt lat="47.575979" lon="10.003477"><ele>806.20</ele><time>2010-06-06T14:34:59Z</time></trkpt><trkpt lat="47.576196" lon="10.003607"><ele>805.72</ele><time>2010-06-06T14:35:05Z</time></trkpt><trkpt lat="47.576243" lon="10.003618"><ele>805.72</ele><time>2010-06-06T14:35:06Z</time></trkpt><trkpt lat="47.576293" lon="10.003621"><ele>805.72</ele><time>2010-06-06T14:35:07Z</time></trkpt><trkpt lat="47.577251" lon="10.003431"><ele>805.72</ele><time>2010-06-06T14:35:26Z</time></trkpt><trkpt lat="47.577745" lon="10.003376"><ele>804.76</ele><time>2010-06-06T14:35:35Z</time></trkpt><trkpt lat="47.577811" lon="10.003393"><ele>804.76</ele><time>2010-06-06T14:35:36Z</time></trkpt><trkpt lat="47.578169" lon="10.003541"><ele>800.92</ele><time>2010-06-06T14:35:41Z</time></trkpt><trkpt lat="47.578804" lon="10.003906"><ele>798.03</ele><time>2010-06-06T14:35:49Z</time></trkpt><trkpt lat="47.579149" lon="10.004135"><ele>796.11</ele><time>2010-06-06T14:35:53Z</time></trkpt><trkpt lat="47.579411" lon="10.004307"><ele>794.67</ele><time>2010-06-06T14:35:56Z</time></trkpt><trkpt lat="47.579502" lon="10.004348"><ele>795.15</ele><time>2010-06-06T14:35:57Z</time></trkpt><trkpt lat="47.579597" lon="10.004358"><ele>794.67</ele><time>2010-06-06T14:35:58Z</time></trkpt><trkpt lat="47.579686" lon="10.004325"><ele>795.15</ele><time>2010-06-06T14:35:59Z</time></trkpt><trkpt lat="47.579761" lon="10.004264"><ele>794.19</ele><time>2010-06-06T14:36:00Z</time></trkpt><trkpt lat="47.579825" lon="10.004191"><ele>794.67</ele><time>2010-06-06T14:36:01Z</time></trkpt><trkpt lat="47.579880" lon="10.004117"><ele>795.15</ele><time>2010-06-06T14:36:02Z</time></trkpt><trkpt lat="47.579929" lon="10.004043"><ele>795.15</ele><time>2010-06-06T14:36:03Z</time></trkpt><trkpt lat="47.580234" lon="10.003601"><ele>798.03</ele><time>2010-06-06T14:36:12Z</time></trkpt><trkpt lat="47.580530" lon="10.002825"><ele>800.92</ele><time>2010-06-06T14:36:28Z</time></trkpt><trkpt lat="47.580575" lon="10.002667"><ele>800.44</ele><time>2010-06-06T14:36:31Z</time></trkpt><trkpt lat="47.580640" lon="10.002414"><ele>800.44</ele><time>2010-06-06T14:36:35Z</time></trkpt><trkpt lat="47.580933" lon="10.001215"><ele>799.47</ele><time>2010-06-06T14:36:50Z</time></trkpt><trkpt lat="47.581072" lon="10.000479"><ele>802.36</ele><time>2010-06-06T14:37:03Z</time></trkpt><trkpt lat="47.581206" lon="9.999806"><ele>805.72</ele><time>2010-06-06T14:37:19Z</time></trkpt><trkpt lat="47.581461" lon="9.999501"><ele>808.13</ele><time>2010-06-06T14:37:32Z</time></trkpt><trkpt lat="47.581901" lon="9.999574"><ele>811.01</ele><time>2010-06-06T14:37:48Z</time></trkpt><trkpt lat="47.582477" lon="9.999661"><ele>814.37</ele><time>2010-06-06T14:38:09Z</time></trkpt><trkpt lat="47.582741" lon="9.999667"><ele>815.82</ele><time>2010-06-06T14:38:20Z</time></trkpt><trkpt lat="47.582752" lon="9.999639"><ele>815.82</ele><time>2010-06-06T14:38:21Z</time></trkpt><trkpt lat="47.582756" lon="9.999608"><ele>816.30</ele><time>2010-06-06T14:38:22Z</time></trkpt><trkpt lat="47.582675" lon="9.999200"><ele>818.70</ele><time>2010-06-06T14:38:34Z</time></trkpt><trkpt lat="47.582684" lon="9.998714"><ele>822.06</ele><time>2010-06-06T14:38:48Z</time></trkpt><trkpt lat="47.582771" lon="9.998084"><ele>824.95</ele><time>2010-06-06T14:39:06Z</time></trkpt><trkpt lat="47.582827" lon="9.997526"><ele>827.83</ele><time>2010-06-06T14:39:22Z</time></trkpt><trkpt lat="47.582844" lon="9.997171"><ele>830.24</ele><time>2010-06-06T14:39:32Z</time></trkpt><trkpt lat="47.582908" lon="9.996631"><ele>833.12</ele><time>2010-06-06T14:39:47Z</time></trkpt><trkpt lat="47.583020" lon="9.996056"><ele>836.48</ele><time>2010-06-06T14:40:04Z</time></trkpt><trkpt lat="47.583140" lon="9.995571"><ele>839.37</ele><time>2010-06-06T14:40:19Z</time></trkpt><trkpt lat="47.583278" lon="9.995067"><ele>842.73</ele><time>2010-06-06T14:40:35Z</time></trkpt><trkpt lat="47.583414" lon="9.994491"><ele>845.62</ele><time>2010-06-06T14:40:53Z</time></trkpt><trkpt lat="47.583520" lon="9.993959"><ele>848.02</ele><time>2010-06-06T14:41:09Z</time></trkpt><trkpt lat="47.583490" lon="9.993654"><ele>849.46</ele><time>2010-06-06T14:41:19Z</time></trkpt><trkpt lat="47.583482" lon="9.993630"><ele>849.46</ele><time>2010-06-06T14:41:20Z</time></trkpt><trkpt lat="47.583464" lon="9.993516"><ele>849.94</ele><time>2010-06-06T14:41:24Z</time></trkpt><trkpt lat="47.583468" lon="9.993492"><ele>850.42</ele><time>2010-06-06T14:41:25Z</time></trkpt><trkpt lat="47.583484" lon="9.993450"><ele>850.42</ele><time>2010-06-06T14:41:27Z</time></trkpt><trkpt lat="47.583506" lon="9.993435"><ele>850.42</ele><time>2010-06-06T14:41:28Z</time></trkpt><trkpt lat="47.583538" lon="9.993431"><ele>850.42</ele><time>2010-06-06T14:41:29Z</time></trkpt><trkpt lat="47.583578" lon="9.993444"><ele>850.42</ele><time>2010-06-06T14:41:30Z</time></trkpt><trkpt lat="47.583624" lon="9.993472"><ele>849.94</ele><time>2010-06-06T14:41:31Z</time></trkpt><trkpt lat="47.583677" lon="9.993513"><ele>849.46</ele><time>2010-06-06T14:41:32Z</time></trkpt><trkpt lat="47.583738" lon="9.993568"><ele>848.50</ele><time>2010-06-06T14:41:33Z</time></trkpt><trkpt lat="47.584122" lon="9.993910"><ele>845.14</ele><time>2010-06-06T14:41:38Z</time></trkpt><trkpt lat="47.584494" lon="9.994250"><ele>842.73</ele><time>2010-06-06T14:41:42Z</time></trkpt><trkpt lat="47.584902" lon="9.994655"><ele>846.10</ele><time>2010-06-06T14:41:48Z</time></trkpt><trkpt lat="47.585085" lon="9.994810"><ele>849.46</ele><time>2010-06-06T14:41:55Z</time></trkpt><trkpt lat="47.585301" lon="9.994985"><ele>852.83</ele><time>2010-06-06T14:42:06Z</time></trkpt><trkpt lat="47.585520" lon="9.995203"><ele>855.71</ele><time>2010-06-06T14:42:18Z</time></trkpt><trkpt lat="47.585751" lon="9.995424"><ele>859.08</ele><time>2010-06-06T14:42:31Z</time></trkpt><trkpt lat="47.586055" lon="9.995814"><ele>861.48</ele><time>2010-06-06T14:42:49Z</time></trkpt><trkpt lat="47.586347" lon="9.996187"><ele>862.92</ele><time>2010-06-06T14:43:06Z</time></trkpt><trkpt lat="47.586782" lon="9.996477"><ele>864.36</ele><time>2010-06-06T14:43:26Z</time></trkpt><trkpt lat="47.587185" lon="9.996569"><ele>864.36</ele><time>2010-06-06T14:43:43Z</time></trkpt><trkpt lat="47.587457" lon="9.996666"><ele>865.80</ele><time>2010-06-06T14:43:55Z</time></trkpt><trkpt lat="47.587693" lon="9.996830"><ele>863.88</ele><time>2010-06-06T14:44:10Z</time></trkpt><trkpt lat="47.587785" lon="9.996917"><ele>862.44</ele><time>2010-06-06T14:44:17Z</time></trkpt><trkpt lat="47.587803" lon="9.996893"><ele>862.44</ele><time>2010-06-06T14:44:31Z</time></trkpt><trkpt lat="47.587802" lon="9.996895"><ele>862.44</ele><time>2010-06-06T14:45:08Z</time></trkpt><trkpt lat="47.587807" lon="9.996901"><ele>862.44</ele><time>2010-06-06T14:45:29Z</time></trkpt><trkpt lat="47.587817" lon="9.996916"><ele>861.96</ele><time>2010-06-06T14:45:30Z</time></trkpt><trkpt lat="47.587834" lon="9.996939"><ele>861.96</ele><time>2010-06-06T14:45:31Z</time></trkpt><trkpt lat="47.587852" lon="9.996971"><ele>861.48</ele><time>2010-06-06T14:45:32Z</time></trkpt><trkpt lat="47.587878" lon="9.997010"><ele>861.48</ele><time>2010-06-06T14:45:33Z</time></trkpt><trkpt lat="47.587913" lon="9.997047"><ele>861.48</ele><time>2010-06-06T14:45:34Z</time></trkpt><trkpt lat="47.588087" lon="9.997230"><ele>859.56</ele><time>2010-06-06T14:45:38Z</time></trkpt><trkpt lat="47.588191" lon="9.997307"><ele>859.56</ele><time>2010-06-06T14:45:40Z</time></trkpt><trkpt lat="47.588248" lon="9.997330"><ele>858.59</ele><time>2010-06-06T14:45:41Z</time></trkpt><trkpt lat="47.588307" lon="9.997329"><ele>858.11</ele><time>2010-06-06T14:45:42Z</time></trkpt><trkpt lat="47.588359" lon="9.997298"><ele>858.59</ele><time>2010-06-06T14:45:43Z</time></trkpt><trkpt lat="47.588402" lon="9.997243"><ele>858.59</ele><time>2010-06-06T14:45:44Z</time></trkpt><trkpt lat="47.588439" lon="9.997177"><ele>858.59</ele><time>2010-06-06T14:45:45Z</time></trkpt><trkpt lat="47.588529" lon="9.996966"><ele>858.59</ele><time>2010-06-06T14:45:48Z</time></trkpt><trkpt lat="47.588624" lon="9.996650"><ele>857.63</ele><time>2010-06-06T14:45:53Z</time></trkpt><trkpt lat="47.588836" lon="9.995930"><ele>857.63</ele><time>2010-06-06T14:46:08Z</time></trkpt><trkpt lat="47.588746" lon="9.995259"><ele>859.56</ele><time>2010-06-06T14:46:24Z</time></trkpt><trkpt lat="47.588630" lon="9.994604"><ele>862.92</ele><time>2010-06-06T14:46:40Z</time></trkpt><trkpt lat="47.588473" lon="9.993898"><ele>865.80</ele><time>2010-06-06T14:46:57Z</time></trkpt><trkpt lat="47.588243" lon="9.993343"><ele>867.25</ele><time>2010-06-06T14:47:12Z</time></trkpt><trkpt lat="47.588005" lon="9.992993"><ele>868.69</ele><time>2010-06-06T14:47:25Z</time></trkpt><trkpt lat="47.587741" lon="9.992579"><ele>868.69</ele><time>2010-06-06T14:47:37Z</time></trkpt><trkpt lat="47.587663" lon="9.992399"><ele>868.21</ele><time>2010-06-06T14:47:40Z</time></trkpt><trkpt lat="47.587359" lon="9.991429"><ele>865.32</ele><time>2010-06-06T14:47:52Z</time></trkpt><trkpt lat="47.586915" lon="9.989889"><ele>863.88</ele><time>2010-06-06T14:48:09Z</time></trkpt><trkpt lat="47.586398" lon="9.988676"><ele>864.84</ele><time>2010-06-06T14:48:26Z</time></trkpt><trkpt lat="47.585940" lon="9.987801"><ele>864.36</ele><time>2010-06-06T14:48:44Z</time></trkpt><trkpt lat="47.585431" lon="9.986951"><ele>862.92</ele><time>2010-06-06T14:48:59Z</time></trkpt><trkpt lat="47.585041" lon="9.986401"><ele>860.04</ele><time>2010-06-06T14:49:07Z</time></trkpt><trkpt lat="47.584886" lon="9.986254"><ele>858.59</ele><time>2010-06-06T14:49:09Z</time></trkpt><trkpt lat="47.584415" lon="9.985863"><ele>854.75</ele><time>2010-06-06T14:49:14Z</time></trkpt><trkpt lat="47.584036" lon="9.985465"><ele>851.38</ele><time>2010-06-06T14:49:18Z</time></trkpt><trkpt lat="47.583797" lon="9.985121"><ele>849.46</ele><time>2010-06-06T14:49:21Z</time></trkpt><trkpt lat="47.583674" lon="9.984888"><ele>848.98</ele><time>2010-06-06T14:49:23Z</time></trkpt><trkpt lat="47.583646" lon="9.984782"><ele>847.54</ele><time>2010-06-06T14:49:24Z</time></trkpt><trkpt lat="47.583651" lon="9.984685"><ele>847.54</ele><time>2010-06-06T14:49:25Z</time></trkpt><trkpt lat="47.583689" lon="9.984607"><ele>847.54</ele><time>2010-06-06T14:49:26Z</time></trkpt><trkpt lat="47.583747" lon="9.984546"><ele>846.58</ele><time>2010-06-06T14:49:27Z</time></trkpt><trkpt lat="47.583810" lon="9.984492"><ele>846.10</ele><time>2010-06-06T14:49:28Z</time></trkpt><trkpt lat="47.583874" lon="9.984443"><ele>846.10</ele><time>2010-06-06T14:49:29Z</time></trkpt><trkpt lat="47.583940" lon="9.984411"><ele>846.10</ele><time>2010-06-06T14:49:30Z</time></trkpt><trkpt lat="47.584008" lon="9.984394"><ele>846.10</ele><time>2010-06-06T14:49:31Z</time></trkpt><trkpt lat="47.584264" lon="9.984354"><ele>846.58</ele><time>2010-06-06T14:49:35Z</time></trkpt><trkpt lat="47.584318" lon="9.984373"><ele>846.58</ele><time>2010-06-06T14:49:36Z</time></trkpt><trkpt lat="47.584368" lon="9.984412"><ele>846.58</ele><time>2010-06-06T14:49:37Z</time></trkpt><trkpt lat="47.584575" lon="9.984569"><ele>848.50</ele><time>2010-06-06T14:49:45Z</time></trkpt><trkpt lat="47.584620" lon="9.984580"><ele>849.46</ele><time>2010-06-06T14:49:49Z</time></trkpt><trkpt lat="47.584633" lon="9.984592"><ele>848.98</ele><time>2010-06-06T14:49:50Z</time></trkpt><trkpt lat="47.584667" lon="9.984610"><ele>848.50</ele><time>2010-06-06T14:49:52Z</time></trkpt><trkpt lat="47.584684" lon="9.984606"><ele>848.50</ele><time>2010-06-06T14:49:53Z</time></trkpt><trkpt lat="47.584702" lon="9.984593"><ele>848.50</ele><time>2010-06-06T14:49:54Z</time></trkpt><trkpt lat="47.584888" lon="9.984517"><ele>850.90</ele><time>2010-06-06T14:50:06Z</time></trkpt><trkpt lat="47.584969" lon="9.984481"><ele>849.94</ele><time>2010-06-06T14:50:09Z</time></trkpt><trkpt lat="47.585000" lon="9.984455"><ele>849.46</ele><time>2010-06-06T14:50:10Z</time></trkpt><trkpt lat="47.585018" lon="9.984442"><ele>849.46</ele><time>2010-06-06T14:50:11Z</time></trkpt><trkpt lat="47.585027" lon="9.984425"><ele>850.90</ele><time>2010-06-06T14:50:23Z</time></trkpt><trkpt lat="47.585089" lon="9.984374"><ele>852.35</ele><time>2010-06-06T14:50:35Z</time></trkpt><trkpt lat="47.585102" lon="9.984359"><ele>851.87</ele><time>2010-06-06T14:50:36Z</time></trkpt><trkpt lat="47.585137" lon="9.984311"><ele>850.90</ele><time>2010-06-06T14:50:39Z</time></trkpt><trkpt lat="47.585152" lon="9.984312"><ele>849.46</ele><time>2010-06-06T14:50:40Z</time></trkpt><trkpt lat="47.585170" lon="9.984320"><ele>849.46</ele><time>2010-06-06T14:50:41Z</time></trkpt><trkpt lat="47.585190" lon="9.984335"><ele>848.98</ele><time>2010-06-06T14:50:42Z</time></trkpt><trkpt lat="47.585212" lon="9.984350"><ele>848.02</ele><time>2010-06-06T14:50:43Z</time></trkpt><trkpt lat="47.585231" lon="9.984360"><ele>847.06</ele><time>2010-06-06T14:50:44Z</time></trkpt><trkpt lat="47.585248" lon="9.984365"><ele>847.06</ele><time>2010-06-06T14:50:45Z</time></trkpt><trkpt lat="47.585276" lon="9.984343"><ele>844.66</ele><time>2010-06-06T14:50:47Z</time></trkpt><trkpt lat="47.585289" lon="9.984335"><ele>843.69</ele><time>2010-06-06T14:50:48Z</time></trkpt><trkpt lat="47.585359" lon="9.984285"><ele>841.29</ele><time>2010-06-06T14:50:52Z</time></trkpt><trkpt lat="47.585377" lon="9.984292"><ele>840.81</ele><time>2010-06-06T14:50:53Z</time></trkpt><trkpt lat="47.585506" lon="9.984301"><ele>837.45</ele><time>2010-06-06T14:51:01Z</time></trkpt><trkpt lat="47.585640" lon="9.984288"><ele>834.08</ele><time>2010-06-06T14:51:08Z</time></trkpt><trkpt lat="47.585655" lon="9.984288"><ele>833.12</ele><time>2010-06-06T14:51:09Z</time></trkpt><trkpt lat="47.585673" lon="9.984288"><ele>832.64</ele><time>2010-06-06T14:51:10Z</time></trkpt><trkpt lat="47.585703" lon="9.984286"><ele>832.64</ele><time>2010-06-06T14:51:11Z</time></trkpt><trkpt lat="47.585725" lon="9.984289"><ele>831.20</ele><time>2010-06-06T14:51:12Z</time></trkpt><trkpt lat="47.585752" lon="9.984297"><ele>829.76</ele><time>2010-06-06T14:51:13Z</time></trkpt><trkpt lat="47.585834" lon="9.984309"><ele>826.39</ele><time>2010-06-06T14:51:19Z</time></trkpt><trkpt lat="47.585856" lon="9.984309"><ele>825.43</ele><time>2010-06-06T14:51:21Z</time></trkpt><trkpt lat="47.585905" lon="9.984295"><ele>823.99</ele><time>2010-06-06T14:51:24Z</time></trkpt><trkpt lat="47.585921" lon="9.984283"><ele>823.99</ele><time>2010-06-06T14:51:25Z</time></trkpt><trkpt lat="47.585958" lon="9.984234"><ele>821.58</ele><time>2010-06-06T14:51:30Z</time></trkpt><trkpt lat="47.585986" lon="9.984206"><ele>820.14</ele><time>2010-06-06T14:51:34Z</time></trkpt><trkpt lat="47.586000" lon="9.984212"><ele>819.18</ele><time>2010-06-06T14:51:36Z</time></trkpt><trkpt lat="47.586061" lon="9.984278"><ele>816.78</ele><time>2010-06-06T14:51:41Z</time></trkpt><trkpt lat="47.586097" lon="9.984315"><ele>815.34</ele><time>2010-06-06T14:51:48Z</time></trkpt><trkpt lat="47.586138" lon="9.984224"><ele>813.89</ele><time>2010-06-06T14:51:52Z</time></trkpt><trkpt lat="47.586153" lon="9.984099"><ele>811.49</ele><time>2010-06-06T14:51:57Z</time></trkpt><trkpt lat="47.586155" lon="9.984079"><ele>811.01</ele><time>2010-06-06T14:51:58Z</time></trkpt><trkpt lat="47.586175" lon="9.983957"><ele>810.05</ele><time>2010-06-06T14:52:03Z</time></trkpt><trkpt lat="47.586167" lon="9.983892"><ele>809.09</ele><time>2010-06-06T14:52:14Z</time></trkpt><trkpt lat="47.586187" lon="9.983707"><ele>806.68</ele><time>2010-06-06T14:52:57Z</time></trkpt><trkpt lat="47.586142" lon="9.983562"><ele>806.68</ele><time>2010-06-06T14:53:02Z</time></trkpt><trkpt lat="47.586054" lon="9.983118"><ele>805.24</ele><time>2010-06-06T14:53:12Z</time></trkpt><trkpt lat="47.585993" lon="9.982720"><ele>804.76</ele><time>2010-06-06T14:53:22Z</time></trkpt><trkpt lat="47.585912" lon="9.982159"><ele>804.28</ele><time>2010-06-06T14:53:34Z</time></trkpt><trkpt lat="47.585833" lon="9.981601"><ele>802.84</ele><time>2010-06-06T14:53:47Z</time></trkpt><trkpt lat="47.585774" lon="9.981267"><ele>802.36</ele><time>2010-06-06T14:53:55Z</time></trkpt><trkpt lat="47.585838" lon="9.980967"><ele>800.44</ele><time>2010-06-06T14:54:04Z</time></trkpt><trkpt lat="47.585814" lon="9.980905"><ele>799.95</ele><time>2010-06-06T14:54:06Z</time></trkpt><trkpt lat="47.585768" lon="9.980688"><ele>799.47</ele><time>2010-06-06T14:54:10Z</time></trkpt><trkpt lat="47.585697" lon="9.980537"><ele>799.47</ele><time>2010-06-06T14:54:15Z</time></trkpt><trkpt lat="47.585541" lon="9.980122"><ele>799.47</ele><time>2010-06-06T14:54:26Z</time></trkpt><trkpt lat="47.585296" lon="9.979708"><ele>799.47</ele><time>2010-06-06T14:54:36Z</time></trkpt><trkpt lat="47.585241" lon="9.979558"><ele>798.51</ele><time>2010-06-06T14:54:40Z</time></trkpt><trkpt lat="47.585057" lon="9.979204"><ele>798.99</ele><time>2010-06-06T14:54:50Z</time></trkpt><trkpt lat="47.584996" lon="9.979052"><ele>798.51</ele><time>2010-06-06T14:54:53Z</time></trkpt><trkpt lat="47.584993" lon="9.978890"><ele>798.51</ele><time>2010-06-06T14:54:58Z</time></trkpt><trkpt lat="47.584818" lon="9.978367"><ele>798.03</ele><time>2010-06-06T14:55:13Z</time></trkpt><trkpt lat="47.584711" lon="9.978157"><ele>798.03</ele><time>2010-06-06T14:55:23Z</time></trkpt><trkpt lat="47.584922" lon="9.977899"><ele>796.11</ele><time>2010-06-06T14:55:32Z</time></trkpt><trkpt lat="47.584999" lon="9.977824"><ele>795.15</ele><time>2010-06-06T14:55:35Z</time></trkpt><trkpt lat="47.585232" lon="9.977512"><ele>792.26</ele><time>2010-06-06T14:55:45Z</time></trkpt><trkpt lat="47.585400" lon="9.977180"><ele>790.34</ele><time>2010-06-06T14:55:52Z</time></trkpt><trkpt lat="47.585584" lon="9.976909"><ele>788.90</ele><time>2010-06-06T14:55:58Z</time></trkpt><trkpt lat="47.585699" lon="9.976686"><ele>787.94</ele><time>2010-06-06T14:56:02Z</time></trkpt><trkpt lat="47.585738" lon="9.976641"><ele>787.46</ele><time>2010-06-06T14:56:03Z</time></trkpt><trkpt lat="47.585840" lon="9.976507"><ele>786.50</ele><time>2010-06-06T14:56:07Z</time></trkpt><trkpt lat="47.585679" lon="9.976145"><ele>786.50</ele><time>2010-06-06T14:56:16Z</time></trkpt><trkpt lat="47.585421" lon="9.975674"><ele>785.53</ele><time>2010-06-06T14:56:30Z</time></trkpt><trkpt lat="47.585401" lon="9.975654"><ele>785.05</ele><time>2010-06-06T14:56:31Z</time></trkpt><trkpt lat="47.585329" lon="9.975494"><ele>784.57</ele><time>2010-06-06T14:56:36Z</time></trkpt><trkpt lat="47.585107" lon="9.974898"><ele>783.61</ele><time>2010-06-06T14:56:52Z</time></trkpt><trkpt lat="47.584872" lon="9.974443"><ele>782.65</ele><time>2010-06-06T14:57:04Z</time></trkpt><trkpt lat="47.584609" lon="9.974052"><ele>782.17</ele><time>2010-06-06T14:57:15Z</time></trkpt><trkpt lat="47.584232" lon="9.973672"><ele>781.69</ele><time>2010-06-06T14:57:29Z</time></trkpt><trkpt lat="47.583961" lon="9.973391"><ele>781.21</ele><time>2010-06-06T14:57:41Z</time></trkpt><trkpt lat="47.583933" lon="9.973300"><ele>780.73</ele><time>2010-06-06T14:57:59Z</time></trkpt><trkpt lat="47.583836" lon="9.973027"><ele>780.73</ele><time>2010-06-06T14:58:10Z</time></trkpt><trkpt lat="47.583795" lon="9.972742"><ele>780.73</ele><time>2010-06-06T14:58:23Z</time></trkpt><trkpt lat="47.583809" lon="9.972590"><ele>780.25</ele><time>2010-06-06T14:58:29Z</time></trkpt><trkpt lat="47.583828" lon="9.972533"><ele>780.73</ele><time>2010-06-06T14:58:32Z</time></trkpt><trkpt lat="47.583853" lon="9.972514"><ele>781.21</ele><time>2010-06-06T14:58:34Z</time></trkpt><trkpt lat="47.583875" lon="9.972314"><ele>780.73</ele><time>2010-06-06T14:58:42Z</time></trkpt><trkpt lat="47.583888" lon="9.972196"><ele>781.69</ele><time>2010-06-06T14:58:47Z</time></trkpt><trkpt lat="47.583885" lon="9.972088"><ele>781.21</ele><time>2010-06-06T14:58:51Z</time></trkpt><trkpt lat="47.583907" lon="9.971843"><ele>780.73</ele><time>2010-06-06T14:58:57Z</time></trkpt><trkpt lat="47.583957" lon="9.971643"><ele>780.25</ele><time>2010-06-06T14:59:01Z</time></trkpt><trkpt lat="47.584071" lon="9.971575"><ele>779.77</ele><time>2010-06-06T14:59:06Z</time></trkpt><trkpt lat="47.584194" lon="9.971369"><ele>779.29</ele><time>2010-06-06T14:59:11Z</time></trkpt><trkpt lat="47.584307" lon="9.971254"><ele>779.77</ele><time>2010-06-06T14:59:15Z</time></trkpt><trkpt lat="47.584338" lon="9.971054"><ele>777.36</ele><time>2010-06-06T14:59:21Z</time></trkpt><trkpt lat="47.584262" lon="9.970882"><ele>774.96</ele><time>2010-06-06T14:59:25Z</time></trkpt><trkpt lat="47.584248" lon="9.970837"><ele>774.96</ele><time>2010-06-06T14:59:26Z</time></trkpt><trkpt lat="47.584223" lon="9.970729"><ele>776.88</ele><time>2010-06-06T14:59:30Z</time></trkpt><trkpt lat="47.584160" lon="9.970645"><ele>778.32</ele><time>2010-06-06T14:59:35Z</time></trkpt><trkpt lat="47.584117" lon="9.970460"><ele>779.29</ele><time>2010-06-06T14:59:45Z</time></trkpt><trkpt lat="47.584097" lon="9.970340"><ele>780.73</ele><time>2010-06-06T14:59:54Z</time></trkpt><trkpt lat="47.584091" lon="9.970302"><ele>780.73</ele><time>2010-06-06T15:00:12Z</time></trkpt><trkpt lat="47.584064" lon="9.970228"><ele>780.25</ele><time>2010-06-06T15:00:16Z</time></trkpt><trkpt lat="47.583881" lon="9.969959"><ele>780.25</ele><time>2010-06-06T15:00:25Z</time></trkpt><trkpt lat="47.583631" lon="9.969592"><ele>780.73</ele><time>2010-06-06T15:00:33Z</time></trkpt><trkpt lat="47.583395" lon="9.969253"><ele>781.69</ele><time>2010-06-06T15:00:44Z</time></trkpt><trkpt lat="47.583062" lon="9.969255"><ele>783.13</ele><time>2010-06-06T15:00:53Z</time></trkpt><trkpt lat="47.583029" lon="9.969241"><ele>782.65</ele><time>2010-06-06T15:00:54Z</time></trkpt><trkpt lat="47.583097" lon="9.968924"><ele>781.69</ele><time>2010-06-06T15:01:03Z</time></trkpt><trkpt lat="47.583371" lon="9.968719"><ele>782.17</ele><time>2010-06-06T15:01:14Z</time></trkpt><trkpt lat="47.583410" lon="9.968643"><ele>782.17</ele><time>2010-06-06T15:01:26Z</time></trkpt><trkpt lat="47.583467" lon="9.968535"><ele>782.17</ele><time>2010-06-06T15:02:14Z</time></trkpt><trkpt lat="47.583496" lon="9.968477"><ele>781.69</ele><time>2010-06-06T15:02:17Z</time></trkpt><trkpt lat="47.583501" lon="9.968459"><ele>781.69</ele><time>2010-06-06T15:02:18Z</time></trkpt><trkpt lat="47.583314" lon="9.968002"><ele>781.69</ele><time>2010-06-06T15:02:28Z</time></trkpt><trkpt lat="47.583219" lon="9.967796"><ele>782.17</ele><time>2010-06-06T15:02:33Z</time></trkpt><trkpt lat="47.583207" lon="9.967622"><ele>781.69</ele><time>2010-06-06T15:02:36Z</time></trkpt><trkpt lat="47.583269" lon="9.967445"><ele>781.69</ele><time>2010-06-06T15:02:40Z</time></trkpt><trkpt lat="47.583377" lon="9.967354"><ele>781.69</ele><time>2010-06-06T15:02:44Z</time></trkpt><trkpt lat="47.583581" lon="9.966983"><ele>780.25</ele><time>2010-06-06T15:02:55Z</time></trkpt><trkpt lat="47.583635" lon="9.966860"><ele>779.77</ele><time>2010-06-06T15:03:04Z</time></trkpt><trkpt lat="47.583662" lon="9.966765"><ele>780.25</ele><time>2010-06-06T15:03:09Z</time></trkpt><trkpt lat="47.583696" lon="9.966668"><ele>780.73</ele><time>2010-06-06T15:03:13Z</time></trkpt><trkpt lat="47.583780" lon="9.966243"><ele>780.73</ele><time>2010-06-06T15:03:24Z</time></trkpt><trkpt lat="47.583755" lon="9.965789"><ele>780.25</ele><time>2010-06-06T15:03:33Z</time></trkpt><trkpt lat="47.583837" lon="9.965217"><ele>780.25</ele><time>2010-06-06T15:03:44Z</time></trkpt><trkpt lat="47.583859" lon="9.965088"><ele>779.77</ele><time>2010-06-06T15:03:46Z</time></trkpt><trkpt lat="47.583860" lon="9.965030"><ele>779.77</ele><time>2010-06-06T15:03:47Z</time></trkpt><trkpt lat="47.583851" lon="9.964976"><ele>779.77</ele><time>2010-06-06T15:03:48Z</time></trkpt><trkpt lat="47.583836" lon="9.964924"><ele>779.77</ele><time>2010-06-06T15:03:49Z</time></trkpt><trkpt lat="47.583818" lon="9.964868"><ele>779.77</ele><time>2010-06-06T15:03:50Z</time></trkpt><trkpt lat="47.583803" lon="9.964799"><ele>779.29</ele><time>2010-06-06T15:03:51Z</time></trkpt><trkpt lat="47.583791" lon="9.964729"><ele>779.29</ele><time>2010-06-06T15:03:52Z</time></trkpt><trkpt lat="47.583792" lon="9.964673"><ele>779.29</ele><time>2010-06-06T15:03:53Z</time></trkpt><trkpt lat="47.583768" lon="9.964290"><ele>779.29</ele><time>2010-06-06T15:04:01Z</time></trkpt><trkpt lat="47.583779" lon="9.964245"><ele>779.29</ele><time>2010-06-06T15:04:02Z</time></trkpt><trkpt lat="47.583791" lon="9.964192"><ele>779.29</ele><time>2010-06-06T15:04:03Z</time></trkpt><trkpt lat="47.583861" lon="9.963963"><ele>778.81</ele><time>2010-06-06T15:04:07Z</time></trkpt><trkpt lat="47.583872" lon="9.963896"><ele>778.81</ele><time>2010-06-06T15:04:08Z</time></trkpt><trkpt lat="47.583877" lon="9.963829"><ele>777.84</ele><time>2010-06-06T15:04:09Z</time></trkpt><trkpt lat="47.583877" lon="9.963762"><ele>778.32</ele><time>2010-06-06T15:04:10Z</time></trkpt><trkpt lat="47.583873" lon="9.963696"><ele>777.84</ele><time>2010-06-06T15:04:11Z</time></trkpt><trkpt lat="47.583869" lon="9.963630"><ele>777.84</ele><time>2010-06-06T15:04:12Z</time></trkpt><trkpt lat="47.583854" lon="9.963502"><ele>777.84</ele><time>2010-06-06T15:04:14Z</time></trkpt><trkpt lat="47.583839" lon="9.963444"><ele>777.84</ele><time>2010-06-06T15:04:15Z</time></trkpt><trkpt lat="47.583819" lon="9.963398"><ele>777.84</ele><time>2010-06-06T15:04:16Z</time></trkpt><trkpt lat="47.583796" lon="9.963372"><ele>778.32</ele><time>2010-06-06T15:04:17Z</time></trkpt><trkpt lat="47.583771" lon="9.963351"><ele>778.81</ele><time>2010-06-06T15:04:18Z</time></trkpt><trkpt lat="47.583747" lon="9.963333"><ele>778.32</ele><time>2010-06-06T15:04:19Z</time></trkpt><trkpt lat="47.583543" lon="9.963215"><ele>778.32</ele><time>2010-06-06T15:04:26Z</time></trkpt><trkpt lat="47.583510" lon="9.963175"><ele>777.84</ele><time>2010-06-06T15:04:27Z</time></trkpt><trkpt lat="47.583489" lon="9.963116"><ele>777.36</ele><time>2010-06-06T15:04:28Z</time></trkpt><trkpt lat="47.583484" lon="9.963041"><ele>777.36</ele><time>2010-06-06T15:04:29Z</time></trkpt><trkpt lat="47.583494" lon="9.962956"><ele>776.40</ele><time>2010-06-06T15:04:30Z</time></trkpt><trkpt lat="47.583514" lon="9.962874"><ele>775.44</ele><time>2010-06-06T15:04:31Z</time></trkpt><trkpt lat="47.583548" lon="9.962794"><ele>774.96</ele><time>2010-06-06T15:04:32Z</time></trkpt><trkpt lat="47.583594" lon="9.962720"><ele>774.96</ele><time>2010-06-06T15:04:33Z</time></trkpt><trkpt lat="47.583644" lon="9.962647"><ele>774.48</ele><time>2010-06-06T15:04:34Z</time></trkpt><trkpt lat="47.583690" lon="9.962569"><ele>774.00</ele><time>2010-06-06T15:04:35Z</time></trkpt><trkpt lat="47.583732" lon="9.962484"><ele>774.00</ele><time>2010-06-06T15:04:36Z</time></trkpt><trkpt lat="47.583949" lon="9.961999"><ele>771.60</ele><time>2010-06-06T15:04:41Z</time></trkpt><trkpt lat="47.583985" lon="9.961885"><ele>770.63</ele><time>2010-06-06T15:04:42Z</time></trkpt><trkpt lat="47.584008" lon="9.961762"><ele>769.19</ele><time>2010-06-06T15:04:43Z</time></trkpt><trkpt lat="47.584017" lon="9.961634"><ele>768.71</ele><time>2010-06-06T15:04:44Z</time></trkpt><trkpt lat="47.584029" lon="9.961510"><ele>768.71</ele><time>2010-06-06T15:04:45Z</time></trkpt><trkpt lat="47.584062" lon="9.961404"><ele>767.75</ele><time>2010-06-06T15:04:46Z</time></trkpt><trkpt lat="47.584113" lon="9.961330"><ele>767.75</ele><time>2010-06-06T15:04:47Z</time></trkpt><trkpt lat="47.584163" lon="9.961284"><ele>768.23</ele><time>2010-06-06T15:04:48Z</time></trkpt><trkpt lat="47.584197" lon="9.961251"><ele>768.23</ele><time>2010-06-06T15:04:49Z</time></trkpt><trkpt lat="47.584212" lon="9.961214"><ele>769.67</ele><time>2010-06-06T15:04:50Z</time></trkpt><trkpt lat="47.584215" lon="9.961177"><ele>769.67</ele><time>2010-06-06T15:04:51Z</time></trkpt><trkpt lat="47.584215" lon="9.961144"><ele>769.67</ele><time>2010-06-06T15:04:52Z</time></trkpt><trkpt lat="47.584206" lon="9.961115"><ele>769.67</ele><time>2010-06-06T15:04:53Z</time></trkpt><trkpt lat="47.584191" lon="9.961094"><ele>770.15</ele><time>2010-06-06T15:04:54Z</time></trkpt><trkpt lat="47.584172" lon="9.961077"><ele>769.67</ele><time>2010-06-06T15:04:55Z</time></trkpt><trkpt lat="47.583768" lon="9.960786"><ele>769.19</ele><time>2010-06-06T15:05:10Z</time></trkpt><trkpt lat="47.583170" lon="9.960382"><ele>772.08</ele><time>2010-06-06T15:05:29Z</time></trkpt><trkpt lat="47.582736" lon="9.960112"><ele>774.00</ele><time>2010-06-06T15:05:45Z</time></trkpt><trkpt lat="47.582446" lon="9.959810"><ele>774.48</ele><time>2010-06-06T15:05:56Z</time></trkpt><trkpt lat="47.582341" lon="9.959188"><ele>776.88</ele><time>2010-06-06T15:06:10Z</time></trkpt><trkpt lat="47.582423" lon="9.958474"><ele>779.29</ele><time>2010-06-06T15:06:27Z</time></trkpt><trkpt lat="47.582593" lon="9.957907"><ele>781.69</ele><time>2010-06-06T15:06:41Z</time></trkpt><trkpt lat="47.582803" lon="9.957367"><ele>784.57</ele><time>2010-06-06T15:06:55Z</time></trkpt><trkpt lat="47.583095" lon="9.956726"><ele>787.94</ele><time>2010-06-06T15:07:13Z</time></trkpt><trkpt lat="47.583143" lon="9.956619"><ele>787.94</ele><time>2010-06-06T15:07:16Z</time></trkpt><trkpt lat="47.583168" lon="9.956592"><ele>787.94</ele><time>2010-06-06T15:07:17Z</time></trkpt><trkpt lat="47.583391" lon="9.956403"><ele>788.42</ele><time>2010-06-06T15:07:25Z</time></trkpt><trkpt lat="47.583427" lon="9.956385"><ele>788.42</ele><time>2010-06-06T15:07:26Z</time></trkpt><trkpt lat="47.583462" lon="9.956373"><ele>788.90</ele><time>2010-06-06T15:07:27Z</time></trkpt><trkpt lat="47.583498" lon="9.956363"><ele>788.42</ele><time>2010-06-06T15:07:28Z</time></trkpt><trkpt lat="47.583535" lon="9.956354"><ele>788.42</ele><time>2010-06-06T15:07:29Z</time></trkpt><trkpt lat="47.583803" lon="9.956219"><ele>787.94</ele><time>2010-06-06T15:07:37Z</time></trkpt><trkpt lat="47.583846" lon="9.956213"><ele>787.94</ele><time>2010-06-06T15:07:38Z</time></trkpt><trkpt lat="47.583890" lon="9.956205"><ele>787.94</ele><time>2010-06-06T15:07:39Z</time></trkpt><trkpt lat="47.583935" lon="9.956198"><ele>787.94</ele><time>2010-06-06T15:07:40Z</time></trkpt><trkpt lat="47.583983" lon="9.956198"><ele>787.94</ele><time>2010-06-06T15:07:41Z</time></trkpt><trkpt lat="47.584765" lon="9.956217"><ele>786.50</ele><time>2010-06-06T15:07:56Z</time></trkpt><trkpt lat="47.585264" lon="9.956116"><ele>787.94</ele><time>2010-06-06T15:08:06Z</time></trkpt><trkpt lat="47.585348" lon="9.956088"><ele>788.42</ele><time>2010-06-06T15:08:08Z</time></trkpt><trkpt lat="47.586085" lon="9.955769"><ele>788.90</ele><time>2010-06-06T15:08:24Z</time></trkpt><trkpt lat="47.586579" lon="9.955218"><ele>788.90</ele><time>2010-06-06T15:08:36Z</time></trkpt><trkpt lat="47.586625" lon="9.955184"><ele>789.38</ele><time>2010-06-06T15:08:37Z</time></trkpt><trkpt lat="47.586809" lon="9.955069"><ele>788.90</ele><time>2010-06-06T15:08:41Z</time></trkpt><trkpt lat="47.587176" lon="9.954728"><ele>788.90</ele><time>2010-06-06T15:08:49Z</time></trkpt><trkpt lat="47.587471" lon="9.954554"><ele>788.90</ele><time>2010-06-06T15:08:56Z</time></trkpt><trkpt lat="47.587513" lon="9.954537"><ele>788.90</ele><time>2010-06-06T15:08:57Z</time></trkpt><trkpt lat="47.587629" lon="9.954488"><ele>788.90</ele><time>2010-06-06T15:09:00Z</time></trkpt><trkpt lat="47.588149" lon="9.954363"><ele>789.38</ele><time>2010-06-06T15:09:15Z</time></trkpt><trkpt lat="47.588177" lon="9.954341"><ele>788.90</ele><time>2010-06-06T15:09:16Z</time></trkpt><trkpt lat="47.588190" lon="9.954301"><ele>788.42</ele><time>2010-06-06T15:09:17Z</time></trkpt><trkpt lat="47.588189" lon="9.954251"><ele>788.90</ele><time>2010-06-06T15:09:18Z</time></trkpt><trkpt lat="47.588178" lon="9.954197"><ele>788.42</ele><time>2010-06-06T15:09:19Z</time></trkpt><trkpt lat="47.588167" lon="9.954133"><ele>788.90</ele><time>2010-06-06T15:09:20Z</time></trkpt><trkpt lat="47.588161" lon="9.954060"><ele>788.42</ele><time>2010-06-06T15:09:21Z</time></trkpt><trkpt lat="47.588160" lon="9.953980"><ele>787.94</ele><time>2010-06-06T15:09:22Z</time></trkpt><trkpt lat="47.588099" lon="9.953249"><ele>784.57</ele><time>2010-06-06T15:09:29Z</time></trkpt><trkpt lat="47.587986" lon="9.952039"><ele>781.69</ele><time>2010-06-06T15:09:39Z</time></trkpt><trkpt lat="47.587917" lon="9.951034"><ele>778.32</ele><time>2010-06-06T15:09:48Z</time></trkpt><trkpt lat="47.587799" lon="9.950173"><ele>775.92</ele><time>2010-06-06T15:09:56Z</time></trkpt><trkpt lat="47.587759" lon="9.950122"><ele>776.40</ele><time>2010-06-06T15:09:57Z</time></trkpt><trkpt lat="47.587716" lon="9.950096"><ele>776.40</ele><time>2010-06-06T15:09:58Z</time></trkpt><trkpt lat="47.587675" lon="9.950076"><ele>776.40</ele><time>2010-06-06T15:09:59Z</time></trkpt><trkpt lat="47.587641" lon="9.950044"><ele>775.92</ele><time>2010-06-06T15:10:00Z</time></trkpt><trkpt lat="47.587617" lon="9.949999"><ele>776.40</ele><time>2010-06-06T15:10:01Z</time></trkpt><trkpt lat="47.587603" lon="9.949945"><ele>776.40</ele><time>2010-06-06T15:10:02Z</time></trkpt><trkpt lat="47.587593" lon="9.949884"><ele>775.92</ele><time>2010-06-06T15:10:03Z</time></trkpt><trkpt lat="47.587533" lon="9.949456"><ele>775.92</ele><time>2010-06-06T15:10:10Z</time></trkpt><trkpt lat="47.587541" lon="9.949396"><ele>775.92</ele><time>2010-06-06T15:10:11Z</time></trkpt><trkpt lat="47.587567" lon="9.949350"><ele>775.44</ele><time>2010-06-06T15:10:12Z</time></trkpt><trkpt lat="47.587604" lon="9.949325"><ele>775.44</ele><time>2010-06-06T15:10:13Z</time></trkpt><trkpt lat="47.587643" lon="9.949312"><ele>775.44</ele><time>2010-06-06T15:10:14Z</time></trkpt><trkpt lat="47.587677" lon="9.949292"><ele>774.96</ele><time>2010-06-06T15:10:15Z</time></trkpt><trkpt lat="47.587705" lon="9.949258"><ele>774.96</ele><time>2010-06-06T15:10:16Z</time></trkpt><trkpt lat="47.587734" lon="9.949217"><ele>774.96</ele><time>2010-06-06T15:10:17Z</time></trkpt><trkpt lat="47.587878" lon="9.948911"><ele>773.52</ele><time>2010-06-06T15:10:28Z</time></trkpt><trkpt lat="47.587876" lon="9.948894"><ele>773.04</ele><time>2010-06-06T15:10:29Z</time></trkpt><trkpt lat="47.587882" lon="9.948855"><ele>773.52</ele><time>2010-06-06T15:10:32Z</time></trkpt><trkpt lat="47.587880" lon="9.948842"><ele>773.52</ele><time>2010-06-06T15:10:33Z</time></trkpt><trkpt lat="47.587875" lon="9.948828"><ele>774.00</ele><time>2010-06-06T15:10:34Z</time></trkpt><trkpt lat="47.587872" lon="9.948809"><ele>773.04</ele><time>2010-06-06T15:10:35Z</time></trkpt><trkpt lat="47.587869" lon="9.948787"><ele>773.52</ele><time>2010-06-06T15:10:36Z</time></trkpt><trkpt lat="47.587867" lon="9.948765"><ele>773.04</ele><time>2010-06-06T15:10:37Z</time></trkpt><trkpt lat="47.587872" lon="9.948719"><ele>772.56</ele><time>2010-06-06T15:10:40Z</time></trkpt><trkpt lat="47.587885" lon="9.948713"><ele>772.56</ele><time>2010-06-06T15:10:41Z</time></trkpt><trkpt lat="47.587898" lon="9.948723"><ele>772.56</ele><time>2010-06-06T15:10:42Z</time></trkpt><trkpt lat="47.587904" lon="9.948747"><ele>772.56</ele><time>2010-06-06T15:10:43Z</time></trkpt><trkpt lat="47.587911" lon="9.948768"><ele>773.04</ele><time>2010-06-06T15:10:44Z</time></trkpt><trkpt lat="47.587943" lon="9.948775"><ele>772.08</ele><time>2010-06-06T15:10:55Z</time></trkpt><trkpt lat="47.587939" lon="9.948776"><ele>773.04</ele><time>2010-06-06T15:12:03Z</time></trkpt><trkpt lat="47.587932" lon="9.948809"><ele>773.04</ele><time>2010-06-06T15:12:10Z</time></trkpt><trkpt lat="47.587917" lon="9.948806"><ele>773.04</ele><time>2010-06-06T15:12:11Z</time></trkpt><trkpt lat="47.587902" lon="9.948794"><ele>773.04</ele><time>2010-06-06T15:12:12Z</time></trkpt><trkpt lat="47.587674" lon="9.948475"><ele>773.04</ele><time>2010-06-06T15:12:23Z</time></trkpt><trkpt lat="47.587642" lon="9.948457"><ele>773.52</ele><time>2010-06-06T15:12:24Z</time></trkpt><trkpt lat="47.587615" lon="9.948463"><ele>773.52</ele><time>2010-06-06T15:12:25Z</time></trkpt><trkpt lat="47.587591" lon="9.948478"><ele>773.52</ele><time>2010-06-06T15:12:26Z</time></trkpt><trkpt lat="47.587571" lon="9.948498"><ele>773.52</ele><time>2010-06-06T15:12:27Z</time></trkpt><trkpt lat="47.587555" lon="9.948522"><ele>773.52</ele><time>2010-06-06T15:12:28Z</time></trkpt><trkpt lat="47.587539" lon="9.948539"><ele>774.00</ele><time>2010-06-06T15:12:29Z</time></trkpt><trkpt lat="47.587525" lon="9.948554"><ele>774.00</ele><time>2010-06-06T15:12:30Z</time></trkpt><trkpt lat="47.587512" lon="9.948564"><ele>773.52</ele><time>2010-06-06T15:12:31Z</time></trkpt><trkpt lat="47.587494" lon="9.948562"><ele>774.00</ele><time>2010-06-06T15:12:32Z</time></trkpt><trkpt lat="47.587507" lon="9.948521"><ele>774.00</ele><time>2010-06-06T15:12:40Z</time></trkpt><trkpt lat="47.587507" lon="9.948521"><ele>770.63</ele><time>2010-06-06T15:12:49Z</time></trkpt></trkseg></trk></gpx>